<?xml version='1.0' encoding='UTF-8'?><gpx version="1.1" creator="JPX - https://github.com/jenetics/jpx" xmlns="http://www.topografix.com/GPX/1/1"><trk><trkseg><trkpt lat="42.2461767" lon="13.9280817"><ele>160.0</ele><time>2026-05-03T11:24:18.713Z</time></trkpt><trkpt lat="42.2460933" lon="13.9281833"><ele>160.0</ele><time>2026-05-03T11:24:20.713Z</time></trkpt><trkpt lat="42.2460483" lon="13.9283067"><ele>160.0</ele><time>2026-05-03T11:24:21.712Z</time></trkpt><trkpt lat="42.2460017" lon="13.9284717"><ele>160.0</ele><time>2026-05-03T11:24:22.713Z</time></trkpt><trkpt lat="42.2459633" lon="13.9286717"><ele>159.66666666666669</ele><time>2026-05-03T11:24:23.713Z</time></trkpt><trkpt lat="42.2459433" lon="13.92892"><ele>159.33333333333334</ele><time>2026-05-03T11:24:24.712Z</time></trkpt><trkpt lat="42.2459283" lon="13.9292017"><ele>159.0</ele><time>2026-05-03T11:24:25.713Z</time></trkpt><trkpt lat="42.2458967" lon="13.9294983"><ele>158.33333333333334</ele><time>2026-05-03T11:24:26.713Z</time></trkpt><trkpt lat="42.24587" lon="13.92979"><ele>157.66666666666669</ele><time>2026-05-03T11:24:27.712Z</time></trkpt><trkpt lat="42.24584" lon="13.93007"><ele>157.0</ele><time>2026-05-03T11:24:28.712Z</time></trkpt><trkpt lat="42.2458117" lon="13.9303317"><ele>156.0</ele><time>2026-05-03T11:24:29.712Z</time></trkpt><trkpt lat="42.2457883" lon="13.9305883"><ele>155.0</ele><time>2026-05-03T11:24:30.712Z</time></trkpt><trkpt lat="42.245765" lon="13.9308367"><ele>154.0</ele><time>2026-05-03T11:24:31.712Z</time></trkpt><trkpt lat="42.2457483" lon="13.9310717"><ele>153.33333333333334</ele><time>2026-05-03T11:24:32.712Z</time></trkpt><trkpt lat="42.2457517" lon="13.9313017"><ele>152.66666666666666</ele><time>2026-05-03T11:24:33.712Z</time></trkpt><trkpt lat="42.2457867" lon="13.931535"><ele>152.0</ele><time>2026-05-03T11:24:34.712Z</time></trkpt><trkpt lat="42.24585" lon="13.9317867"><ele>151.66666666666666</ele><time>2026-05-03T11:24:35.713Z</time></trkpt><trkpt lat="42.245925" lon="13.9320483"><ele>151.33333333333334</ele><time>2026-05-03T11:24:36.713Z</time></trkpt><trkpt lat="42.246" lon="13.9323167"><ele>151.0</ele><time>2026-05-03T11:24:37.713Z</time></trkpt><trkpt lat="42.2460817" lon="13.93259"><ele>150.33333333333334</ele><time>2026-05-03T11:24:38.713Z</time></trkpt><trkpt lat="42.2461533" lon="13.9328517"><ele>149.66666666666666</ele><time>2026-05-03T11:24:39.713Z</time></trkpt><trkpt lat="42.2462033" lon="13.933115"><ele>149.0</ele><time>2026-05-03T11:24:40.712Z</time></trkpt><trkpt lat="42.24624" lon="13.93339"><ele>148.33333333333331</ele><time>2026-05-03T11:24:41.713Z</time></trkpt><trkpt lat="42.24627" lon="13.93367"><ele>147.66666666666666</ele><time>2026-05-03T11:24:42.713Z</time></trkpt><trkpt lat="42.2462933" lon="13.9339583"><ele>147.0</ele><time>2026-05-03T11:24:43.712Z</time></trkpt><trkpt lat="42.24631" lon="13.93424"><ele>147.0</ele><time>2026-05-03T11:24:44.713Z</time></trkpt><trkpt lat="42.2463317" lon="13.9345183"><ele>147.0</ele><time>2026-05-03T11:24:45.712Z</time></trkpt><trkpt lat="42.2463517" lon="13.9347883"><ele>147.0</ele><time>2026-05-03T11:24:46.712Z</time></trkpt><trkpt lat="42.2463667" lon="13.9350617"><ele>147.33333333333334</ele><time>2026-05-03T11:24:47.712Z</time></trkpt><trkpt lat="42.2463783" lon="13.935325"><ele>147.66666666666669</ele><time>2026-05-03T11:24:48.712Z</time></trkpt><trkpt lat="42.2463817" lon="13.9355783"><ele>148.0</ele><time>2026-05-03T11:24:49.712Z</time></trkpt><trkpt lat="42.24637" lon="13.9358183"><ele>149.33333333333334</ele><time>2026-05-03T11:24:50.712Z</time></trkpt><trkpt lat="42.2463433" lon="13.9360433"><ele>150.66666666666666</ele><time>2026-05-03T11:24:51.713Z</time></trkpt><trkpt lat="42.2463067" lon="13.936255"><ele>152.0</ele><time>2026-05-03T11:24:52.713Z</time></trkpt><trkpt lat="42.24626" lon="13.9364467"><ele>152.0</ele><time>2026-05-03T11:24:53.712Z</time></trkpt><trkpt lat="42.2462217" lon="13.9366267"><ele>152.0</ele><time>2026-05-03T11:24:54.713Z</time></trkpt><trkpt lat="42.2462033" lon="13.9367917"><ele>152.0</ele><time>2026-05-03T11:24:55.713Z</time></trkpt><trkpt lat="42.2462233" lon="13.93695"><ele>152.0</ele><time>2026-05-03T11:24:56.712Z</time></trkpt><trkpt lat="42.2462733" lon="13.9371183"><ele>152.5</ele><time>2026-05-03T11:24:57.713Z</time></trkpt><trkpt lat="42.2463567" lon="13.937285"><ele>153.0</ele><time>2026-05-03T11:24:58.712Z</time></trkpt><trkpt lat="42.2464533" lon="13.9374417"><ele>153.5</ele><time>2026-05-03T11:24:59.712Z</time></trkpt><trkpt lat="42.246545" lon="13.9375967"><ele>154.0</ele><time>2026-05-03T11:25:00.713Z</time></trkpt><trkpt lat="42.2466117" lon="13.9377533"><ele>151.75</ele><time>2026-05-03T11:25:01.713Z</time></trkpt><trkpt lat="42.2466467" lon="13.9379233"><ele>149.5</ele><time>2026-05-03T11:25:02.713Z</time></trkpt><trkpt lat="42.2466533" lon="13.93812"><ele>147.25</ele><time>2026-05-03T11:25:03.713Z</time></trkpt><trkpt lat="42.2466467" lon="13.9383283"><ele>145.0</ele><time>2026-05-03T11:25:04.713Z</time></trkpt><trkpt lat="42.2466417" lon="13.9385267"><ele>144.6</ele><time>2026-05-03T11:25:05.713Z</time></trkpt><trkpt lat="42.2466233" lon="13.9387033"><ele>144.2</ele><time>2026-05-03T11:25:06.713Z</time></trkpt><trkpt lat="42.2465867" lon="13.938845"><ele>143.8</ele><time>2026-05-03T11:25:07.712Z</time></trkpt><trkpt lat="42.2465417" lon="13.9389617"><ele>143.4</ele><time>2026-05-03T11:25:08.713Z</time></trkpt><trkpt lat="42.24648" lon="13.9390467"><ele>143.0</ele><time>2026-05-03T11:25:09.713Z</time></trkpt><trkpt lat="42.2464217" lon="13.93911"><ele>143.20000000000002</ele><time>2026-05-03T11:25:10.713Z</time></trkpt><trkpt lat="42.246365" lon="13.9392033"><ele>143.4</ele><time>2026-05-03T11:25:12.713Z</time></trkpt><trkpt lat="42.2463483" lon="13.9393517"><ele>143.60000000000002</ele><time>2026-05-03T11:25:14.712Z</time></trkpt><trkpt lat="42.2463683" lon="13.9394733"><ele>143.8</ele><time>2026-05-03T11:25:15.712Z</time></trkpt><trkpt lat="42.2464133" lon="13.93961"><ele>144.0</ele><time>2026-05-03T11:25:16.713Z</time></trkpt><trkpt lat="42.24647" lon="13.9397733"><ele>144.0</ele><time>2026-05-03T11:25:17.712Z</time></trkpt><trkpt lat="42.24655" lon="13.9399533"><ele>144.0</ele><time>2026-05-03T11:25:18.713Z</time></trkpt><trkpt lat="42.2466217" lon="13.940145"><ele>144.0</ele><time>2026-05-03T11:25:19.712Z</time></trkpt><trkpt lat="42.24668" lon="13.940345"><ele>144.66666666666666</ele><time>2026-05-03T11:25:20.713Z</time></trkpt><trkpt lat="42.2467517" lon="13.9405533"><ele>145.33333333333331</ele><time>2026-05-03T11:25:21.713Z</time></trkpt><trkpt lat="42.2468233" lon="13.9407683"><ele>146.0</ele><time>2026-05-03T11:25:22.713Z</time></trkpt><trkpt lat="42.2468883" lon="13.9409817"><ele>146.0</ele><time>2026-05-03T11:25:23.713Z</time></trkpt><trkpt lat="42.246965" lon="13.9412067"><ele>146.0</ele><time>2026-05-03T11:25:24.712Z</time></trkpt><trkpt lat="42.2470467" lon="13.9414317"><ele>146.0</ele><time>2026-05-03T11:25:25.713Z</time></trkpt><trkpt lat="42.2471117" lon="13.941635"><ele>145.5</ele><time>2026-05-03T11:25:26.713Z</time></trkpt><trkpt lat="42.247165" lon="13.9418233"><ele>145.0</ele><time>2026-05-03T11:25:27.712Z</time></trkpt><trkpt lat="42.24723" lon="13.94201"><ele>144.5</ele><time>2026-05-03T11:25:28.712Z</time></trkpt><trkpt lat="42.2473017" lon="13.942175"><ele>144.0</ele><time>2026-05-03T11:25:29.712Z</time></trkpt><trkpt lat="42.2473583" lon="13.9423133"><ele>143.0</ele><time>2026-05-03T11:25:30.713Z</time></trkpt><trkpt lat="42.247445" lon="13.9424417"><ele>142.0</ele><time>2026-05-03T11:25:31.713Z</time></trkpt><trkpt lat="42.247575" lon="13.9425617"><ele>141.0</ele><time>2026-05-03T11:25:32.712Z</time></trkpt><trkpt lat="42.24771" lon="13.9426533"><ele>140.0</ele><time>2026-05-03T11:25:33.712Z</time></trkpt><trkpt lat="42.24784" lon="13.9427433"><ele>139.5</ele><time>2026-05-03T11:25:34.713Z</time></trkpt><trkpt lat="42.24796" lon="13.94284"><ele>139.0</ele><time>2026-05-03T11:25:35.712Z</time></trkpt><trkpt lat="42.2480567" lon="13.942935"><ele>138.5</ele><time>2026-05-03T11:25:36.713Z</time></trkpt><trkpt lat="42.24814" lon="13.9430167"><ele>138.0</ele><time>2026-05-03T11:25:37.712Z</time></trkpt><trkpt lat="42.24821" lon="13.94311"><ele>137.4</ele><time>2026-05-03T11:25:38.713Z</time></trkpt><trkpt lat="42.2482683" lon="13.943205"><ele>136.8</ele><time>2026-05-03T11:25:39.713Z</time></trkpt><trkpt lat="42.2483117" lon="13.9433233"><ele>136.2</ele><time>2026-05-03T11:25:40.713Z</time></trkpt><trkpt lat="42.24835" lon="13.9434483"><ele>135.6</ele><time>2026-05-03T11:25:41.712Z</time></trkpt><trkpt lat="42.2483783" lon="13.9435867"><ele>135.0</ele><time>2026-05-03T11:25:42.712Z</time></trkpt><trkpt lat="42.2484017" lon="13.9437417"><ele>135.0</ele><time>2026-05-03T11:25:43.712Z</time></trkpt><trkpt lat="42.2484" lon="13.9439167"><ele>135.0</ele><time>2026-05-03T11:25:44.713Z</time></trkpt><trkpt lat="42.248385" lon="13.9441183"><ele>135.0</ele><time>2026-05-03T11:25:45.712Z</time></trkpt><trkpt lat="42.2483667" lon="13.9443433"><ele>135.0</ele><time>2026-05-03T11:25:46.712Z</time></trkpt><trkpt lat="42.248345" lon="13.9445833"><ele>135.0</ele><time>2026-05-03T11:25:47.713Z</time></trkpt><trkpt lat="42.2483283" lon="13.9448317"><ele>135.0</ele><time>2026-05-03T11:25:48.713Z</time></trkpt><trkpt lat="42.2483067" lon="13.94509"><ele>135.0</ele><time>2026-05-03T11:25:49.712Z</time></trkpt><trkpt lat="42.24827" lon="13.9453617"><ele>135.66666666666666</ele><time>2026-05-03T11:25:50.713Z</time></trkpt><trkpt lat="42.24824" lon="13.945625"><ele>136.33333333333331</ele><time>2026-05-03T11:25:51.712Z</time></trkpt><trkpt lat="42.24821" lon="13.9458917"><ele>137.0</ele><time>2026-05-03T11:25:52.713Z</time></trkpt><trkpt lat="42.24819" lon="13.9461433"><ele>137.0</ele><time>2026-05-03T11:25:53.712Z</time></trkpt><trkpt lat="42.2481667" lon="13.9463633"><ele>137.0</ele><time>2026-05-03T11:25:54.713Z</time></trkpt><trkpt lat="42.24815" lon="13.9465633"><ele>137.0</ele><time>2026-05-03T11:25:55.712Z</time></trkpt><trkpt lat="42.24813" lon="13.9467617"><ele>138.0</ele><time>2026-05-03T11:25:56.712Z</time></trkpt><trkpt lat="42.2481117" lon="13.94696"><ele>139.0</ele><time>2026-05-03T11:25:57.712Z</time></trkpt><trkpt lat="42.2480833" lon="13.947165"><ele>140.0</ele><time>2026-05-03T11:25:58.712Z</time></trkpt><trkpt lat="42.2480717" lon="13.9473283"><ele>141.0</ele><time>2026-05-03T11:25:59.713Z</time></trkpt><trkpt lat="42.2480667" lon="13.9475117"><ele>141.5</ele><time>2026-05-03T11:26:00.712Z</time></trkpt><trkpt lat="42.2480733" lon="13.9476817"><ele>142.0</ele><time>2026-05-03T11:26:01.713Z</time></trkpt><trkpt lat="42.24811" lon="13.9478367"><ele>142.5</ele><time>2026-05-03T11:26:02.712Z</time></trkpt><trkpt lat="42.248185" lon="13.9479883"><ele>143.0</ele><time>2026-05-03T11:26:03.713Z</time></trkpt><trkpt lat="42.248295" lon="13.948135"><ele>142.66666666666666</ele><time>2026-05-03T11:26:04.712Z</time></trkpt><trkpt lat="42.2484283" lon="13.9482867"><ele>142.33333333333334</ele><time>2026-05-03T11:26:05.713Z</time></trkpt><trkpt lat="42.2485667" lon="13.948445"><ele>142.0</ele><time>2026-05-03T11:26:06.713Z</time></trkpt><trkpt lat="42.248715" lon="13.9486033"><ele>142.0</ele><time>2026-05-03T11:26:07.712Z</time></trkpt><trkpt lat="42.24886" lon="13.94877"><ele>142.0</ele><time>2026-05-03T11:26:08.713Z</time></trkpt><trkpt lat="42.2490017" lon="13.94894"><ele>142.0</ele><time>2026-05-03T11:26:09.712Z</time></trkpt><trkpt lat="42.2491467" lon="13.949105"><ele>141.33333333333334</ele><time>2026-05-03T11:26:10.713Z</time></trkpt><trkpt lat="42.24929" lon="13.949265"><ele>140.66666666666666</ele><time>2026-05-03T11:26:11.713Z</time></trkpt><trkpt lat="42.24943" lon="13.9494233"><ele>140.0</ele><time>2026-05-03T11:26:12.712Z</time></trkpt><trkpt lat="42.2495683" lon="13.9495883"><ele>140.0</ele><time>2026-05-03T11:26:13.713Z</time></trkpt><trkpt lat="42.24971" lon="13.94975"><ele>140.0</ele><time>2026-05-03T11:26:14.712Z</time></trkpt><trkpt lat="42.2498517" lon="13.949905"><ele>140.0</ele><time>2026-05-03T11:26:15.712Z</time></trkpt><trkpt lat="42.2499983" lon="13.9500667"><ele>139.33333333333331</ele><time>2026-05-03T11:26:16.713Z</time></trkpt><trkpt lat="42.2501417" lon="13.9502283"><ele>138.66666666666666</ele><time>2026-05-03T11:26:17.713Z</time></trkpt><trkpt lat="42.250285" lon="13.9503867"><ele>138.0</ele><time>2026-05-03T11:26:18.713Z</time></trkpt><trkpt lat="42.2504167" lon="13.95053"><ele>138.0</ele><time>2026-05-03T11:26:19.713Z</time></trkpt><trkpt lat="42.2505633" lon="13.9506417"><ele>138.0</ele><time>2026-05-03T11:26:20.712Z</time></trkpt><trkpt lat="42.25069" lon="13.95074"><ele>138.0</ele><time>2026-05-03T11:26:21.713Z</time></trkpt><trkpt lat="42.2507833" lon="13.9508367"><ele>138.0</ele><time>2026-05-03T11:26:22.713Z</time></trkpt><trkpt lat="42.250855" lon="13.9509417"><ele>137.83333333333334</ele><time>2026-05-03T11:26:23.713Z</time></trkpt><trkpt lat="42.2509067" lon="13.951055"><ele>137.66666666666666</ele><time>2026-05-03T11:26:24.713Z</time></trkpt><trkpt lat="42.2509383" lon="13.9511633"><ele>137.5</ele><time>2026-05-03T11:26:25.712Z</time></trkpt><trkpt lat="42.2509517" lon="13.9512767"><ele>137.33333333333331</ele><time>2026-05-03T11:26:26.713Z</time></trkpt><trkpt lat="42.2509483" lon="13.9513767"><ele>137.16666666666666</ele><time>2026-05-03T11:26:27.712Z</time></trkpt><trkpt lat="42.250945" lon="13.9515117"><ele>137.0</ele><time>2026-05-03T11:26:29.712Z</time></trkpt><trkpt lat="42.2510067" lon="13.9516233"><ele>137.0</ele><time>2026-05-03T11:26:32.713Z</time></trkpt><trkpt lat="42.2510733" lon="13.9516517"><ele>137.0</ele><time>2026-05-03T11:26:33.712Z</time></trkpt><trkpt lat="42.2511567" lon="13.95167"><ele>137.0</ele><time>2026-05-03T11:26:34.712Z</time></trkpt><trkpt lat="42.2512517" lon="13.9516817"><ele>137.0</ele><time>2026-05-03T11:26:35.712Z</time></trkpt><trkpt lat="42.251355" lon="13.9516967"><ele>137.0</ele><time>2026-05-03T11:26:36.713Z</time></trkpt><trkpt lat="42.251455" lon="13.9517183"><ele>136.0</ele><time>2026-05-03T11:26:37.713Z</time></trkpt><trkpt lat="42.251565" lon="13.951735"><ele>135.0</ele><time>2026-05-03T11:26:38.713Z</time></trkpt><trkpt lat="42.251655" lon="13.951755"><ele>134.0</ele><time>2026-05-03T11:26:39.713Z</time></trkpt><trkpt lat="42.2517367" lon="13.951775"><ele>133.0</ele><time>2026-05-03T11:26:40.713Z</time></trkpt><trkpt lat="42.2518117" lon="13.951795"><ele>132.0</ele><time>2026-05-03T11:26:41.713Z</time></trkpt><trkpt lat="42.2519267" lon="13.9518167"><ele>132.0</ele><time>2026-05-03T11:26:43.712Z</time></trkpt><trkpt lat="42.2519983" lon="13.9518317"><ele>132.0</ele><time>2026-05-03T11:26:45.712Z</time></trkpt><trkpt lat="42.2520817" lon="13.9518367"><ele>132.0</ele><time>2026-05-03T11:27:48.711Z</time></trkpt><trkpt lat="42.2521917" lon="13.951845"><ele>132.0</ele><time>2026-05-03T11:27:50.712Z</time></trkpt><trkpt lat="42.2522567" lon="13.95185"><ele>132.0</ele><time>2026-05-03T11:27:51.711Z</time></trkpt><trkpt lat="42.2523317" lon="13.9518617"><ele>132.0</ele><time>2026-05-03T11:27:52.711Z</time></trkpt><trkpt lat="42.2524167" lon="13.9518783"><ele>131.4</ele><time>2026-05-03T11:27:53.712Z</time></trkpt><trkpt lat="42.2525067" lon="13.9518967"><ele>130.79999999999998</ele><time>2026-05-03T11:27:54.711Z</time></trkpt><trkpt lat="42.252605" lon="13.9519167"><ele>130.2</ele><time>2026-05-03T11:27:55.712Z</time></trkpt><trkpt lat="42.2527" lon="13.951935"><ele>129.6</ele><time>2026-05-03T11:27:56.711Z</time></trkpt><trkpt lat="42.2527917" lon="13.95195"><ele>129.0</ele><time>2026-05-03T11:27:57.712Z</time></trkpt><trkpt lat="42.2528833" lon="13.9519683"><ele>129.0</ele><time>2026-05-03T11:27:58.711Z</time></trkpt><trkpt lat="42.25297" lon="13.9519767"><ele>129.0</ele><time>2026-05-03T11:27:59.711Z</time></trkpt><trkpt lat="42.2530533" lon="13.9519917"><ele>129.0</ele><time>2026-05-03T11:28:00.711Z</time></trkpt><trkpt lat="42.25313" lon="13.952005"><ele>129.0</ele><time>2026-05-03T11:28:01.712Z</time></trkpt><trkpt lat="42.2531917" lon="13.95203"><ele>129.0</ele><time>2026-05-03T11:28:02.712Z</time></trkpt><trkpt lat="42.253275" lon="13.9521067"><ele>129.0</ele><time>2026-05-03T11:28:04.712Z</time></trkpt><trkpt lat="42.2532717" lon="13.9522383"><ele>129.4</ele><time>2026-05-03T11:28:06.712Z</time></trkpt><trkpt lat="42.2532383" lon="13.9523267"><ele>129.8</ele><time>2026-05-03T11:28:07.712Z</time></trkpt><trkpt lat="42.25319" lon="13.9524217"><ele>130.2</ele><time>2026-05-03T11:28:08.711Z</time></trkpt><trkpt lat="42.2531533" lon="13.9525367"><ele>130.6</ele><time>2026-05-03T11:28:09.712Z</time></trkpt><trkpt lat="42.25314" lon="13.95267"><ele>131.0</ele><time>2026-05-03T11:28:10.712Z</time></trkpt><trkpt lat="42.25314" lon="13.95282"><ele>130.75</ele><time>2026-05-03T11:28:11.711Z</time></trkpt><trkpt lat="42.2531417" lon="13.9529783"><ele>130.5</ele><time>2026-05-03T11:28:12.711Z</time></trkpt><trkpt lat="42.2531417" lon="13.953145"><ele>130.25</ele><time>2026-05-03T11:28:13.711Z</time></trkpt><trkpt lat="42.2531283" lon="13.953315"><ele>130.0</ele><time>2026-05-03T11:28:14.711Z</time></trkpt><trkpt lat="42.2531133" lon="13.9534933"><ele>130.0</ele><time>2026-05-03T11:28:15.711Z</time></trkpt><trkpt lat="42.2530867" lon="13.95367"><ele>130.0</ele><time>2026-05-03T11:28:16.711Z</time></trkpt><trkpt lat="42.25306" lon="13.953855"><ele>130.0</ele><time>2026-05-03T11:28:17.712Z</time></trkpt><trkpt lat="42.25304" lon="13.9540433"><ele>130.0</ele><time>2026-05-03T11:28:18.712Z</time></trkpt><trkpt lat="42.2530217" lon="13.9542483"><ele>129.66666666666669</ele><time>2026-05-03T11:28:19.711Z</time></trkpt><trkpt lat="42.252995" lon="13.95447"><ele>129.33333333333334</ele><time>2026-05-03T11:28:20.712Z</time></trkpt><trkpt lat="42.252945" lon="13.9547017"><ele>129.0</ele><time>2026-05-03T11:28:21.712Z</time></trkpt><trkpt lat="42.2528833" lon="13.954935"><ele>129.0</ele><time>2026-05-03T11:28:22.712Z</time></trkpt><trkpt lat="42.2528183" lon="13.9551617"><ele>129.0</ele><time>2026-05-03T11:28:23.711Z</time></trkpt><trkpt lat="42.2527517" lon="13.9553767"><ele>129.0</ele><time>2026-05-03T11:28:24.712Z</time></trkpt><trkpt lat="42.25268" lon="13.95558"><ele>129.0</ele><time>2026-05-03T11:28:25.711Z</time></trkpt><trkpt lat="42.2526017" lon="13.9557717"><ele>129.0</ele><time>2026-05-03T11:28:26.712Z</time></trkpt><trkpt lat="42.252495" lon="13.955945"><ele>129.0</ele><time>2026-05-03T11:28:27.711Z</time></trkpt><trkpt lat="42.2523617" lon="13.9560983"><ele>129.66666666666666</ele><time>2026-05-03T11:28:28.711Z</time></trkpt><trkpt lat="42.2522167" lon="13.9562417"><ele>130.33333333333331</ele><time>2026-05-03T11:28:29.712Z</time></trkpt><trkpt lat="42.252075" lon="13.95637"><ele>131.0</ele><time>2026-05-03T11:28:30.712Z</time></trkpt><trkpt lat="42.2519333" lon="13.9565117"><ele>131.0</ele><time>2026-05-03T11:28:31.712Z</time></trkpt><trkpt lat="42.2518083" lon="13.9566867"><ele>131.0</ele><time>2026-05-03T11:28:32.712Z</time></trkpt><trkpt lat="42.2516867" lon="13.9568683"><ele>131.0</ele><time>2026-05-03T11:28:33.711Z</time></trkpt><trkpt lat="42.2515717" lon="13.957045"><ele>131.0</ele><time>2026-05-03T11:28:34.711Z</time></trkpt><trkpt lat="42.2514583" lon="13.9572117"><ele>131.0</ele><time>2026-05-03T11:28:35.712Z</time></trkpt><trkpt lat="42.2513533" lon="13.9573717"><ele>131.0</ele><time>2026-05-03T11:28:36.712Z</time></trkpt><trkpt lat="42.2512567" lon="13.95753"><ele>131.8</ele><time>2026-05-03T11:28:37.712Z</time></trkpt><trkpt lat="42.25117" lon="13.9576683"><ele>132.6</ele><time>2026-05-03T11:28:38.712Z</time></trkpt><trkpt lat="42.2510967" lon="13.9577883"><ele>133.4</ele><time>2026-05-03T11:28:39.712Z</time></trkpt><trkpt lat="42.2510367" lon="13.9578867"><ele>134.2</ele><time>2026-05-03T11:28:40.711Z</time></trkpt><trkpt lat="42.2509933" lon="13.9579817"><ele>135.0</ele><time>2026-05-03T11:28:41.711Z</time></trkpt><trkpt lat="42.250985" lon="13.9581"><ele>135.0</ele><time>2026-05-03T11:28:42.712Z</time></trkpt><trkpt lat="42.2510033" lon="13.95824"><ele>135.0</ele><time>2026-05-03T11:28:43.712Z</time></trkpt><trkpt lat="42.251045" lon="13.9584083"><ele>135.0</ele><time>2026-05-03T11:28:44.712Z</time></trkpt><trkpt lat="42.2510817" lon="13.958595"><ele>135.0</ele><time>2026-05-03T11:28:45.712Z</time></trkpt><trkpt lat="42.2510917" lon="13.95878"><ele>136.25</ele><time>2026-05-03T11:28:46.711Z</time></trkpt><trkpt lat="42.251065" lon="13.95896"><ele>137.5</ele><time>2026-05-03T11:28:47.711Z</time></trkpt><trkpt lat="42.2510067" lon="13.9591183"><ele>138.75</ele><time>2026-05-03T11:28:48.712Z</time></trkpt><trkpt lat="42.250945" lon="13.9592567"><ele>140.0</ele><time>2026-05-03T11:28:49.712Z</time></trkpt><trkpt lat="42.2508883" lon="13.95938"><ele>142.0</ele><time>2026-05-03T11:28:50.712Z</time></trkpt><trkpt lat="42.2508417" lon="13.9595"><ele>144.0</ele><time>2026-05-03T11:28:51.711Z</time></trkpt><trkpt lat="42.250805" lon="13.9596083"><ele>146.0</ele><time>2026-05-03T11:28:52.712Z</time></trkpt><trkpt lat="42.2507817" lon="13.959695"><ele>148.0</ele><time>2026-05-03T11:28:53.712Z</time></trkpt><trkpt lat="42.2507417" lon="13.95981"><ele>150.0</ele><time>2026-05-03T11:28:55.712Z</time></trkpt><trkpt lat="42.2508217" lon="13.9597067"><ele>150.0</ele><time>2026-05-03T11:28:59.712Z</time></trkpt><trkpt lat="42.2508517" lon="13.959585"><ele>150.0</ele><time>2026-05-03T11:29:00.711Z</time></trkpt><trkpt lat="42.2508983" lon="13.95944"><ele>150.0</ele><time>2026-05-03T11:29:01.711Z</time></trkpt><trkpt lat="42.2509583" lon="13.9592817"><ele>150.0</ele><time>2026-05-03T11:29:02.711Z</time></trkpt><trkpt lat="42.2510233" lon="13.959125"><ele>147.5</ele><time>2026-05-03T11:29:03.712Z</time></trkpt><trkpt lat="42.2510767" lon="13.9589733"><ele>145.0</ele><time>2026-05-03T11:29:04.712Z</time></trkpt><trkpt lat="42.25111" lon="13.9588233"><ele>142.5</ele><time>2026-05-03T11:29:05.711Z</time></trkpt><trkpt lat="42.25112" lon="13.958675"><ele>140.0</ele><time>2026-05-03T11:29:06.711Z</time></trkpt><trkpt lat="42.2511033" lon="13.958535"><ele>140.0</ele><time>2026-05-03T11:29:07.712Z</time></trkpt><trkpt lat="42.2510717" lon="13.95842"><ele>140.0</ele><time>2026-05-03T11:29:08.711Z</time></trkpt><trkpt lat="42.2510667" lon="13.958305"><ele>140.0</ele><time>2026-05-03T11:29:10.712Z</time></trkpt><trkpt lat="42.2511367" lon="13.9583083"><ele>140.0</ele><time>2026-05-03T11:29:13.711Z</time></trkpt><trkpt lat="42.251245" lon="13.958395"><ele>140.0</ele><time>2026-05-03T11:29:15.711Z</time></trkpt><trkpt lat="42.2513183" lon="13.958455"><ele>140.0</ele><time>2026-05-03T11:29:16.711Z</time></trkpt><trkpt lat="42.251405" lon="13.9585233"><ele>140.0</ele><time>2026-05-03T11:29:17.712Z</time></trkpt><trkpt lat="42.2515033" lon="13.9586167"><ele>140.0</ele><time>2026-05-03T11:29:18.712Z</time></trkpt><trkpt lat="42.2516033" lon="13.958715"><ele>140.0</ele><time>2026-05-03T11:29:19.712Z</time></trkpt><trkpt lat="42.25171" lon="13.9587867"><ele>139.75</ele><time>2026-05-03T11:29:20.712Z</time></trkpt><trkpt lat="42.2518267" lon="13.9588417"><ele>139.5</ele><time>2026-05-03T11:29:21.711Z</time></trkpt><trkpt lat="42.2519483" lon="13.9589067"><ele>139.25</ele><time>2026-05-03T11:29:22.71Z</time></trkpt><trkpt lat="42.2520783" lon="13.9589817"><ele>139.0</ele><time>2026-05-03T11:29:23.711Z</time></trkpt><trkpt lat="42.2521983" lon="13.9590633"><ele>138.5</ele><time>2026-05-03T11:29:24.711Z</time></trkpt><trkpt lat="42.2523217" lon="13.959145"><ele>138.0</ele><time>2026-05-03T11:29:25.71Z</time></trkpt><trkpt lat="42.2524533" lon="13.9592133"><ele>137.5</ele><time>2026-05-03T11:29:26.711Z</time></trkpt><trkpt lat="42.2525733" lon="13.9592733"><ele>137.0</ele><time>2026-05-03T11:29:27.71Z</time></trkpt><trkpt lat="42.25268" lon="13.9593217"><ele>138.0</ele><time>2026-05-03T11:29:28.711Z</time></trkpt><trkpt lat="42.2527817" lon="13.9593517"><ele>139.0</ele><time>2026-05-03T11:29:29.711Z</time></trkpt><trkpt lat="42.2528767" lon="13.9593517"><ele>140.0</ele><time>2026-05-03T11:29:30.711Z</time></trkpt><trkpt lat="42.25299" lon="13.9593367"><ele>141.0</ele><time>2026-05-03T11:29:31.711Z</time></trkpt><trkpt lat="42.253105" lon="13.9593167"><ele>142.0</ele><time>2026-05-03T11:29:32.711Z</time></trkpt><trkpt lat="42.2532233" lon="13.9592867"><ele>142.2</ele><time>2026-05-03T11:29:33.71Z</time></trkpt><trkpt lat="42.2533383" lon="13.9592583"><ele>142.39999999999998</ele><time>2026-05-03T11:29:34.711Z</time></trkpt><trkpt lat="42.25344" lon="13.959225"><ele>142.60000000000002</ele><time>2026-05-03T11:29:35.711Z</time></trkpt><trkpt lat="42.2535367" lon="13.9591883"><ele>142.8</ele><time>2026-05-03T11:29:36.711Z</time></trkpt><trkpt lat="42.253615" lon="13.9591783"><ele>143.0</ele><time>2026-05-03T11:29:37.71Z</time></trkpt><trkpt lat="42.2536783" lon="13.9591867"><ele>143.0</ele><time>2026-05-03T11:29:38.71Z</time></trkpt><trkpt lat="42.25374" lon="13.9592117"><ele>143.0</ele><time>2026-05-03T11:29:39.711Z</time></trkpt><trkpt lat="42.2537983" lon="13.9592533"><ele>143.0</ele><time>2026-05-03T11:29:40.71Z</time></trkpt><trkpt lat="42.2538517" lon="13.9593083"><ele>143.0</ele><time>2026-05-03T11:29:41.711Z</time></trkpt><trkpt lat="42.253905" lon="13.95937"><ele>143.0</ele><time>2026-05-03T11:29:42.71Z</time></trkpt><trkpt lat="42.2539717" lon="13.9594467"><ele>143.0</ele><time>2026-05-03T11:29:43.711Z</time></trkpt><trkpt lat="42.25405" lon="13.9595317"><ele>144.6</ele><time>2026-05-03T11:29:44.71Z</time></trkpt><trkpt lat="42.2541283" lon="13.9596267"><ele>146.20000000000002</ele><time>2026-05-03T11:29:45.711Z</time></trkpt><trkpt lat="42.25421" lon="13.9597267"><ele>147.8</ele><time>2026-05-03T11:29:46.711Z</time></trkpt><trkpt lat="42.2542917" lon="13.959835"><ele>149.4</ele><time>2026-05-03T11:29:47.71Z</time></trkpt><trkpt lat="42.2543767" lon="13.9599467"><ele>151.0</ele><time>2026-05-03T11:29:48.711Z</time></trkpt><trkpt lat="42.254445" lon="13.9600533"><ele>151.0</ele><time>2026-05-03T11:29:49.71Z</time></trkpt><trkpt lat="42.2545067" lon="13.960175"><ele>151.0</ele><time>2026-05-03T11:29:50.711Z</time></trkpt><trkpt lat="42.2545567" lon="13.960305"><ele>151.0</ele><time>2026-05-03T11:29:51.71Z</time></trkpt><trkpt lat="42.2545983" lon="13.9604283"><ele>151.0</ele><time>2026-05-03T11:29:52.71Z</time></trkpt><trkpt lat="42.2546417" lon="13.9605483"><ele>151.0</ele><time>2026-05-03T11:29:53.71Z</time></trkpt><trkpt lat="42.2546967" lon="13.9606583"><ele>151.0</ele><time>2026-05-03T11:29:54.711Z</time></trkpt><trkpt lat="42.2547483" lon="13.9607467"><ele>151.0</ele><time>2026-05-03T11:29:55.711Z</time></trkpt><trkpt lat="42.2548" lon="13.96082"><ele>151.0</ele><time>2026-05-03T11:29:56.711Z</time></trkpt><trkpt lat="42.2548767" lon="13.9609067"><ele>151.0</ele><time>2026-05-03T11:29:58.71Z</time></trkpt><trkpt lat="42.254955" lon="13.9609633"><ele>151.0</ele><time>2026-05-03T11:30:01.71Z</time></trkpt><trkpt lat="42.2550567" lon="13.960975"><ele>151.0</ele><time>2026-05-03T11:31:28.711Z</time></trkpt><trkpt lat="42.25517" lon="13.9609867"><ele>152.57142857142858</ele><time>2026-05-03T11:31:30.71Z</time></trkpt><trkpt lat="42.25524" lon="13.9609867"><ele>154.14285714285714</ele><time>2026-05-03T11:31:31.71Z</time></trkpt><trkpt lat="42.255315" lon="13.96097"><ele>155.71428571428572</ele><time>2026-05-03T11:31:32.71Z</time></trkpt><trkpt lat="42.2553883" lon="13.9609517"><ele>157.28571428571428</ele><time>2026-05-03T11:31:33.711Z</time></trkpt><trkpt lat="42.255465" lon="13.9609233"><ele>158.85714285714286</ele><time>2026-05-03T11:31:34.711Z</time></trkpt><trkpt lat="42.2555333" lon="13.9609067"><ele>160.42857142857144</ele><time>2026-05-03T11:31:35.71Z</time></trkpt><trkpt lat="42.2556017" lon="13.9609"><ele>162.0</ele><time>2026-05-03T11:31:36.711Z</time></trkpt><trkpt lat="42.2556733" lon="13.960915"><ele>164.5</ele><time>2026-05-03T11:31:37.711Z</time></trkpt><trkpt lat="42.2557483" lon="13.9609383"><ele>167.0</ele><time>2026-05-03T11:31:38.71Z</time></trkpt><trkpt lat="42.2558167" lon="13.9609533"><ele>169.5</ele><time>2026-05-03T11:31:39.711Z</time></trkpt><trkpt lat="42.2558883" lon="13.9609517"><ele>172.0</ele><time>2026-05-03T11:31:40.711Z</time></trkpt><trkpt lat="42.2559667" lon="13.9609367"><ele>174.5</ele><time>2026-05-03T11:31:41.71Z</time></trkpt><trkpt lat="42.2560617" lon="13.9609133"><ele>177.0</ele><time>2026-05-03T11:31:42.71Z</time></trkpt><trkpt lat="42.256165" lon="13.9608717"><ele>177.75</ele><time>2026-05-03T11:31:43.71Z</time></trkpt><trkpt lat="42.2562767" lon="13.9608233"><ele>178.5</ele><time>2026-05-03T11:31:44.71Z</time></trkpt><trkpt lat="42.256385" lon="13.9607683"><ele>179.25</ele><time>2026-05-03T11:31:45.711Z</time></trkpt><trkpt lat="42.256495" lon="13.960725"><ele>180.0</ele><time>2026-05-03T11:31:46.711Z</time></trkpt><trkpt lat="42.2566183" lon="13.9606733"><ele>183.2</ele><time>2026-05-03T11:31:47.711Z</time></trkpt><trkpt lat="42.2567483" lon="13.9606233"><ele>186.4</ele><time>2026-05-03T11:31:48.71Z</time></trkpt><trkpt lat="42.2568583" lon="13.9605867"><ele>189.60000000000002</ele><time>2026-05-03T11:31:49.71Z</time></trkpt><trkpt lat="42.2569433" lon="13.9605633"><ele>192.8</ele><time>2026-05-03T11:31:50.71Z</time></trkpt><trkpt lat="42.2570283" lon="13.9605417"><ele>196.0</ele><time>2026-05-03T11:31:52.71Z</time></trkpt><trkpt lat="42.25699" lon="13.960425"><ele>196.0</ele><time>2026-05-03T11:31:59.709Z</time></trkpt><trkpt lat="42.2569533" lon="13.9603367"><ele>196.0</ele><time>2026-05-03T11:32:01.709Z</time></trkpt><trkpt lat="42.256915" lon="13.9602483"><ele>196.0</ele><time>2026-05-03T11:32:03.71Z</time></trkpt><trkpt lat="42.2569033" lon="13.9601633"><ele>196.0</ele><time>2026-05-03T11:32:05.71Z</time></trkpt><trkpt lat="42.2569517" lon="13.960085"><ele>196.0</ele><time>2026-05-03T11:32:08.71Z</time></trkpt><trkpt lat="42.25702" lon="13.9600733"><ele>196.0</ele><time>2026-05-03T11:32:16.709Z</time></trkpt><trkpt lat="42.25707" lon="13.9601567"><ele>196.0</ele><time>2026-05-03T11:32:19.71Z</time></trkpt><trkpt lat="42.2571217" lon="13.9602767"><ele>196.0</ele><time>2026-05-03T11:32:21.71Z</time></trkpt><trkpt lat="42.2571867" lon="13.9604333"><ele>196.0</ele><time>2026-05-03T11:32:23.71Z</time></trkpt><trkpt lat="42.2572233" lon="13.96053"><ele>196.0</ele><time>2026-05-03T11:32:24.709Z</time></trkpt><trkpt lat="42.2572617" lon="13.960645"><ele>196.0</ele><time>2026-05-03T11:32:25.709Z</time></trkpt><trkpt lat="42.257305" lon="13.9607683"><ele>196.0</ele><time>2026-05-03T11:32:26.71Z</time></trkpt><trkpt lat="42.2573517" lon="13.9609"><ele>197.0</ele><time>2026-05-03T11:32:27.71Z</time></trkpt><trkpt lat="42.2574" lon="13.9610383"><ele>198.0</ele><time>2026-05-03T11:32:28.709Z</time></trkpt><trkpt lat="42.257455" lon="13.961185"><ele>199.0</ele><time>2026-05-03T11:32:29.709Z</time></trkpt><trkpt lat="42.2575067" lon="13.9613367"><ele>200.0</ele><time>2026-05-03T11:32:30.71Z</time></trkpt><trkpt lat="42.2575667" lon="13.9614933"><ele>200.0</ele><time>2026-05-03T11:32:31.71Z</time></trkpt><trkpt lat="42.2576267" lon="13.9616517"><ele>200.0</ele><time>2026-05-03T11:32:32.71Z</time></trkpt><trkpt lat="42.257685" lon="13.961805"><ele>200.0</ele><time>2026-05-03T11:32:33.71Z</time></trkpt><trkpt lat="42.2577467" lon="13.961955"><ele>200.0</ele><time>2026-05-03T11:32:34.709Z</time></trkpt><trkpt lat="42.2577983" lon="13.962105"><ele>199.75</ele><time>2026-05-03T11:32:35.709Z</time></trkpt><trkpt lat="42.2578533" lon="13.9622483"><ele>199.5</ele><time>2026-05-03T11:32:36.71Z</time></trkpt><trkpt lat="42.257905" lon="13.9623917"><ele>199.25</ele><time>2026-05-03T11:32:37.71Z</time></trkpt><trkpt lat="42.2579717" lon="13.9625367"><ele>199.0</ele><time>2026-05-03T11:32:38.709Z</time></trkpt><trkpt lat="42.2580283" lon="13.962685"><ele>198.6</ele><time>2026-05-03T11:32:39.709Z</time></trkpt><trkpt lat="42.2580817" lon="13.9628283"><ele>198.2</ele><time>2026-05-03T11:32:40.71Z</time></trkpt><trkpt lat="42.2581367" lon="13.9629633"><ele>197.79999999999998</ele><time>2026-05-03T11:32:41.709Z</time></trkpt><trkpt lat="42.25819" lon="13.9630867"><ele>197.39999999999998</ele><time>2026-05-03T11:32:42.709Z</time></trkpt><trkpt lat="42.2582333" lon="13.96321"><ele>197.0</ele><time>2026-05-03T11:32:43.71Z</time></trkpt><trkpt lat="42.2582783" lon="13.9633233"><ele>198.6</ele><time>2026-05-03T11:32:44.71Z</time></trkpt><trkpt lat="42.25832" lon="13.9634333"><ele>200.2</ele><time>2026-05-03T11:32:45.709Z</time></trkpt><trkpt lat="42.2583717" lon="13.963535"><ele>201.8</ele><time>2026-05-03T11:32:46.709Z</time></trkpt><trkpt lat="42.2584283" lon="13.9636217"><ele>203.4</ele><time>2026-05-03T11:32:47.709Z</time></trkpt><trkpt lat="42.258485" lon="13.9637133"><ele>205.0</ele><time>2026-05-03T11:32:48.71Z</time></trkpt><trkpt lat="42.2585567" lon="13.9638183"><ele>205.0</ele><time>2026-05-03T11:32:49.709Z</time></trkpt><trkpt lat="42.2586267" lon="13.9639467"><ele>205.0</ele><time>2026-05-03T11:32:50.709Z</time></trkpt><trkpt lat="42.2586917" lon="13.964095"><ele>205.0</ele><time>2026-05-03T11:32:51.709Z</time></trkpt><trkpt lat="42.2587633" lon="13.964245"><ele>205.0</ele><time>2026-05-03T11:32:52.71Z</time></trkpt><trkpt lat="42.2588267" lon="13.9643933"><ele>205.25</ele><time>2026-05-03T11:32:53.709Z</time></trkpt><trkpt lat="42.2588933" lon="13.96454"><ele>205.5</ele><time>2026-05-03T11:32:54.709Z</time></trkpt><trkpt lat="42.2589667" lon="13.9646867"><ele>205.75</ele><time>2026-05-03T11:32:55.709Z</time></trkpt><trkpt lat="42.2590383" lon="13.9648367"><ele>206.0</ele><time>2026-05-03T11:32:56.709Z</time></trkpt><trkpt lat="42.2591083" lon="13.9649867"><ele>206.5</ele><time>2026-05-03T11:32:57.71Z</time></trkpt><trkpt lat="42.2591817" lon="13.9651367"><ele>207.0</ele><time>2026-05-03T11:32:58.71Z</time></trkpt><trkpt lat="42.2592517" lon="13.9652817"><ele>207.5</ele><time>2026-05-03T11:32:59.71Z</time></trkpt><trkpt lat="42.259325" lon="13.965425"><ele>208.0</ele><time>2026-05-03T11:33:00.709Z</time></trkpt><trkpt lat="42.2593867" lon="13.96555"><ele>207.99999999999997</ele><time>2026-05-03T11:33:01.709Z</time></trkpt><trkpt lat="42.259445" lon="13.965665"><ele>208.0</ele><time>2026-05-03T11:33:02.71Z</time></trkpt><trkpt lat="42.25949" lon="13.965765"><ele>208.0</ele><time>2026-05-03T11:33:03.71Z</time></trkpt><trkpt lat="42.2595217" lon="13.965855"><ele>208.0</ele><time>2026-05-03T11:33:04.709Z</time></trkpt><trkpt lat="42.2595383" lon="13.9659583"><ele>207.99999999999997</ele><time>2026-05-03T11:33:05.709Z</time></trkpt><trkpt lat="42.2595517" lon="13.9660633"><ele>208.0</ele><time>2026-05-03T11:33:06.71Z</time></trkpt><trkpt lat="42.2595917" lon="13.9661717"><ele>208.33333333333331</ele><time>2026-05-03T11:33:08.709Z</time></trkpt><trkpt lat="42.259575" lon="13.9662667"><ele>208.66666666666666</ele><time>2026-05-03T11:35:55.708Z</time></trkpt><trkpt lat="42.2595617" lon="13.966385"><ele>209.0</ele><time>2026-05-03T11:35:58.708Z</time></trkpt><trkpt lat="42.25958" lon="13.9664783"><ele>209.33333333333331</ele><time>2026-05-03T11:36:00.709Z</time></trkpt><trkpt lat="42.2596033" lon="13.9665883"><ele>209.66666666666666</ele><time>2026-05-03T11:36:02.709Z</time></trkpt><trkpt lat="42.25961" lon="13.966695"><ele>210.0</ele><time>2026-05-03T11:36:04.708Z</time></trkpt><trkpt lat="42.2595867" lon="13.9668"><ele>210.8</ele><time>2026-05-03T11:36:06.709Z</time></trkpt><trkpt lat="42.2595817" lon="13.9669"><ele>211.6</ele><time>2026-05-03T11:36:08.709Z</time></trkpt><trkpt lat="42.2596117" lon="13.96701"><ele>212.39999999999998</ele><time>2026-05-03T11:36:10.709Z</time></trkpt><trkpt lat="42.25965" lon="13.967135"><ele>213.2</ele><time>2026-05-03T11:36:12.709Z</time></trkpt><trkpt lat="42.2596983" lon="13.96729"><ele>214.0</ele><time>2026-05-03T11:36:14.709Z</time></trkpt><trkpt lat="42.2597417" lon="13.96744"><ele>213.0</ele><time>2026-05-03T11:36:16.708Z</time></trkpt><trkpt lat="42.2597833" lon="13.967585"><ele>211.99999999999997</ele><time>2026-05-03T11:36:18.709Z</time></trkpt><trkpt lat="42.2598233" lon="13.9677467"><ele>211.0</ele><time>2026-05-03T11:36:20.709Z</time></trkpt><trkpt lat="42.2598633" lon="13.9678817"><ele>210.0</ele><time>2026-05-03T11:36:22.708Z</time></trkpt><trkpt lat="42.2599067" lon="13.9679983"><ele>209.0</ele><time>2026-05-03T11:36:24.709Z</time></trkpt><trkpt lat="42.2599417" lon="13.96807"><ele>206.66666666666669</ele><time>2026-05-03T11:36:25.708Z</time></trkpt><trkpt lat="42.2599783" lon="13.9681533"><ele>204.33333333333334</ele><time>2026-05-03T11:36:26.709Z</time></trkpt><trkpt lat="42.2600183" lon="13.9682467"><ele>202.0</ele><time>2026-05-03T11:36:27.709Z</time></trkpt><trkpt lat="42.260055" lon="13.9683417"><ele>199.66666666666669</ele><time>2026-05-03T11:36:28.708Z</time></trkpt><trkpt lat="42.26009" lon="13.9684383"><ele>197.33333333333334</ele><time>2026-05-03T11:36:29.709Z</time></trkpt><trkpt lat="42.2601283" lon="13.9685367"><ele>195.0</ele><time>2026-05-03T11:36:30.709Z</time></trkpt><trkpt lat="42.2601717" lon="13.9686317"><ele>194.8</ele><time>2026-05-03T11:36:31.709Z</time></trkpt><trkpt lat="42.260215" lon="13.9687317"><ele>194.6</ele><time>2026-05-03T11:36:32.709Z</time></trkpt><trkpt lat="42.2602583" lon="13.96884"><ele>194.39999999999998</ele><time>2026-05-03T11:36:33.708Z</time></trkpt><trkpt lat="42.260305" lon="13.968955"><ele>194.2</ele><time>2026-05-03T11:36:34.708Z</time></trkpt><trkpt lat="42.2603517" lon="13.9690733"><ele>194.0</ele><time>2026-05-03T11:36:35.709Z</time></trkpt><trkpt lat="42.2603917" lon="13.9691933"><ele>194.6</ele><time>2026-05-03T11:36:36.709Z</time></trkpt><trkpt lat="42.2604333" lon="13.9693217"><ele>195.2</ele><time>2026-05-03T11:36:37.708Z</time></trkpt><trkpt lat="42.2604783" lon="13.9694467"><ele>195.79999999999998</ele><time>2026-05-03T11:36:38.708Z</time></trkpt><trkpt lat="42.2605283" lon="13.9695883"><ele>196.39999999999998</ele><time>2026-05-03T11:36:39.709Z</time></trkpt><trkpt lat="42.26059" lon="13.96973"><ele>197.0</ele><time>2026-05-03T11:36:40.708Z</time></trkpt><trkpt lat="42.2606517" lon="13.96987"><ele>196.75</ele><time>2026-05-03T11:36:41.708Z</time></trkpt><trkpt lat="42.2607067" lon="13.9700167"><ele>196.5</ele><time>2026-05-03T11:36:42.709Z</time></trkpt><trkpt lat="42.260765" lon="13.9701717"><ele>196.25</ele><time>2026-05-03T11:36:43.708Z</time></trkpt><trkpt lat="42.2608233" lon="13.9703183"><ele>196.0</ele><time>2026-05-03T11:36:44.709Z</time></trkpt><trkpt lat="42.26088" lon="13.970465"><ele>196.0</ele><time>2026-05-03T11:36:45.708Z</time></trkpt><trkpt lat="42.260935" lon="13.97061"><ele>196.0</ele><time>2026-05-03T11:36:46.708Z</time></trkpt><trkpt lat="42.2609917" lon="13.9707633"><ele>196.0</ele><time>2026-05-03T11:36:47.709Z</time></trkpt><trkpt lat="42.2610533" lon="13.970915"><ele>196.0</ele><time>2026-05-03T11:36:48.708Z</time></trkpt><trkpt lat="42.2611083" lon="13.9710517"><ele>196.83333333333331</ele><time>2026-05-03T11:36:49.708Z</time></trkpt><trkpt lat="42.2611483" lon="13.9711683"><ele>197.66666666666666</ele><time>2026-05-03T11:36:50.708Z</time></trkpt><trkpt lat="42.261175" lon="13.971265"><ele>198.5</ele><time>2026-05-03T11:36:51.709Z</time></trkpt><trkpt lat="42.2611883" lon="13.97135"><ele>199.33333333333331</ele><time>2026-05-03T11:36:52.708Z</time></trkpt><trkpt lat="42.2612233" lon="13.97148"><ele>200.16666666666666</ele><time>2026-05-03T11:36:54.708Z</time></trkpt><trkpt lat="42.2612617" lon="13.9715667"><ele>201.0</ele><time>2026-05-03T11:36:55.709Z</time></trkpt><trkpt lat="42.2613217" lon="13.9716717"><ele>201.5</ele><time>2026-05-03T11:36:56.708Z</time></trkpt><trkpt lat="42.2613767" lon="13.9717883"><ele>202.0</ele><time>2026-05-03T11:36:57.709Z</time></trkpt><trkpt lat="42.2614233" lon="13.97189"><ele>202.5</ele><time>2026-05-03T11:36:58.708Z</time></trkpt><trkpt lat="42.2614617" lon="13.971985"><ele>203.0</ele><time>2026-05-03T11:36:59.708Z</time></trkpt><trkpt lat="42.2614833" lon="13.9720767"><ele>203.5</ele><time>2026-05-03T11:37:00.709Z</time></trkpt><trkpt lat="42.2615117" lon="13.9721733"><ele>204.0</ele><time>2026-05-03T11:37:01.709Z</time></trkpt><trkpt lat="42.2615433" lon="13.972275"><ele>202.33333333333334</ele><time>2026-05-03T11:37:02.708Z</time></trkpt><trkpt lat="42.2615767" lon="13.972375"><ele>200.66666666666669</ele><time>2026-05-03T11:37:03.708Z</time></trkpt><trkpt lat="42.261615" lon="13.9724733"><ele>199.0</ele><time>2026-05-03T11:37:04.708Z</time></trkpt><trkpt lat="42.2616633" lon="13.9725817"><ele>197.33333333333334</ele><time>2026-05-03T11:37:05.707Z</time></trkpt><trkpt lat="42.26172" lon="13.97269"><ele>195.66666666666669</ele><time>2026-05-03T11:37:06.707Z</time></trkpt><trkpt lat="42.26177" lon="13.972795"><ele>194.0</ele><time>2026-05-03T11:37:07.708Z</time></trkpt><trkpt lat="42.2618117" lon="13.9728983"><ele>193.83333333333334</ele><time>2026-05-03T11:37:08.707Z</time></trkpt><trkpt lat="42.2618483" lon="13.973"><ele>193.66666666666669</ele><time>2026-05-03T11:37:09.708Z</time></trkpt><trkpt lat="42.26188" lon="13.973105"><ele>193.5</ele><time>2026-05-03T11:37:10.707Z</time></trkpt><trkpt lat="42.2619133" lon="13.973205"><ele>193.33333333333331</ele><time>2026-05-03T11:37:11.707Z</time></trkpt><trkpt lat="42.261945" lon="13.973295"><ele>193.16666666666666</ele><time>2026-05-03T11:37:12.707Z</time></trkpt><trkpt lat="42.2619717" lon="13.97338"><ele>193.0</ele><time>2026-05-03T11:37:13.708Z</time></trkpt><trkpt lat="42.2619933" lon="13.9734683"><ele>193.66666666666666</ele><time>2026-05-03T11:37:14.708Z</time></trkpt><trkpt lat="42.2620117" lon="13.9735633"><ele>194.33333333333331</ele><time>2026-05-03T11:37:15.707Z</time></trkpt><trkpt lat="42.26204" lon="13.973655"><ele>195.0</ele><time>2026-05-03T11:37:16.708Z</time></trkpt><trkpt lat="42.26208" lon="13.973755"><ele>195.66666666666669</ele><time>2026-05-03T11:37:17.707Z</time></trkpt><trkpt lat="42.26212" lon="13.973845"><ele>196.33333333333334</ele><time>2026-05-03T11:37:18.708Z</time></trkpt><trkpt lat="42.2621567" lon="13.97393"><ele>197.0</ele><time>2026-05-03T11:37:19.707Z</time></trkpt><trkpt lat="42.2622017" lon="13.9740317"><ele>197.0</ele><time>2026-05-03T11:37:20.708Z</time></trkpt><trkpt lat="42.2622483" lon="13.9741433"><ele>197.0</ele><time>2026-05-03T11:37:21.707Z</time></trkpt><trkpt lat="42.2622867" lon="13.974255"><ele>197.0</ele><time>2026-05-03T11:37:22.707Z</time></trkpt><trkpt lat="42.262325" lon="13.9743667"><ele>197.0</ele><time>2026-05-03T11:37:23.708Z</time></trkpt><trkpt lat="42.262365" lon="13.9744933"><ele>197.0</ele><time>2026-05-03T11:37:24.708Z</time></trkpt><trkpt lat="42.2624" lon="13.97464"><ele>198.0</ele><time>2026-05-03T11:37:25.708Z</time></trkpt><trkpt lat="42.2624317" lon="13.97481"><ele>199.0</ele><time>2026-05-03T11:37:26.707Z</time></trkpt><trkpt lat="42.2624633" lon="13.9750083"><ele>200.0</ele><time>2026-05-03T11:37:27.707Z</time></trkpt><trkpt lat="42.2624967" lon="13.9752167"><ele>201.0</ele><time>2026-05-03T11:37:28.707Z</time></trkpt><trkpt lat="42.2625233" lon="13.975395"><ele>201.0</ele><time>2026-05-03T11:37:29.707Z</time></trkpt><trkpt lat="42.2625433" lon="13.9755433"><ele>201.0</ele><time>2026-05-03T11:37:30.707Z</time></trkpt><trkpt lat="42.2625633" lon="13.975665"><ele>201.0</ele><time>2026-05-03T11:37:31.708Z</time></trkpt><trkpt lat="42.262585" lon="13.9757617"><ele>201.0</ele><time>2026-05-03T11:37:32.707Z</time></trkpt><trkpt lat="42.2625817" lon="13.9759117"><ele>201.0</ele><time>2026-05-03T11:37:34.707Z</time></trkpt><trkpt lat="42.2625267" lon="13.97603"><ele>202.60000000000002</ele><time>2026-05-03T11:37:36.708Z</time></trkpt><trkpt lat="42.2624567" lon="13.9761567"><ele>204.2</ele><time>2026-05-03T11:37:38.708Z</time></trkpt><trkpt lat="42.262435" lon="13.976255"><ele>205.8</ele><time>2026-05-03T11:37:40.707Z</time></trkpt><trkpt lat="42.2624533" lon="13.9763933"><ele>207.39999999999998</ele><time>2026-05-03T11:37:42.707Z</time></trkpt><trkpt lat="42.2624817" lon="13.9765033"><ele>209.0</ele><time>2026-05-03T11:37:43.708Z</time></trkpt><trkpt lat="42.2625167" lon="13.9766333"><ele>210.75</ele><time>2026-05-03T11:37:44.707Z</time></trkpt><trkpt lat="42.2625567" lon="13.9768"><ele>212.5</ele><time>2026-05-03T11:37:45.708Z</time></trkpt><trkpt lat="42.2626083" lon="13.9769917"><ele>214.25</ele><time>2026-05-03T11:37:46.708Z</time></trkpt><trkpt lat="42.2626667" lon="13.9772"><ele>216.0</ele><time>2026-05-03T11:37:47.708Z</time></trkpt><trkpt lat="42.26273" lon="13.977445"><ele>218.66666666666669</ele><time>2026-05-03T11:37:48.708Z</time></trkpt><trkpt lat="42.2627883" lon="13.9777033"><ele>221.33333333333334</ele><time>2026-05-03T11:37:49.707Z</time></trkpt><trkpt lat="42.26284" lon="13.977985"><ele>224.0</ele><time>2026-05-03T11:37:50.707Z</time></trkpt><trkpt lat="42.2628933" lon="13.9782833"><ele>226.0</ele><time>2026-05-03T11:37:51.708Z</time></trkpt><trkpt lat="42.2629417" lon="13.9785767"><ele>228.0</ele><time>2026-05-03T11:37:52.707Z</time></trkpt><trkpt lat="42.2629767" lon="13.9788467"><ele>230.0</ele><time>2026-05-03T11:37:53.707Z</time></trkpt><trkpt lat="42.263" lon="13.97908"><ele>230.25</ele><time>2026-05-03T11:37:54.708Z</time></trkpt><trkpt lat="42.2630033" lon="13.9792833"><ele>230.5</ele><time>2026-05-03T11:37:55.708Z</time></trkpt><trkpt lat="42.2629833" lon="13.9794483"><ele>230.75</ele><time>2026-05-03T11:37:56.708Z</time></trkpt><trkpt lat="42.2629367" lon="13.979585"><ele>231.0</ele><time>2026-05-03T11:37:57.708Z</time></trkpt><trkpt lat="42.2628783" lon="13.9796817"><ele>231.0</ele><time>2026-05-03T11:37:58.708Z</time></trkpt><trkpt lat="42.2628267" lon="13.97975"><ele>231.0</ele><time>2026-05-03T11:37:59.708Z</time></trkpt><trkpt lat="42.2627783" lon="13.97982"><ele>231.0</ele><time>2026-05-03T11:38:00.707Z</time></trkpt><trkpt lat="42.2627283" lon="13.9798833"><ele>231.0</ele><time>2026-05-03T11:38:01.707Z</time></trkpt><trkpt lat="42.262675" lon="13.9799483"><ele>231.0</ele><time>2026-05-03T11:38:02.708Z</time></trkpt><trkpt lat="42.2625967" lon="13.9800117"><ele>231.0</ele><time>2026-05-03T11:38:03.708Z</time></trkpt><trkpt lat="42.2625167" lon="13.98005"><ele>231.0</ele><time>2026-05-03T11:38:04.707Z</time></trkpt><trkpt lat="42.2624283" lon="13.9800633"><ele>231.0</ele><time>2026-05-03T11:38:05.708Z</time></trkpt><trkpt lat="42.2623433" lon="13.9800467"><ele>231.0</ele><time>2026-05-03T11:38:06.707Z</time></trkpt><trkpt lat="42.2622683" lon="13.9800167"><ele>231.0</ele><time>2026-05-03T11:38:07.707Z</time></trkpt><trkpt lat="42.2621883" lon="13.9800133"><ele>231.0</ele><time>2026-05-03T11:38:09.708Z</time></trkpt><trkpt lat="42.2622817" lon="13.9800867"><ele>231.0</ele><time>2026-05-03T11:38:12.707Z</time></trkpt><trkpt lat="42.2623817" lon="13.9800983"><ele>231.0</ele><time>2026-05-03T11:38:13.708Z</time></trkpt><trkpt lat="42.2625117" lon="13.9800883"><ele>231.0</ele><time>2026-05-03T11:38:14.707Z</time></trkpt><trkpt lat="42.2626317" lon="13.980035"><ele>231.0</ele><time>2026-05-03T11:38:15.708Z</time></trkpt><trkpt lat="42.26273" lon="13.9799483"><ele>231.0</ele><time>2026-05-03T11:38:16.708Z</time></trkpt><trkpt lat="42.2628067" lon="13.979845"><ele>231.0</ele><time>2026-05-03T11:38:17.708Z</time></trkpt><trkpt lat="42.2628667" lon="13.9797383"><ele>231.0</ele><time>2026-05-03T11:38:18.708Z</time></trkpt><trkpt lat="42.2629233" lon="13.9796567"><ele>231.0</ele><time>2026-05-03T11:38:19.707Z</time></trkpt><trkpt lat="42.263015" lon="13.979585"><ele>231.0</ele><time>2026-05-03T11:38:21.708Z</time></trkpt><trkpt lat="42.2630983" lon="13.9796267"><ele>231.0</ele><time>2026-05-03T11:38:23.707Z</time></trkpt><trkpt lat="42.2631467" lon="13.979685"><ele>231.0</ele><time>2026-05-03T11:38:24.708Z</time></trkpt><trkpt lat="42.2631933" lon="13.979755"><ele>228.20000000000002</ele><time>2026-05-03T11:38:25.707Z</time></trkpt><trkpt lat="42.263245" lon="13.979835"><ele>225.40000000000003</ele><time>2026-05-03T11:38:26.708Z</time></trkpt><trkpt lat="42.263305" lon="13.9799333"><ele>222.6</ele><time>2026-05-03T11:38:27.708Z</time></trkpt><trkpt lat="42.2633517" lon="13.9800433"><ele>219.8</ele><time>2026-05-03T11:38:28.707Z</time></trkpt><trkpt lat="42.2633867" lon="13.9801667"><ele>217.0</ele><time>2026-05-03T11:38:29.707Z</time></trkpt><trkpt lat="42.2634133" lon="13.9803"><ele>217.0</ele><time>2026-05-03T11:38:30.707Z</time></trkpt><trkpt lat="42.2634183" lon="13.98043"><ele>217.0</ele><time>2026-05-03T11:38:31.708Z</time></trkpt><trkpt lat="42.26341" lon="13.98055"><ele>217.0</ele><time>2026-05-03T11:38:32.708Z</time></trkpt><trkpt lat="42.2633933" lon="13.9806867"><ele>217.0</ele><time>2026-05-03T11:38:33.707Z</time></trkpt><trkpt lat="42.2633733" lon="13.9808117"><ele>217.0</ele><time>2026-05-03T11:38:34.707Z</time></trkpt><trkpt lat="42.2633583" lon="13.98093"><ele>217.2</ele><time>2026-05-03T11:38:35.708Z</time></trkpt><trkpt lat="42.263365" lon="13.98107"><ele>217.39999999999998</ele><time>2026-05-03T11:38:36.708Z</time></trkpt><trkpt lat="42.2633867" lon="13.98119"><ele>217.60000000000002</ele><time>2026-05-03T11:38:37.707Z</time></trkpt><trkpt lat="42.2634483" lon="13.9813183"><ele>217.8</ele><time>2026-05-03T11:38:39.708Z</time></trkpt><trkpt lat="42.263525" lon="13.9813067"><ele>218.0</ele><time>2026-05-03T11:38:44.708Z</time></trkpt><trkpt lat="42.2636117" lon="13.9812367"><ele>218.0</ele><time>2026-05-03T11:38:46.707Z</time></trkpt><trkpt lat="42.2637067" lon="13.9811583"><ele>218.0</ele><time>2026-05-03T11:38:48.707Z</time></trkpt><trkpt lat="42.2638083" lon="13.9810633"><ele>218.0</ele><time>2026-05-03T11:38:50.708Z</time></trkpt><trkpt lat="42.2638617" lon="13.9810167"><ele>218.0</ele><time>2026-05-03T11:38:51.707Z</time></trkpt><trkpt lat="42.2639567" lon="13.98099"><ele>218.0</ele><time>2026-05-03T11:38:53.707Z</time></trkpt><trkpt lat="42.2640367" lon="13.9810567"><ele>215.83333333333334</ele><time>2026-05-03T11:38:55.708Z</time></trkpt><trkpt lat="42.264075" lon="13.9811333"><ele>213.66666666666669</ele><time>2026-05-03T11:38:56.708Z</time></trkpt><trkpt lat="42.2641217" lon="13.981235"><ele>211.5</ele><time>2026-05-03T11:38:57.708Z</time></trkpt><trkpt lat="42.26416" lon="13.98133"><ele>209.33333333333331</ele><time>2026-05-03T11:38:58.708Z</time></trkpt><trkpt lat="42.264205" lon="13.9814133"><ele>207.16666666666666</ele><time>2026-05-03T11:38:59.708Z</time></trkpt><trkpt lat="42.2642567" lon="13.9814783"><ele>205.0</ele><time>2026-05-03T11:39:00.707Z</time></trkpt><trkpt lat="42.2643567" lon="13.9815683"><ele>204.99999999999997</ele><time>2026-05-03T11:39:02.707Z</time></trkpt><trkpt lat="42.26442" lon="13.9815967"><ele>205.0</ele><time>2026-05-03T11:39:03.707Z</time></trkpt><trkpt lat="42.2644833" lon="13.981635"><ele>205.0</ele><time>2026-05-03T11:39:04.707Z</time></trkpt><trkpt lat="42.2645433" lon="13.9816867"><ele>205.0</ele><time>2026-05-03T11:39:05.708Z</time></trkpt><trkpt lat="42.264595" lon="13.98176"><ele>204.99999999999997</ele><time>2026-05-03T11:39:06.708Z</time></trkpt><trkpt lat="42.2646433" lon="13.9818617"><ele>205.0</ele><time>2026-05-03T11:39:07.708Z</time></trkpt><trkpt lat="42.2646817" lon="13.9819717"><ele>205.0</ele><time>2026-05-03T11:39:08.707Z</time></trkpt><trkpt lat="42.2647183" lon="13.9820967"><ele>205.0</ele><time>2026-05-03T11:39:09.708Z</time></trkpt><trkpt lat="42.2647517" lon="13.98224"><ele>205.0</ele><time>2026-05-03T11:39:10.707Z</time></trkpt><trkpt lat="42.26477" lon="13.9823817"><ele>205.0</ele><time>2026-05-03T11:39:11.708Z</time></trkpt><trkpt lat="42.264795" lon="13.98253"><ele>205.0</ele><time>2026-05-03T11:39:12.708Z</time></trkpt><trkpt lat="42.2648167" lon="13.9826667"><ele>201.8</ele><time>2026-05-03T11:39:13.708Z</time></trkpt><trkpt lat="42.26483" lon="13.9827933"><ele>198.6</ele><time>2026-05-03T11:39:14.708Z</time></trkpt><trkpt lat="42.2648433" lon="13.98292"><ele>195.39999999999998</ele><time>2026-05-03T11:39:15.707Z</time></trkpt><trkpt lat="42.2648567" lon="13.9830517"><ele>192.2</ele><time>2026-05-03T11:39:16.707Z</time></trkpt><trkpt lat="42.2648717" lon="13.9831867"><ele>189.0</ele><time>2026-05-03T11:39:17.708Z</time></trkpt><trkpt lat="42.264885" lon="13.98332"><ele>188.33333333333334</ele><time>2026-05-03T11:39:18.707Z</time></trkpt><trkpt lat="42.2649017" lon="13.9834517"><ele>187.66666666666666</ele><time>2026-05-03T11:39:19.707Z</time></trkpt><trkpt lat="42.264905" lon="13.98356"><ele>187.0</ele><time>2026-05-03T11:39:20.708Z</time></trkpt><trkpt lat="42.2649183" lon="13.9836517"><ele>186.33333333333331</ele><time>2026-05-03T11:39:21.707Z</time></trkpt><trkpt lat="42.2649383" lon="13.9837383"><ele>185.66666666666666</ele><time>2026-05-03T11:39:22.708Z</time></trkpt><trkpt lat="42.2649617" lon="13.9838183"><ele>185.0</ele><time>2026-05-03T11:39:23.707Z</time></trkpt><trkpt lat="42.2650233" lon="13.983905"><ele>185.0</ele><time>2026-05-03T11:39:25.708Z</time></trkpt><trkpt lat="42.2651117" lon="13.9838933"><ele>185.0</ele><time>2026-05-03T11:39:27.707Z</time></trkpt><trkpt lat="42.265195" lon="13.9837767"><ele>185.0</ele><time>2026-05-03T11:39:29.708Z</time></trkpt><trkpt lat="42.2652267" lon="13.9836783"><ele>185.0</ele><time>2026-05-03T11:39:30.707Z</time></trkpt><trkpt lat="42.2652467" lon="13.9835583"><ele>185.0</ele><time>2026-05-03T11:39:31.708Z</time></trkpt><trkpt lat="42.26525" lon="13.9834283"><ele>185.8</ele><time>2026-05-03T11:39:32.708Z</time></trkpt><trkpt lat="42.26523" lon="13.98328"><ele>186.6</ele><time>2026-05-03T11:39:33.707Z</time></trkpt><trkpt lat="42.2652083" lon="13.9831267"><ele>187.39999999999998</ele><time>2026-05-03T11:39:34.708Z</time></trkpt><trkpt lat="42.2651933" lon="13.98298"><ele>188.2</ele><time>2026-05-03T11:39:35.708Z</time></trkpt><trkpt lat="42.265205" lon="13.982845"><ele>189.0</ele><time>2026-05-03T11:39:36.706Z</time></trkpt><trkpt lat="42.2652267" lon="13.982715"><ele>189.0</ele><time>2026-05-03T11:39:37.706Z</time></trkpt><trkpt lat="42.2652717" lon="13.98259"><ele>189.0</ele><time>2026-05-03T11:39:38.707Z</time></trkpt><trkpt lat="42.2653133" lon="13.9824767"><ele>189.0</ele><time>2026-05-03T11:39:39.707Z</time></trkpt><trkpt lat="42.2653483" lon="13.9823733"><ele>189.0</ele><time>2026-05-03T11:39:40.707Z</time></trkpt><trkpt lat="42.2653817" lon="13.9822783"><ele>189.0</ele><time>2026-05-03T11:39:41.707Z</time></trkpt><trkpt lat="42.2654167" lon="13.9822"><ele>189.0</ele><time>2026-05-03T11:39:42.706Z</time></trkpt><trkpt lat="42.2654617" lon="13.9821367"><ele>189.0</ele><time>2026-05-03T11:39:43.707Z</time></trkpt><trkpt lat="42.2655583" lon="13.9821283"><ele>189.0</ele><time>2026-05-03T11:39:45.707Z</time></trkpt><trkpt lat="42.2656233" lon="13.9821633"><ele>189.0</ele><time>2026-05-03T11:39:46.706Z</time></trkpt><trkpt lat="42.265685" lon="13.9822267"><ele>189.0</ele><time>2026-05-03T11:39:47.706Z</time></trkpt><trkpt lat="42.2657433" lon="13.9823083"><ele>189.0</ele><time>2026-05-03T11:39:48.707Z</time></trkpt><trkpt lat="42.2658033" lon="13.9823983"><ele>189.0</ele><time>2026-05-03T11:39:49.707Z</time></trkpt><trkpt lat="42.26587" lon="13.9824933"><ele>185.6</ele><time>2026-05-03T11:39:50.706Z</time></trkpt><trkpt lat="42.2659467" lon="13.98259"><ele>182.2</ele><time>2026-05-03T11:39:51.706Z</time></trkpt><trkpt lat="42.2660283" lon="13.98269"><ele>178.79999999999998</ele><time>2026-05-03T11:39:52.706Z</time></trkpt><trkpt lat="42.266115" lon="13.9827783"><ele>175.39999999999998</ele><time>2026-05-03T11:39:53.707Z</time></trkpt><trkpt lat="42.2662217" lon="13.9828483"><ele>172.0</ele><time>2026-05-03T11:39:54.706Z</time></trkpt><trkpt lat="42.2663583" lon="13.9828833"><ele>170.0</ele><time>2026-05-03T11:39:55.707Z</time></trkpt><trkpt lat="42.26649" lon="13.9828883"><ele>168.0</ele><time>2026-05-03T11:39:56.706Z</time></trkpt><trkpt lat="42.2666083" lon="13.982885"><ele>166.0</ele><time>2026-05-03T11:39:57.706Z</time></trkpt><trkpt lat="42.2667017" lon="13.98288"><ele>164.0</ele><time>2026-05-03T11:39:58.707Z</time></trkpt><trkpt lat="42.2667667" lon="13.9829067"><ele>162.0</ele><time>2026-05-03T11:39:59.706Z</time></trkpt><trkpt lat="42.2668517" lon="13.9830117"><ele>162.0</ele><time>2026-05-03T11:40:01.706Z</time></trkpt><trkpt lat="42.2668867" lon="13.9831117"><ele>162.0</ele><time>2026-05-03T11:40:02.706Z</time></trkpt><trkpt lat="42.26691" lon="13.98325"><ele>162.0</ele><time>2026-05-03T11:40:03.707Z</time></trkpt><trkpt lat="42.26692" lon="13.9834167"><ele>162.0</ele><time>2026-05-03T11:40:04.706Z</time></trkpt><trkpt lat="42.266935" lon="13.9836067"><ele>162.66666666666666</ele><time>2026-05-03T11:40:05.706Z</time></trkpt><trkpt lat="42.2669517" lon="13.9838167"><ele>163.33333333333331</ele><time>2026-05-03T11:40:06.707Z</time></trkpt><trkpt lat="42.2669733" lon="13.98404"><ele>164.0</ele><time>2026-05-03T11:40:07.706Z</time></trkpt><trkpt lat="42.2669917" lon="13.984265"><ele>162.33333333333331</ele><time>2026-05-03T11:40:08.707Z</time></trkpt><trkpt lat="42.267025" lon="13.9844983"><ele>160.66666666666666</ele><time>2026-05-03T11:40:09.706Z</time></trkpt><trkpt lat="42.267055" lon="13.9847417"><ele>159.0</ele><time>2026-05-03T11:40:10.706Z</time></trkpt><trkpt lat="42.2670817" lon="13.98499"><ele>157.0</ele><time>2026-05-03T11:40:11.707Z</time></trkpt><trkpt lat="42.2670967" lon="13.98525"><ele>155.0</ele><time>2026-05-03T11:40:12.707Z</time></trkpt><trkpt lat="42.267095" lon="13.98551"><ele>153.0</ele><time>2026-05-03T11:40:13.707Z</time></trkpt><trkpt lat="42.2670883" lon="13.9857717"><ele>151.33333333333334</ele><time>2026-05-03T11:40:14.706Z</time></trkpt><trkpt lat="42.2670683" lon="13.98604"><ele>149.66666666666669</ele><time>2026-05-03T11:40:15.707Z</time></trkpt><trkpt lat="42.26703" lon="13.9863067"><ele>148.0</ele><time>2026-05-03T11:40:16.707Z</time></trkpt><trkpt lat="42.2669767" lon="13.9865767"><ele>146.0</ele><time>2026-05-03T11:40:17.706Z</time></trkpt><trkpt lat="42.2669117" lon="13.9868533"><ele>144.0</ele><time>2026-05-03T11:40:18.707Z</time></trkpt><trkpt lat="42.266855" lon="13.9871267"><ele>142.0</ele><time>2026-05-03T11:40:19.706Z</time></trkpt><trkpt lat="42.2667933" lon="13.9873833"><ele>140.33333333333334</ele><time>2026-05-03T11:40:20.706Z</time></trkpt><trkpt lat="42.2667383" lon="13.9876333"><ele>138.66666666666666</ele><time>2026-05-03T11:40:21.707Z</time></trkpt><trkpt lat="42.266685" lon="13.98787"><ele>137.0</ele><time>2026-05-03T11:40:22.707Z</time></trkpt><trkpt lat="42.2666433" lon="13.988115"><ele>135.33333333333331</ele><time>2026-05-03T11:40:23.706Z</time></trkpt><trkpt lat="42.266595" lon="13.9883483"><ele>133.66666666666666</ele><time>2026-05-03T11:40:24.707Z</time></trkpt><trkpt lat="42.266575" lon="13.9885967"><ele>132.0</ele><time>2026-05-03T11:40:25.707Z</time></trkpt><trkpt lat="42.2665817" lon="13.9888533"><ele>132.0</ele><time>2026-05-03T11:40:26.707Z</time></trkpt><trkpt lat="42.2666167" lon="13.989125"><ele>132.0</ele><time>2026-05-03T11:40:27.706Z</time></trkpt><trkpt lat="42.26665" lon="13.989395"><ele>132.0</ele><time>2026-05-03T11:40:28.707Z</time></trkpt><trkpt lat="42.2666883" lon="13.9896517"><ele>132.0</ele><time>2026-05-03T11:40:29.707Z</time></trkpt><trkpt lat="42.2667317" lon="13.9898933"><ele>132.0</ele><time>2026-05-03T11:40:30.707Z</time></trkpt><trkpt lat="42.2667683" lon="13.9901367"><ele>132.0</ele><time>2026-05-03T11:40:31.707Z</time></trkpt><trkpt lat="42.266805" lon="13.9903783"><ele>131.66666666666666</ele><time>2026-05-03T11:40:32.706Z</time></trkpt><trkpt lat="42.2668367" lon="13.99063"><ele>131.33333333333331</ele><time>2026-05-03T11:40:33.707Z</time></trkpt><trkpt lat="42.2668417" lon="13.99089"><ele>131.0</ele><time>2026-05-03T11:40:34.707Z</time></trkpt><trkpt lat="42.266825" lon="13.991155"><ele>129.0</ele><time>2026-05-03T11:40:35.707Z</time></trkpt><trkpt lat="42.2667933" lon="13.9914283"><ele>127.0</ele><time>2026-05-03T11:40:36.706Z</time></trkpt><trkpt lat="42.2667517" lon="13.991705"><ele>125.0</ele><time>2026-05-03T11:40:37.706Z</time></trkpt><trkpt lat="42.2667067" lon="13.99199"><ele>123.33333333333333</ele><time>2026-05-03T11:40:38.707Z</time></trkpt><trkpt lat="42.2666517" lon="13.9922833"><ele>121.66666666666666</ele><time>2026-05-03T11:40:39.706Z</time></trkpt><trkpt lat="42.2665967" lon="13.9925767"><ele>120.0</ele><time>2026-05-03T11:40:40.706Z</time></trkpt><trkpt lat="42.2665517" lon="13.9928533"><ele>119.33333333333334</ele><time>2026-05-03T11:40:41.706Z</time></trkpt><trkpt lat="42.2664967" lon="13.9931183"><ele>118.66666666666667</ele><time>2026-05-03T11:40:42.707Z</time></trkpt><trkpt lat="42.26646" lon="13.9933683"><ele>118.0</ele><time>2026-05-03T11:40:43.707Z</time></trkpt><trkpt lat="42.266415" lon="13.9936117"><ele>120.0</ele><time>2026-05-03T11:40:44.707Z</time></trkpt><trkpt lat="42.2663817" lon="13.99386"><ele>122.0</ele><time>2026-05-03T11:40:45.707Z</time></trkpt><trkpt lat="42.26634" lon="13.9940983"><ele>124.0</ele><time>2026-05-03T11:40:46.706Z</time></trkpt><trkpt lat="42.2662967" lon="13.99432"><ele>124.0</ele><time>2026-05-03T11:40:47.707Z</time></trkpt><trkpt lat="42.266265" lon="13.994525"><ele>124.0</ele><time>2026-05-03T11:40:48.706Z</time></trkpt><trkpt lat="42.2662233" lon="13.9947067"><ele>124.0</ele><time>2026-05-03T11:40:49.706Z</time></trkpt><trkpt lat="42.2661783" lon="13.994855"><ele>124.0</ele><time>2026-05-03T11:40:50.707Z</time></trkpt><trkpt lat="42.2661167" lon="13.9949817"><ele>123.6</ele><time>2026-05-03T11:40:51.707Z</time></trkpt><trkpt lat="42.2660567" lon="13.99509"><ele>123.2</ele><time>2026-05-03T11:40:52.707Z</time></trkpt><trkpt lat="42.2660083" lon="13.9951867"><ele>122.79999999999998</ele><time>2026-05-03T11:40:53.707Z</time></trkpt><trkpt lat="42.2659917" lon="13.9953"><ele>122.39999999999999</ele><time>2026-05-03T11:40:54.707Z</time></trkpt><trkpt lat="42.2660083" lon="13.9954367"><ele>122.0</ele><time>2026-05-03T11:40:55.707Z</time></trkpt><trkpt lat="42.2660217" lon="13.9956"><ele>122.0</ele><time>2026-05-03T11:40:56.706Z</time></trkpt><trkpt lat="42.26602" lon="13.9957833"><ele>122.0</ele><time>2026-05-03T11:40:57.707Z</time></trkpt><trkpt lat="42.266005" lon="13.9959783"><ele>122.0</ele><time>2026-05-03T11:40:58.706Z</time></trkpt><trkpt lat="42.2659767" lon="13.9961883"><ele>122.0</ele><time>2026-05-03T11:40:59.707Z</time></trkpt><trkpt lat="42.2659383" lon="13.99641"><ele>121.33333333333333</ele><time>2026-05-03T11:41:00.707Z</time></trkpt><trkpt lat="42.2659067" lon="13.9966417"><ele>120.66666666666666</ele><time>2026-05-03T11:41:01.707Z</time></trkpt><trkpt lat="42.26586" lon="13.9968717"><ele>120.0</ele><time>2026-05-03T11:41:02.706Z</time></trkpt><trkpt lat="42.2658167" lon="13.9971083"><ele>120.0</ele><time>2026-05-03T11:41:03.707Z</time></trkpt><trkpt lat="42.2657817" lon="13.9973467"><ele>120.0</ele><time>2026-05-03T11:41:04.706Z</time></trkpt><trkpt lat="42.265735" lon="13.997585"><ele>120.0</ele><time>2026-05-03T11:41:05.707Z</time></trkpt><trkpt lat="42.2656733" lon="13.9978183"><ele>119.0</ele><time>2026-05-03T11:41:06.707Z</time></trkpt><trkpt lat="42.2656117" lon="13.998045"><ele>118.0</ele><time>2026-05-03T11:41:07.706Z</time></trkpt><trkpt lat="42.265525" lon="13.99827"><ele>117.0</ele><time>2026-05-03T11:41:08.707Z</time></trkpt><trkpt lat="42.26542" lon="13.9984833"><ele>117.0</ele><time>2026-05-03T11:41:09.707Z</time></trkpt><trkpt lat="42.2653017" lon="13.998685"><ele>117.0</ele><time>2026-05-03T11:41:10.706Z</time></trkpt><trkpt lat="42.265155" lon="13.9988717"><ele>117.0</ele><time>2026-05-03T11:41:11.706Z</time></trkpt><trkpt lat="42.2649983" lon="13.9990433"><ele>117.33333333333334</ele><time>2026-05-03T11:41:12.707Z</time></trkpt><trkpt lat="42.2648317" lon="13.99922"><ele>117.66666666666667</ele><time>2026-05-03T11:41:13.707Z</time></trkpt><trkpt lat="42.2646517" lon="13.999385"><ele>118.0</ele><time>2026-05-03T11:41:14.707Z</time></trkpt><trkpt lat="42.2644767" lon="13.9995633"><ele>118.0</ele><time>2026-05-03T11:41:15.707Z</time></trkpt><trkpt lat="42.2642983" lon="13.99974"><ele>118.0</ele><time>2026-05-03T11:41:16.707Z</time></trkpt><trkpt lat="42.2641133" lon="13.9999133"><ele>118.0</ele><time>2026-05-03T11:41:17.707Z</time></trkpt><trkpt lat="42.2639417" lon="14.000085"><ele>119.66666666666667</ele><time>2026-05-03T11:41:18.706Z</time></trkpt><trkpt lat="42.2637783" lon="14.00025"><ele>121.33333333333334</ele><time>2026-05-03T11:41:19.707Z</time></trkpt><trkpt lat="42.2636183" lon="14.0004067"><ele>123.0</ele><time>2026-05-03T11:41:20.706Z</time></trkpt><trkpt lat="42.2634767" lon="14.0005733"><ele>123.0</ele><time>2026-05-03T11:41:21.706Z</time></trkpt><trkpt lat="42.263355" lon="14.0007633"><ele>123.0</ele><time>2026-05-03T11:41:22.707Z</time></trkpt><trkpt lat="42.263275" lon="14.0009683"><ele>123.0</ele><time>2026-05-03T11:41:23.707Z</time></trkpt><trkpt lat="42.2632233" lon="14.0011867"><ele>120.66666666666666</ele><time>2026-05-03T11:41:24.706Z</time></trkpt><trkpt lat="42.2631983" lon="14.0014233"><ele>118.33333333333333</ele><time>2026-05-03T11:41:25.706Z</time></trkpt><trkpt lat="42.2632067" lon="14.00165"><ele>116.0</ele><time>2026-05-03T11:41:26.706Z</time></trkpt><trkpt lat="42.2632417" lon="14.0018667"><ele>114.33333333333333</ele><time>2026-05-03T11:41:27.707Z</time></trkpt><trkpt lat="42.2633033" lon="14.0020817"><ele>112.66666666666666</ele><time>2026-05-03T11:41:28.706Z</time></trkpt><trkpt lat="42.263395" lon="14.0022967"><ele>111.0</ele><time>2026-05-03T11:41:29.707Z</time></trkpt><trkpt lat="42.2634967" lon="14.0025033"><ele>110.33333333333334</ele><time>2026-05-03T11:41:30.706Z</time></trkpt><trkpt lat="42.2635917" lon="14.0026983"><ele>109.66666666666667</ele><time>2026-05-03T11:41:31.707Z</time></trkpt><trkpt lat="42.26368" lon="14.0028817"><ele>109.0</ele><time>2026-05-03T11:41:32.707Z</time></trkpt><trkpt lat="42.2637617" lon="14.00306"><ele>109.0</ele><time>2026-05-03T11:41:33.706Z</time></trkpt><trkpt lat="42.2638333" lon="14.0032233"><ele>109.0</ele><time>2026-05-03T11:41:34.706Z</time></trkpt><trkpt lat="42.2638967" lon="14.0033717"><ele>109.0</ele><time>2026-05-03T11:41:35.706Z</time></trkpt><trkpt lat="42.2639467" lon="14.0035"><ele>109.0</ele><time>2026-05-03T11:41:36.706Z</time></trkpt><trkpt lat="42.2639867" lon="14.0036033"><ele>109.0</ele><time>2026-05-03T11:41:37.706Z</time></trkpt><trkpt lat="42.2640033" lon="14.0037217"><ele>109.0</ele><time>2026-05-03T11:41:39.707Z</time></trkpt><trkpt lat="42.263985" lon="14.0038417"><ele>109.0</ele><time>2026-05-03T11:41:42.707Z</time></trkpt><trkpt lat="42.2639667" lon="14.0039517"><ele>109.0</ele><time>2026-05-03T11:41:44.707Z</time></trkpt><trkpt lat="42.264" lon="14.0040683"><ele>109.0</ele><time>2026-05-03T11:41:46.706Z</time></trkpt><trkpt lat="42.264105" lon="14.0041583"><ele>109.2</ele><time>2026-05-03T11:41:48.707Z</time></trkpt><trkpt lat="42.264175" lon="14.0042233"><ele>109.4</ele><time>2026-05-03T11:41:49.706Z</time></trkpt><trkpt lat="42.264245" lon="14.0043167"><ele>109.6</ele><time>2026-05-03T11:41:50.707Z</time></trkpt><trkpt lat="42.2643083" lon="14.0044183"><ele>109.8</ele><time>2026-05-03T11:41:51.707Z</time></trkpt><trkpt lat="42.2643717" lon="14.0045367"><ele>110.0</ele><time>2026-05-03T11:41:52.707Z</time></trkpt><trkpt lat="42.264435" lon="14.00466"><ele>110.0</ele><time>2026-05-03T11:41:53.706Z</time></trkpt><trkpt lat="42.2645083" lon="14.0048067"><ele>110.0</ele><time>2026-05-03T11:41:54.707Z</time></trkpt><trkpt lat="42.26459" lon="14.0049667"><ele>110.0</ele><time>2026-05-03T11:41:55.707Z</time></trkpt><trkpt lat="42.2646717" lon="14.00513"><ele>110.0</ele><time>2026-05-03T11:41:56.707Z</time></trkpt><trkpt lat="42.2647383" lon="14.0052833"><ele>108.75</ele><time>2026-05-03T11:41:57.706Z</time></trkpt><trkpt lat="42.264805" lon="14.0054283"><ele>107.5</ele><time>2026-05-03T11:41:58.707Z</time></trkpt><trkpt lat="42.2648617" lon="14.00557"><ele>106.25</ele><time>2026-05-03T11:41:59.707Z</time></trkpt><trkpt lat="42.2649083" lon="14.0057"><ele>105.0</ele><time>2026-05-03T11:42:00.707Z</time></trkpt><trkpt lat="42.2649617" lon="14.0058133"><ele>104.4</ele><time>2026-05-03T11:42:01.707Z</time></trkpt><trkpt lat="42.26501" lon="14.0059083"><ele>103.8</ele><time>2026-05-03T11:42:02.707Z</time></trkpt><trkpt lat="42.2650517" lon="14.0059983"><ele>103.19999999999999</ele><time>2026-05-03T11:42:03.706Z</time></trkpt><trkpt lat="42.2650917" lon="14.0061017"><ele>102.6</ele><time>2026-05-03T11:42:04.707Z</time></trkpt><trkpt lat="42.2651433" lon="14.0062183"><ele>102.0</ele><time>2026-05-03T11:42:05.707Z</time></trkpt><trkpt lat="42.2651933" lon="14.0063417"><ele>102.0</ele><time>2026-05-03T11:42:06.707Z</time></trkpt><trkpt lat="42.2652417" lon="14.006465"><ele>102.0</ele><time>2026-05-03T11:42:07.706Z</time></trkpt><trkpt lat="42.2652867" lon="14.006575"><ele>102.0</ele><time>2026-05-03T11:42:08.707Z</time></trkpt><trkpt lat="42.265345" lon="14.00669"><ele>102.0</ele><time>2026-05-03T11:42:09.706Z</time></trkpt><trkpt lat="42.265395" lon="14.0068017"><ele>102.0</ele><time>2026-05-03T11:42:10.707Z</time></trkpt><trkpt lat="42.2654417" lon="14.0069083"><ele>102.0</ele><time>2026-05-03T11:42:11.707Z</time></trkpt><trkpt lat="42.2654917" lon="14.00702"><ele>102.0</ele><time>2026-05-03T11:42:12.705Z</time></trkpt><trkpt lat="42.2655417" lon="14.0071333"><ele>102.0</ele><time>2026-05-03T11:42:13.706Z</time></trkpt><trkpt lat="42.2655983" lon="14.0072467"><ele>102.0</ele><time>2026-05-03T11:42:14.705Z</time></trkpt><trkpt lat="42.2656567" lon="14.0073583"><ele>102.0</ele><time>2026-05-03T11:42:15.705Z</time></trkpt><trkpt lat="42.265715" lon="14.00747"><ele>101.8</ele><time>2026-05-03T11:42:16.706Z</time></trkpt><trkpt lat="42.265775" lon="14.0075733"><ele>101.6</ele><time>2026-05-03T11:42:17.705Z</time></trkpt><trkpt lat="42.2658433" lon="14.0076717"><ele>101.39999999999999</ele><time>2026-05-03T11:42:18.706Z</time></trkpt><trkpt lat="42.2659233" lon="14.0077817"><ele>101.19999999999999</ele><time>2026-05-03T11:42:19.705Z</time></trkpt><trkpt lat="42.2660183" lon="14.0078983"><ele>101.0</ele><time>2026-05-03T11:42:20.705Z</time></trkpt><trkpt lat="42.266125" lon="14.00802"><ele>101.0</ele><time>2026-05-03T11:42:21.705Z</time></trkpt><trkpt lat="42.2662433" lon="14.0081417"><ele>101.0</ele><time>2026-05-03T11:42:22.706Z</time></trkpt><trkpt lat="42.2663633" lon="14.0082767"><ele>101.0</ele><time>2026-05-03T11:42:23.705Z</time></trkpt><trkpt lat="42.2664867" lon="14.0084383"><ele>100.33333333333333</ele><time>2026-05-03T11:42:24.705Z</time></trkpt><trkpt lat="42.2665983" lon="14.0086233"><ele>99.66666666666666</ele><time>2026-05-03T11:42:25.706Z</time></trkpt><trkpt lat="42.26669" lon="14.0088117"><ele>99.0</ele><time>2026-05-03T11:42:26.705Z</time></trkpt><trkpt lat="42.2667683" lon="14.009"><ele>98.33333333333334</ele><time>2026-05-03T11:42:27.705Z</time></trkpt><trkpt lat="42.2668517" lon="14.009175"><ele>97.66666666666667</ele><time>2026-05-03T11:42:28.706Z</time></trkpt><trkpt lat="42.2669317" lon="14.00936"><ele>97.0</ele><time>2026-05-03T11:42:29.706Z</time></trkpt><trkpt lat="42.2670183" lon="14.009535"><ele>97.0</ele><time>2026-05-03T11:42:30.705Z</time></trkpt><trkpt lat="42.2671" lon="14.009695"><ele>97.0</ele><time>2026-05-03T11:42:31.705Z</time></trkpt><trkpt lat="42.267165" lon="14.009835"><ele>97.0</ele><time>2026-05-03T11:42:32.705Z</time></trkpt><trkpt lat="42.2672133" lon="14.0099533"><ele>97.0</ele><time>2026-05-03T11:42:33.706Z</time></trkpt><trkpt lat="42.2672383" lon="14.010055"><ele>97.0</ele><time>2026-05-03T11:42:34.706Z</time></trkpt><trkpt lat="42.267245" lon="14.0101583"><ele>97.6</ele><time>2026-05-03T11:42:35.706Z</time></trkpt><trkpt lat="42.2672267" lon="14.0102733"><ele>98.19999999999999</ele><time>2026-05-03T11:42:36.705Z</time></trkpt><trkpt lat="42.2671933" lon="14.0103833"><ele>98.8</ele><time>2026-05-03T11:42:37.706Z</time></trkpt><trkpt lat="42.2671433" lon="14.0104983"><ele>99.4</ele><time>2026-05-03T11:42:38.705Z</time></trkpt><trkpt lat="42.2670717" lon="14.0106017"><ele>100.0</ele><time>2026-05-03T11:42:39.706Z</time></trkpt><trkpt lat="42.2669767" lon="14.010695"><ele>100.0</ele><time>2026-05-03T11:42:40.705Z</time></trkpt><trkpt lat="42.266855" lon="14.0108017"><ele>100.0</ele><time>2026-05-03T11:42:41.705Z</time></trkpt><trkpt lat="42.2667283" lon="14.0109117"><ele>100.0</ele><time>2026-05-03T11:42:42.705Z</time></trkpt><trkpt lat="42.26659" lon="14.0110233"><ele>99.66666666666667</ele><time>2026-05-03T11:42:43.705Z</time></trkpt><trkpt lat="42.2664517" lon="14.0111417"><ele>99.33333333333334</ele><time>2026-05-03T11:42:44.705Z</time></trkpt><trkpt lat="42.2663167" lon="14.01126"><ele>99.0</ele><time>2026-05-03T11:42:45.706Z</time></trkpt><trkpt lat="42.2661717" lon="14.0113817"><ele>99.25</ele><time>2026-05-03T11:42:46.705Z</time></trkpt><trkpt lat="42.2660367" lon="14.0114983"><ele>99.5</ele><time>2026-05-03T11:42:47.706Z</time></trkpt><trkpt lat="42.265915" lon="14.0116033"><ele>99.75</ele><time>2026-05-03T11:42:48.705Z</time></trkpt><trkpt lat="42.2658083" lon="14.0116867"><ele>100.0</ele><time>2026-05-03T11:42:49.705Z</time></trkpt><trkpt lat="42.2657" lon="14.011765"><ele>101.75</ele><time>2026-05-03T11:42:50.705Z</time></trkpt><trkpt lat="42.2655817" lon="14.0118617"><ele>103.5</ele><time>2026-05-03T11:42:51.705Z</time></trkpt><trkpt lat="42.2654567" lon="14.011985"><ele>105.25</ele><time>2026-05-03T11:42:52.706Z</time></trkpt><trkpt lat="42.2653283" lon="14.0120867"><ele>107.0</ele><time>2026-05-03T11:42:53.705Z</time></trkpt><trkpt lat="42.2652117" lon="14.0121917"><ele>107.0</ele><time>2026-05-03T11:42:54.705Z</time></trkpt><trkpt lat="42.26511" lon="14.01229"><ele>107.0</ele><time>2026-05-03T11:42:55.706Z</time></trkpt><trkpt lat="42.2650317" lon="14.0124017"><ele>107.0</ele><time>2026-05-03T11:42:56.705Z</time></trkpt><trkpt lat="42.26497" lon="14.0125367"><ele>107.0</ele><time>2026-05-03T11:42:57.705Z</time></trkpt><trkpt lat="42.264925" lon="14.012695"><ele>104.0</ele><time>2026-05-03T11:42:58.705Z</time></trkpt><trkpt lat="42.2649017" lon="14.0128733"><ele>101.0</ele><time>2026-05-03T11:42:59.705Z</time></trkpt><trkpt lat="42.2649117" lon="14.01305"><ele>98.0</ele><time>2026-05-03T11:43:00.706Z</time></trkpt><trkpt lat="42.2649517" lon="14.0132167"><ele>95.0</ele><time>2026-05-03T11:43:01.705Z</time></trkpt><trkpt lat="42.2650117" lon="14.0133833"><ele>94.0</ele><time>2026-05-03T11:43:02.705Z</time></trkpt><trkpt lat="42.265095" lon="14.013545"><ele>93.0</ele><time>2026-05-03T11:43:03.705Z</time></trkpt><trkpt lat="42.265195" lon="14.013705"><ele>92.0</ele><time>2026-05-03T11:43:04.706Z</time></trkpt><trkpt lat="42.2652833" lon="14.0138583"><ele>91.0</ele><time>2026-05-03T11:43:05.705Z</time></trkpt><trkpt lat="42.2653733" lon="14.0140117"><ele>91.0</ele><time>2026-05-03T11:43:06.706Z</time></trkpt><trkpt lat="42.26547" lon="14.01417"><ele>91.0</ele><time>2026-05-03T11:43:07.706Z</time></trkpt><trkpt lat="42.26556" lon="14.0143217"><ele>91.0</ele><time>2026-05-03T11:43:08.706Z</time></trkpt><trkpt lat="42.265645" lon="14.01446"><ele>91.0</ele><time>2026-05-03T11:43:09.706Z</time></trkpt><trkpt lat="42.2657317" lon="14.0145867"><ele>90.5</ele><time>2026-05-03T11:43:10.706Z</time></trkpt><trkpt lat="42.2658083" lon="14.0147233"><ele>90.0</ele><time>2026-05-03T11:43:11.705Z</time></trkpt><trkpt lat="42.2658783" lon="14.0148683"><ele>89.5</ele><time>2026-05-03T11:43:12.705Z</time></trkpt><trkpt lat="42.2659567" lon="14.0150017"><ele>89.0</ele><time>2026-05-03T11:43:13.706Z</time></trkpt><trkpt lat="42.2660217" lon="14.0151133"><ele>89.0</ele><time>2026-05-03T11:43:14.706Z</time></trkpt><trkpt lat="42.266075" lon="14.0152167"><ele>89.0</ele><time>2026-05-03T11:43:15.706Z</time></trkpt><trkpt lat="42.26613" lon="14.015305"><ele>89.0</ele><time>2026-05-03T11:43:16.705Z</time></trkpt><trkpt lat="42.2661733" lon="14.0153783"><ele>89.0</ele><time>2026-05-03T11:43:17.705Z</time></trkpt><trkpt lat="42.266225" lon="14.015475"><ele>89.0</ele><time>2026-05-03T11:43:19.706Z</time></trkpt><trkpt lat="42.2662217" lon="14.015365"><ele>89.0</ele><time>2026-05-03T11:43:30.706Z</time></trkpt><trkpt lat="42.26625" lon="14.0152383"><ele>89.0</ele><time>2026-05-03T11:43:33.706Z</time></trkpt><trkpt lat="42.26632" lon="14.0151733"><ele>89.0</ele><time>2026-05-03T11:43:35.706Z</time></trkpt><trkpt lat="42.2663883" lon="14.0151233"><ele>89.0</ele><time>2026-05-03T11:43:37.706Z</time></trkpt><trkpt lat="42.2664433" lon="14.0150683"><ele>89.0</ele><time>2026-05-03T11:43:39.706Z</time></trkpt><trkpt lat="42.2665033" lon="14.0150117"><ele>89.0</ele><time>2026-05-03T11:43:41.705Z</time></trkpt><trkpt lat="42.2665733" lon="14.0149233"><ele>89.0</ele><time>2026-05-03T11:43:43.706Z</time></trkpt><trkpt lat="42.2666233" lon="14.0148583"><ele>89.0</ele><time>2026-05-03T11:43:45.706Z</time></trkpt><trkpt lat="42.26671" lon="14.014765"><ele>89.0</ele><time>2026-05-03T11:43:47.706Z</time></trkpt><trkpt lat="42.2666467" lon="14.0147867"><ele>89.0</ele><time>2026-05-03T11:43:54.705Z</time></trkpt><trkpt lat="42.2666" lon="14.014865"><ele>89.0</ele><time>2026-05-03T11:54:02.702Z</time></trkpt><trkpt lat="42.2665433" lon="14.014945"><ele>89.0</ele><time>2026-05-03T11:54:04.702Z</time></trkpt><trkpt lat="42.2664717" lon="14.01503"><ele>89.0</ele><time>2026-05-03T11:54:06.701Z</time></trkpt><trkpt lat="42.2663683" lon="14.0151383"><ele>89.0</ele><time>2026-05-03T11:54:08.702Z</time></trkpt><trkpt lat="42.2663117" lon="14.0151933"><ele>89.0</ele><time>2026-05-03T11:54:09.701Z</time></trkpt><trkpt lat="42.26626" lon="14.0152517"><ele>89.0</ele><time>2026-05-03T11:54:10.701Z</time></trkpt><trkpt lat="42.2662" lon="14.0153033"><ele>89.0</ele><time>2026-05-03T11:54:12.701Z</time></trkpt><trkpt lat="42.26619" lon="14.0154117"><ele>89.0</ele><time>2026-05-03T11:54:15.701Z</time></trkpt><trkpt lat="42.2662667" lon="14.01556"><ele>89.0</ele><time>2026-05-03T11:54:17.701Z</time></trkpt><trkpt lat="42.2663283" lon="14.0156517"><ele>89.0</ele><time>2026-05-03T11:54:18.701Z</time></trkpt><trkpt lat="42.2663967" lon="14.0157533"><ele>89.0</ele><time>2026-05-03T11:54:19.702Z</time></trkpt><trkpt lat="42.26647" lon="14.0158833"><ele>89.0</ele><time>2026-05-03T11:54:20.702Z</time></trkpt><trkpt lat="42.26655" lon="14.016015"><ele>89.0</ele><time>2026-05-03T11:54:21.702Z</time></trkpt><trkpt lat="42.2666317" lon="14.0161533"><ele>88.75</ele><time>2026-05-03T11:54:22.701Z</time></trkpt><trkpt lat="42.2667133" lon="14.0163017"><ele>88.5</ele><time>2026-05-03T11:54:23.701Z</time></trkpt><trkpt lat="42.2667967" lon="14.0164467"><ele>88.25</ele><time>2026-05-03T11:54:24.702Z</time></trkpt><trkpt lat="42.266885" lon="14.0165967"><ele>88.0</ele><time>2026-05-03T11:54:25.701Z</time></trkpt><trkpt lat="42.2669783" lon="14.0167517"><ele>87.75</ele><time>2026-05-03T11:54:26.702Z</time></trkpt><trkpt lat="42.267065" lon="14.0169083"><ele>87.5</ele><time>2026-05-03T11:54:27.702Z</time></trkpt><trkpt lat="42.2671583" lon="14.01706"><ele>87.25</ele><time>2026-05-03T11:54:28.702Z</time></trkpt><trkpt lat="42.2672333" lon="14.017195"><ele>87.0</ele><time>2026-05-03T11:54:29.702Z</time></trkpt><trkpt lat="42.267305" lon="14.01731"><ele>87.0</ele><time>2026-05-03T11:54:30.701Z</time></trkpt><trkpt lat="42.2673683" lon="14.0174283"><ele>87.0</ele><time>2026-05-03T11:54:31.702Z</time></trkpt><trkpt lat="42.2674367" lon="14.01754"><ele>87.0</ele><time>2026-05-03T11:54:32.701Z</time></trkpt><trkpt lat="42.2675133" lon="14.0176617"><ele>87.0</ele><time>2026-05-03T11:54:33.702Z</time></trkpt><trkpt lat="42.2675883" lon="14.0177867"><ele>87.5</ele><time>2026-05-03T11:54:34.702Z</time></trkpt><trkpt lat="42.2676667" lon="14.0178967"><ele>88.0</ele><time>2026-05-03T11:54:35.701Z</time></trkpt><trkpt lat="42.2677533" lon="14.01799"><ele>88.5</ele><time>2026-05-03T11:54:36.702Z</time></trkpt><trkpt lat="42.2678517" lon="14.0180583"><ele>89.0</ele><time>2026-05-03T11:54:37.702Z</time></trkpt><trkpt lat="42.2679733" lon="14.0181167"><ele>88.33333333333334</ele><time>2026-05-03T11:54:38.701Z</time></trkpt><trkpt lat="42.26812" lon="14.01817"><ele>87.66666666666667</ele><time>2026-05-03T11:54:39.702Z</time></trkpt><trkpt lat="42.2682683" lon="14.0182117"><ele>87.0</ele><time>2026-05-03T11:54:40.702Z</time></trkpt><trkpt lat="42.2684233" lon="14.0182517"><ele>87.0</ele><time>2026-05-03T11:54:41.701Z</time></trkpt><trkpt lat="42.2685683" lon="14.0182867"><ele>87.0</ele><time>2026-05-03T11:54:42.702Z</time></trkpt><trkpt lat="42.2686933" lon="14.0183167"><ele>87.0</ele><time>2026-05-03T11:54:43.702Z</time></trkpt><trkpt lat="42.2688017" lon="14.01834"><ele>87.0</ele><time>2026-05-03T11:54:44.702Z</time></trkpt><trkpt lat="42.2688983" lon="14.0183617"><ele>88.0</ele><time>2026-05-03T11:54:45.702Z</time></trkpt><trkpt lat="42.2689933" lon="14.0183883"><ele>89.0</ele><time>2026-05-03T11:54:46.702Z</time></trkpt><trkpt lat="42.26909" lon="14.018405"><ele>90.0</ele><time>2026-05-03T11:54:47.702Z</time></trkpt><trkpt lat="42.269195" lon="14.018435"><ele>91.0</ele><time>2026-05-03T11:54:48.702Z</time></trkpt><trkpt lat="42.2692917" lon="14.018465"><ele>92.0</ele><time>2026-05-03T11:54:49.701Z</time></trkpt><trkpt lat="42.269385" lon="14.0184917"><ele>92.0</ele><time>2026-05-03T11:54:50.701Z</time></trkpt><trkpt lat="42.2694733" lon="14.018525"><ele>92.0</ele><time>2026-05-03T11:54:51.701Z</time></trkpt><trkpt lat="42.2695733" lon="14.0185667"><ele>92.0</ele><time>2026-05-03T11:54:52.7Z</time></trkpt><trkpt lat="42.2696683" lon="14.0186117"><ele>92.0</ele><time>2026-05-03T11:54:53.701Z</time></trkpt><trkpt lat="42.2697583" lon="14.0186583"><ele>92.0</ele><time>2026-05-03T11:54:54.701Z</time></trkpt><trkpt lat="42.2698317" lon="14.0187017"><ele>92.0</ele><time>2026-05-03T11:54:55.7Z</time></trkpt><trkpt lat="42.2699" lon="14.0187433"><ele>92.0</ele><time>2026-05-03T11:54:56.7Z</time></trkpt><trkpt lat="42.269975" lon="14.01879"><ele>92.0</ele><time>2026-05-03T11:54:57.7Z</time></trkpt><trkpt lat="42.27006" lon="14.01885"><ele>92.0</ele><time>2026-05-03T11:54:58.7Z</time></trkpt><trkpt lat="42.2701533" lon="14.0189133"><ele>92.0</ele><time>2026-05-03T11:54:59.701Z</time></trkpt><trkpt lat="42.270245" lon="14.0189833"><ele>92.0</ele><time>2026-05-03T11:55:00.7Z</time></trkpt><trkpt lat="42.270335" lon="14.01904"><ele>92.0</ele><time>2026-05-03T11:55:01.701Z</time></trkpt><trkpt lat="42.2704133" lon="14.0190867"><ele>92.0</ele><time>2026-05-03T11:55:02.701Z</time></trkpt><trkpt lat="42.270485" lon="14.0191367"><ele>92.0</ele><time>2026-05-03T11:55:03.701Z</time></trkpt><trkpt lat="42.2705633" lon="14.0191917"><ele>92.0</ele><time>2026-05-03T11:55:04.7Z</time></trkpt><trkpt lat="42.2706483" lon="14.019245"><ele>92.0</ele><time>2026-05-03T11:55:05.7Z</time></trkpt><trkpt lat="42.27073" lon="14.0192967"><ele>93.39999999999999</ele><time>2026-05-03T11:55:06.701Z</time></trkpt><trkpt lat="42.2708" lon="14.0193383"><ele>94.8</ele><time>2026-05-03T11:55:07.701Z</time></trkpt><trkpt lat="42.2708867" lon="14.0194233"><ele>96.2</ele><time>2026-05-03T11:55:09.701Z</time></trkpt><trkpt lat="42.2709" lon="14.01954"><ele>97.6</ele><time>2026-05-03T11:55:11.701Z</time></trkpt><trkpt lat="42.27085" lon="14.01969"><ele>99.0</ele><time>2026-05-03T11:55:13.7Z</time></trkpt><trkpt lat="42.270775" lon="14.0198133"><ele>99.0</ele><time>2026-05-03T11:55:15.701Z</time></trkpt><trkpt lat="42.2707133" lon="14.01985"><ele>99.0</ele><time>2026-05-03T11:55:16.7Z</time></trkpt><trkpt lat="42.270645" lon="14.0198617"><ele>99.0</ele><time>2026-05-03T11:55:17.701Z</time></trkpt><trkpt lat="42.2705683" lon="14.0198533"><ele>99.0</ele><time>2026-05-03T11:55:18.7Z</time></trkpt><trkpt lat="42.2704817" lon="14.01983"><ele>99.0</ele><time>2026-05-03T11:55:19.7Z</time></trkpt><trkpt lat="42.2704" lon="14.019805"><ele>99.0</ele><time>2026-05-03T11:55:20.7Z</time></trkpt><trkpt lat="42.2703233" lon="14.0197767"><ele>99.5</ele><time>2026-05-03T11:55:21.7Z</time></trkpt><trkpt lat="42.2702517" lon="14.01974"><ele>100.0</ele><time>2026-05-03T11:55:22.7Z</time></trkpt><trkpt lat="42.27017" lon="14.019705"><ele>100.5</ele><time>2026-05-03T11:55:23.701Z</time></trkpt><trkpt lat="42.2700917" lon="14.0196617"><ele>101.0</ele><time>2026-05-03T11:55:24.7Z</time></trkpt><trkpt lat="42.2700133" lon="14.0196183"><ele>101.5</ele><time>2026-05-03T11:55:25.701Z</time></trkpt><trkpt lat="42.2699383" lon="14.0195767"><ele>102.0</ele><time>2026-05-03T11:55:26.701Z</time></trkpt><trkpt lat="42.2698533" lon="14.0195433"><ele>102.66666666666667</ele><time>2026-05-03T11:55:27.7Z</time></trkpt><trkpt lat="42.26976" lon="14.0195133"><ele>103.33333333333334</ele><time>2026-05-03T11:55:28.701Z</time></trkpt><trkpt lat="42.2696667" lon="14.019495"><ele>104.0</ele><time>2026-05-03T11:55:29.701Z</time></trkpt><trkpt lat="42.2695733" lon="14.0194817"><ele>104.66666666666667</ele><time>2026-05-03T11:55:30.701Z</time></trkpt><trkpt lat="42.26949" lon="14.0194783"><ele>105.33333333333334</ele><time>2026-05-03T11:55:31.701Z</time></trkpt><trkpt lat="42.26941" lon="14.0194817"><ele>106.0</ele><time>2026-05-03T11:55:32.701Z</time></trkpt><trkpt lat="42.2693333" lon="14.0194933"><ele>106.00000000000001</ele><time>2026-05-03T11:55:33.701Z</time></trkpt><trkpt lat="42.269255" lon="14.0195117"><ele>106.0</ele><time>2026-05-03T11:55:34.701Z</time></trkpt><trkpt lat="42.269175" lon="14.0195317"><ele>106.0</ele><time>2026-05-03T11:55:35.7Z</time></trkpt><trkpt lat="42.2690983" lon="14.01956"><ele>106.0</ele><time>2026-05-03T11:55:36.7Z</time></trkpt><trkpt lat="42.2690417" lon="14.0196117"><ele>106.00000000000001</ele><time>2026-05-03T11:55:37.7Z</time></trkpt><trkpt lat="42.2689683" lon="14.0197317"><ele>106.0</ele><time>2026-05-03T11:55:39.7Z</time></trkpt><trkpt lat="42.2689683" lon="14.019875"><ele>108.16666666666667</ele><time>2026-05-03T11:55:41.701Z</time></trkpt><trkpt lat="42.269005" lon="14.01999"><ele>110.33333333333334</ele><time>2026-05-03T11:55:43.7Z</time></trkpt><trkpt lat="42.26903" lon="14.020085"><ele>112.5</ele><time>2026-05-03T11:55:45.701Z</time></trkpt><trkpt lat="42.2690583" lon="14.0201833"><ele>114.66666666666666</ele><time>2026-05-03T11:55:47.7Z</time></trkpt><trkpt lat="42.2690883" lon="14.0202583"><ele>116.83333333333333</ele><time>2026-05-03T11:57:02.7Z</time></trkpt><trkpt lat="42.2691167" lon="14.02035"><ele>119.0</ele><time>2026-05-03T11:57:06.7Z</time></trkpt><trkpt lat="42.26913" lon="14.020445"><ele>119.0</ele><time>2026-05-03T11:57:08.701Z</time></trkpt><trkpt lat="42.2691333" lon="14.02054"><ele>119.0</ele><time>2026-05-03T11:57:10.7Z</time></trkpt><trkpt lat="42.2691267" lon="14.0206433"><ele>119.0</ele><time>2026-05-03T11:57:12.7Z</time></trkpt><trkpt lat="42.2691167" lon="14.020765"><ele>119.0</ele><time>2026-05-03T11:57:14.699Z</time></trkpt><trkpt lat="42.2691017" lon="14.0209317"><ele>119.0</ele><time>2026-05-03T11:57:16.7Z</time></trkpt><trkpt lat="42.2690817" lon="14.0210933"><ele>120.99999999999999</ele><time>2026-05-03T11:57:18.7Z</time></trkpt><trkpt lat="42.2690667" lon="14.0211767"><ele>123.0</ele><time>2026-05-03T11:57:19.7Z</time></trkpt><trkpt lat="42.2690517" lon="14.0212633"><ele>125.0</ele><time>2026-05-03T11:57:20.699Z</time></trkpt><trkpt lat="42.2690417" lon="14.0213867"><ele>127.0</ele><time>2026-05-03T11:57:22.7Z</time></trkpt><trkpt lat="42.2690783" lon="14.0214717"><ele>129.0</ele><time>2026-05-03T11:57:25.7Z</time></trkpt><trkpt lat="42.2691383" lon="14.02152"><ele>131.0</ele><time>2026-05-03T11:57:28.699Z</time></trkpt><trkpt lat="42.2692417" lon="14.0215867"><ele>131.0</ele><time>2026-05-03T11:57:42.699Z</time></trkpt><trkpt lat="42.2693433" lon="14.0216433"><ele>131.0</ele><time>2026-05-03T11:57:45.699Z</time></trkpt><trkpt lat="42.269455" lon="14.0217283"><ele>131.0</ele><time>2026-05-03T11:57:47.7Z</time></trkpt><trkpt lat="42.2695133" lon="14.02179"><ele>131.0</ele><time>2026-05-03T11:57:48.699Z</time></trkpt><trkpt lat="42.269585" lon="14.0218717"><ele>131.0</ele><time>2026-05-03T11:57:49.7Z</time></trkpt><trkpt lat="42.2696583" lon="14.02197"><ele>132.6</ele><time>2026-05-03T11:57:50.7Z</time></trkpt><trkpt lat="42.2697267" lon="14.0220667"><ele>134.2</ele><time>2026-05-03T11:57:51.699Z</time></trkpt><trkpt lat="42.2698017" lon="14.0221733"><ele>135.8</ele><time>2026-05-03T11:57:52.699Z</time></trkpt><trkpt lat="42.2698783" lon="14.0222717"><ele>137.4</ele><time>2026-05-03T11:57:53.7Z</time></trkpt><trkpt lat="42.2699467" lon="14.0223667"><ele>139.0</ele><time>2026-05-03T11:57:54.7Z</time></trkpt><trkpt lat="42.2700117" lon="14.0224567"><ele>141.0</ele><time>2026-05-03T11:57:55.7Z</time></trkpt><trkpt lat="42.2700717" lon="14.0225367"><ele>143.0</ele><time>2026-05-03T11:57:56.7Z</time></trkpt><trkpt lat="42.2701233" lon="14.022615"><ele>145.0</ele><time>2026-05-03T11:57:57.699Z</time></trkpt><trkpt lat="42.2701767" lon="14.0226667"><ele>147.0</ele><time>2026-05-03T11:57:58.7Z</time></trkpt><trkpt lat="42.2702333" lon="14.0227217"><ele>149.0</ele><time>2026-05-03T11:57:59.7Z</time></trkpt><trkpt lat="42.27033" lon="14.02282"><ele>151.0</ele><time>2026-05-03T11:58:01.7Z</time></trkpt><trkpt lat="42.2704167" lon="14.0229417"><ele>151.0</ele><time>2026-05-03T11:58:03.699Z</time></trkpt><trkpt lat="42.27046" lon="14.023005"><ele>151.0</ele><time>2026-05-03T11:58:04.7Z</time></trkpt><trkpt lat="42.2705567" lon="14.0231367"><ele>151.0</ele><time>2026-05-03T11:58:06.699Z</time></trkpt><trkpt lat="42.27062" lon="14.023215"><ele>151.0</ele><time>2026-05-03T11:58:07.7Z</time></trkpt><trkpt lat="42.2706867" lon="14.02331"><ele>151.0</ele><time>2026-05-03T11:58:08.7Z</time></trkpt><trkpt lat="42.27075" lon="14.023405"><ele>152.00000000000003</ele><time>2026-05-03T11:58:09.7Z</time></trkpt><trkpt lat="42.2708067" lon="14.0234867"><ele>153.0</ele><time>2026-05-03T11:58:10.7Z</time></trkpt><trkpt lat="42.27085" lon="14.0235767"><ele>154.0</ele><time>2026-05-03T11:58:11.699Z</time></trkpt><trkpt lat="42.270885" lon="14.02367"><ele>155.0</ele><time>2026-05-03T11:58:12.7Z</time></trkpt><trkpt lat="42.2709117" lon="14.0237633"><ele>156.0</ele><time>2026-05-03T11:58:13.699Z</time></trkpt><trkpt lat="42.2709267" lon="14.023855"><ele>157.00000000000003</ele><time>2026-05-03T11:58:14.7Z</time></trkpt><trkpt lat="42.27093" lon="14.02394"><ele>158.0</ele><time>2026-05-03T11:58:15.7Z</time></trkpt><trkpt lat="42.2708967" lon="14.0240417"><ele>158.0</ele><time>2026-05-03T11:58:17.7Z</time></trkpt><trkpt lat="42.270825" lon="14.0241183"><ele>158.0</ele><time>2026-05-03T11:58:19.7Z</time></trkpt><trkpt lat="42.2707217" lon="14.0241517"><ele>158.0</ele><time>2026-05-03T11:58:21.699Z</time></trkpt><trkpt lat="42.270635" lon="14.0241683"><ele>158.0</ele><time>2026-05-03T11:58:23.699Z</time></trkpt><trkpt lat="42.2705483" lon="14.02418"><ele>158.0</ele><time>2026-05-03T11:58:25.7Z</time></trkpt><trkpt lat="42.2704267" lon="14.024175"><ele>163.33333333333331</ele><time>2026-05-03T11:58:27.699Z</time></trkpt><trkpt lat="42.270345" lon="14.02417"><ele>168.66666666666666</ele><time>2026-05-03T11:58:28.7Z</time></trkpt><trkpt lat="42.2702583" lon="14.02417"><ele>174.0</ele><time>2026-05-03T11:58:29.699Z</time></trkpt><trkpt lat="42.27018" lon="14.024165"><ele>179.33333333333334</ele><time>2026-05-03T11:58:30.7Z</time></trkpt><trkpt lat="42.2701083" lon="14.024165"><ele>184.66666666666669</ele><time>2026-05-03T11:58:31.699Z</time></trkpt><trkpt lat="42.2700367" lon="14.0241667"><ele>190.0</ele><time>2026-05-03T11:58:32.7Z</time></trkpt><trkpt lat="42.2699633" lon="14.02417"><ele>190.0</ele><time>2026-05-03T11:58:33.699Z</time></trkpt><trkpt lat="42.2698917" lon="14.0241817"><ele>190.0</ele><time>2026-05-03T11:58:34.699Z</time></trkpt><trkpt lat="42.2698283" lon="14.0242"><ele>190.0</ele><time>2026-05-03T11:58:35.7Z</time></trkpt><trkpt lat="42.2697133" lon="14.0242733"><ele>190.0</ele><time>2026-05-03T11:58:37.699Z</time></trkpt><trkpt lat="42.2696533" lon="14.0243"><ele>190.0</ele><time>2026-05-03T11:58:38.699Z</time></trkpt><trkpt lat="42.269545" lon="14.0243017"><ele>190.0</ele><time>2026-05-03T11:58:40.7Z</time></trkpt><trkpt lat="42.26943" lon="14.0242717"><ele>191.0</ele><time>2026-05-03T11:58:42.7Z</time></trkpt><trkpt lat="42.2693683" lon="14.0242533"><ele>192.0</ele><time>2026-05-03T11:58:43.7Z</time></trkpt><trkpt lat="42.2693" lon="14.0242233"><ele>193.0</ele><time>2026-05-03T11:58:44.7Z</time></trkpt><trkpt lat="42.26921" lon="14.0241617"><ele>194.0</ele><time>2026-05-03T11:58:46.7Z</time></trkpt><trkpt lat="42.26913" lon="14.02414"><ele>194.99999999999997</ele><time>2026-05-03T12:03:56.698Z</time></trkpt><trkpt lat="42.269015" lon="14.024195"><ele>196.0</ele><time>2026-05-03T12:03:58.697Z</time></trkpt><trkpt lat="42.26895" lon="14.0242317"><ele>196.60000000000002</ele><time>2026-05-03T12:03:59.698Z</time></trkpt><trkpt lat="42.2688783" lon="14.024265"><ele>197.2</ele><time>2026-05-03T12:04:00.697Z</time></trkpt><trkpt lat="42.2687967" lon="14.0243"><ele>197.8</ele><time>2026-05-03T12:04:01.698Z</time></trkpt><trkpt lat="42.2687067" lon="14.024335"><ele>198.39999999999998</ele><time>2026-05-03T12:04:02.698Z</time></trkpt><trkpt lat="42.2686083" lon="14.0243867"><ele>199.0</ele><time>2026-05-03T12:04:03.697Z</time></trkpt><trkpt lat="42.2685117" lon="14.024435"><ele>199.0</ele><time>2026-05-03T12:04:04.698Z</time></trkpt><trkpt lat="42.2684267" lon="14.0244767"><ele>199.0</ele><time>2026-05-03T12:04:05.698Z</time></trkpt><trkpt lat="42.2683417" lon="14.024525"><ele>199.0</ele><time>2026-05-03T12:04:06.697Z</time></trkpt><trkpt lat="42.2682583" lon="14.024585"><ele>199.0</ele><time>2026-05-03T12:04:07.698Z</time></trkpt><trkpt lat="42.2681733" lon="14.0246567"><ele>199.0</ele><time>2026-05-03T12:04:08.698Z</time></trkpt><trkpt lat="42.2680883" lon="14.0247317"><ele>199.16666666666666</ele><time>2026-05-03T12:04:09.697Z</time></trkpt><trkpt lat="42.2680167" lon="14.02479"><ele>199.33333333333331</ele><time>2026-05-03T12:04:10.697Z</time></trkpt><trkpt lat="42.2679133" lon="14.02489"><ele>199.5</ele><time>2026-05-03T12:04:12.698Z</time></trkpt><trkpt lat="42.2678483" lon="14.02494"><ele>199.66666666666669</ele><time>2026-05-03T12:04:13.698Z</time></trkpt><trkpt lat="42.2677783" lon="14.024985"><ele>199.83333333333334</ele><time>2026-05-03T12:04:14.698Z</time></trkpt><trkpt lat="42.267705" lon="14.0250217"><ele>200.0</ele><time>2026-05-03T12:04:15.697Z</time></trkpt><trkpt lat="42.2676233" lon="14.02504"><ele>205.50000000000003</ele><time>2026-05-03T12:04:16.698Z</time></trkpt><trkpt lat="42.26755" lon="14.0250783"><ele>211.0</ele><time>2026-05-03T12:04:17.697Z</time></trkpt><trkpt lat="42.267485" lon="14.0251183"><ele>216.5</ele><time>2026-05-03T12:04:18.697Z</time></trkpt><trkpt lat="42.2674267" lon="14.025175"><ele>222.0</ele><time>2026-05-03T12:04:19.698Z</time></trkpt><trkpt lat="42.267365" lon="14.0252333"><ele>227.50000000000003</ele><time>2026-05-03T12:04:20.698Z</time></trkpt><trkpt lat="42.2673033" lon="14.02529"><ele>233.0</ele><time>2026-05-03T12:04:21.698Z</time></trkpt><trkpt lat="42.2672033" lon="14.0253233"><ele>234.50000000000003</ele><time>2026-05-03T12:04:23.697Z</time></trkpt><trkpt lat="42.2670983" lon="14.025265"><ele>236.0</ele><time>2026-05-03T12:04:25.697Z</time></trkpt><trkpt lat="42.2670417" lon="14.0252033"><ele>237.5</ele><time>2026-05-03T12:04:26.698Z</time></trkpt><trkpt lat="42.2669733" lon="14.02513"><ele>239.0</ele><time>2026-05-03T12:04:27.698Z</time></trkpt><trkpt lat="42.266905" lon="14.02505"><ele>240.50000000000003</ele><time>2026-05-03T12:04:28.698Z</time></trkpt><trkpt lat="42.2668417" lon="14.0249733"><ele>242.0</ele><time>2026-05-03T12:04:29.698Z</time></trkpt><trkpt lat="42.2667733" lon="14.0248967"><ele>238.16666666666669</ele><time>2026-05-03T12:04:30.697Z</time></trkpt><trkpt lat="42.266695" lon="14.0248117"><ele>234.33333333333334</ele><time>2026-05-03T12:04:31.697Z</time></trkpt><trkpt lat="42.26662" lon="14.0247367"><ele>230.5</ele><time>2026-05-03T12:04:32.698Z</time></trkpt><trkpt lat="42.26655" lon="14.0246683"><ele>226.66666666666669</ele><time>2026-05-03T12:04:33.698Z</time></trkpt><trkpt lat="42.2664883" lon="14.024595"><ele>222.83333333333334</ele><time>2026-05-03T12:04:34.698Z</time></trkpt><trkpt lat="42.26642" lon="14.0245333"><ele>219.0</ele><time>2026-05-03T12:04:35.698Z</time></trkpt><trkpt lat="42.266365" lon="14.0244867"><ele>219.0</ele><time>2026-05-03T12:04:36.697Z</time></trkpt><trkpt lat="42.26629" lon="14.0244383"><ele>219.0</ele><time>2026-05-03T12:04:38.696Z</time></trkpt><trkpt lat="42.2662167" lon="14.0243683"><ele>219.0</ele><time>2026-05-03T12:04:40.696Z</time></trkpt><trkpt lat="42.2661417" lon="14.0242717"><ele>219.0</ele><time>2026-05-03T12:04:42.696Z</time></trkpt><trkpt lat="42.26607" lon="14.0242617"><ele>219.0</ele><time>2026-05-03T12:04:44.697Z</time></trkpt><trkpt lat="42.2659983" lon="14.0243367"><ele>219.0</ele><time>2026-05-03T12:04:46.697Z</time></trkpt><trkpt lat="42.2659167" lon="14.0244083"><ele>219.0</ele><time>2026-05-03T12:04:48.696Z</time></trkpt><trkpt lat="42.26581" lon="14.0244467"><ele>219.0</ele><time>2026-05-03T12:04:50.696Z</time></trkpt><trkpt lat="42.26574" lon="14.0244633"><ele>219.0</ele><time>2026-05-03T12:04:51.697Z</time></trkpt><trkpt lat="42.265665" lon="14.02448"><ele>219.0</ele><time>2026-05-03T12:04:52.697Z</time></trkpt><trkpt lat="42.2655833" lon="14.0244917"><ele>219.0</ele><time>2026-05-03T12:04:53.696Z</time></trkpt><trkpt lat="42.2654983" lon="14.0245083"><ele>219.0</ele><time>2026-05-03T12:04:54.697Z</time></trkpt><trkpt lat="42.26541" lon="14.0245283"><ele>216.2</ele><time>2026-05-03T12:04:55.696Z</time></trkpt><trkpt lat="42.2653183" lon="14.0245583"><ele>213.39999999999998</ele><time>2026-05-03T12:04:56.697Z</time></trkpt><trkpt lat="42.2652283" lon="14.0245817"><ele>210.6</ele><time>2026-05-03T12:04:57.697Z</time></trkpt><trkpt lat="42.2651333" lon="14.024595"><ele>207.8</ele><time>2026-05-03T12:04:58.696Z</time></trkpt><trkpt lat="42.2650633" lon="14.02461"><ele>205.0</ele><time>2026-05-03T12:04:59.697Z</time></trkpt><trkpt lat="42.264975" lon="14.024685"><ele>205.0</ele><time>2026-05-03T12:05:01.696Z</time></trkpt><trkpt lat="42.2649467" lon="14.0248333"><ele>205.0</ele><time>2026-05-03T12:05:03.696Z</time></trkpt><trkpt lat="42.26488" lon="14.0249567"><ele>205.0</ele><time>2026-05-03T12:05:05.696Z</time></trkpt><trkpt lat="42.2647833" lon="14.0250167"><ele>205.0</ele><time>2026-05-03T12:05:07.696Z</time></trkpt><trkpt lat="42.2647167" lon="14.0250283"><ele>205.0</ele><time>2026-05-03T12:05:08.697Z</time></trkpt><trkpt lat="42.2646433" lon="14.0250333"><ele>208.49999999999997</ele><time>2026-05-03T12:05:09.696Z</time></trkpt><trkpt lat="42.2645667" lon="14.025035"><ele>212.0</ele><time>2026-05-03T12:05:10.696Z</time></trkpt><trkpt lat="42.264485" lon="14.025045"><ele>215.5</ele><time>2026-05-03T12:05:11.696Z</time></trkpt><trkpt lat="42.2644083" lon="14.0250583"><ele>219.0</ele><time>2026-05-03T12:05:12.697Z</time></trkpt><trkpt lat="42.2643267" lon="14.0250533"><ele>222.49999999999997</ele><time>2026-05-03T12:05:13.697Z</time></trkpt><trkpt lat="42.2642383" lon="14.0250283"><ele>226.0</ele><time>2026-05-03T12:05:14.697Z</time></trkpt><trkpt lat="42.2641567" lon="14.024995"><ele>225.49999999999997</ele><time>2026-05-03T12:05:15.697Z</time></trkpt><trkpt lat="42.2640783" lon="14.024965"><ele>225.0</ele><time>2026-05-03T12:05:16.696Z</time></trkpt><trkpt lat="42.2640133" lon="14.0249383"><ele>224.5</ele><time>2026-05-03T12:05:17.697Z</time></trkpt><trkpt lat="42.263945" lon="14.0249067"><ele>224.0</ele><time>2026-05-03T12:05:18.696Z</time></trkpt><trkpt lat="42.2638717" lon="14.0248833"><ele>223.49999999999997</ele><time>2026-05-03T12:05:19.697Z</time></trkpt><trkpt lat="42.2638083" lon="14.0248617"><ele>223.0</ele><time>2026-05-03T12:05:20.696Z</time></trkpt><trkpt lat="42.2636933" lon="14.0248017"><ele>222.99999999999997</ele><time>2026-05-03T12:05:22.696Z</time></trkpt><trkpt lat="42.2636267" lon="14.02478"><ele>223.0</ele><time>2026-05-03T12:05:23.697Z</time></trkpt><trkpt lat="42.26352" lon="14.0247467"><ele>223.0</ele><time>2026-05-03T12:05:25.696Z</time></trkpt><trkpt lat="42.2634583" lon="14.0246417"><ele>223.0</ele><time>2026-05-03T12:05:27.697Z</time></trkpt><trkpt lat="42.26342" lon="14.0245567"><ele>222.99999999999997</ele><time>2026-05-03T12:05:28.697Z</time></trkpt><trkpt lat="42.263365" lon="14.0244583"><ele>223.0</ele><time>2026-05-03T12:05:29.697Z</time></trkpt><trkpt lat="42.2633133" lon="14.024365"><ele>222.99999999999997</ele><time>2026-05-03T12:05:30.696Z</time></trkpt><trkpt lat="42.2632683" lon="14.0242667"><ele>223.0</ele><time>2026-05-03T12:05:31.696Z</time></trkpt><trkpt lat="42.26322" lon="14.0241667"><ele>223.0</ele><time>2026-05-03T12:05:32.697Z</time></trkpt><trkpt lat="42.26317" lon="14.0240767"><ele>223.0</ele><time>2026-05-03T12:05:33.697Z</time></trkpt><trkpt lat="42.2631217" lon="14.0240067"><ele>222.99999999999997</ele><time>2026-05-03T12:05:34.696Z</time></trkpt><trkpt lat="42.263055" lon="14.0239617"><ele>223.0</ele><time>2026-05-03T12:05:35.696Z</time></trkpt><trkpt lat="42.2629767" lon="14.0239417"><ele>224.0</ele><time>2026-05-03T12:05:36.696Z</time></trkpt><trkpt lat="42.2629067" lon="14.02395"><ele>225.0</ele><time>2026-05-03T12:05:37.697Z</time></trkpt><trkpt lat="42.26284" lon="14.023975"><ele>226.0</ele><time>2026-05-03T12:05:38.697Z</time></trkpt><trkpt lat="42.2627733" lon="14.023985"><ele>227.0</ele><time>2026-05-03T12:05:39.696Z</time></trkpt><trkpt lat="42.2627067" lon="14.0239733"><ele>228.0</ele><time>2026-05-03T12:05:40.697Z</time></trkpt><trkpt lat="42.26263" lon="14.0239433"><ele>228.99999999999997</ele><time>2026-05-03T12:05:41.696Z</time></trkpt><trkpt lat="42.2625417" lon="14.0239117"><ele>229.99999999999997</ele><time>2026-05-03T12:05:42.696Z</time></trkpt><trkpt lat="42.2624533" lon="14.0238817"><ele>230.00000000000003</ele><time>2026-05-03T12:05:43.696Z</time></trkpt><trkpt lat="42.2623767" lon="14.023855"><ele>230.0</ele><time>2026-05-03T12:05:44.696Z</time></trkpt><trkpt lat="42.2622883" lon="14.023835"><ele>230.0</ele><time>2026-05-03T12:05:45.697Z</time></trkpt><trkpt lat="42.262205" lon="14.02383"><ele>230.0</ele><time>2026-05-03T12:05:46.696Z</time></trkpt><trkpt lat="42.2621317" lon="14.0238267"><ele>230.00000000000003</ele><time>2026-05-03T12:05:47.697Z</time></trkpt><trkpt lat="42.2620517" lon="14.023815"><ele>230.0</ele><time>2026-05-03T12:05:48.697Z</time></trkpt><trkpt lat="42.2619767" lon="14.0237867"><ele>232.00000000000003</ele><time>2026-05-03T12:05:49.696Z</time></trkpt><trkpt lat="42.26191" lon="14.0237367"><ele>234.0</ele><time>2026-05-03T12:05:50.696Z</time></trkpt><trkpt lat="42.2618467" lon="14.0236933"><ele>236.0</ele><time>2026-05-03T12:05:51.696Z</time></trkpt><trkpt lat="42.261775" lon="14.02363"><ele>238.0</ele><time>2026-05-03T12:05:53.697Z</time></trkpt><trkpt lat="42.2617067" lon="14.0236283"><ele>240.00000000000003</ele><time>2026-05-03T12:06:18.696Z</time></trkpt><trkpt lat="42.2617067" lon="14.0234817"><ele>242.0</ele><time>2026-05-03T12:06:33.697Z</time></trkpt><trkpt lat="42.2616967" lon="14.02339"><ele>240.14285714285714</ele><time>2026-05-03T12:06:34.697Z</time></trkpt><trkpt lat="42.2616817" lon="14.0232917"><ele>238.28571428571428</ele><time>2026-05-03T12:06:35.696Z</time></trkpt><trkpt lat="42.2616633" lon="14.0231967"><ele>236.42857142857142</ele><time>2026-05-03T12:06:36.696Z</time></trkpt><trkpt lat="42.261645" lon="14.02311"><ele>234.57142857142856</ele><time>2026-05-03T12:06:37.697Z</time></trkpt><trkpt lat="42.26163" lon="14.0230217"><ele>232.71428571428572</ele><time>2026-05-03T12:06:38.696Z</time></trkpt><trkpt lat="42.2616233" lon="14.0229333"><ele>230.85714285714283</ele><time>2026-05-03T12:06:39.697Z</time></trkpt><trkpt lat="42.2616183" lon="14.0228433"><ele>229.0</ele><time>2026-05-03T12:06:40.696Z</time></trkpt><trkpt lat="42.2616617" lon="14.0227233"><ele>228.99999999999997</ele><time>2026-05-03T12:06:42.697Z</time></trkpt><trkpt lat="42.261755" lon="14.0227667"><ele>229.0</ele><time>2026-05-03T12:06:44.696Z</time></trkpt><trkpt lat="42.2617933" lon="14.02287"><ele>229.0</ele><time>2026-05-03T12:06:45.696Z</time></trkpt><trkpt lat="42.26182" lon="14.0229883"><ele>229.0</ele><time>2026-05-03T12:06:46.697Z</time></trkpt><trkpt lat="42.2618467" lon="14.0230983"><ele>228.99999999999997</ele><time>2026-05-03T12:06:47.696Z</time></trkpt><trkpt lat="42.2618867" lon="14.02318"><ele>229.0</ele><time>2026-05-03T12:06:48.697Z</time></trkpt><trkpt lat="42.2619967" lon="14.023225"><ele>229.0</ele><time>2026-05-03T12:06:50.696Z</time></trkpt><trkpt lat="42.262055" lon="14.0231783"><ele>228.99999999999997</ele><time>2026-05-03T12:06:51.697Z</time></trkpt><trkpt lat="42.262095" lon="14.0230633"><ele>228.99999999999997</ele><time>2026-05-03T12:06:52.696Z</time></trkpt><trkpt lat="42.26213" lon="14.0229033"><ele>229.0</ele><time>2026-05-03T12:06:53.697Z</time></trkpt><trkpt lat="42.2621533" lon="14.022725"><ele>229.0</ele><time>2026-05-03T12:06:54.697Z</time></trkpt><trkpt lat="42.26217" lon="14.02257"><ele>226.6</ele><time>2026-05-03T12:06:55.697Z</time></trkpt><trkpt lat="42.2621667" lon="14.0224333"><ele>224.2</ele><time>2026-05-03T12:06:56.696Z</time></trkpt><trkpt lat="42.2621383" lon="14.0223067"><ele>221.79999999999998</ele><time>2026-05-03T12:06:57.696Z</time></trkpt><trkpt lat="42.2620783" lon="14.0221883"><ele>219.39999999999998</ele><time>2026-05-03T12:06:58.696Z</time></trkpt><trkpt lat="42.2619833" lon="14.02209"><ele>217.0</ele><time>2026-05-03T12:06:59.697Z</time></trkpt><trkpt lat="42.261875" lon="14.0220033"><ele>217.0</ele><time>2026-05-03T12:07:00.696Z</time></trkpt><trkpt lat="42.261765" lon="14.021935"><ele>217.0</ele><time>2026-05-03T12:07:01.697Z</time></trkpt><trkpt lat="42.26165" lon="14.021895"><ele>217.0</ele><time>2026-05-03T12:07:02.695Z</time></trkpt><trkpt lat="42.2615383" lon="14.0218833"><ele>217.0</ele><time>2026-05-03T12:07:03.696Z</time></trkpt><trkpt lat="42.2614267" lon="14.02191"><ele>215.0</ele><time>2026-05-03T12:07:04.695Z</time></trkpt><trkpt lat="42.26132" lon="14.02195"><ele>213.0</ele><time>2026-05-03T12:07:05.695Z</time></trkpt><trkpt lat="42.2612233" lon="14.02198"><ele>211.0</ele><time>2026-05-03T12:07:06.695Z</time></trkpt><trkpt lat="42.2611567" lon="14.022"><ele>209.0</ele><time>2026-05-03T12:07:07.695Z</time></trkpt><trkpt lat="42.2610967" lon="14.0220267"><ele>207.0</ele><time>2026-05-03T12:07:08.695Z</time></trkpt><trkpt lat="42.261" lon="14.0221333"><ele>207.0</ele><time>2026-05-03T12:07:10.696Z</time></trkpt><trkpt lat="42.2609417" lon="14.022215"><ele>207.0</ele><time>2026-05-03T12:07:11.695Z</time></trkpt><trkpt lat="42.2608833" lon="14.02231"><ele>207.0</ele><time>2026-05-03T12:07:12.696Z</time></trkpt><trkpt lat="42.2608183" lon="14.0224083"><ele>207.0</ele><time>2026-05-03T12:07:13.695Z</time></trkpt><trkpt lat="42.2607567" lon="14.0225083"><ele>207.0</ele><time>2026-05-03T12:07:14.696Z</time></trkpt><trkpt lat="42.2607" lon="14.0226167"><ele>207.16666666666666</ele><time>2026-05-03T12:07:15.696Z</time></trkpt><trkpt lat="42.26065" lon="14.0227317"><ele>207.33333333333331</ele><time>2026-05-03T12:07:16.695Z</time></trkpt><trkpt lat="42.260605" lon="14.022845"><ele>207.5</ele><time>2026-05-03T12:07:17.696Z</time></trkpt><trkpt lat="42.260555" lon="14.0229483"><ele>207.66666666666666</ele><time>2026-05-03T12:07:18.696Z</time></trkpt><trkpt lat="42.2605133" lon="14.0230417"><ele>207.83333333333331</ele><time>2026-05-03T12:07:19.696Z</time></trkpt><trkpt lat="42.26047" lon="14.0231217"><ele>208.0</ele><time>2026-05-03T12:07:20.696Z</time></trkpt><trkpt lat="42.2604117" lon="14.0231767"><ele>208.0</ele><time>2026-05-03T12:07:21.696Z</time></trkpt><trkpt lat="42.2603483" lon="14.02322"><ele>208.0</ele><time>2026-05-03T12:07:22.696Z</time></trkpt><trkpt lat="42.26026" lon="14.0232433"><ele>208.0</ele><time>2026-05-03T12:07:23.696Z</time></trkpt><trkpt lat="42.2601533" lon="14.02325"><ele>208.0</ele><time>2026-05-03T12:07:24.695Z</time></trkpt><trkpt lat="42.26003" lon="14.02324"><ele>208.0</ele><time>2026-05-03T12:07:25.695Z</time></trkpt><trkpt lat="42.2599083" lon="14.0232483"><ele>208.0</ele><time>2026-05-03T12:07:26.695Z</time></trkpt><trkpt lat="42.2597917" lon="14.023255"><ele>208.0</ele><time>2026-05-03T12:07:27.696Z</time></trkpt><trkpt lat="42.2596883" lon="14.0232617"><ele>208.0</ele><time>2026-05-03T12:07:28.696Z</time></trkpt><trkpt lat="42.259605" lon="14.0232717"><ele>208.0</ele><time>2026-05-03T12:07:29.695Z</time></trkpt><trkpt lat="42.2595367" lon="14.02328"><ele>208.0</ele><time>2026-05-03T12:07:30.695Z</time></trkpt><trkpt lat="42.2594617" lon="14.02332"><ele>210.0</ele><time>2026-05-03T12:07:32.695Z</time></trkpt><trkpt lat="42.2594317" lon="14.023405"><ele>212.0</ele><time>2026-05-03T12:07:34.696Z</time></trkpt><trkpt lat="42.259435" lon="14.0235767"><ele>214.0</ele><time>2026-05-03T12:07:36.695Z</time></trkpt><trkpt lat="42.25946" lon="14.0236867"><ele>216.0</ele><time>2026-05-03T12:07:37.696Z</time></trkpt><trkpt lat="42.259485" lon="14.02381"><ele>218.0</ele><time>2026-05-03T12:07:38.696Z</time></trkpt><trkpt lat="42.2595017" lon="14.023925"><ele>218.00000000000003</ele><time>2026-05-03T12:07:39.695Z</time></trkpt><trkpt lat="42.2595133" lon="14.02403"><ele>218.0</ele><time>2026-05-03T12:07:40.696Z</time></trkpt><trkpt lat="42.2595017" lon="14.0241317"><ele>218.0</ele><time>2026-05-03T12:07:41.696Z</time></trkpt><trkpt lat="42.2594833" lon="14.024245"><ele>218.0</ele><time>2026-05-03T12:07:42.695Z</time></trkpt><trkpt lat="42.2594517" lon="14.0243533"><ele>218.00000000000003</ele><time>2026-05-03T12:07:43.695Z</time></trkpt><trkpt lat="42.2594333" lon="14.0244783"><ele>218.0</ele><time>2026-05-03T12:07:44.695Z</time></trkpt><trkpt lat="42.2594217" lon="14.0246033"><ele>220.00000000000003</ele><time>2026-05-03T12:07:45.695Z</time></trkpt><trkpt lat="42.2594167" lon="14.0247167"><ele>222.0</ele><time>2026-05-03T12:07:46.696Z</time></trkpt><trkpt lat="42.2594133" lon="14.02483"><ele>224.0</ele><time>2026-05-03T12:07:47.695Z</time></trkpt><trkpt lat="42.2593983" lon="14.02494"><ele>226.0</ele><time>2026-05-03T12:07:48.695Z</time></trkpt><trkpt lat="42.2594" lon="14.0250417"><ele>228.00000000000003</ele><time>2026-05-03T12:07:49.695Z</time></trkpt><trkpt lat="42.25941" lon="14.0251417"><ele>230.0</ele><time>2026-05-03T12:07:50.695Z</time></trkpt><trkpt lat="42.2594383" lon="14.02528"><ele>232.6</ele><time>2026-05-03T12:07:52.696Z</time></trkpt><trkpt lat="42.2594283" lon="14.02537"><ele>235.2</ele><time>2026-05-03T12:07:54.696Z</time></trkpt><trkpt lat="42.2593383" lon="14.0254333"><ele>237.8</ele><time>2026-05-03T12:08:08.695Z</time></trkpt><trkpt lat="42.2594033" lon="14.0253983"><ele>240.4</ele><time>2026-05-03T12:08:24.695Z</time></trkpt><trkpt lat="42.259525" lon="14.0253517"><ele>243.0</ele><time>2026-05-03T12:08:44.696Z</time></trkpt><trkpt lat="42.25963" lon="14.0253767"><ele>243.0</ele><time>2026-05-03T12:08:46.696Z</time></trkpt><trkpt lat="42.2597433" lon="14.02546"><ele>243.0</ele><time>2026-05-03T12:08:48.696Z</time></trkpt><trkpt lat="42.25982" lon="14.0255117"><ele>243.0</ele><time>2026-05-03T12:08:49.695Z</time></trkpt><trkpt lat="42.2598933" lon="14.0255633"><ele>243.0</ele><time>2026-05-03T12:08:50.696Z</time></trkpt><trkpt lat="42.2599567" lon="14.0256083"><ele>243.0</ele><time>2026-05-03T12:08:51.696Z</time></trkpt><trkpt lat="42.2600117" lon="14.0256517"><ele>243.0</ele><time>2026-05-03T12:08:52.695Z</time></trkpt><trkpt lat="42.2600983" lon="14.025775"><ele>246.83333333333334</ele><time>2026-05-03T12:08:54.695Z</time></trkpt><trkpt lat="42.26014" lon="14.0258517"><ele>250.66666666666669</ele><time>2026-05-03T12:08:55.696Z</time></trkpt><trkpt lat="42.260195" lon="14.02591"><ele>254.5</ele><time>2026-05-03T12:08:56.695Z</time></trkpt><trkpt lat="42.260265" lon="14.025955"><ele>258.33333333333337</ele><time>2026-05-03T12:08:57.696Z</time></trkpt><trkpt lat="42.260335" lon="14.0259883"><ele>262.1666666666667</ele><time>2026-05-03T12:08:58.696Z</time></trkpt><trkpt lat="42.2604233" lon="14.0260733"><ele>266.0</ele><time>2026-05-03T12:09:00.696Z</time></trkpt><trkpt lat="42.2604617" lon="14.0261983"><ele>266.0</ele><time>2026-05-03T12:09:02.696Z</time></trkpt><trkpt lat="42.2605233" lon="14.02634"><ele>266.0</ele><time>2026-05-03T12:09:04.696Z</time></trkpt><trkpt lat="42.260555" lon="14.0264217"><ele>266.0</ele><time>2026-05-03T12:09:05.696Z</time></trkpt><trkpt lat="42.2605933" lon="14.0265033"><ele>266.0</ele><time>2026-05-03T12:09:06.695Z</time></trkpt><trkpt lat="42.26064" lon="14.0266"><ele>266.0</ele><time>2026-05-03T12:09:07.696Z</time></trkpt><trkpt lat="42.2607" lon="14.0267117"><ele>266.0</ele><time>2026-05-03T12:09:08.696Z</time></trkpt><trkpt lat="42.2607633" lon="14.0268317"><ele>269.5</ele><time>2026-05-03T12:09:09.695Z</time></trkpt><trkpt lat="42.2608233" lon="14.0269533"><ele>273.0</ele><time>2026-05-03T12:09:10.695Z</time></trkpt><trkpt lat="42.2608883" lon="14.02705"><ele>276.5</ele><time>2026-05-03T12:09:11.695Z</time></trkpt><trkpt lat="42.260955" lon="14.02712"><ele>280.0</ele><time>2026-05-03T12:09:12.696Z</time></trkpt><trkpt lat="42.2610083" lon="14.02718"><ele>283.5</ele><time>2026-05-03T12:09:13.696Z</time></trkpt><trkpt lat="42.261055" lon="14.0272383"><ele>287.0</ele><time>2026-05-03T12:09:14.696Z</time></trkpt><trkpt lat="42.2611167" lon="14.02726"><ele>287.0</ele><time>2026-05-03T12:09:16.695Z</time></trkpt><trkpt lat="42.2611533" lon="14.0271467"><ele>287.0</ele><time>2026-05-03T12:09:19.696Z</time></trkpt><trkpt lat="42.2610983" lon="14.02697"><ele>287.0</ele><time>2026-05-03T12:09:21.695Z</time></trkpt><trkpt lat="42.2610583" lon="14.026865"><ele>287.0</ele><time>2026-05-03T12:09:22.696Z</time></trkpt><trkpt lat="42.2610133" lon="14.026745"><ele>287.0</ele><time>2026-05-03T12:09:23.696Z</time></trkpt><trkpt lat="42.26097" lon="14.0266167"><ele>285.33333333333337</ele><time>2026-05-03T12:09:24.696Z</time></trkpt><trkpt lat="42.2609417" lon="14.0264967"><ele>283.6666666666667</ele><time>2026-05-03T12:09:25.695Z</time></trkpt><trkpt lat="42.2609133" lon="14.0263817"><ele>282.0</ele><time>2026-05-03T12:09:26.696Z</time></trkpt><trkpt lat="42.260885" lon="14.0262767"><ele>280.3333333333333</ele><time>2026-05-03T12:09:27.696Z</time></trkpt><trkpt lat="42.2608833" lon="14.0261617"><ele>278.66666666666663</ele><time>2026-05-03T12:09:29.696Z</time></trkpt><trkpt lat="42.2609633" lon="14.026165"><ele>277.0</ele><time>2026-05-03T12:09:32.695Z</time></trkpt><trkpt lat="42.2610133" lon="14.026305"><ele>277.0</ele><time>2026-05-03T12:09:34.695Z</time></trkpt><trkpt lat="42.2610383" lon="14.026435"><ele>277.0</ele><time>2026-05-03T12:09:35.695Z</time></trkpt><trkpt lat="42.2610833" lon="14.026585"><ele>277.0</ele><time>2026-05-03T12:09:36.694Z</time></trkpt><trkpt lat="42.261145" lon="14.02675"><ele>277.0</ele><time>2026-05-03T12:09:37.695Z</time></trkpt><trkpt lat="42.2612167" lon="14.0269317"><ele>280.3333333333333</ele><time>2026-05-03T12:09:38.694Z</time></trkpt><trkpt lat="42.26129" lon="14.0271317"><ele>283.6666666666667</ele><time>2026-05-03T12:09:39.695Z</time></trkpt><trkpt lat="42.26135" lon="14.02734"><ele>287.0</ele><time>2026-05-03T12:09:40.694Z</time></trkpt><trkpt lat="42.261395" lon="14.0275233"><ele>291.0</ele><time>2026-05-03T12:09:41.695Z</time></trkpt><trkpt lat="42.261445" lon="14.0276917"><ele>295.0</ele><time>2026-05-03T12:09:42.695Z</time></trkpt><trkpt lat="42.261515" lon="14.0278483"><ele>299.0</ele><time>2026-05-03T12:09:43.694Z</time></trkpt><trkpt lat="42.2616167" lon="14.0279917"><ele>303.0</ele><time>2026-05-03T12:09:44.694Z</time></trkpt><trkpt lat="42.2617117" lon="14.0281383"><ele>303.5</ele><time>2026-05-03T12:09:45.695Z</time></trkpt><trkpt lat="42.2618067" lon="14.0282917"><ele>304.0</ele><time>2026-05-03T12:09:46.695Z</time></trkpt><trkpt lat="42.2618733" lon="14.028445"><ele>304.5</ele><time>2026-05-03T12:09:47.694Z</time></trkpt><trkpt lat="42.261935" lon="14.02859"><ele>305.0</ele><time>2026-05-03T12:09:48.695Z</time></trkpt><trkpt lat="42.2619833" lon="14.028715"><ele>305.6666666666667</ele><time>2026-05-03T12:09:49.695Z</time></trkpt><trkpt lat="42.262025" lon="14.0288033"><ele>306.33333333333337</ele><time>2026-05-03T12:09:50.694Z</time></trkpt><trkpt lat="42.2620767" lon="14.02889"><ele>307.0</ele><time>2026-05-03T12:09:52.695Z</time></trkpt><trkpt lat="42.2621483" lon="14.0288633"><ele>307.6666666666667</ele><time>2026-05-03T12:09:54.695Z</time></trkpt><trkpt lat="42.2622" lon="14.0287917"><ele>308.3333333333333</ele><time>2026-05-03T12:09:55.695Z</time></trkpt><trkpt lat="42.2622567" lon="14.0286967"><ele>309.0</ele><time>2026-05-03T12:09:56.695Z</time></trkpt><trkpt lat="42.2623217" lon="14.0285967"><ele>309.0</ele><time>2026-05-03T12:09:57.695Z</time></trkpt><trkpt lat="42.2623783" lon="14.0285133"><ele>309.0</ele><time>2026-05-03T12:09:58.695Z</time></trkpt><trkpt lat="42.262435" lon="14.02846"><ele>309.0</ele><time>2026-05-03T12:09:59.695Z</time></trkpt><trkpt lat="42.2624983" lon="14.0284283"><ele>309.0</ele><time>2026-05-03T12:10:00.694Z</time></trkpt><trkpt lat="42.262575" lon="14.0284517"><ele>309.0</ele><time>2026-05-03T12:10:01.695Z</time></trkpt><trkpt lat="42.2626767" lon="14.02851"><ele>309.0</ele><time>2026-05-03T12:10:02.694Z</time></trkpt><trkpt lat="42.2628017" lon="14.0285983"><ele>309.0</ele><time>2026-05-03T12:10:03.694Z</time></trkpt><trkpt lat="42.262935" lon="14.0286817"><ele>309.0</ele><time>2026-05-03T12:10:04.694Z</time></trkpt><trkpt lat="42.2630833" lon="14.0287817"><ele>309.0</ele><time>2026-05-03T12:10:05.695Z</time></trkpt><trkpt lat="42.2632217" lon="14.028885"><ele>308.6666666666667</ele><time>2026-05-03T12:10:06.695Z</time></trkpt><trkpt lat="42.263365" lon="14.028985"><ele>308.33333333333337</ele><time>2026-05-03T12:10:07.694Z</time></trkpt><trkpt lat="42.2635117" lon="14.0290833"><ele>308.0</ele><time>2026-05-03T12:10:08.694Z</time></trkpt><trkpt lat="42.2636567" lon="14.0291767"><ele>308.0</ele><time>2026-05-03T12:10:09.694Z</time></trkpt><trkpt lat="42.2637967" lon="14.0292583"><ele>308.0</ele><time>2026-05-03T12:10:10.695Z</time></trkpt><trkpt lat="42.2639533" lon="14.029325"><ele>308.0</ele><time>2026-05-03T12:10:11.694Z</time></trkpt><trkpt lat="42.2641033" lon="14.02938"><ele>307.33333333333337</ele><time>2026-05-03T12:10:12.694Z</time></trkpt><trkpt lat="42.2642533" lon="14.0294117"><ele>306.6666666666667</ele><time>2026-05-03T12:10:13.694Z</time></trkpt><trkpt lat="42.2644" lon="14.029425"><ele>306.0</ele><time>2026-05-03T12:10:14.694Z</time></trkpt><trkpt lat="42.264555" lon="14.029425"><ele>306.0</ele><time>2026-05-03T12:10:15.695Z</time></trkpt><trkpt lat="42.2647" lon="14.02939"><ele>306.0</ele><time>2026-05-03T12:10:16.694Z</time></trkpt><trkpt lat="42.2648117" lon="14.029355"><ele>306.0</ele><time>2026-05-03T12:10:17.694Z</time></trkpt><trkpt lat="42.264885" lon="14.02933"><ele>306.0</ele><time>2026-05-03T12:10:18.695Z</time></trkpt><trkpt lat="42.2649767" lon="14.0293633"><ele>306.0</ele><time>2026-05-03T12:10:20.694Z</time></trkpt><trkpt lat="42.26505" lon="14.02951"><ele>306.0</ele><time>2026-05-03T12:10:22.695Z</time></trkpt><trkpt lat="42.26509" lon="14.0295983"><ele>306.0</ele><time>2026-05-03T12:10:23.694Z</time></trkpt><trkpt lat="42.2651267" lon="14.02969"><ele>306.0</ele><time>2026-05-03T12:10:24.694Z</time></trkpt><trkpt lat="42.2651467" lon="14.029785"><ele>306.0</ele><time>2026-05-03T12:10:25.695Z</time></trkpt><trkpt lat="42.2651567" lon="14.0298883"><ele>306.0</ele><time>2026-05-03T12:10:26.694Z</time></trkpt><trkpt lat="42.265165" lon="14.0300033"><ele>306.0</ele><time>2026-05-03T12:10:27.695Z</time></trkpt><trkpt lat="42.2651683" lon="14.03012"><ele>306.40000000000003</ele><time>2026-05-03T12:10:28.694Z</time></trkpt><trkpt lat="42.2651633" lon="14.030225"><ele>306.8</ele><time>2026-05-03T12:10:29.695Z</time></trkpt><trkpt lat="42.2651817" lon="14.0303667"><ele>307.20000000000005</ele><time>2026-05-03T12:10:31.695Z</time></trkpt><trkpt lat="42.2652467" lon="14.0304667"><ele>307.6</ele><time>2026-05-03T12:10:33.694Z</time></trkpt><trkpt lat="42.2653317" lon="14.03057"><ele>308.0</ele><time>2026-05-03T12:10:35.695Z</time></trkpt><trkpt lat="42.2654083" lon="14.0307033"><ele>308.0</ele><time>2026-05-03T12:10:37.694Z</time></trkpt><trkpt lat="42.26545" lon="14.0308317"><ele>308.0</ele><time>2026-05-03T12:10:39.695Z</time></trkpt><trkpt lat="42.26546" lon="14.0309483"><ele>308.0</ele><time>2026-05-03T12:10:41.695Z</time></trkpt><trkpt lat="42.2654917" lon="14.0311117"><ele>308.0</ele><time>2026-05-03T12:10:43.694Z</time></trkpt><trkpt lat="42.265525" lon="14.0312233"><ele>308.0</ele><time>2026-05-03T12:10:44.695Z</time></trkpt><trkpt lat="42.265565" lon="14.03135"><ele>308.0</ele><time>2026-05-03T12:10:45.695Z</time></trkpt><trkpt lat="42.2656033" lon="14.031465"><ele>308.0</ele><time>2026-05-03T12:10:46.694Z</time></trkpt><trkpt lat="42.2656467" lon="14.031565"><ele>308.0</ele><time>2026-05-03T12:10:47.694Z</time></trkpt><trkpt lat="42.2656767" lon="14.0316567"><ele>308.0</ele><time>2026-05-03T12:10:48.694Z</time></trkpt><trkpt lat="42.2657033" lon="14.031745"><ele>308.0</ele><time>2026-05-03T12:10:49.695Z</time></trkpt><trkpt lat="42.2657217" lon="14.0318383"><ele>308.0</ele><time>2026-05-03T12:10:50.695Z</time></trkpt><trkpt lat="42.265735" lon="14.031935"><ele>304.83333333333337</ele><time>2026-05-03T12:10:51.695Z</time></trkpt><trkpt lat="42.265755" lon="14.0320383"><ele>301.6666666666667</ele><time>2026-05-03T12:10:52.695Z</time></trkpt><trkpt lat="42.26579" lon="14.0321333"><ele>298.5</ele><time>2026-05-03T12:10:53.695Z</time></trkpt><trkpt lat="42.26583" lon="14.0322267"><ele>295.3333333333333</ele><time>2026-05-03T12:10:54.695Z</time></trkpt><trkpt lat="42.26587" lon="14.0323167"><ele>292.16666666666663</ele><time>2026-05-03T12:10:55.695Z</time></trkpt><trkpt lat="42.2659183" lon="14.032415"><ele>289.0</ele><time>2026-05-03T12:10:56.694Z</time></trkpt><trkpt lat="42.2659833" lon="14.0325067"><ele>287.66666666666663</ele><time>2026-05-03T12:10:57.695Z</time></trkpt><trkpt lat="42.266045" lon="14.032595"><ele>286.3333333333333</ele><time>2026-05-03T12:10:58.695Z</time></trkpt><trkpt lat="42.266095" lon="14.0326833"><ele>285.0</ele><time>2026-05-03T12:10:59.695Z</time></trkpt><trkpt lat="42.26614" lon="14.0327533"><ele>283.6666666666667</ele><time>2026-05-03T12:11:00.695Z</time></trkpt><trkpt lat="42.2661967" lon="14.0328167"><ele>282.33333333333337</ele><time>2026-05-03T12:11:01.695Z</time></trkpt><trkpt lat="42.2662533" lon="14.03287"><ele>281.0</ele><time>2026-05-03T12:11:02.694Z</time></trkpt><trkpt lat="42.2663533" lon="14.03295"><ele>281.0</ele><time>2026-05-03T12:11:04.695Z</time></trkpt><trkpt lat="42.2664317" lon="14.0329783"><ele>281.0</ele><time>2026-05-03T12:11:06.694Z</time></trkpt><trkpt lat="42.2664933" lon="14.03295"><ele>281.0</ele><time>2026-05-03T12:11:08.694Z</time></trkpt><trkpt lat="42.2665867" lon="14.0328717"><ele>281.0</ele><time>2026-05-03T12:11:10.694Z</time></trkpt><trkpt lat="42.266665" lon="14.0327683"><ele>281.0</ele><time>2026-05-03T12:11:12.695Z</time></trkpt><trkpt lat="42.2667167" lon="14.03269"><ele>281.0</ele><time>2026-05-03T12:11:14.694Z</time></trkpt><trkpt lat="42.2667883" lon="14.0327633"><ele>278.2</ele><time>2026-05-03T12:11:17.695Z</time></trkpt><trkpt lat="42.2667983" lon="14.0328483"><ele>275.40000000000003</ele><time>2026-05-03T12:11:18.695Z</time></trkpt><trkpt lat="42.2668067" lon="14.0329633"><ele>272.6</ele><time>2026-05-03T12:11:19.694Z</time></trkpt><trkpt lat="42.266805" lon="14.0331133"><ele>269.8</ele><time>2026-05-03T12:11:20.694Z</time></trkpt><trkpt lat="42.2668067" lon="14.03328"><ele>267.0</ele><time>2026-05-03T12:11:21.694Z</time></trkpt><trkpt lat="42.266805" lon="14.0334317"><ele>265.0</ele><time>2026-05-03T12:11:22.695Z</time></trkpt><trkpt lat="42.2667967" lon="14.03358"><ele>263.0</ele><time>2026-05-03T12:11:23.695Z</time></trkpt><trkpt lat="42.26678" lon="14.0337033"><ele>261.0</ele><time>2026-05-03T12:11:24.695Z</time></trkpt><trkpt lat="42.2667667" lon="14.0338017"><ele>259.0</ele><time>2026-05-03T12:11:25.695Z</time></trkpt><trkpt lat="42.2667517" lon="14.033925"><ele>257.0</ele><time>2026-05-03T12:11:27.695Z</time></trkpt><trkpt lat="42.266775" lon="14.034005"><ele>255.0</ele><time>2026-05-03T12:11:29.695Z</time></trkpt><trkpt lat="42.2668167" lon="14.0341283"><ele>253.2</ele><time>2026-05-03T12:11:39.695Z</time></trkpt><trkpt lat="42.266885" lon="14.0342433"><ele>251.4</ele><time>2026-05-03T12:11:42.695Z</time></trkpt><trkpt lat="42.2669867" lon="14.0343467"><ele>249.60000000000002</ele><time>2026-05-03T12:11:44.694Z</time></trkpt><trkpt lat="42.2670467" lon="14.0343983"><ele>247.8</ele><time>2026-05-03T12:11:45.695Z</time></trkpt><trkpt lat="42.2671" lon="14.0344617"><ele>246.0</ele><time>2026-05-03T12:11:46.695Z</time></trkpt><trkpt lat="42.2671483" lon="14.03454"><ele>246.0</ele><time>2026-05-03T12:11:47.695Z</time></trkpt><trkpt lat="42.2671933" lon="14.0346217"><ele>246.0</ele><time>2026-05-03T12:11:48.694Z</time></trkpt><trkpt lat="42.2672433" lon="14.0347133"><ele>246.0</ele><time>2026-05-03T12:11:49.695Z</time></trkpt><trkpt lat="42.267285" lon="14.034805"><ele>246.0</ele><time>2026-05-03T12:11:50.694Z</time></trkpt><trkpt lat="42.2673217" lon="14.034895"><ele>246.0</ele><time>2026-05-03T12:11:51.694Z</time></trkpt><trkpt lat="42.267355" lon="14.03498"><ele>246.0</ele><time>2026-05-03T12:11:52.695Z</time></trkpt><trkpt lat="42.2673833" lon="14.0351017"><ele>244.20000000000002</ele><time>2026-05-03T12:11:54.695Z</time></trkpt><trkpt lat="42.2673733" lon="14.0352533"><ele>242.40000000000003</ele><time>2026-05-03T12:11:56.695Z</time></trkpt><trkpt lat="42.267365" lon="14.035345"><ele>240.6</ele><time>2026-05-03T12:11:57.694Z</time></trkpt><trkpt lat="42.2673617" lon="14.0355217"><ele>238.8</ele><time>2026-05-03T12:11:59.695Z</time></trkpt><trkpt lat="42.2673617" lon="14.0356133"><ele>237.0</ele><time>2026-05-03T12:12:00.694Z</time></trkpt><trkpt lat="42.2673567" lon="14.0357617"><ele>236.33333333333334</ele><time>2026-05-03T12:12:02.693Z</time></trkpt><trkpt lat="42.2673467" lon="14.035865"><ele>235.66666666666669</ele><time>2026-05-03T12:12:54.694Z</time></trkpt><trkpt lat="42.267305" lon="14.03596"><ele>235.0</ele><time>2026-05-03T12:12:56.694Z</time></trkpt><trkpt lat="42.267275" lon="14.0360467"><ele>234.33333333333334</ele><time>2026-05-03T12:12:58.694Z</time></trkpt><trkpt lat="42.267315" lon="14.036155"><ele>233.66666666666669</ele><time>2026-05-03T12:13:01.694Z</time></trkpt><trkpt lat="42.2673667" lon="14.036225"><ele>233.0</ele><time>2026-05-03T12:13:03.693Z</time></trkpt><trkpt lat="42.2674467" lon="14.036305"><ele>231.4</ele><time>2026-05-03T12:13:05.693Z</time></trkpt><trkpt lat="42.2675283" lon="14.03642"><ele>229.8</ele><time>2026-05-03T12:13:07.693Z</time></trkpt><trkpt lat="42.2676" lon="14.036545"><ele>228.2</ele><time>2026-05-03T12:13:09.694Z</time></trkpt><trkpt lat="42.26766" lon="14.0366233"><ele>226.6</ele><time>2026-05-03T12:13:11.694Z</time></trkpt><trkpt lat="42.2677617" lon="14.03662"><ele>225.0</ele><time>2026-05-03T12:13:14.693Z</time></trkpt><trkpt lat="42.2678633" lon="14.036645"><ele>224.33333333333334</ele><time>2026-05-03T12:13:16.694Z</time></trkpt><trkpt lat="42.2679283" lon="14.03668"><ele>223.66666666666669</ele><time>2026-05-03T12:13:17.693Z</time></trkpt><trkpt lat="42.2679983" lon="14.03672"><ele>223.0</ele><time>2026-05-03T12:13:18.694Z</time></trkpt><trkpt lat="42.268065" lon="14.0367583"><ele>222.33333333333334</ele><time>2026-05-03T12:13:19.694Z</time></trkpt><trkpt lat="42.2681233" lon="14.0367917"><ele>221.66666666666669</ele><time>2026-05-03T12:13:20.694Z</time></trkpt><trkpt lat="42.2682183" lon="14.0368483"><ele>221.0</ele><time>2026-05-03T12:13:22.693Z</time></trkpt><trkpt lat="42.2683067" lon="14.0368983"><ele>220.50000000000003</ele><time>2026-05-03T12:13:24.694Z</time></trkpt><trkpt lat="42.2683817" lon="14.03689"><ele>220.0</ele><time>2026-05-03T12:13:26.693Z</time></trkpt><trkpt lat="42.2684317" lon="14.036785"><ele>219.5</ele><time>2026-05-03T12:13:29.694Z</time></trkpt><trkpt lat="42.2685" lon="14.0367417"><ele>219.0</ele><time>2026-05-03T12:13:31.693Z</time></trkpt><trkpt lat="42.2686033" lon="14.0367483"><ele>218.50000000000003</ele><time>2026-05-03T12:13:33.693Z</time></trkpt><trkpt lat="42.2686717" lon="14.036745"><ele>218.0</ele><time>2026-05-03T12:13:34.693Z</time></trkpt><trkpt lat="42.2687417" lon="14.0367333"><ele>218.0</ele><time>2026-05-03T12:13:35.694Z</time></trkpt><trkpt lat="42.268805" lon="14.03672"><ele>218.0</ele><time>2026-05-03T12:13:36.693Z</time></trkpt><trkpt lat="42.26887" lon="14.0367083"><ele>218.0</ele><time>2026-05-03T12:13:37.693Z</time></trkpt><trkpt lat="42.2689433" lon="14.0367067"><ele>218.0</ele><time>2026-05-03T12:13:38.693Z</time></trkpt><trkpt lat="42.2690183" lon="14.0367067"><ele>218.0</ele><time>2026-05-03T12:13:39.694Z</time></trkpt><trkpt lat="42.2690883" lon="14.0366967"><ele>218.0</ele><time>2026-05-03T12:13:40.694Z</time></trkpt><trkpt lat="42.26916" lon="14.0366967"><ele>218.0</ele><time>2026-05-03T12:13:41.694Z</time></trkpt><trkpt lat="42.2692217" lon="14.03672"><ele>219.8</ele><time>2026-05-03T12:13:42.694Z</time></trkpt><trkpt lat="42.26932" lon="14.036795"><ele>221.60000000000002</ele><time>2026-05-03T12:13:44.694Z</time></trkpt><trkpt lat="42.26939" lon="14.036845"><ele>223.39999999999998</ele><time>2026-05-03T12:13:46.694Z</time></trkpt><trkpt lat="42.269485" lon="14.0368583"><ele>225.2</ele><time>2026-05-03T12:13:49.693Z</time></trkpt><trkpt lat="42.2695633" lon="14.03682"><ele>227.0</ele><time>2026-05-03T12:13:51.694Z</time></trkpt><trkpt lat="42.2696467" lon="14.0367533"><ele>227.0</ele><time>2026-05-03T12:13:53.694Z</time></trkpt><trkpt lat="42.2697283" lon="14.03666"><ele>227.0</ele><time>2026-05-03T12:13:55.694Z</time></trkpt><trkpt lat="42.2698167" lon="14.0365617"><ele>227.0</ele><time>2026-05-03T12:13:57.694Z</time></trkpt><trkpt lat="42.269875" lon="14.03644"><ele>227.0</ele><time>2026-05-03T12:13:59.694Z</time></trkpt><trkpt lat="42.2699467" lon="14.0363117"><ele>227.0</ele><time>2026-05-03T12:14:01.694Z</time></trkpt><trkpt lat="42.2699883" lon="14.0362467"><ele>232.66666666666669</ele><time>2026-05-03T12:14:02.693Z</time></trkpt><trkpt lat="42.2700617" lon="14.0361883"><ele>238.33333333333334</ele><time>2026-05-03T12:14:04.694Z</time></trkpt><trkpt lat="42.270155" lon="14.0362133"><ele>244.0</ele><time>2026-05-03T12:14:06.693Z</time></trkpt><trkpt lat="42.27028" lon="14.0362117"><ele>249.66666666666669</ele><time>2026-05-03T12:14:08.693Z</time></trkpt><trkpt lat="42.2703467" lon="14.0361883"><ele>255.33333333333334</ele><time>2026-05-03T12:14:09.694Z</time></trkpt><trkpt lat="42.2704117" lon="14.036155"><ele>261.0</ele><time>2026-05-03T12:14:10.694Z</time></trkpt><trkpt lat="42.270475" lon="14.036125"><ele>261.0</ele><time>2026-05-03T12:14:11.693Z</time></trkpt><trkpt lat="42.27054" lon="14.036105"><ele>261.0</ele><time>2026-05-03T12:14:12.693Z</time></trkpt><trkpt lat="42.270605" lon="14.0361017"><ele>261.0</ele><time>2026-05-03T12:14:13.693Z</time></trkpt><trkpt lat="42.2707217" lon="14.0361167"><ele>261.0</ele><time>2026-05-03T12:14:15.694Z</time></trkpt><trkpt lat="42.2707833" lon="14.036135"><ele>261.0</ele><time>2026-05-03T12:14:16.693Z</time></trkpt><trkpt lat="42.2709067" lon="14.0361683"><ele>261.0</ele><time>2026-05-03T12:14:18.693Z</time></trkpt><trkpt lat="42.2710283" lon="14.0361967"><ele>259.40000000000003</ele><time>2026-05-03T12:14:20.693Z</time></trkpt><trkpt lat="42.271135" lon="14.0362283"><ele>257.8</ele><time>2026-05-03T12:14:22.693Z</time></trkpt><trkpt lat="42.2712267" lon="14.036235"><ele>256.20000000000005</ele><time>2026-05-03T12:14:24.694Z</time></trkpt><trkpt lat="42.2712767" lon="14.0363183"><ele>254.60000000000002</ele><time>2026-05-03T12:14:27.694Z</time></trkpt><trkpt lat="42.271305" lon="14.0364267"><ele>253.0</ele><time>2026-05-03T12:14:29.693Z</time></trkpt><trkpt lat="42.2713733" lon="14.0365083"><ele>248.8</ele><time>2026-05-03T12:14:31.694Z</time></trkpt><trkpt lat="42.271465" lon="14.0365567"><ele>244.60000000000002</ele><time>2026-05-03T12:14:33.693Z</time></trkpt><trkpt lat="42.2715683" lon="14.0365767"><ele>240.39999999999998</ele><time>2026-05-03T12:14:45.693Z</time></trkpt><trkpt lat="42.27163" lon="14.03668"><ele>236.2</ele><time>2026-05-03T12:14:47.693Z</time></trkpt><trkpt lat="42.2716917" lon="14.0367683"><ele>232.0</ele><time>2026-05-03T12:14:49.693Z</time></trkpt><trkpt lat="42.27168" lon="14.0366483"><ele>231.99999999999997</ele><time>2026-05-03T12:14:56.692Z</time></trkpt><trkpt lat="42.271635" lon="14.036565"><ele>232.0</ele><time>2026-05-03T12:14:58.693Z</time></trkpt><trkpt lat="42.271565" lon="14.036495"><ele>232.0</ele><time>2026-05-03T12:15:00.692Z</time></trkpt><trkpt lat="42.271485" lon="14.036445"><ele>232.0</ele><time>2026-05-03T12:15:02.692Z</time></trkpt><trkpt lat="42.2715117" lon="14.0365317"><ele>231.99999999999997</ele><time>2026-05-03T12:15:30.692Z</time></trkpt><trkpt lat="42.2714317" lon="14.0365367"><ele>232.0</ele><time>2026-05-03T12:15:33.693Z</time></trkpt><trkpt lat="42.2713667" lon="14.0364733"><ele>236.2</ele><time>2026-05-03T12:15:35.692Z</time></trkpt><trkpt lat="42.2713" lon="14.0363717"><ele>240.39999999999998</ele><time>2026-05-03T12:15:37.693Z</time></trkpt><trkpt lat="42.2712733" lon="14.0362617"><ele>244.60000000000002</ele><time>2026-05-03T12:15:39.693Z</time></trkpt><trkpt lat="42.2712667" lon="14.0361733"><ele>248.8</ele><time>2026-05-03T12:15:41.692Z</time></trkpt><trkpt lat="42.27128" lon="14.03601"><ele>253.0</ele><time>2026-05-03T12:16:16.693Z</time></trkpt><trkpt lat="42.27131" lon="14.0359083"><ele>253.00000000000003</ele><time>2026-05-03T12:16:17.693Z</time></trkpt><trkpt lat="42.2713333" lon="14.0358167"><ele>253.0</ele><time>2026-05-03T12:16:18.692Z</time></trkpt><trkpt lat="42.2713433" lon="14.0357283"><ele>253.00000000000003</ele><time>2026-05-03T12:16:19.692Z</time></trkpt><trkpt lat="42.2713467" lon="14.0356383"><ele>253.00000000000003</ele><time>2026-05-03T12:16:20.693Z</time></trkpt><trkpt lat="42.27134" lon="14.0355533"><ele>253.0</ele><time>2026-05-03T12:16:21.692Z</time></trkpt><trkpt lat="42.27133" lon="14.035465"><ele>253.00000000000003</ele><time>2026-05-03T12:16:22.692Z</time></trkpt><trkpt lat="42.2713267" lon="14.0353717"><ele>253.00000000000003</ele><time>2026-05-03T12:16:23.692Z</time></trkpt><trkpt lat="42.271335" lon="14.0352233"><ele>253.2</ele><time>2026-05-03T12:16:25.692Z</time></trkpt><trkpt lat="42.2713433" lon="14.035125"><ele>253.4</ele><time>2026-05-03T12:16:27.693Z</time></trkpt><trkpt lat="42.2713767" lon="14.034985"><ele>253.59999999999997</ele><time>2026-05-03T12:16:46.693Z</time></trkpt><trkpt lat="42.2714267" lon="14.0348383"><ele>253.79999999999998</ele><time>2026-05-03T12:16:48.692Z</time></trkpt><trkpt lat="42.2714583" lon="14.034755"><ele>254.0</ele><time>2026-05-03T12:16:49.693Z</time></trkpt><trkpt lat="42.2715117" lon="14.0346067"><ele>254.0</ele><time>2026-05-03T12:16:51.693Z</time></trkpt><trkpt lat="42.2715467" lon="14.0344367"><ele>253.99999999999997</ele><time>2026-05-03T12:16:53.693Z</time></trkpt><trkpt lat="42.2715667" lon="14.0343333"><ele>253.99999999999997</ele><time>2026-05-03T12:16:54.693Z</time></trkpt><trkpt lat="42.27158" lon="14.0342067"><ele>254.0</ele><time>2026-05-03T12:16:55.693Z</time></trkpt><trkpt lat="42.2715967" lon="14.03408"><ele>254.0</ele><time>2026-05-03T12:16:56.693Z</time></trkpt><trkpt lat="42.2716183" lon="14.03397"><ele>256.59999999999997</ele><time>2026-05-03T12:16:57.693Z</time></trkpt><trkpt lat="42.2716367" lon="14.0338833"><ele>259.2</ele><time>2026-05-03T12:16:58.692Z</time></trkpt><trkpt lat="42.2716833" lon="14.0337167"><ele>261.79999999999995</ele><time>2026-05-03T12:17:00.692Z</time></trkpt><trkpt lat="42.2717083" lon="14.0336267"><ele>264.4</ele><time>2026-05-03T12:17:01.693Z</time></trkpt><trkpt lat="42.2717317" lon="14.0335367"><ele>267.0</ele><time>2026-05-03T12:17:02.692Z</time></trkpt><trkpt lat="42.2717617" lon="14.03338"><ele>269.6</ele><time>2026-05-03T12:17:04.692Z</time></trkpt><trkpt lat="42.271755" lon="14.0332367"><ele>272.2</ele><time>2026-05-03T12:17:06.692Z</time></trkpt><trkpt lat="42.2717467" lon="14.0330617"><ele>274.8</ele><time>2026-05-03T12:17:08.692Z</time></trkpt><trkpt lat="42.2717567" lon="14.0329733"><ele>277.4</ele><time>2026-05-03T12:17:09.691Z</time></trkpt><trkpt lat="42.2718267" lon="14.0328617"><ele>280.0</ele><time>2026-05-03T12:17:11.691Z</time></trkpt><trkpt lat="42.2719333" lon="14.03281"><ele>280.0</ele><time>2026-05-03T12:17:13.691Z</time></trkpt><trkpt lat="42.2719667" lon="14.0326967"><ele>280.0</ele><time>2026-05-03T12:17:15.692Z</time></trkpt><trkpt lat="42.2719817" lon="14.0324983"><ele>280.0</ele><time>2026-05-03T12:17:17.691Z</time></trkpt><trkpt lat="42.271995" lon="14.0323733"><ele>280.0</ele><time>2026-05-03T12:17:18.692Z</time></trkpt><trkpt lat="42.27201" lon="14.0322433"><ele>280.0</ele><time>2026-05-03T12:17:19.691Z</time></trkpt><trkpt lat="42.2720333" lon="14.0321117"><ele>281.66666666666663</ele><time>2026-05-03T12:17:20.692Z</time></trkpt><trkpt lat="42.2720533" lon="14.03199"><ele>283.3333333333333</ele><time>2026-05-03T12:17:21.691Z</time></trkpt><trkpt lat="42.2720617" lon="14.031885"><ele>285.0</ele><time>2026-05-03T12:17:22.692Z</time></trkpt><trkpt lat="42.272065" lon="14.0317883"><ele>286.6666666666667</ele><time>2026-05-03T12:17:23.692Z</time></trkpt><trkpt lat="42.272065" lon="14.0316817"><ele>288.33333333333337</ele><time>2026-05-03T12:17:24.692Z</time></trkpt><trkpt lat="42.2720767" lon="14.0315917"><ele>290.0</ele><time>2026-05-03T12:17:25.691Z</time></trkpt><trkpt lat="42.272105" lon="14.0314533"><ele>289.8</ele><time>2026-05-03T12:17:27.691Z</time></trkpt><trkpt lat="42.2721233" lon="14.031365"><ele>289.6</ele><time>2026-05-03T12:17:29.691Z</time></trkpt><trkpt lat="42.2721483" lon="14.031225"><ele>289.4</ele><time>2026-05-03T12:17:32.691Z</time></trkpt><trkpt lat="42.2721783" lon="14.0310717"><ele>289.2</ele><time>2026-05-03T12:17:34.692Z</time></trkpt><trkpt lat="42.2722017" lon="14.0309467"><ele>289.0</ele><time>2026-05-03T12:17:36.692Z</time></trkpt><trkpt lat="42.272275" lon="14.0308817"><ele>289.0</ele><time>2026-05-03T12:17:39.692Z</time></trkpt><trkpt lat="42.2723383" lon="14.0308733"><ele>289.0</ele><time>2026-05-03T12:17:40.691Z</time></trkpt><trkpt lat="42.2724183" lon="14.03086"><ele>289.0</ele><time>2026-05-03T12:17:41.692Z</time></trkpt><trkpt lat="42.272515" lon="14.0308433"><ele>289.0</ele><time>2026-05-03T12:17:42.692Z</time></trkpt><trkpt lat="42.27262" lon="14.0308167"><ele>289.0</ele><time>2026-05-03T12:17:43.691Z</time></trkpt><trkpt lat="42.2727367" lon="14.030805"><ele>287.0</ele><time>2026-05-03T12:17:44.692Z</time></trkpt><trkpt lat="42.2728633" lon="14.030795"><ele>285.0</ele><time>2026-05-03T12:17:45.692Z</time></trkpt><trkpt lat="42.2729917" lon="14.0307883"><ele>283.0</ele><time>2026-05-03T12:17:46.691Z</time></trkpt><trkpt lat="42.2731133" lon="14.0307883"><ele>281.0</ele><time>2026-05-03T12:17:47.692Z</time></trkpt><trkpt lat="42.2732317" lon="14.030815"><ele>281.0</ele><time>2026-05-03T12:17:48.692Z</time></trkpt><trkpt lat="42.2733467" lon="14.0308667"><ele>281.0</ele><time>2026-05-03T12:17:49.691Z</time></trkpt><trkpt lat="42.273465" lon="14.0309383"><ele>281.0</ele><time>2026-05-03T12:17:50.692Z</time></trkpt><trkpt lat="42.2735817" lon="14.031005"><ele>281.0</ele><time>2026-05-03T12:17:51.691Z</time></trkpt><trkpt lat="42.2736967" lon="14.0311117"><ele>281.0</ele><time>2026-05-03T12:17:52.691Z</time></trkpt><trkpt lat="42.273815" lon="14.031235"><ele>281.0</ele><time>2026-05-03T12:17:53.691Z</time></trkpt><trkpt lat="42.2739183" lon="14.0313617"><ele>281.0</ele><time>2026-05-03T12:17:54.691Z</time></trkpt><trkpt lat="42.274025" lon="14.0314817"><ele>281.0</ele><time>2026-05-03T12:17:55.692Z</time></trkpt><trkpt lat="42.2741183" lon="14.0315783"><ele>280.25</ele><time>2026-05-03T12:17:56.692Z</time></trkpt><trkpt lat="42.2742083" lon="14.0316483"><ele>279.5</ele><time>2026-05-03T12:17:57.691Z</time></trkpt><trkpt lat="42.2743033" lon="14.0317"><ele>278.75</ele><time>2026-05-03T12:17:58.692Z</time></trkpt><trkpt lat="42.27443" lon="14.03172"><ele>278.0</ele><time>2026-05-03T12:17:59.692Z</time></trkpt><trkpt lat="42.274555" lon="14.0317033"><ele>278.0</ele><time>2026-05-03T12:18:00.692Z</time></trkpt><trkpt lat="42.2746883" lon="14.0316417"><ele>278.0</ele><time>2026-05-03T12:18:01.692Z</time></trkpt><trkpt lat="42.2748233" lon="14.0315717"><ele>278.0</ele><time>2026-05-03T12:18:02.692Z</time></trkpt><trkpt lat="42.2749583" lon="14.0315"><ele>278.0</ele><time>2026-05-03T12:18:03.692Z</time></trkpt><trkpt lat="42.2750883" lon="14.0314433"><ele>270.0</ele><time>2026-05-03T12:18:04.691Z</time></trkpt><trkpt lat="42.2752083" lon="14.0313767"><ele>262.0</ele><time>2026-05-03T12:18:05.692Z</time></trkpt><trkpt lat="42.27533" lon="14.0313217"><ele>254.0</ele><time>2026-05-03T12:18:06.692Z</time></trkpt><trkpt lat="42.2754467" lon="14.0312633"><ele>246.0</ele><time>2026-05-03T12:18:07.692Z</time></trkpt><trkpt lat="42.275565" lon="14.0312133"><ele>248.0</ele><time>2026-05-03T12:18:08.692Z</time></trkpt><trkpt lat="42.2756783" lon="14.0311583"><ele>250.0</ele><time>2026-05-03T12:18:09.692Z</time></trkpt><trkpt lat="42.27591" lon="14.03105"><ele>252.0</ele><time>2026-05-03T12:18:11.691Z</time></trkpt><trkpt lat="42.2760233" lon="14.031005"><ele>252.0</ele><time>2026-05-03T12:18:12.692Z</time></trkpt><trkpt lat="42.2761317" lon="14.0309817"><ele>252.0</ele><time>2026-05-03T12:18:13.692Z</time></trkpt><trkpt lat="42.2762467" lon="14.0310083"><ele>252.0</ele><time>2026-05-03T12:18:14.692Z</time></trkpt><trkpt lat="42.2763417" lon="14.0310633"><ele>252.0</ele><time>2026-05-03T12:18:15.691Z</time></trkpt><trkpt lat="42.2764267" lon="14.0311517"><ele>252.0</ele><time>2026-05-03T12:18:16.691Z</time></trkpt><trkpt lat="42.27652" lon="14.0312867"><ele>253.0</ele><time>2026-05-03T12:18:17.691Z</time></trkpt><trkpt lat="42.27662" lon="14.0314517"><ele>254.0</ele><time>2026-05-03T12:18:18.692Z</time></trkpt><trkpt lat="42.2767317" lon="14.0316333"><ele>255.0</ele><time>2026-05-03T12:18:19.691Z</time></trkpt><trkpt lat="42.2768533" lon="14.03183"><ele>255.0</ele><time>2026-05-03T12:18:20.691Z</time></trkpt><trkpt lat="42.2769767" lon="14.0320333"><ele>255.0</ele><time>2026-05-03T12:18:21.692Z</time></trkpt><trkpt lat="42.277095" lon="14.0322333"><ele>255.0</ele><time>2026-05-03T12:18:22.692Z</time></trkpt><trkpt lat="42.2772117" lon="14.0324183"><ele>249.33333333333331</ele><time>2026-05-03T12:18:23.692Z</time></trkpt><trkpt lat="42.27733" lon="14.0326017"><ele>243.66666666666666</ele><time>2026-05-03T12:18:24.691Z</time></trkpt><trkpt lat="42.2774367" lon="14.0327767"><ele>238.0</ele><time>2026-05-03T12:18:25.692Z</time></trkpt><trkpt lat="42.2775433" lon="14.0329383"><ele>238.0</ele><time>2026-05-03T12:18:26.691Z</time></trkpt><trkpt lat="42.2776583" lon="14.0331"><ele>238.0</ele><time>2026-05-03T12:18:27.692Z</time></trkpt><trkpt lat="42.277765" lon="14.0332667"><ele>238.0</ele><time>2026-05-03T12:18:28.692Z</time></trkpt><trkpt lat="42.2778583" lon="14.03343"><ele>239.5</ele><time>2026-05-03T12:18:29.692Z</time></trkpt><trkpt lat="42.2779433" lon="14.0335733"><ele>241.0</ele><time>2026-05-03T12:18:30.692Z</time></trkpt><trkpt lat="42.2780183" lon="14.0337233"><ele>242.5</ele><time>2026-05-03T12:18:31.691Z</time></trkpt><trkpt lat="42.2780967" lon="14.03389"><ele>244.0</ele><time>2026-05-03T12:18:32.691Z</time></trkpt><trkpt lat="42.2781817" lon="14.034065"><ele>240.5</ele><time>2026-05-03T12:18:33.692Z</time></trkpt><trkpt lat="42.2782617" lon="14.03424"><ele>237.0</ele><time>2026-05-03T12:18:34.692Z</time></trkpt><trkpt lat="42.2783383" lon="14.0344117"><ele>233.5</ele><time>2026-05-03T12:18:35.691Z</time></trkpt><trkpt lat="42.2784083" lon="14.0345817"><ele>230.0</ele><time>2026-05-03T12:18:36.691Z</time></trkpt><trkpt lat="42.27849" lon="14.034745"><ele>230.0</ele><time>2026-05-03T12:18:37.692Z</time></trkpt><trkpt lat="42.2785767" lon="14.0348967"><ele>230.0</ele><time>2026-05-03T12:18:38.691Z</time></trkpt><trkpt lat="42.2786833" lon="14.0350383"><ele>230.0</ele><time>2026-05-03T12:18:39.691Z</time></trkpt><trkpt lat="42.2788083" lon="14.035185"><ele>227.33333333333334</ele><time>2026-05-03T12:18:40.691Z</time></trkpt><trkpt lat="42.2789417" lon="14.0353417"><ele>224.66666666666669</ele><time>2026-05-03T12:18:41.692Z</time></trkpt><trkpt lat="42.279065" lon="14.0355017"><ele>222.0</ele><time>2026-05-03T12:18:42.692Z</time></trkpt><trkpt lat="42.2791733" lon="14.0356683"><ele>222.66666666666669</ele><time>2026-05-03T12:18:43.691Z</time></trkpt><trkpt lat="42.2792633" lon="14.03585"><ele>223.33333333333334</ele><time>2026-05-03T12:18:44.691Z</time></trkpt><trkpt lat="42.2793433" lon="14.036045"><ele>224.0</ele><time>2026-05-03T12:18:45.692Z</time></trkpt><trkpt lat="42.2794283" lon="14.0362467"><ele>224.0</ele><time>2026-05-03T12:18:46.692Z</time></trkpt><trkpt lat="42.2795267" lon="14.03645"><ele>224.0</ele><time>2026-05-03T12:18:47.692Z</time></trkpt><trkpt lat="42.27963" lon="14.0366417"><ele>224.0</ele><time>2026-05-03T12:18:48.691Z</time></trkpt><trkpt lat="42.2797283" lon="14.03683"><ele>223.0</ele><time>2026-05-03T12:18:49.691Z</time></trkpt><trkpt lat="42.2798233" lon="14.0370133"><ele>222.0</ele><time>2026-05-03T12:18:50.691Z</time></trkpt><trkpt lat="42.2799133" lon="14.03719"><ele>221.0</ele><time>2026-05-03T12:18:51.691Z</time></trkpt><trkpt lat="42.2799867" lon="14.03736"><ele>221.0</ele><time>2026-05-03T12:18:52.691Z</time></trkpt><trkpt lat="42.2800667" lon="14.0375333"><ele>221.0</ele><time>2026-05-03T12:18:53.692Z</time></trkpt><trkpt lat="42.2801567" lon="14.0377033"><ele>221.0</ele><time>2026-05-03T12:18:54.692Z</time></trkpt><trkpt lat="42.2802533" lon="14.037875"><ele>221.0</ele><time>2026-05-03T12:18:55.691Z</time></trkpt><trkpt lat="42.2803533" lon="14.03805"><ele>221.0</ele><time>2026-05-03T12:18:56.692Z</time></trkpt><trkpt lat="42.2804617" lon="14.0382217"><ele>221.0</ele><time>2026-05-03T12:18:57.692Z</time></trkpt><trkpt lat="42.2805733" lon="14.0383867"><ele>218.33333333333334</ele><time>2026-05-03T12:18:58.691Z</time></trkpt><trkpt lat="42.280685" lon="14.0385383"><ele>215.66666666666669</ele><time>2026-05-03T12:18:59.691Z</time></trkpt><trkpt lat="42.280795" lon="14.03869"><ele>213.0</ele><time>2026-05-03T12:19:00.692Z</time></trkpt><trkpt lat="42.2809067" lon="14.038835"><ele>213.0</ele><time>2026-05-03T12:19:01.691Z</time></trkpt><trkpt lat="42.2810367" lon="14.0389717"><ele>213.0</ele><time>2026-05-03T12:19:02.692Z</time></trkpt><trkpt lat="42.2811733" lon="14.0390983"><ele>213.0</ele><time>2026-05-03T12:19:03.692Z</time></trkpt><trkpt lat="42.2813367" lon="14.039225"><ele>212.66666666666669</ele><time>2026-05-03T12:19:04.691Z</time></trkpt><trkpt lat="42.2814933" lon="14.0393417"><ele>212.33333333333334</ele><time>2026-05-03T12:19:05.691Z</time></trkpt><trkpt lat="42.2816617" lon="14.03944"><ele>212.0</ele><time>2026-05-03T12:19:06.692Z</time></trkpt><trkpt lat="42.2818217" lon="14.0395133"><ele>212.0</ele><time>2026-05-03T12:19:07.692Z</time></trkpt><trkpt lat="42.2819767" lon="14.0395883"><ele>212.0</ele><time>2026-05-03T12:19:08.692Z</time></trkpt><trkpt lat="42.2820983" lon="14.0396867"><ele>212.0</ele><time>2026-05-03T12:19:09.691Z</time></trkpt><trkpt lat="42.28223" lon="14.0398233"><ele>210.66666666666669</ele><time>2026-05-03T12:19:10.691Z</time></trkpt><trkpt lat="42.282355" lon="14.0399683"><ele>209.33333333333331</ele><time>2026-05-03T12:19:11.691Z</time></trkpt><trkpt lat="42.2824733" lon="14.0401233"><ele>208.0</ele><time>2026-05-03T12:19:12.692Z</time></trkpt><trkpt lat="42.2825867" lon="14.0402733"><ele>208.0</ele><time>2026-05-03T12:19:13.691Z</time></trkpt><trkpt lat="42.2826833" lon="14.04042"><ele>208.0</ele><time>2026-05-03T12:19:14.691Z</time></trkpt><trkpt lat="42.2827783" lon="14.0405683"><ele>208.0</ele><time>2026-05-03T12:19:15.692Z</time></trkpt><trkpt lat="42.2828533" lon="14.0407233"><ele>208.0</ele><time>2026-05-03T12:19:16.692Z</time></trkpt><trkpt lat="42.2829167" lon="14.04089"><ele>207.0</ele><time>2026-05-03T12:19:17.691Z</time></trkpt><trkpt lat="42.2829633" lon="14.0410633"><ele>206.0</ele><time>2026-05-03T12:19:18.691Z</time></trkpt><trkpt lat="42.283005" lon="14.0412183"><ele>205.0</ele><time>2026-05-03T12:19:19.692Z</time></trkpt><trkpt lat="42.283065" lon="14.0413433"><ele>204.0</ele><time>2026-05-03T12:19:20.691Z</time></trkpt><trkpt lat="42.283135" lon="14.0414383"><ele>204.0</ele><time>2026-05-03T12:19:21.692Z</time></trkpt><trkpt lat="42.283235" lon="14.0414983"><ele>204.0</ele><time>2026-05-03T12:19:22.692Z</time></trkpt><trkpt lat="42.28336" lon="14.0415333"><ele>204.0</ele><time>2026-05-03T12:19:23.692Z</time></trkpt><trkpt lat="42.28351" lon="14.0415517"><ele>204.0</ele><time>2026-05-03T12:19:24.692Z</time></trkpt><trkpt lat="42.2836617" lon="14.0415667"><ele>204.0</ele><time>2026-05-03T12:19:25.691Z</time></trkpt><trkpt lat="42.2838167" lon="14.041595"><ele>204.0</ele><time>2026-05-03T12:19:26.692Z</time></trkpt><trkpt lat="42.2839717" lon="14.0416633"><ele>204.0</ele><time>2026-05-03T12:19:27.691Z</time></trkpt><trkpt lat="42.2841433" lon="14.041735"><ele>201.0</ele><time>2026-05-03T12:19:28.692Z</time></trkpt><trkpt lat="42.2843167" lon="14.0418117"><ele>198.0</ele><time>2026-05-03T12:19:29.691Z</time></trkpt><trkpt lat="42.2844917" lon="14.0418817"><ele>195.0</ele><time>2026-05-03T12:19:30.691Z</time></trkpt><trkpt lat="42.28467" lon="14.0419383"><ele>192.0</ele><time>2026-05-03T12:19:31.691Z</time></trkpt><trkpt lat="42.2848317" lon="14.0419983"><ele>189.0</ele><time>2026-05-03T12:19:32.692Z</time></trkpt><trkpt lat="42.2849767" lon="14.0420517"><ele>186.0</ele><time>2026-05-03T12:19:33.692Z</time></trkpt><trkpt lat="42.285125" lon="14.0421017"><ele>186.0</ele><time>2026-05-03T12:19:34.692Z</time></trkpt><trkpt lat="42.285275" lon="14.0421533"><ele>186.0</ele><time>2026-05-03T12:19:35.692Z</time></trkpt><trkpt lat="42.28543" lon="14.0422017"><ele>186.0</ele><time>2026-05-03T12:19:36.692Z</time></trkpt><trkpt lat="42.2855933" lon="14.0422417"><ele>185.0</ele><time>2026-05-03T12:19:37.692Z</time></trkpt><trkpt lat="42.2857667" lon="14.0422717"><ele>184.0</ele><time>2026-05-03T12:19:38.692Z</time></trkpt><trkpt lat="42.2859417" lon="14.0423"><ele>183.0</ele><time>2026-05-03T12:19:39.691Z</time></trkpt><trkpt lat="42.28611" lon="14.0423283"><ele>183.0</ele><time>2026-05-03T12:19:40.692Z</time></trkpt><trkpt lat="42.2862783" lon="14.0423683"><ele>183.0</ele><time>2026-05-03T12:19:41.691Z</time></trkpt><trkpt lat="42.2864417" lon="14.0424217"><ele>183.0</ele><time>2026-05-03T12:19:42.692Z</time></trkpt><trkpt lat="42.286625" lon="14.04248"><ele>178.66666666666666</ele><time>2026-05-03T12:19:43.691Z</time></trkpt><trkpt lat="42.286805" lon="14.0425267"><ele>174.33333333333331</ele><time>2026-05-03T12:19:44.692Z</time></trkpt><trkpt lat="42.286985" lon="14.0425833"><ele>170.0</ele><time>2026-05-03T12:19:45.691Z</time></trkpt><trkpt lat="42.2871533" lon="14.04264"><ele>168.66666666666666</ele><time>2026-05-03T12:19:46.69Z</time></trkpt><trkpt lat="42.2873317" lon="14.0426833"><ele>167.33333333333334</ele><time>2026-05-03T12:19:47.69Z</time></trkpt><trkpt lat="42.2875083" lon="14.0427267"><ele>166.0</ele><time>2026-05-03T12:19:48.69Z</time></trkpt><trkpt lat="42.28769" lon="14.04276"><ele>166.0</ele><time>2026-05-03T12:19:49.691Z</time></trkpt><trkpt lat="42.28787" lon="14.042785"><ele>166.0</ele><time>2026-05-03T12:19:50.691Z</time></trkpt><trkpt lat="42.28805" lon="14.042805"><ele>166.0</ele><time>2026-05-03T12:19:51.69Z</time></trkpt><trkpt lat="42.288225" lon="14.0428183"><ele>163.33333333333334</ele><time>2026-05-03T12:19:52.69Z</time></trkpt><trkpt lat="42.2884033" lon="14.0428217"><ele>160.66666666666666</ele><time>2026-05-03T12:19:53.69Z</time></trkpt><trkpt lat="42.2885783" lon="14.042825"><ele>158.0</ele><time>2026-05-03T12:19:54.691Z</time></trkpt><trkpt lat="42.2887417" lon="14.042825"><ele>158.0</ele><time>2026-05-03T12:19:55.691Z</time></trkpt><trkpt lat="42.288895" lon="14.0428133"><ele>158.0</ele><time>2026-05-03T12:19:56.69Z</time></trkpt><trkpt lat="42.289035" lon="14.0428083"><ele>158.0</ele><time>2026-05-03T12:19:57.69Z</time></trkpt><trkpt lat="42.2891533" lon="14.042815"><ele>158.0</ele><time>2026-05-03T12:19:58.69Z</time></trkpt><trkpt lat="42.28924" lon="14.04283"><ele>156.5</ele><time>2026-05-03T12:19:59.69Z</time></trkpt><trkpt lat="42.2893033" lon="14.0428467"><ele>155.0</ele><time>2026-05-03T12:20:00.691Z</time></trkpt><trkpt lat="42.2893283" lon="14.0429667"><ele>153.5</ele><time>2026-05-03T12:20:02.69Z</time></trkpt><trkpt lat="42.2892267" lon="14.0430517"><ele>152.0</ele><time>2026-05-03T12:20:04.691Z</time></trkpt><trkpt lat="42.2891467" lon="14.0430583"><ele>150.5</ele><time>2026-05-03T12:20:05.69Z</time></trkpt><trkpt lat="42.289085" lon="14.0430767"><ele>149.0</ele><time>2026-05-03T12:20:06.691Z</time></trkpt><trkpt lat="42.2890383" lon="14.0431833"><ele>149.0</ele><time>2026-05-03T12:20:08.69Z</time></trkpt><trkpt lat="42.2891267" lon="14.0432683"><ele>149.0</ele><time>2026-05-03T12:20:10.691Z</time></trkpt><trkpt lat="42.289225" lon="14.0432867"><ele>149.0</ele><time>2026-05-03T12:20:11.691Z</time></trkpt><trkpt lat="42.2893317" lon="14.0432933"><ele>149.0</ele><time>2026-05-03T12:20:12.691Z</time></trkpt><trkpt lat="42.2894383" lon="14.04329"><ele>149.0</ele><time>2026-05-03T12:20:13.691Z</time></trkpt><trkpt lat="42.289555" lon="14.0432667"><ele>149.0</ele><time>2026-05-03T12:20:14.69Z</time></trkpt><trkpt lat="42.289695" lon="14.0432283"><ele>149.0</ele><time>2026-05-03T12:20:15.691Z</time></trkpt><trkpt lat="42.2898483" lon="14.0431767"><ele>149.0</ele><time>2026-05-03T12:20:16.691Z</time></trkpt><trkpt lat="42.2899967" lon="14.043115"><ele>145.75</ele><time>2026-05-03T12:20:17.69Z</time></trkpt><trkpt lat="42.2901367" lon="14.0430617"><ele>142.5</ele><time>2026-05-03T12:20:18.69Z</time></trkpt><trkpt lat="42.29026" lon="14.04304"><ele>139.25</ele><time>2026-05-03T12:20:19.69Z</time></trkpt><trkpt lat="42.29036" lon="14.043025"><ele>136.0</ele><time>2026-05-03T12:20:20.691Z</time></trkpt><trkpt lat="42.290445" lon="14.0430267"><ele>136.0</ele><time>2026-05-03T12:20:21.69Z</time></trkpt><trkpt lat="42.2905117" lon="14.04304"><ele>136.0</ele><time>2026-05-03T12:20:22.69Z</time></trkpt><trkpt lat="42.290525" lon="14.043155"><ele>136.0</ele><time>2026-05-03T12:20:24.691Z</time></trkpt><trkpt lat="42.290475" lon="14.04323"><ele>136.0</ele><time>2026-05-03T12:20:25.691Z</time></trkpt><trkpt lat="42.290385" lon="14.0433033"><ele>136.0</ele><time>2026-05-03T12:20:26.69Z</time></trkpt><trkpt lat="42.2902817" lon="14.043385"><ele>132.2</ele><time>2026-05-03T12:20:27.691Z</time></trkpt><trkpt lat="42.29018" lon="14.0434767"><ele>128.39999999999998</ele><time>2026-05-03T12:20:28.691Z</time></trkpt><trkpt lat="42.2900883" lon="14.0435783"><ele>124.6</ele><time>2026-05-03T12:20:29.691Z</time></trkpt><trkpt lat="42.290015" lon="14.043665"><ele>120.8</ele><time>2026-05-03T12:20:30.69Z</time></trkpt><trkpt lat="42.2899667" lon="14.0437467"><ele>117.0</ele><time>2026-05-03T12:20:31.69Z</time></trkpt><trkpt lat="42.28994" lon="14.0438317"><ele>117.0</ele><time>2026-05-03T12:20:32.69Z</time></trkpt><trkpt lat="42.2899967" lon="14.0439367"><ele>116.99999999999999</ele><time>2026-05-03T12:20:34.691Z</time></trkpt><trkpt lat="42.2901217" lon="14.0439333"><ele>116.99999999999999</ele><time>2026-05-03T12:20:36.69Z</time></trkpt><trkpt lat="42.290185" lon="14.0439767"><ele>117.0</ele><time>2026-05-03T12:20:38.691Z</time></trkpt><trkpt lat="42.29013" lon="14.0440283"><ele>117.0</ele><time>2026-05-03T12:20:40.691Z</time></trkpt><trkpt lat="42.28999" lon="14.0440667"><ele>117.0</ele><time>2026-05-03T12:20:42.691Z</time></trkpt><trkpt lat="42.2898833" lon="14.0441117"><ele>117.0</ele><time>2026-05-03T12:20:43.69Z</time></trkpt><trkpt lat="42.28975" lon="14.0441683"><ele>117.0</ele><time>2026-05-03T12:20:44.691Z</time></trkpt><trkpt lat="42.2896083" lon="14.0442317"><ele>117.0</ele><time>2026-05-03T12:20:45.691Z</time></trkpt><trkpt lat="42.2894667" lon="14.0442933"><ele>114.25</ele><time>2026-05-03T12:20:46.691Z</time></trkpt><trkpt lat="42.289325" lon="14.0443567"><ele>111.5</ele><time>2026-05-03T12:20:47.691Z</time></trkpt><trkpt lat="42.2891967" lon="14.044405"><ele>108.75</ele><time>2026-05-03T12:20:48.691Z</time></trkpt><trkpt lat="42.2890783" lon="14.0444683"><ele>106.0</ele><time>2026-05-03T12:20:49.691Z</time></trkpt><trkpt lat="42.2889667" lon="14.0445483"><ele>105.5</ele><time>2026-05-03T12:20:50.69Z</time></trkpt><trkpt lat="42.2888633" lon="14.0446717"><ele>105.0</ele><time>2026-05-03T12:20:51.69Z</time></trkpt><trkpt lat="42.2887767" lon="14.0448283"><ele>104.5</ele><time>2026-05-03T12:20:52.691Z</time></trkpt><trkpt lat="42.2886983" lon="14.0449833"><ele>104.0</ele><time>2026-05-03T12:20:53.69Z</time></trkpt><trkpt lat="42.2886367" lon="14.04512"><ele>104.0</ele><time>2026-05-03T12:20:54.691Z</time></trkpt><trkpt lat="42.2885583" lon="14.04523"><ele>104.0</ele><time>2026-05-03T12:20:55.69Z</time></trkpt><trkpt lat="42.288475" lon="14.04531"><ele>104.0</ele><time>2026-05-03T12:20:56.69Z</time></trkpt><trkpt lat="42.2883633" lon="14.045365"><ele>104.0</ele><time>2026-05-03T12:20:57.69Z</time></trkpt><trkpt lat="42.2882267" lon="14.0453833"><ele>108.33333333333333</ele><time>2026-05-03T12:20:58.69Z</time></trkpt><trkpt lat="42.2880717" lon="14.045395"><ele>112.66666666666666</ele><time>2026-05-03T12:20:59.691Z</time></trkpt><trkpt lat="42.287915" lon="14.04542"><ele>117.0</ele><time>2026-05-03T12:21:00.69Z</time></trkpt><trkpt lat="42.2877517" lon="14.04549"><ele>117.0</ele><time>2026-05-03T12:21:01.691Z</time></trkpt><trkpt lat="42.287595" lon="14.045575"><ele>117.0</ele><time>2026-05-03T12:21:02.691Z</time></trkpt><trkpt lat="42.2874383" lon="14.0456583"><ele>117.0</ele><time>2026-05-03T12:21:03.691Z</time></trkpt><trkpt lat="42.2872817" lon="14.0457417"><ele>113.5</ele><time>2026-05-03T12:21:04.691Z</time></trkpt><trkpt lat="42.2871317" lon="14.0458017"><ele>110.0</ele><time>2026-05-03T12:21:05.691Z</time></trkpt><trkpt lat="42.2869833" lon="14.045845"><ele>106.5</ele><time>2026-05-03T12:21:06.69Z</time></trkpt><trkpt lat="42.286865" lon="14.045875"><ele>103.0</ele><time>2026-05-03T12:21:07.69Z</time></trkpt><trkpt lat="42.2867767" lon="14.0459067"><ele>103.0</ele><time>2026-05-03T12:21:08.69Z</time></trkpt><trkpt lat="42.2867133" lon="14.0459383"><ele>103.0</ele><time>2026-05-03T12:21:09.69Z</time></trkpt><trkpt lat="42.28668" lon="14.0460417"><ele>103.0</ele><time>2026-05-03T12:21:11.691Z</time></trkpt><trkpt lat="42.2867267" lon="14.0462083"><ele>103.0</ele><time>2026-05-03T12:21:13.69Z</time></trkpt><trkpt lat="42.2867517" lon="14.046345"><ele>103.0</ele><time>2026-05-03T12:21:15.691Z</time></trkpt><trkpt lat="42.2867217" lon="14.0464533"><ele>103.0</ele><time>2026-05-03T12:21:20.69Z</time></trkpt><trkpt lat="42.28661" lon="14.046545"><ele>103.0</ele><time>2026-05-03T12:21:22.69Z</time></trkpt><trkpt lat="42.2865267" lon="14.0466"><ele>103.0</ele><time>2026-05-03T12:21:23.691Z</time></trkpt><trkpt lat="42.28641" lon="14.0466617"><ele>103.0</ele><time>2026-05-03T12:21:24.69Z</time></trkpt><trkpt lat="42.2862817" lon="14.0467367"><ele>100.33333333333334</ele><time>2026-05-03T12:21:25.691Z</time></trkpt><trkpt lat="42.2861417" lon="14.0468167"><ele>97.66666666666667</ele><time>2026-05-03T12:21:26.69Z</time></trkpt><trkpt lat="42.285995" lon="14.0469067"><ele>95.0</ele><time>2026-05-03T12:21:27.69Z</time></trkpt><trkpt lat="42.2858417" lon="14.0469917"><ele>95.0</ele><time>2026-05-03T12:21:28.691Z</time></trkpt><trkpt lat="42.2856917" lon="14.0470867"><ele>95.0</ele><time>2026-05-03T12:21:29.691Z</time></trkpt><trkpt lat="42.2855367" lon="14.04718"><ele>95.0</ele><time>2026-05-03T12:21:30.691Z</time></trkpt><trkpt lat="42.2853817" lon="14.04727"><ele>95.0</ele><time>2026-05-03T12:21:31.691Z</time></trkpt><trkpt lat="42.2852317" lon="14.04735"><ele>95.0</ele><time>2026-05-03T12:21:32.69Z</time></trkpt><trkpt lat="42.285095" lon="14.0474233"><ele>95.0</ele><time>2026-05-03T12:21:33.691Z</time></trkpt><trkpt lat="42.2849733" lon="14.04749"><ele>95.0</ele><time>2026-05-03T12:21:34.69Z</time></trkpt><trkpt lat="42.2848667" lon="14.047545"><ele>95.66666666666667</ele><time>2026-05-03T12:21:35.691Z</time></trkpt><trkpt lat="42.28478" lon="14.0475967"><ele>96.33333333333334</ele><time>2026-05-03T12:21:36.691Z</time></trkpt><trkpt lat="42.2846883" lon="14.0476683"><ele>97.0</ele><time>2026-05-03T12:21:38.69Z</time></trkpt><trkpt lat="42.284755" lon="14.04773"><ele>97.66666666666667</ele><time>2026-05-03T12:21:41.691Z</time></trkpt><trkpt lat="42.284825" lon="14.047715"><ele>98.33333333333333</ele><time>2026-05-03T12:21:42.69Z</time></trkpt><trkpt lat="42.2849083" lon="14.047685"><ele>99.0</ele><time>2026-05-03T12:21:43.691Z</time></trkpt><trkpt lat="42.2850017" lon="14.047675"><ele>99.33333333333333</ele><time>2026-05-03T12:21:44.69Z</time></trkpt><trkpt lat="42.28509" lon="14.0476833"><ele>99.66666666666666</ele><time>2026-05-03T12:21:45.69Z</time></trkpt><trkpt lat="42.2851533" lon="14.0477183"><ele>100.0</ele><time>2026-05-03T12:21:46.691Z</time></trkpt><trkpt lat="42.28521" lon="14.0477767"><ele>100.33333333333333</ele><time>2026-05-03T12:21:47.69Z</time></trkpt><trkpt lat="42.2852767" lon="14.047835"><ele>100.66666666666666</ele><time>2026-05-03T12:21:48.69Z</time></trkpt><trkpt lat="42.28535" lon="14.047875"><ele>101.0</ele><time>2026-05-03T12:21:49.69Z</time></trkpt><trkpt lat="42.2854317" lon="14.0478867"><ele>101.0</ele><time>2026-05-03T12:21:50.691Z</time></trkpt><trkpt lat="42.2855267" lon="14.0478417"><ele>101.0</ele><time>2026-05-03T12:21:51.69Z</time></trkpt><trkpt lat="42.2856317" lon="14.0477833"><ele>101.0</ele><time>2026-05-03T12:21:52.69Z</time></trkpt><trkpt lat="42.285735" lon="14.0477067"><ele>101.0</ele><time>2026-05-03T12:21:53.691Z</time></trkpt><trkpt lat="42.2858333" lon="14.047645"><ele>101.0</ele><time>2026-05-03T12:21:54.69Z</time></trkpt><trkpt lat="42.2859433" lon="14.047595"><ele>102.0</ele><time>2026-05-03T12:21:55.69Z</time></trkpt><trkpt lat="42.2860633" lon="14.047565"><ele>103.0</ele><time>2026-05-03T12:21:56.691Z</time></trkpt><trkpt lat="42.2861767" lon="14.04754"><ele>104.0</ele><time>2026-05-03T12:21:57.69Z</time></trkpt><trkpt lat="42.2862867" lon="14.0475583"><ele>105.0</ele><time>2026-05-03T12:21:58.69Z</time></trkpt><trkpt lat="42.2864" lon="14.047595"><ele>106.25</ele><time>2026-05-03T12:21:59.691Z</time></trkpt><trkpt lat="42.2865217" lon="14.047655"><ele>107.5</ele><time>2026-05-03T12:22:00.691Z</time></trkpt><trkpt lat="42.2866333" lon="14.047725"><ele>108.75</ele><time>2026-05-03T12:22:01.691Z</time></trkpt><trkpt lat="42.286765" lon="14.0478233"><ele>110.0</ele><time>2026-05-03T12:22:02.691Z</time></trkpt><trkpt lat="42.2868967" lon="14.0478933"><ele>110.0</ele><time>2026-05-03T12:22:03.691Z</time></trkpt><trkpt lat="42.28704" lon="14.04795"><ele>110.0</ele><time>2026-05-03T12:22:04.691Z</time></trkpt><trkpt lat="42.2871917" lon="14.04799"><ele>110.0</ele><time>2026-05-03T12:22:05.69Z</time></trkpt><trkpt lat="42.2873467" lon="14.0480033"><ele>109.0</ele><time>2026-05-03T12:22:06.691Z</time></trkpt><trkpt lat="42.2875067" lon="14.0479983"><ele>108.0</ele><time>2026-05-03T12:22:07.69Z</time></trkpt><trkpt lat="42.2876767" lon="14.0479817"><ele>107.0</ele><time>2026-05-03T12:22:08.691Z</time></trkpt><trkpt lat="42.28784" lon="14.0479533"><ele>107.0</ele><time>2026-05-03T12:22:09.691Z</time></trkpt><trkpt lat="42.287985" lon="14.0479217"><ele>107.0</ele><time>2026-05-03T12:22:10.69Z</time></trkpt><trkpt lat="42.28812" lon="14.047895"><ele>107.0</ele><time>2026-05-03T12:22:11.691Z</time></trkpt><trkpt lat="42.2882483" lon="14.047885"><ele>107.0</ele><time>2026-05-03T12:22:12.69Z</time></trkpt><trkpt lat="42.2883967" lon="14.0479117"><ele>109.33333333333333</ele><time>2026-05-03T12:22:13.69Z</time></trkpt><trkpt lat="42.288555" lon="14.0479383"><ele>111.66666666666666</ele><time>2026-05-03T12:22:14.69Z</time></trkpt><trkpt lat="42.288715" lon="14.04796"><ele>114.0</ele><time>2026-05-03T12:22:15.691Z</time></trkpt><trkpt lat="42.2888767" lon="14.0479783"><ele>115.25</ele><time>2026-05-03T12:22:16.69Z</time></trkpt><trkpt lat="42.2890267" lon="14.0480033"><ele>116.5</ele><time>2026-05-03T12:22:17.691Z</time></trkpt><trkpt lat="42.289175" lon="14.04803"><ele>117.75</ele><time>2026-05-03T12:22:18.69Z</time></trkpt><trkpt lat="42.28932" lon="14.0480467"><ele>119.0</ele><time>2026-05-03T12:22:19.69Z</time></trkpt><trkpt lat="42.2894617" lon="14.0480667"><ele>119.0</ele><time>2026-05-03T12:22:20.69Z</time></trkpt><trkpt lat="42.28961" lon="14.0481"><ele>119.0</ele><time>2026-05-03T12:22:21.69Z</time></trkpt><trkpt lat="42.289765" lon="14.04812"><ele>119.0</ele><time>2026-05-03T12:22:22.69Z</time></trkpt><trkpt lat="42.2899083" lon="14.0481417"><ele>119.49999999999999</ele><time>2026-05-03T12:22:23.689Z</time></trkpt><trkpt lat="42.2900283" lon="14.0481483"><ele>120.0</ele><time>2026-05-03T12:22:24.69Z</time></trkpt><trkpt lat="42.2901233" lon="14.048165"><ele>120.5</ele><time>2026-05-03T12:22:25.689Z</time></trkpt><trkpt lat="42.290195" lon="14.0481917"><ele>121.0</ele><time>2026-05-03T12:22:26.69Z</time></trkpt><trkpt lat="42.2902433" lon="14.0482483"><ele>121.49999999999999</ele><time>2026-05-03T12:22:27.69Z</time></trkpt><trkpt lat="42.29028" lon="14.048335"><ele>122.0</ele><time>2026-05-03T12:22:28.689Z</time></trkpt><trkpt lat="42.2903217" lon="14.0484667"><ele>129.0</ele><time>2026-05-03T12:22:29.689Z</time></trkpt><trkpt lat="42.2903733" lon="14.048625"><ele>136.0</ele><time>2026-05-03T12:22:30.689Z</time></trkpt><trkpt lat="42.2904467" lon="14.0487917"><ele>143.0</ele><time>2026-05-03T12:22:31.69Z</time></trkpt><trkpt lat="42.2905367" lon="14.0489667"><ele>150.0</ele><time>2026-05-03T12:22:32.69Z</time></trkpt><trkpt lat="42.2906283" lon="14.049135"><ele>150.33333333333334</ele><time>2026-05-03T12:22:33.689Z</time></trkpt><trkpt lat="42.2907367" lon="14.0493083"><ele>150.66666666666669</ele><time>2026-05-03T12:22:34.69Z</time></trkpt><trkpt lat="42.2908467" lon="14.0494867"><ele>151.0</ele><time>2026-05-03T12:22:35.689Z</time></trkpt><trkpt lat="42.2909467" lon="14.049645"><ele>151.0</ele><time>2026-05-03T12:22:36.69Z</time></trkpt><trkpt lat="42.2910433" lon="14.0497967"><ele>151.0</ele><time>2026-05-03T12:22:37.69Z</time></trkpt><trkpt lat="42.291125" lon="14.0499183"><ele>151.0</ele><time>2026-05-03T12:22:38.69Z</time></trkpt><trkpt lat="42.2912267" lon="14.0500333"><ele>151.0</ele><time>2026-05-03T12:22:39.689Z</time></trkpt><trkpt lat="42.2913267" lon="14.0501383"><ele>152.75</ele><time>2026-05-03T12:22:40.69Z</time></trkpt><trkpt lat="42.2914167" lon="14.0502367"><ele>154.5</ele><time>2026-05-03T12:22:41.69Z</time></trkpt><trkpt lat="42.29152" lon="14.0503167"><ele>156.25</ele><time>2026-05-03T12:22:42.69Z</time></trkpt><trkpt lat="42.2916333" lon="14.050365"><ele>158.0</ele><time>2026-05-03T12:22:43.689Z</time></trkpt><trkpt lat="42.29175" lon="14.0504033"><ele>158.0</ele><time>2026-05-03T12:22:44.69Z</time></trkpt><trkpt lat="42.29183" lon="14.0504433"><ele>158.0</ele><time>2026-05-03T12:22:45.69Z</time></trkpt><trkpt lat="42.291885" lon="14.0505217"><ele>158.0</ele><time>2026-05-03T12:22:46.689Z</time></trkpt><trkpt lat="42.2919217" lon="14.0506317"><ele>158.0</ele><time>2026-05-03T12:22:47.689Z</time></trkpt><trkpt lat="42.2919533" lon="14.0507933"><ele>158.0</ele><time>2026-05-03T12:22:48.69Z</time></trkpt><trkpt lat="42.2919817" lon="14.050965"><ele>162.0</ele><time>2026-05-03T12:22:49.69Z</time></trkpt><trkpt lat="42.2920283" lon="14.05115"><ele>166.0</ele><time>2026-05-03T12:22:50.689Z</time></trkpt><trkpt lat="42.2920867" lon="14.0513383"><ele>170.0</ele><time>2026-05-03T12:22:51.69Z</time></trkpt><trkpt lat="42.29215" lon="14.051535"><ele>170.75</ele><time>2026-05-03T12:22:52.689Z</time></trkpt><trkpt lat="42.2922117" lon="14.05173"><ele>171.5</ele><time>2026-05-03T12:22:53.69Z</time></trkpt><trkpt lat="42.2922667" lon="14.0519083"><ele>172.25</ele><time>2026-05-03T12:22:54.69Z</time></trkpt><trkpt lat="42.2923183" lon="14.0520733"><ele>173.0</ele><time>2026-05-03T12:22:55.69Z</time></trkpt><trkpt lat="42.2923517" lon="14.052225"><ele>173.0</ele><time>2026-05-03T12:22:56.689Z</time></trkpt><trkpt lat="42.2923683" lon="14.0523467"><ele>173.0</ele><time>2026-05-03T12:22:57.689Z</time></trkpt><trkpt lat="42.29238" lon="14.0524367"><ele>173.0</ele><time>2026-05-03T12:22:58.689Z</time></trkpt><trkpt lat="42.2924083" lon="14.05252"><ele>173.0</ele><time>2026-05-03T12:23:01.69Z</time></trkpt><trkpt lat="42.29249" lon="14.052525"><ele>173.0</ele><time>2026-05-03T12:23:03.689Z</time></trkpt><trkpt lat="42.2925567" lon="14.0525117"><ele>173.0</ele><time>2026-05-03T12:23:04.689Z</time></trkpt><trkpt lat="42.29262" lon="14.0524917"><ele>173.0</ele><time>2026-05-03T12:23:05.689Z</time></trkpt><trkpt lat="42.2926833" lon="14.05249"><ele>173.2</ele><time>2026-05-03T12:23:06.689Z</time></trkpt><trkpt lat="42.2928117" lon="14.0525317"><ele>173.4</ele><time>2026-05-03T12:23:08.689Z</time></trkpt><trkpt lat="42.2928867" lon="14.0525767"><ele>173.6</ele><time>2026-05-03T12:23:09.69Z</time></trkpt><trkpt lat="42.292975" lon="14.0526283"><ele>173.79999999999998</ele><time>2026-05-03T12:23:10.69Z</time></trkpt><trkpt lat="42.2930667" lon="14.05268"><ele>174.0</ele><time>2026-05-03T12:23:11.689Z</time></trkpt><trkpt lat="42.293145" lon="14.05273"><ele>173.6</ele><time>2026-05-03T12:23:12.69Z</time></trkpt><trkpt lat="42.2932233" lon="14.052805"><ele>173.2</ele><time>2026-05-03T12:23:13.689Z</time></trkpt><trkpt lat="42.2932967" lon="14.0528983"><ele>172.79999999999998</ele><time>2026-05-03T12:23:14.689Z</time></trkpt><trkpt lat="42.293365" lon="14.0530083"><ele>172.39999999999998</ele><time>2026-05-03T12:23:15.689Z</time></trkpt><trkpt lat="42.29344" lon="14.053145"><ele>172.0</ele><time>2026-05-03T12:23:16.69Z</time></trkpt><trkpt lat="42.293525" lon="14.0532833"><ele>173.0</ele><time>2026-05-03T12:23:17.69Z</time></trkpt><trkpt lat="42.293605" lon="14.0534217"><ele>174.0</ele><time>2026-05-03T12:23:18.69Z</time></trkpt><trkpt lat="42.2936783" lon="14.05355"><ele>175.0</ele><time>2026-05-03T12:23:19.69Z</time></trkpt><trkpt lat="42.2937433" lon="14.05366"><ele>176.0</ele><time>2026-05-03T12:23:20.69Z</time></trkpt><trkpt lat="42.2938017" lon="14.053755"><ele>177.0</ele><time>2026-05-03T12:23:21.69Z</time></trkpt><trkpt lat="42.29385" lon="14.0538383"><ele>177.0</ele><time>2026-05-03T12:23:22.689Z</time></trkpt><trkpt lat="42.293895" lon="14.053915"><ele>177.0</ele><time>2026-05-03T12:23:23.69Z</time></trkpt><trkpt lat="42.2939383" lon="14.0539833"><ele>177.0</ele><time>2026-05-03T12:23:24.69Z</time></trkpt><trkpt lat="42.29398" lon="14.05405"><ele>177.0</ele><time>2026-05-03T12:23:25.69Z</time></trkpt><trkpt lat="42.294035" lon="14.0541817"><ele>177.0</ele><time>2026-05-03T12:23:27.689Z</time></trkpt><trkpt lat="42.2940533" lon="14.05429"><ele>177.0</ele><time>2026-05-03T12:23:29.69Z</time></trkpt><trkpt lat="42.294105" lon="14.0543767"><ele>177.0</ele><time>2026-05-03T12:23:32.689Z</time></trkpt><trkpt lat="42.294195" lon="14.054385"><ele>177.0</ele><time>2026-05-03T12:23:35.69Z</time></trkpt><trkpt lat="42.2942633" lon="14.05442"><ele>177.0</ele><time>2026-05-03T12:23:37.69Z</time></trkpt><trkpt lat="42.2943267" lon="14.0544317"><ele>177.0</ele><time>2026-05-03T12:23:39.69Z</time></trkpt><trkpt lat="42.2943867" lon="14.05449"><ele>177.0</ele><time>2026-05-03T12:24:12.69Z</time></trkpt><trkpt lat="42.294475" lon="14.054575"><ele>177.0</ele><time>2026-05-03T12:24:14.69Z</time></trkpt><trkpt lat="42.2945217" lon="14.0546433"><ele>177.0</ele><time>2026-05-03T12:24:16.689Z</time></trkpt><trkpt lat="42.2945117" lon="14.0547333"><ele>177.0</ele><time>2026-05-03T12:24:18.689Z</time></trkpt><trkpt lat="42.2946" lon="14.0547917"><ele>177.0</ele><time>2026-05-03T12:24:21.69Z</time></trkpt><trkpt lat="42.294675" lon="14.0547867"><ele>177.0</ele><time>2026-05-03T12:24:23.689Z</time></trkpt><trkpt lat="42.2947517" lon="14.0548567"><ele>177.0</ele><time>2026-05-03T12:24:25.69Z</time></trkpt><trkpt lat="42.2948083" lon="14.05492"><ele>177.0</ele><time>2026-05-03T12:24:26.69Z</time></trkpt><trkpt lat="42.2948733" lon="14.0549933"><ele>176.39999999999998</ele><time>2026-05-03T12:24:27.69Z</time></trkpt><trkpt lat="42.29494" lon="14.0550633"><ele>175.79999999999998</ele><time>2026-05-03T12:24:28.69Z</time></trkpt><trkpt lat="42.295005" lon="14.05511"><ele>175.2</ele><time>2026-05-03T12:24:29.69Z</time></trkpt><trkpt lat="42.29511" lon="14.055165"><ele>174.6</ele><time>2026-05-03T12:24:31.69Z</time></trkpt><trkpt lat="42.2952233" lon="14.0551817"><ele>174.0</ele><time>2026-05-03T12:24:33.689Z</time></trkpt><trkpt lat="42.2952983" lon="14.0551767"><ele>174.0</ele><time>2026-05-03T12:24:34.689Z</time></trkpt><trkpt lat="42.2953733" lon="14.055175"><ele>174.0</ele><time>2026-05-03T12:24:35.689Z</time></trkpt><trkpt lat="42.2954617" lon="14.0551833"><ele>174.0</ele><time>2026-05-03T12:24:36.69Z</time></trkpt><trkpt lat="42.29554" lon="14.0551933"><ele>174.0</ele><time>2026-05-03T12:24:37.69Z</time></trkpt><trkpt lat="42.29564" lon="14.0551983"><ele>174.0</ele><time>2026-05-03T12:24:39.69Z</time></trkpt><trkpt lat="42.2956733" lon="14.0552867"><ele>174.0</ele><time>2026-05-03T12:24:48.689Z</time></trkpt><trkpt lat="42.2956983" lon="14.05539"><ele>173.33333333333334</ele><time>2026-05-03T12:24:50.689Z</time></trkpt><trkpt lat="42.2957867" lon="14.0554683"><ele>172.66666666666666</ele><time>2026-05-03T12:24:52.689Z</time></trkpt><trkpt lat="42.2958733" lon="14.0555933"><ele>172.0</ele><time>2026-05-03T12:24:54.69Z</time></trkpt><trkpt lat="42.2959117" lon="14.0556667"><ele>171.33333333333331</ele><time>2026-05-03T12:24:55.689Z</time></trkpt><trkpt lat="42.2959483" lon="14.055755"><ele>170.66666666666666</ele><time>2026-05-03T12:24:56.689Z</time></trkpt><trkpt lat="42.2959867" lon="14.0558417"><ele>170.0</ele><time>2026-05-03T12:24:57.69Z</time></trkpt><trkpt lat="42.296025" lon="14.0559233"><ele>170.0</ele><time>2026-05-03T12:24:58.689Z</time></trkpt><trkpt lat="42.2960633" lon="14.0560067"><ele>170.0</ele><time>2026-05-03T12:24:59.688Z</time></trkpt><trkpt lat="42.2961067" lon="14.0561017"><ele>170.0</ele><time>2026-05-03T12:25:00.689Z</time></trkpt><trkpt lat="42.296155" lon="14.0562017"><ele>170.0</ele><time>2026-05-03T12:25:01.688Z</time></trkpt><trkpt lat="42.2962" lon="14.056305"><ele>170.0</ele><time>2026-05-03T12:25:02.689Z</time></trkpt><trkpt lat="42.2962533" lon="14.0564183"><ele>170.0</ele><time>2026-05-03T12:25:03.688Z</time></trkpt><trkpt lat="42.2963017" lon="14.0565183"><ele>169.6</ele><time>2026-05-03T12:25:04.688Z</time></trkpt><trkpt lat="42.2963517" lon="14.056625"><ele>169.2</ele><time>2026-05-03T12:25:05.689Z</time></trkpt><trkpt lat="42.296405" lon="14.0567367"><ele>168.8</ele><time>2026-05-03T12:25:06.689Z</time></trkpt><trkpt lat="42.29646" lon="14.056825"><ele>168.4</ele><time>2026-05-03T12:25:07.689Z</time></trkpt><trkpt lat="42.296515" lon="14.0569283"><ele>168.0</ele><time>2026-05-03T12:25:08.689Z</time></trkpt><trkpt lat="42.296565" lon="14.05702"><ele>167.2</ele><time>2026-05-03T12:25:09.689Z</time></trkpt><trkpt lat="42.296615" lon="14.0571217"><ele>166.4</ele><time>2026-05-03T12:25:10.688Z</time></trkpt><trkpt lat="42.2966683" lon="14.0572183"><ele>165.6</ele><time>2026-05-03T12:25:11.689Z</time></trkpt><trkpt lat="42.2967233" lon="14.0573233"><ele>164.79999999999998</ele><time>2026-05-03T12:25:12.689Z</time></trkpt><trkpt lat="42.2967783" lon="14.0574367"><ele>164.0</ele><time>2026-05-03T12:25:13.689Z</time></trkpt><trkpt lat="42.2968383" lon="14.0575633"><ele>163.39999999999998</ele><time>2026-05-03T12:25:14.688Z</time></trkpt><trkpt lat="42.2968933" lon="14.0576933"><ele>162.8</ele><time>2026-05-03T12:25:15.688Z</time></trkpt><trkpt lat="42.29695" lon="14.0578133"><ele>162.2</ele><time>2026-05-03T12:25:16.688Z</time></trkpt><trkpt lat="42.2970033" lon="14.0579233"><ele>161.60000000000002</ele><time>2026-05-03T12:25:17.689Z</time></trkpt><trkpt lat="42.2970617" lon="14.05804"><ele>161.0</ele><time>2026-05-03T12:25:18.689Z</time></trkpt><trkpt lat="42.2971183" lon="14.05814"><ele>161.0</ele><time>2026-05-03T12:25:19.688Z</time></trkpt><trkpt lat="42.2971633" lon="14.0582383"><ele>161.0</ele><time>2026-05-03T12:25:20.688Z</time></trkpt><trkpt lat="42.2972017" lon="14.0583167"><ele>161.0</ele><time>2026-05-03T12:25:21.689Z</time></trkpt><trkpt lat="42.29725" lon="14.0583983"><ele>161.0</ele><time>2026-05-03T12:25:23.688Z</time></trkpt><trkpt lat="42.297335" lon="14.0584583"><ele>161.0</ele><time>2026-05-03T12:25:25.688Z</time></trkpt><trkpt lat="42.2974133" lon="14.058515"><ele>161.0</ele><time>2026-05-03T12:25:26.688Z</time></trkpt><trkpt lat="42.2975433" lon="14.0585783"><ele>160.0</ele><time>2026-05-03T12:25:27.689Z</time></trkpt><trkpt lat="42.2977017" lon="14.0586383"><ele>159.0</ele><time>2026-05-03T12:25:28.689Z</time></trkpt><trkpt lat="42.2978833" lon="14.0587083"><ele>158.0</ele><time>2026-05-03T12:25:29.688Z</time></trkpt><trkpt lat="42.29806" lon="14.0587933"><ele>157.0</ele><time>2026-05-03T12:25:30.688Z</time></trkpt><trkpt lat="42.2982467" lon="14.0588733"><ele>156.0</ele><time>2026-05-03T12:25:31.688Z</time></trkpt><trkpt lat="42.2984117" lon="14.058955"><ele>155.0</ele><time>2026-05-03T12:25:32.688Z</time></trkpt><trkpt lat="42.2985683" lon="14.0590367"><ele>155.0</ele><time>2026-05-03T12:25:33.688Z</time></trkpt><trkpt lat="42.2987167" lon="14.0591083"><ele>155.0</ele><time>2026-05-03T12:25:34.689Z</time></trkpt><trkpt lat="42.2988283" lon="14.0591583"><ele>155.0</ele><time>2026-05-03T12:25:35.689Z</time></trkpt><trkpt lat="42.2989183" lon="14.0592067"><ele>155.0</ele><time>2026-05-03T12:25:36.688Z</time></trkpt><trkpt lat="42.2989867" lon="14.0592483"><ele>155.0</ele><time>2026-05-03T12:25:37.689Z</time></trkpt><trkpt lat="42.2990217" lon="14.05935"><ele>154.6</ele><time>2026-05-03T12:25:39.688Z</time></trkpt><trkpt lat="42.2989717" lon="14.0594033"><ele>154.2</ele><time>2026-05-03T12:25:40.688Z</time></trkpt><trkpt lat="42.298895" lon="14.0594417"><ele>153.8</ele><time>2026-05-03T12:25:41.689Z</time></trkpt><trkpt lat="42.2987833" lon="14.059455"><ele>153.4</ele><time>2026-05-03T12:25:42.689Z</time></trkpt><trkpt lat="42.2986483" lon="14.059455"><ele>153.0</ele><time>2026-05-03T12:25:43.688Z</time></trkpt><trkpt lat="42.298515" lon="14.05942"><ele>153.0</ele><time>2026-05-03T12:25:44.689Z</time></trkpt><trkpt lat="42.2984033" lon="14.0593367"><ele>153.0</ele><time>2026-05-03T12:25:45.689Z</time></trkpt><trkpt lat="42.2982967" lon="14.0592417"><ele>153.0</ele><time>2026-05-03T12:25:46.689Z</time></trkpt><trkpt lat="42.2982083" lon="14.059135"><ele>153.0</ele><time>2026-05-03T12:25:47.689Z</time></trkpt><trkpt lat="42.2981183" lon="14.0590633"><ele>152.66666666666666</ele><time>2026-05-03T12:25:48.689Z</time></trkpt><trkpt lat="42.298025" lon="14.059035"><ele>152.33333333333334</ele><time>2026-05-03T12:25:49.688Z</time></trkpt><trkpt lat="42.2979383" lon="14.0590517"><ele>152.0</ele><time>2026-05-03T12:25:50.688Z</time></trkpt><trkpt lat="42.297875" lon="14.059115"><ele>151.66666666666669</ele><time>2026-05-03T12:25:51.689Z</time></trkpt><trkpt lat="42.2978383" lon="14.0592183"><ele>151.33333333333334</ele><time>2026-05-03T12:25:52.688Z</time></trkpt><trkpt lat="42.2978367" lon="14.059335"><ele>151.0</ele><time>2026-05-03T12:25:53.688Z</time></trkpt><trkpt lat="42.2978867" lon="14.059435"><ele>151.0</ele><time>2026-05-03T12:25:54.689Z</time></trkpt><trkpt lat="42.2979717" lon="14.059535"><ele>151.0</ele><time>2026-05-03T12:25:55.688Z</time></trkpt><trkpt lat="42.2980867" lon="14.0596283"><ele>151.0</ele><time>2026-05-03T12:25:56.688Z</time></trkpt><trkpt lat="42.298215" lon="14.0597367"><ele>151.0</ele><time>2026-05-03T12:25:57.689Z</time></trkpt><trkpt lat="42.298345" lon="14.0598667"><ele>146.66666666666669</ele><time>2026-05-03T12:25:58.689Z</time></trkpt><trkpt lat="42.298485" lon="14.0599917"><ele>142.33333333333334</ele><time>2026-05-03T12:25:59.688Z</time></trkpt><trkpt lat="42.29864" lon="14.0601267"><ele>138.0</ele><time>2026-05-03T12:26:00.688Z</time></trkpt><trkpt lat="42.2987867" lon="14.0602733"><ele>139.66666666666666</ele><time>2026-05-03T12:26:01.689Z</time></trkpt><trkpt lat="42.298935" lon="14.0604233"><ele>141.33333333333331</ele><time>2026-05-03T12:26:02.689Z</time></trkpt><trkpt lat="42.2990833" lon="14.0605833"><ele>143.0</ele><time>2026-05-03T12:26:03.689Z</time></trkpt><trkpt lat="42.2992283" lon="14.0607433"><ele>137.66666666666666</ele><time>2026-05-03T12:26:04.688Z</time></trkpt><trkpt lat="42.299365" lon="14.0609283"><ele>132.33333333333334</ele><time>2026-05-03T12:26:05.688Z</time></trkpt><trkpt lat="42.2995" lon="14.0611167"><ele>127.0</ele><time>2026-05-03T12:26:06.689Z</time></trkpt><trkpt lat="42.2996333" lon="14.06132"><ele>123.66666666666667</ele><time>2026-05-03T12:26:07.689Z</time></trkpt><trkpt lat="42.2997633" lon="14.0615317"><ele>120.33333333333334</ele><time>2026-05-03T12:26:08.688Z</time></trkpt><trkpt lat="42.2998983" lon="14.061745"><ele>117.0</ele><time>2026-05-03T12:26:09.688Z</time></trkpt><trkpt lat="42.3000433" lon="14.06196"><ele>117.0</ele><time>2026-05-03T12:26:10.688Z</time></trkpt><trkpt lat="42.30019" lon="14.0621767"><ele>117.0</ele><time>2026-05-03T12:26:11.689Z</time></trkpt><trkpt lat="42.30034" lon="14.0623867"><ele>117.0</ele><time>2026-05-03T12:26:12.688Z</time></trkpt><trkpt lat="42.300485" lon="14.062595"><ele>115.66666666666666</ele><time>2026-05-03T12:26:13.689Z</time></trkpt><trkpt lat="42.3006233" lon="14.0628"><ele>114.33333333333333</ele><time>2026-05-03T12:26:14.688Z</time></trkpt><trkpt lat="42.3007617" lon="14.0629883"><ele>113.0</ele><time>2026-05-03T12:26:15.689Z</time></trkpt><trkpt lat="42.3009183" lon="14.063185"><ele>113.0</ele><time>2026-05-03T12:26:16.689Z</time></trkpt><trkpt lat="42.3010783" lon="14.063365"><ele>113.0</ele><time>2026-05-03T12:26:17.688Z</time></trkpt><trkpt lat="42.30125" lon="14.0635433"><ele>113.0</ele><time>2026-05-03T12:26:18.688Z</time></trkpt><trkpt lat="42.30142" lon="14.0637067"><ele>113.0</ele><time>2026-05-03T12:26:19.689Z</time></trkpt><trkpt lat="42.3015933" lon="14.063865"><ele>113.0</ele><time>2026-05-03T12:26:20.689Z</time></trkpt><trkpt lat="42.3017633" lon="14.06401"><ele>113.0</ele><time>2026-05-03T12:26:21.689Z</time></trkpt><trkpt lat="42.3019283" lon="14.064145"><ele>108.33333333333333</ele><time>2026-05-03T12:26:22.688Z</time></trkpt><trkpt lat="42.3020883" lon="14.06428"><ele>103.66666666666666</ele><time>2026-05-03T12:26:23.688Z</time></trkpt><trkpt lat="42.302255" lon="14.0644"><ele>99.0</ele><time>2026-05-03T12:26:24.688Z</time></trkpt><trkpt lat="42.30244" lon="14.06451"><ele>99.0</ele><time>2026-05-03T12:26:25.689Z</time></trkpt><trkpt lat="42.3026233" lon="14.0646"><ele>99.0</ele><time>2026-05-03T12:26:26.688Z</time></trkpt><trkpt lat="42.3028133" lon="14.0646967"><ele>99.0</ele><time>2026-05-03T12:26:27.689Z</time></trkpt><trkpt lat="42.302995" lon="14.0647917"><ele>103.0</ele><time>2026-05-03T12:26:28.689Z</time></trkpt><trkpt lat="42.3031767" lon="14.06488"><ele>107.0</ele><time>2026-05-03T12:26:29.688Z</time></trkpt><trkpt lat="42.30335" lon="14.06495"><ele>111.0</ele><time>2026-05-03T12:26:30.688Z</time></trkpt><trkpt lat="42.3035217" lon="14.0650017"><ele>102.66666666666667</ele><time>2026-05-03T12:26:31.688Z</time></trkpt><trkpt lat="42.3036933" lon="14.0650533"><ele>94.33333333333334</ele><time>2026-05-03T12:26:32.689Z</time></trkpt><trkpt lat="42.30385" lon="14.0650867"><ele>86.0</ele><time>2026-05-03T12:26:33.689Z</time></trkpt><trkpt lat="42.303985" lon="14.0651217"><ele>85.83333333333334</ele><time>2026-05-03T12:26:34.688Z</time></trkpt><trkpt lat="42.3041033" lon="14.0651517"><ele>85.66666666666667</ele><time>2026-05-03T12:26:35.689Z</time></trkpt><trkpt lat="42.3041933" lon="14.0651767"><ele>85.5</ele><time>2026-05-03T12:26:36.688Z</time></trkpt><trkpt lat="42.3042683" lon="14.0652017"><ele>85.33333333333333</ele><time>2026-05-03T12:26:37.689Z</time></trkpt><trkpt lat="42.30433" lon="14.0652267"><ele>85.16666666666666</ele><time>2026-05-03T12:26:38.689Z</time></trkpt><trkpt lat="42.304395" lon="14.0652567"><ele>85.0</ele><time>2026-05-03T12:26:39.689Z</time></trkpt><trkpt lat="42.3044833" lon="14.0652833"><ele>85.0</ele><time>2026-05-03T12:26:40.689Z</time></trkpt><trkpt lat="42.3045917" lon="14.065305"><ele>85.0</ele><time>2026-05-03T12:26:41.688Z</time></trkpt><trkpt lat="42.3047167" lon="14.0653117"><ele>85.0</ele><time>2026-05-03T12:26:42.689Z</time></trkpt><trkpt lat="42.304855" lon="14.0653033"><ele>85.0</ele><time>2026-05-03T12:26:43.689Z</time></trkpt><trkpt lat="42.3049817" lon="14.0652967"><ele>84.75</ele><time>2026-05-03T12:26:44.689Z</time></trkpt><trkpt lat="42.3051133" lon="14.0652667"><ele>84.5</ele><time>2026-05-03T12:26:45.689Z</time></trkpt><trkpt lat="42.3052333" lon="14.0652117"><ele>84.25</ele><time>2026-05-03T12:26:46.689Z</time></trkpt><trkpt lat="42.305345" lon="14.0651033"><ele>84.0</ele><time>2026-05-03T12:26:47.689Z</time></trkpt><trkpt lat="42.3054467" lon="14.0649583"><ele>83.0</ele><time>2026-05-03T12:26:48.689Z</time></trkpt><trkpt lat="42.3055467" lon="14.064815"><ele>82.0</ele><time>2026-05-03T12:26:49.689Z</time></trkpt><trkpt lat="42.3056483" lon="14.0646633"><ele>81.0</ele><time>2026-05-03T12:26:50.689Z</time></trkpt><trkpt lat="42.3057583" lon="14.0645167"><ele>81.0</ele><time>2026-05-03T12:26:51.689Z</time></trkpt><trkpt lat="42.3058733" lon="14.0643717"><ele>81.0</ele><time>2026-05-03T12:26:52.689Z</time></trkpt><trkpt lat="42.3059983" lon="14.06422"><ele>81.0</ele><time>2026-05-03T12:26:53.689Z</time></trkpt><trkpt lat="42.3061217" lon="14.06405"><ele>80.33333333333333</ele><time>2026-05-03T12:26:54.688Z</time></trkpt><trkpt lat="42.3062483" lon="14.0638833"><ele>79.66666666666666</ele><time>2026-05-03T12:26:55.688Z</time></trkpt><trkpt lat="42.30637" lon="14.06371"><ele>79.0</ele><time>2026-05-03T12:26:56.688Z</time></trkpt><trkpt lat="42.3065" lon="14.063545"><ele>77.33333333333333</ele><time>2026-05-03T12:26:57.688Z</time></trkpt><trkpt lat="42.3066317" lon="14.06338"><ele>75.66666666666667</ele><time>2026-05-03T12:26:58.688Z</time></trkpt><trkpt lat="42.3067567" lon="14.0632233"><ele>74.0</ele><time>2026-05-03T12:26:59.689Z</time></trkpt><trkpt lat="42.306865" lon="14.0630783"><ele>73.75</ele><time>2026-05-03T12:27:00.688Z</time></trkpt><trkpt lat="42.3069633" lon="14.0629583"><ele>73.5</ele><time>2026-05-03T12:27:01.689Z</time></trkpt><trkpt lat="42.3070583" lon="14.0628383"><ele>73.25</ele><time>2026-05-03T12:27:02.689Z</time></trkpt><trkpt lat="42.3071467" lon="14.062725"><ele>73.0</ele><time>2026-05-03T12:27:03.689Z</time></trkpt><trkpt lat="42.307235" lon="14.062615"><ele>72.75</ele><time>2026-05-03T12:27:04.689Z</time></trkpt><trkpt lat="42.30732" lon="14.0624983"><ele>72.5</ele><time>2026-05-03T12:27:05.689Z</time></trkpt><trkpt lat="42.30741" lon="14.0623917"><ele>72.25</ele><time>2026-05-03T12:27:06.688Z</time></trkpt><trkpt lat="42.3074983" lon="14.0622783"><ele>72.0</ele><time>2026-05-03T12:27:07.689Z</time></trkpt><trkpt lat="42.3075867" lon="14.062165"><ele>72.0</ele><time>2026-05-03T12:27:08.688Z</time></trkpt><trkpt lat="42.3076767" lon="14.0620517"><ele>72.0</ele><time>2026-05-03T12:27:09.688Z</time></trkpt><trkpt lat="42.30776" lon="14.0619517"><ele>72.0</ele><time>2026-05-03T12:27:10.688Z</time></trkpt><trkpt lat="42.307835" lon="14.0618533"><ele>72.0</ele><time>2026-05-03T12:27:11.688Z</time></trkpt><trkpt lat="42.3078933" lon="14.061785"><ele>72.0</ele><time>2026-05-03T12:27:12.688Z</time></trkpt><trkpt lat="42.3079817" lon="14.0617217"><ele>72.0</ele><time>2026-05-03T12:27:14.689Z</time></trkpt><trkpt lat="42.30806" lon="14.0617633"><ele>72.0</ele><time>2026-05-03T12:27:17.688Z</time></trkpt><trkpt lat="42.3081517" lon="14.0619033"><ele>72.0</ele><time>2026-05-03T12:27:19.689Z</time></trkpt><trkpt lat="42.30821" lon="14.06203"><ele>72.0</ele><time>2026-05-03T12:27:20.688Z</time></trkpt><trkpt lat="42.308285" lon="14.0621833"><ele>72.0</ele><time>2026-05-03T12:27:21.689Z</time></trkpt><trkpt lat="42.30836" lon="14.06234"><ele>72.0</ele><time>2026-05-03T12:27:22.689Z</time></trkpt><trkpt lat="42.3084417" lon="14.0624983"><ele>72.0</ele><time>2026-05-03T12:27:23.688Z</time></trkpt><trkpt lat="42.3085217" lon="14.0626683"><ele>72.0</ele><time>2026-05-03T12:27:24.689Z</time></trkpt><trkpt lat="42.30861" lon="14.062845"><ele>72.33333333333333</ele><time>2026-05-03T12:27:25.689Z</time></trkpt><trkpt lat="42.3086983" lon="14.0630217"><ele>72.66666666666666</ele><time>2026-05-03T12:27:26.688Z</time></trkpt><trkpt lat="42.3087817" lon="14.0632033"><ele>73.0</ele><time>2026-05-03T12:27:27.689Z</time></trkpt><trkpt lat="42.3088717" lon="14.063375"><ele>73.0</ele><time>2026-05-03T12:27:28.688Z</time></trkpt><trkpt lat="42.3089483" lon="14.0635483"><ele>73.0</ele><time>2026-05-03T12:27:29.689Z</time></trkpt><trkpt lat="42.309025" lon="14.0637133"><ele>73.0</ele><time>2026-05-03T12:27:30.689Z</time></trkpt><trkpt lat="42.3091067" lon="14.0638833"><ele>73.0</ele><time>2026-05-03T12:27:31.689Z</time></trkpt><trkpt lat="42.3091867" lon="14.0640567"><ele>71.33333333333333</ele><time>2026-05-03T12:27:32.687Z</time></trkpt><trkpt lat="42.3092683" lon="14.0642267"><ele>69.66666666666667</ele><time>2026-05-03T12:27:33.688Z</time></trkpt><trkpt lat="42.30935" lon="14.0644033"><ele>68.0</ele><time>2026-05-03T12:27:34.688Z</time></trkpt><trkpt lat="42.3094417" lon="14.0645717"><ele>68.0</ele><time>2026-05-03T12:27:35.688Z</time></trkpt><trkpt lat="42.30953" lon="14.0647517"><ele>68.0</ele><time>2026-05-03T12:27:36.687Z</time></trkpt><trkpt lat="42.3096183" lon="14.0649417"><ele>68.0</ele><time>2026-05-03T12:27:37.688Z</time></trkpt><trkpt lat="42.3097033" lon="14.0651283"><ele>69.0</ele><time>2026-05-03T12:27:38.687Z</time></trkpt><trkpt lat="42.3097967" lon="14.0653133"><ele>70.0</ele><time>2026-05-03T12:27:39.687Z</time></trkpt><trkpt lat="42.3098917" lon="14.0655"><ele>71.0</ele><time>2026-05-03T12:27:40.688Z</time></trkpt><trkpt lat="42.30998" lon="14.065695"><ele>71.0</ele><time>2026-05-03T12:27:41.687Z</time></trkpt><trkpt lat="42.310065" lon="14.0658817"><ele>71.0</ele><time>2026-05-03T12:27:42.688Z</time></trkpt><trkpt lat="42.31016" lon="14.0660617"><ele>71.0</ele><time>2026-05-03T12:27:43.688Z</time></trkpt><trkpt lat="42.3102433" lon="14.0662317"><ele>71.0</ele><time>2026-05-03T12:27:44.687Z</time></trkpt><trkpt lat="42.3103283" lon="14.066395"><ele>71.0</ele><time>2026-05-03T12:27:45.687Z</time></trkpt><trkpt lat="42.3104083" lon="14.0665283"><ele>71.0</ele><time>2026-05-03T12:27:46.688Z</time></trkpt><trkpt lat="42.310475" lon="14.0666483"><ele>71.0</ele><time>2026-05-03T12:27:47.687Z</time></trkpt><trkpt lat="42.3105267" lon="14.0667533"><ele>71.0</ele><time>2026-05-03T12:27:48.688Z</time></trkpt><trkpt lat="42.3105617" lon="14.066855"><ele>71.0</ele><time>2026-05-03T12:27:49.688Z</time></trkpt><trkpt lat="42.3105833" lon="14.0669767"><ele>71.0</ele><time>2026-05-03T12:27:50.687Z</time></trkpt><trkpt lat="42.3106133" lon="14.067105"><ele>71.0</ele><time>2026-05-03T12:27:51.688Z</time></trkpt><trkpt lat="42.3106683" lon="14.0672417"><ele>71.0</ele><time>2026-05-03T12:27:52.688Z</time></trkpt><trkpt lat="42.3107517" lon="14.06739"><ele>71.25</ele><time>2026-05-03T12:27:53.687Z</time></trkpt><trkpt lat="42.3108567" lon="14.067545"><ele>71.5</ele><time>2026-05-03T12:27:54.688Z</time></trkpt><trkpt lat="42.310945" lon="14.067705"><ele>71.75</ele><time>2026-05-03T12:27:55.687Z</time></trkpt><trkpt lat="42.31103" lon="14.067865"><ele>72.0</ele><time>2026-05-03T12:27:56.688Z</time></trkpt><trkpt lat="42.3111067" lon="14.068035"><ele>72.0</ele><time>2026-05-03T12:27:57.688Z</time></trkpt><trkpt lat="42.311185" lon="14.0681983"><ele>72.0</ele><time>2026-05-03T12:27:58.688Z</time></trkpt><trkpt lat="42.3112533" lon="14.0683567"><ele>72.0</ele><time>2026-05-03T12:27:59.688Z</time></trkpt><trkpt lat="42.3113217" lon="14.06851"><ele>72.0</ele><time>2026-05-03T12:28:00.688Z</time></trkpt><trkpt lat="42.311395" lon="14.068665"><ele>72.0</ele><time>2026-05-03T12:28:01.688Z</time></trkpt><trkpt lat="42.311465" lon="14.068825"><ele>72.0</ele><time>2026-05-03T12:28:02.688Z</time></trkpt><trkpt lat="42.31155" lon="14.068995"><ele>72.0</ele><time>2026-05-03T12:28:03.687Z</time></trkpt><trkpt lat="42.3116383" lon="14.06917"><ele>72.0</ele><time>2026-05-03T12:28:04.687Z</time></trkpt><trkpt lat="42.3117267" lon="14.0693533"><ele>72.0</ele><time>2026-05-03T12:28:05.688Z</time></trkpt><trkpt lat="42.311815" lon="14.0695367"><ele>72.0</ele><time>2026-05-03T12:28:06.687Z</time></trkpt><trkpt lat="42.3119033" lon="14.0697233"><ele>72.0</ele><time>2026-05-03T12:28:07.688Z</time></trkpt><trkpt lat="42.3119883" lon="14.069905"><ele>71.66666666666667</ele><time>2026-05-03T12:28:08.687Z</time></trkpt><trkpt lat="42.3120783" lon="14.0700867"><ele>71.33333333333334</ele><time>2026-05-03T12:28:09.688Z</time></trkpt><trkpt lat="42.312175" lon="14.0702733"><ele>71.0</ele><time>2026-05-03T12:28:10.688Z</time></trkpt><trkpt lat="42.312275" lon="14.0704817"><ele>70.66666666666667</ele><time>2026-05-03T12:28:11.687Z</time></trkpt><trkpt lat="42.3123867" lon="14.0707117"><ele>70.33333333333333</ele><time>2026-05-03T12:28:12.687Z</time></trkpt><trkpt lat="42.3125083" lon="14.0709533"><ele>70.0</ele><time>2026-05-03T12:28:13.687Z</time></trkpt><trkpt lat="42.3126233" lon="14.071205"><ele>70.0</ele><time>2026-05-03T12:28:14.687Z</time></trkpt><trkpt lat="42.3127317" lon="14.07144"><ele>70.0</ele><time>2026-05-03T12:28:15.688Z</time></trkpt><trkpt lat="42.3128317" lon="14.0716717"><ele>70.0</ele><time>2026-05-03T12:28:16.688Z</time></trkpt><trkpt lat="42.312935" lon="14.0718833"><ele>70.0</ele><time>2026-05-03T12:28:17.688Z</time></trkpt><trkpt lat="42.3130317" lon="14.0720833"><ele>70.0</ele><time>2026-05-03T12:28:18.687Z</time></trkpt><trkpt lat="42.3131233" lon="14.0722717"><ele>70.0</ele><time>2026-05-03T12:28:19.687Z</time></trkpt><trkpt lat="42.3132117" lon="14.0724617"><ele>68.66666666666666</ele><time>2026-05-03T12:28:20.687Z</time></trkpt><trkpt lat="42.3133" lon="14.0726517"><ele>67.33333333333333</ele><time>2026-05-03T12:28:21.688Z</time></trkpt><trkpt lat="42.31339" lon="14.0728267"><ele>66.0</ele><time>2026-05-03T12:28:22.688Z</time></trkpt><trkpt lat="42.313475" lon="14.0730067"><ele>66.0</ele><time>2026-05-03T12:28:23.688Z</time></trkpt><trkpt lat="42.3135617" lon="14.0731817"><ele>66.0</ele><time>2026-05-03T12:28:24.688Z</time></trkpt><trkpt lat="42.3136483" lon="14.073355"><ele>66.0</ele><time>2026-05-03T12:28:25.688Z</time></trkpt><trkpt lat="42.3137317" lon="14.0735317"><ele>66.25</ele><time>2026-05-03T12:28:26.688Z</time></trkpt><trkpt lat="42.313815" lon="14.0736983"><ele>66.5</ele><time>2026-05-03T12:28:27.687Z</time></trkpt><trkpt lat="42.3138867" lon="14.073855"><ele>66.75</ele><time>2026-05-03T12:28:28.688Z</time></trkpt><trkpt lat="42.31395" lon="14.0740033"><ele>67.0</ele><time>2026-05-03T12:28:29.687Z</time></trkpt><trkpt lat="42.3140083" lon="14.074145"><ele>67.25</ele><time>2026-05-03T12:28:30.688Z</time></trkpt><trkpt lat="42.314075" lon="14.0742767"><ele>67.5</ele><time>2026-05-03T12:28:31.688Z</time></trkpt><trkpt lat="42.3141467" lon="14.0744083"><ele>67.75</ele><time>2026-05-03T12:28:32.687Z</time></trkpt><trkpt lat="42.3142067" lon="14.0745383"><ele>68.0</ele><time>2026-05-03T12:28:33.688Z</time></trkpt><trkpt lat="42.3142683" lon="14.0746567"><ele>68.0</ele><time>2026-05-03T12:28:34.687Z</time></trkpt><trkpt lat="42.3143233" lon="14.0747617"><ele>68.0</ele><time>2026-05-03T12:28:35.687Z</time></trkpt><trkpt lat="42.31437" lon="14.0748583"><ele>68.0</ele><time>2026-05-03T12:28:36.688Z</time></trkpt><trkpt lat="42.3144117" lon="14.0749467"><ele>68.0</ele><time>2026-05-03T12:28:37.688Z</time></trkpt><trkpt lat="42.3144567" lon="14.0750283"><ele>68.0</ele><time>2026-05-03T12:28:38.688Z</time></trkpt><trkpt lat="42.3145033" lon="14.0751017"><ele>68.0</ele><time>2026-05-03T12:28:39.688Z</time></trkpt><trkpt lat="42.3145483" lon="14.0751883"><ele>68.0</ele><time>2026-05-03T12:28:40.688Z</time></trkpt><trkpt lat="42.314595" lon="14.0752917"><ele>68.0</ele><time>2026-05-03T12:28:41.688Z</time></trkpt><trkpt lat="42.31465" lon="14.0754083"><ele>68.0</ele><time>2026-05-03T12:28:42.688Z</time></trkpt><trkpt lat="42.314705" lon="14.0755333"><ele>68.0</ele><time>2026-05-03T12:28:43.688Z</time></trkpt><trkpt lat="42.3147683" lon="14.07567"><ele>68.0</ele><time>2026-05-03T12:28:44.688Z</time></trkpt><trkpt lat="42.314845" lon="14.0758317"><ele>68.33333333333334</ele><time>2026-05-03T12:28:45.687Z</time></trkpt><trkpt lat="42.314935" lon="14.07601"><ele>68.66666666666667</ele><time>2026-05-03T12:28:46.688Z</time></trkpt><trkpt lat="42.31503" lon="14.0761917"><ele>69.0</ele><time>2026-05-03T12:28:47.687Z</time></trkpt><trkpt lat="42.3151183" lon="14.0763833"><ele>69.0</ele><time>2026-05-03T12:28:48.688Z</time></trkpt><trkpt lat="42.3152117" lon="14.07658"><ele>69.0</ele><time>2026-05-03T12:28:49.688Z</time></trkpt><trkpt lat="42.3153" lon="14.07677"><ele>69.0</ele><time>2026-05-03T12:28:50.687Z</time></trkpt><trkpt lat="42.315385" lon="14.0769583"><ele>69.0</ele><time>2026-05-03T12:28:51.688Z</time></trkpt><trkpt lat="42.31547" lon="14.0771467"><ele>69.0</ele><time>2026-05-03T12:28:52.688Z</time></trkpt><trkpt lat="42.3155483" lon="14.0773283"><ele>69.0</ele><time>2026-05-03T12:28:53.687Z</time></trkpt><trkpt lat="42.315635" lon="14.0775017"><ele>68.66666666666667</ele><time>2026-05-03T12:28:54.687Z</time></trkpt><trkpt lat="42.31572" lon="14.0776767"><ele>68.33333333333334</ele><time>2026-05-03T12:28:55.688Z</time></trkpt><trkpt lat="42.3158" lon="14.0778633"><ele>68.0</ele><time>2026-05-03T12:28:56.688Z</time></trkpt><trkpt lat="42.31589" lon="14.0780433"><ele>68.0</ele><time>2026-05-03T12:28:57.688Z</time></trkpt><trkpt lat="42.315975" lon="14.0782183"><ele>68.0</ele><time>2026-05-03T12:28:58.687Z</time></trkpt><trkpt lat="42.3160617" lon="14.0783933"><ele>68.0</ele><time>2026-05-03T12:28:59.687Z</time></trkpt><trkpt lat="42.3161467" lon="14.0785733"><ele>68.0</ele><time>2026-05-03T12:29:00.688Z</time></trkpt><trkpt lat="42.3162367" lon="14.0787617"><ele>68.0</ele><time>2026-05-03T12:29:01.687Z</time></trkpt><trkpt lat="42.3163333" lon="14.0789633"><ele>68.0</ele><time>2026-05-03T12:29:02.687Z</time></trkpt><trkpt lat="42.31643" lon="14.07916"><ele>67.66666666666667</ele><time>2026-05-03T12:29:03.688Z</time></trkpt><trkpt lat="42.316525" lon="14.0793583"><ele>67.33333333333333</ele><time>2026-05-03T12:29:04.688Z</time></trkpt><trkpt lat="42.316625" lon="14.07956"><ele>67.0</ele><time>2026-05-03T12:29:05.687Z</time></trkpt><trkpt lat="42.3167183" lon="14.079765"><ele>67.0</ele><time>2026-05-03T12:29:06.687Z</time></trkpt><trkpt lat="42.3168133" lon="14.079965"><ele>67.0</ele><time>2026-05-03T12:29:07.688Z</time></trkpt><trkpt lat="42.3169133" lon="14.0801633"><ele>67.0</ele><time>2026-05-03T12:29:08.688Z</time></trkpt><trkpt lat="42.3170083" lon="14.0803533"><ele>67.0</ele><time>2026-05-03T12:29:09.687Z</time></trkpt><trkpt lat="42.3171033" lon="14.080545"><ele>67.0</ele><time>2026-05-03T12:29:10.688Z</time></trkpt><trkpt lat="42.317195" lon="14.08074"><ele>67.0</ele><time>2026-05-03T12:29:11.688Z</time></trkpt><trkpt lat="42.3172867" lon="14.0809367"><ele>66.33333333333333</ele><time>2026-05-03T12:29:12.688Z</time></trkpt><trkpt lat="42.3173733" lon="14.0811283"><ele>65.66666666666667</ele><time>2026-05-03T12:29:13.688Z</time></trkpt><trkpt lat="42.317465" lon="14.0813133"><ele>65.0</ele><time>2026-05-03T12:29:14.688Z</time></trkpt><trkpt lat="42.3175517" lon="14.0815017"><ele>64.66666666666667</ele><time>2026-05-03T12:29:15.687Z</time></trkpt><trkpt lat="42.3176483" lon="14.0816917"><ele>64.33333333333333</ele><time>2026-05-03T12:29:16.687Z</time></trkpt><trkpt lat="42.3177467" lon="14.081895"><ele>64.0</ele><time>2026-05-03T12:29:17.688Z</time></trkpt><trkpt lat="42.317845" lon="14.0820867"><ele>64.0</ele><time>2026-05-03T12:29:18.688Z</time></trkpt><trkpt lat="42.3179383" lon="14.0822817"><ele>64.0</ele><time>2026-05-03T12:29:19.687Z</time></trkpt><trkpt lat="42.3180317" lon="14.082485"><ele>64.0</ele><time>2026-05-03T12:29:20.687Z</time></trkpt><trkpt lat="42.3181283" lon="14.0826833"><ele>64.0</ele><time>2026-05-03T12:29:21.687Z</time></trkpt><trkpt lat="42.3182233" lon="14.0828817"><ele>64.0</ele><time>2026-05-03T12:29:22.688Z</time></trkpt><trkpt lat="42.318315" lon="14.0830867"><ele>64.0</ele><time>2026-05-03T12:29:23.688Z</time></trkpt><trkpt lat="42.318415" lon="14.0832917"><ele>63.666666666666664</ele><time>2026-05-03T12:29:24.687Z</time></trkpt><trkpt lat="42.3185083" lon="14.083495"><ele>63.33333333333333</ele><time>2026-05-03T12:29:25.687Z</time></trkpt><trkpt lat="42.3185933" lon="14.0836967"><ele>63.0</ele><time>2026-05-03T12:29:26.688Z</time></trkpt><trkpt lat="42.318695" lon="14.0838983"><ele>63.0</ele><time>2026-05-03T12:29:27.688Z</time></trkpt><trkpt lat="42.31879" lon="14.0841"><ele>63.0</ele><time>2026-05-03T12:29:28.687Z</time></trkpt><trkpt lat="42.318885" lon="14.0843"><ele>63.0</ele><time>2026-05-03T12:29:29.688Z</time></trkpt><trkpt lat="42.3189867" lon="14.0845"><ele>63.0</ele><time>2026-05-03T12:29:30.687Z</time></trkpt><trkpt lat="42.3190783" lon="14.0847"><ele>63.0</ele><time>2026-05-03T12:29:31.688Z</time></trkpt><trkpt lat="42.3191783" lon="14.0849033"><ele>63.0</ele><time>2026-05-03T12:29:32.688Z</time></trkpt><trkpt lat="42.319275" lon="14.085105"><ele>62.66666666666667</ele><time>2026-05-03T12:29:33.688Z</time></trkpt><trkpt lat="42.3193717" lon="14.0853133"><ele>62.333333333333336</ele><time>2026-05-03T12:29:34.687Z</time></trkpt><trkpt lat="42.319465" lon="14.0855167"><ele>62.0</ele><time>2026-05-03T12:29:35.687Z</time></trkpt><trkpt lat="42.3195583" lon="14.0857183"><ele>61.66666666666667</ele><time>2026-05-03T12:29:36.687Z</time></trkpt><trkpt lat="42.3196583" lon="14.085915"><ele>61.33333333333333</ele><time>2026-05-03T12:29:37.688Z</time></trkpt><trkpt lat="42.31976" lon="14.0861117"><ele>61.0</ele><time>2026-05-03T12:29:38.687Z</time></trkpt><trkpt lat="42.3198567" lon="14.086315"><ele>61.0</ele><time>2026-05-03T12:29:39.688Z</time></trkpt><trkpt lat="42.3199567" lon="14.08652"><ele>61.0</ele><time>2026-05-03T12:29:40.688Z</time></trkpt><trkpt lat="42.320055" lon="14.0867217"><ele>61.0</ele><time>2026-05-03T12:29:41.688Z</time></trkpt><trkpt lat="42.320155" lon="14.0869217"><ele>61.0</ele><time>2026-05-03T12:29:42.687Z</time></trkpt><trkpt lat="42.320255" lon="14.0871267"><ele>61.0</ele><time>2026-05-03T12:29:43.687Z</time></trkpt><trkpt lat="42.3203533" lon="14.08733"><ele>61.0</ele><time>2026-05-03T12:29:44.687Z</time></trkpt><trkpt lat="42.3204467" lon="14.0875333"><ele>61.0</ele><time>2026-05-03T12:29:45.687Z</time></trkpt><trkpt lat="42.320545" lon="14.087735"><ele>61.0</ele><time>2026-05-03T12:29:46.687Z</time></trkpt><trkpt lat="42.32064" lon="14.087945"><ele>61.0</ele><time>2026-05-03T12:29:47.687Z</time></trkpt><trkpt lat="42.320735" lon="14.0881433"><ele>60.666666666666664</ele><time>2026-05-03T12:29:48.687Z</time></trkpt><trkpt lat="42.32083" lon="14.0883283"><ele>60.33333333333333</ele><time>2026-05-03T12:29:49.688Z</time></trkpt><trkpt lat="42.3209133" lon="14.088515"><ele>60.0</ele><time>2026-05-03T12:29:50.687Z</time></trkpt><trkpt lat="42.3210067" lon="14.0887033"><ele>60.0</ele><time>2026-05-03T12:29:51.688Z</time></trkpt><trkpt lat="42.3210967" lon="14.0888883"><ele>60.0</ele><time>2026-05-03T12:29:52.688Z</time></trkpt><trkpt lat="42.3211817" lon="14.0890683"><ele>60.0</ele><time>2026-05-03T12:29:53.687Z</time></trkpt><trkpt lat="42.321265" lon="14.0892417"><ele>59.75</ele><time>2026-05-03T12:29:54.688Z</time></trkpt><trkpt lat="42.3213433" lon="14.0894117"><ele>59.5</ele><time>2026-05-03T12:29:55.688Z</time></trkpt><trkpt lat="42.3214233" lon="14.0895733"><ele>59.25</ele><time>2026-05-03T12:29:56.688Z</time></trkpt><trkpt lat="42.3215083" lon="14.089735"><ele>59.0</ele><time>2026-05-03T12:29:57.687Z</time></trkpt><trkpt lat="42.3215883" lon="14.0899117"><ele>58.66666666666667</ele><time>2026-05-03T12:29:58.687Z</time></trkpt><trkpt lat="42.3216633" lon="14.0900933"><ele>58.33333333333333</ele><time>2026-05-03T12:29:59.688Z</time></trkpt><trkpt lat="42.3217383" lon="14.090275"><ele>58.0</ele><time>2026-05-03T12:30:00.688Z</time></trkpt><trkpt lat="42.3218183" lon="14.0904583"><ele>58.0</ele><time>2026-05-03T12:30:01.687Z</time></trkpt><trkpt lat="42.3219083" lon="14.0906333"><ele>58.0</ele><time>2026-05-03T12:30:02.687Z</time></trkpt><trkpt lat="42.3219933" lon="14.09081"><ele>58.0</ele><time>2026-05-03T12:30:03.688Z</time></trkpt><trkpt lat="42.3220817" lon="14.0909833"><ele>58.0</ele><time>2026-05-03T12:30:04.687Z</time></trkpt><trkpt lat="42.3221683" lon="14.0911567"><ele>58.0</ele><time>2026-05-03T12:30:05.687Z</time></trkpt><trkpt lat="42.3222533" lon="14.0913333"><ele>58.0</ele><time>2026-05-03T12:30:06.688Z</time></trkpt><trkpt lat="42.32234" lon="14.0915167"><ele>58.33333333333333</ele><time>2026-05-03T12:30:07.688Z</time></trkpt><trkpt lat="42.3224233" lon="14.0917"><ele>58.66666666666667</ele><time>2026-05-03T12:30:08.687Z</time></trkpt><trkpt lat="42.32251" lon="14.0918883"><ele>59.0</ele><time>2026-05-03T12:30:09.686Z</time></trkpt><trkpt lat="42.3226017" lon="14.0920717"><ele>59.0</ele><time>2026-05-03T12:30:10.687Z</time></trkpt><trkpt lat="42.3226917" lon="14.09226"><ele>59.0</ele><time>2026-05-03T12:30:11.687Z</time></trkpt><trkpt lat="42.322785" lon="14.0924467"><ele>59.0</ele><time>2026-05-03T12:30:12.687Z</time></trkpt><trkpt lat="42.32288" lon="14.0926383"><ele>58.66666666666667</ele><time>2026-05-03T12:30:13.686Z</time></trkpt><trkpt lat="42.3229667" lon="14.0928233"><ele>58.33333333333333</ele><time>2026-05-03T12:30:14.687Z</time></trkpt><trkpt lat="42.3230533" lon="14.09301"><ele>58.0</ele><time>2026-05-03T12:30:15.687Z</time></trkpt><trkpt lat="42.3231417" lon="14.093195"><ele>58.0</ele><time>2026-05-03T12:30:16.686Z</time></trkpt><trkpt lat="42.3232283" lon="14.0933767"><ele>58.0</ele><time>2026-05-03T12:30:17.687Z</time></trkpt><trkpt lat="42.3233167" lon="14.0935617"><ele>58.0</ele><time>2026-05-03T12:30:18.687Z</time></trkpt><trkpt lat="42.3234033" lon="14.09376"><ele>58.0</ele><time>2026-05-03T12:30:19.687Z</time></trkpt><trkpt lat="42.3234867" lon="14.093955"><ele>58.0</ele><time>2026-05-03T12:30:20.686Z</time></trkpt><trkpt lat="42.3235617" lon="14.0941683"><ele>58.0</ele><time>2026-05-03T12:30:21.686Z</time></trkpt><trkpt lat="42.3236183" lon="14.094385"><ele>58.0</ele><time>2026-05-03T12:30:22.686Z</time></trkpt><trkpt lat="42.323665" lon="14.0945967"><ele>58.0</ele><time>2026-05-03T12:30:23.686Z</time></trkpt><trkpt lat="42.3237117" lon="14.0948033"><ele>58.0</ele><time>2026-05-03T12:30:24.686Z</time></trkpt><trkpt lat="42.3237533" lon="14.0950167"><ele>58.33333333333333</ele><time>2026-05-03T12:30:25.687Z</time></trkpt><trkpt lat="42.323795" lon="14.09523"><ele>58.66666666666667</ele><time>2026-05-03T12:30:26.687Z</time></trkpt><trkpt lat="42.3238433" lon="14.0954467"><ele>59.0</ele><time>2026-05-03T12:30:27.687Z</time></trkpt><trkpt lat="42.323895" lon="14.0956667"><ele>58.66666666666667</ele><time>2026-05-03T12:30:28.687Z</time></trkpt><trkpt lat="42.3239433" lon="14.0958833"><ele>58.33333333333333</ele><time>2026-05-03T12:30:29.686Z</time></trkpt><trkpt lat="42.3239883" lon="14.0961017"><ele>58.0</ele><time>2026-05-03T12:30:30.686Z</time></trkpt><trkpt lat="42.3240333" lon="14.09631"><ele>58.0</ele><time>2026-05-03T12:30:31.686Z</time></trkpt><trkpt lat="42.3240817" lon="14.096525"><ele>58.0</ele><time>2026-05-03T12:30:32.686Z</time></trkpt><trkpt lat="42.3241183" lon="14.0967483"><ele>58.0</ele><time>2026-05-03T12:30:33.686Z</time></trkpt><trkpt lat="42.3241567" lon="14.0969733"><ele>58.0</ele><time>2026-05-03T12:30:34.686Z</time></trkpt><trkpt lat="42.3241967" lon="14.0971917"><ele>58.0</ele><time>2026-05-03T12:30:35.686Z</time></trkpt><trkpt lat="42.3242483" lon="14.09741"><ele>58.0</ele><time>2026-05-03T12:30:36.687Z</time></trkpt><trkpt lat="42.3243" lon="14.0976283"><ele>57.666666666666664</ele><time>2026-05-03T12:30:37.686Z</time></trkpt><trkpt lat="42.3243667" lon="14.0978417"><ele>57.33333333333333</ele><time>2026-05-03T12:30:38.687Z</time></trkpt><trkpt lat="42.3244617" lon="14.0980583"><ele>57.0</ele><time>2026-05-03T12:30:39.687Z</time></trkpt><trkpt lat="42.32459" lon="14.0982833"><ele>55.0</ele><time>2026-05-03T12:30:40.686Z</time></trkpt><trkpt lat="42.3247383" lon="14.0985167"><ele>53.0</ele><time>2026-05-03T12:30:41.687Z</time></trkpt><trkpt lat="42.3248883" lon="14.0987533"><ele>53.0</ele><time>2026-05-03T12:30:42.687Z</time></trkpt><trkpt lat="42.32503" lon="14.0989917"><ele>53.0</ele><time>2026-05-03T12:30:43.687Z</time></trkpt><trkpt lat="42.3251733" lon="14.0992217"><ele>53.0</ele><time>2026-05-03T12:30:44.687Z</time></trkpt><trkpt lat="42.3253333" lon="14.0994667"><ele>53.0</ele><time>2026-05-03T12:30:45.686Z</time></trkpt><trkpt lat="42.32549" lon="14.0997183"><ele>53.0</ele><time>2026-05-03T12:30:46.687Z</time></trkpt><trkpt lat="42.3256233" lon="14.0999567"><ele>53.0</ele><time>2026-05-03T12:30:47.687Z</time></trkpt><trkpt lat="42.3257417" lon="14.1001617"><ele>53.0</ele><time>2026-05-03T12:30:48.686Z</time></trkpt><trkpt lat="42.32585" lon="14.1003417"><ele>53.0</ele><time>2026-05-03T12:30:49.687Z</time></trkpt><trkpt lat="42.325945" lon="14.1004967"><ele>53.0</ele><time>2026-05-03T12:30:50.687Z</time></trkpt><trkpt lat="42.3260183" lon="14.10064"><ele>53.0</ele><time>2026-05-03T12:30:51.686Z</time></trkpt><trkpt lat="42.32607" lon="14.1007767"><ele>53.0</ele><time>2026-05-03T12:30:52.686Z</time></trkpt><trkpt lat="42.3261033" lon="14.1009183"><ele>53.0</ele><time>2026-05-03T12:30:53.687Z</time></trkpt><trkpt lat="42.3261233" lon="14.1010467"><ele>53.0</ele><time>2026-05-03T12:30:54.687Z</time></trkpt><trkpt lat="42.3261533" lon="14.1011417"><ele>53.4</ele><time>2026-05-03T12:30:55.686Z</time></trkpt><trkpt lat="42.326205" lon="14.1012033"><ele>53.8</ele><time>2026-05-03T12:30:56.687Z</time></trkpt><trkpt lat="42.3262933" lon="14.1012483"><ele>54.2</ele><time>2026-05-03T12:30:57.687Z</time></trkpt><trkpt lat="42.3263917" lon="14.1012967"><ele>54.6</ele><time>2026-05-03T12:30:58.687Z</time></trkpt><trkpt lat="42.3264967" lon="14.1013867"><ele>55.0</ele><time>2026-05-03T12:30:59.687Z</time></trkpt><trkpt lat="42.3266" lon="14.1015233"><ele>55.0</ele><time>2026-05-03T12:31:00.686Z</time></trkpt><trkpt lat="42.3267017" lon="14.1016783"><ele>55.0</ele><time>2026-05-03T12:31:01.687Z</time></trkpt><trkpt lat="42.3267983" lon="14.10184"><ele>55.0</ele><time>2026-05-03T12:31:02.687Z</time></trkpt><trkpt lat="42.3269" lon="14.1019983"><ele>55.0</ele><time>2026-05-03T12:31:03.686Z</time></trkpt><trkpt lat="42.3269933" lon="14.1021667"><ele>55.0</ele><time>2026-05-03T12:31:04.687Z</time></trkpt><trkpt lat="42.3270767" lon="14.102335"><ele>55.0</ele><time>2026-05-03T12:31:05.687Z</time></trkpt><trkpt lat="42.32715" lon="14.1025"><ele>55.0</ele><time>2026-05-03T12:31:06.687Z</time></trkpt><trkpt lat="42.3272283" lon="14.102665"><ele>52.666666666666664</ele><time>2026-05-03T12:31:07.687Z</time></trkpt><trkpt lat="42.327295" lon="14.10285"><ele>50.33333333333333</ele><time>2026-05-03T12:31:08.686Z</time></trkpt><trkpt lat="42.327355" lon="14.1030433"><ele>48.0</ele><time>2026-05-03T12:31:09.687Z</time></trkpt><trkpt lat="42.3274267" lon="14.1032417"><ele>48.33333333333333</ele><time>2026-05-03T12:31:10.687Z</time></trkpt><trkpt lat="42.3275" lon="14.1034467"><ele>48.666666666666664</ele><time>2026-05-03T12:31:11.686Z</time></trkpt><trkpt lat="42.3275683" lon="14.10366"><ele>49.0</ele><time>2026-05-03T12:31:12.687Z</time></trkpt><trkpt lat="42.3276333" lon="14.1038733"><ele>48.33333333333333</ele><time>2026-05-03T12:31:13.687Z</time></trkpt><trkpt lat="42.3277017" lon="14.1040883"><ele>47.666666666666664</ele><time>2026-05-03T12:31:14.687Z</time></trkpt><trkpt lat="42.3277683" lon="14.104305"><ele>47.0</ele><time>2026-05-03T12:31:15.686Z</time></trkpt><trkpt lat="42.327835" lon="14.10452"><ele>47.0</ele><time>2026-05-03T12:31:16.686Z</time></trkpt><trkpt lat="42.3279017" lon="14.1047417"><ele>47.0</ele><time>2026-05-03T12:31:17.687Z</time></trkpt><trkpt lat="42.32797" lon="14.10495"><ele>47.0</ele><time>2026-05-03T12:31:18.686Z</time></trkpt><trkpt lat="42.3280283" lon="14.105145"><ele>46.666666666666664</ele><time>2026-05-03T12:31:19.687Z</time></trkpt><trkpt lat="42.3280867" lon="14.1053433"><ele>46.333333333333336</ele><time>2026-05-03T12:31:20.686Z</time></trkpt><trkpt lat="42.32815" lon="14.1055417"><ele>46.0</ele><time>2026-05-03T12:31:21.686Z</time></trkpt><trkpt lat="42.32822" lon="14.10574"><ele>46.0</ele><time>2026-05-03T12:31:22.687Z</time></trkpt><trkpt lat="42.3282883" lon="14.1059417"><ele>46.0</ele><time>2026-05-03T12:31:23.687Z</time></trkpt><trkpt lat="42.328355" lon="14.1061517"><ele>46.0</ele><time>2026-05-03T12:31:24.686Z</time></trkpt><trkpt lat="42.3284167" lon="14.1063567"><ele>46.0</ele><time>2026-05-03T12:31:25.687Z</time></trkpt><trkpt lat="42.3284717" lon="14.1065517"><ele>46.0</ele><time>2026-05-03T12:31:26.687Z</time></trkpt><trkpt lat="42.3285267" lon="14.10674"><ele>46.0</ele><time>2026-05-03T12:31:27.686Z</time></trkpt><trkpt lat="42.32858" lon="14.106925"><ele>46.0</ele><time>2026-05-03T12:31:28.687Z</time></trkpt><trkpt lat="42.3286367" lon="14.107115"><ele>46.0</ele><time>2026-05-03T12:31:29.686Z</time></trkpt><trkpt lat="42.3286933" lon="14.1072967"><ele>46.0</ele><time>2026-05-03T12:31:30.687Z</time></trkpt><trkpt lat="42.3287467" lon="14.107465"><ele>46.0</ele><time>2026-05-03T12:31:31.687Z</time></trkpt><trkpt lat="42.3288" lon="14.107635"><ele>46.0</ele><time>2026-05-03T12:31:32.686Z</time></trkpt><trkpt lat="42.32885" lon="14.1077917"><ele>46.0</ele><time>2026-05-03T12:31:33.686Z</time></trkpt><trkpt lat="42.3289067" lon="14.1079467"><ele>46.0</ele><time>2026-05-03T12:31:34.687Z</time></trkpt><trkpt lat="42.3289533" lon="14.108105"><ele>46.0</ele><time>2026-05-03T12:31:35.687Z</time></trkpt><trkpt lat="42.329005" lon="14.1082567"><ele>44.75</ele><time>2026-05-03T12:31:36.686Z</time></trkpt><trkpt lat="42.329055" lon="14.10842"><ele>43.5</ele><time>2026-05-03T12:31:37.686Z</time></trkpt><trkpt lat="42.3291067" lon="14.1085833"><ele>42.25</ele><time>2026-05-03T12:31:38.686Z</time></trkpt><trkpt lat="42.3291583" lon="14.1087483"><ele>41.0</ele><time>2026-05-03T12:31:39.687Z</time></trkpt><trkpt lat="42.3292033" lon="14.108915"><ele>41.5</ele><time>2026-05-03T12:31:40.687Z</time></trkpt><trkpt lat="42.3292633" lon="14.109085"><ele>42.0</ele><time>2026-05-03T12:31:41.687Z</time></trkpt><trkpt lat="42.32931" lon="14.109255"><ele>42.5</ele><time>2026-05-03T12:31:42.687Z</time></trkpt><trkpt lat="42.3293667" lon="14.1094217"><ele>43.0</ele><time>2026-05-03T12:31:43.687Z</time></trkpt><trkpt lat="42.3294167" lon="14.1095983"><ele>43.0</ele><time>2026-05-03T12:31:44.686Z</time></trkpt><trkpt lat="42.329465" lon="14.1097633"><ele>43.0</ele><time>2026-05-03T12:31:45.687Z</time></trkpt><trkpt lat="42.3295117" lon="14.1099383"><ele>43.0</ele><time>2026-05-03T12:31:46.687Z</time></trkpt><trkpt lat="42.329565" lon="14.1101183"><ele>43.0</ele><time>2026-05-03T12:31:47.687Z</time></trkpt><trkpt lat="42.329625" lon="14.110295"><ele>43.25</ele><time>2026-05-03T12:31:48.687Z</time></trkpt><trkpt lat="42.3296733" lon="14.1104683"><ele>43.5</ele><time>2026-05-03T12:31:49.687Z</time></trkpt><trkpt lat="42.3297283" lon="14.11064"><ele>43.75</ele><time>2026-05-03T12:31:50.687Z</time></trkpt><trkpt lat="42.3297833" lon="14.1108083"><ele>44.0</ele><time>2026-05-03T12:31:51.686Z</time></trkpt><trkpt lat="42.329835" lon="14.110965"><ele>43.75</ele><time>2026-05-03T12:31:52.687Z</time></trkpt><trkpt lat="42.3298917" lon="14.111135"><ele>43.5</ele><time>2026-05-03T12:31:53.687Z</time></trkpt><trkpt lat="42.3299467" lon="14.111305"><ele>43.25</ele><time>2026-05-03T12:31:54.686Z</time></trkpt><trkpt lat="42.3300017" lon="14.11147"><ele>43.0</ele><time>2026-05-03T12:31:55.687Z</time></trkpt><trkpt lat="42.3300533" lon="14.11165"><ele>43.0</ele><time>2026-05-03T12:31:56.687Z</time></trkpt><trkpt lat="42.330105" lon="14.1118183"><ele>43.0</ele><time>2026-05-03T12:31:57.687Z</time></trkpt><trkpt lat="42.3301533" lon="14.111985"><ele>43.0</ele><time>2026-05-03T12:31:58.687Z</time></trkpt><trkpt lat="42.330205" lon="14.1121533"><ele>43.0</ele><time>2026-05-03T12:31:59.686Z</time></trkpt><trkpt lat="42.3302617" lon="14.1123133"><ele>43.0</ele><time>2026-05-03T12:32:00.687Z</time></trkpt><trkpt lat="42.33031" lon="14.112465"><ele>43.0</ele><time>2026-05-03T12:32:01.687Z</time></trkpt><trkpt lat="42.3303583" lon="14.1126117"><ele>43.0</ele><time>2026-05-03T12:32:02.687Z</time></trkpt><trkpt lat="42.3304017" lon="14.11276"><ele>43.0</ele><time>2026-05-03T12:32:03.687Z</time></trkpt><trkpt lat="42.3304167" lon="14.1129033"><ele>43.0</ele><time>2026-05-03T12:32:04.686Z</time></trkpt><trkpt lat="42.3304167" lon="14.1130367"><ele>43.0</ele><time>2026-05-03T12:32:05.687Z</time></trkpt><trkpt lat="42.330435" lon="14.1131483"><ele>43.0</ele><time>2026-05-03T12:32:06.686Z</time></trkpt><trkpt lat="42.33048" lon="14.11325"><ele>43.0</ele><time>2026-05-03T12:32:07.687Z</time></trkpt><trkpt lat="42.3305467" lon="14.1133433"><ele>43.0</ele><time>2026-05-03T12:32:08.687Z</time></trkpt><trkpt lat="42.3306167" lon="14.11346"><ele>41.75</ele><time>2026-05-03T12:32:09.687Z</time></trkpt><trkpt lat="42.3306767" lon="14.1136167"><ele>40.5</ele><time>2026-05-03T12:32:10.687Z</time></trkpt><trkpt lat="42.330735" lon="14.1137933"><ele>39.25</ele><time>2026-05-03T12:32:11.687Z</time></trkpt><trkpt lat="42.3307983" lon="14.1139883"><ele>38.0</ele><time>2026-05-03T12:32:12.686Z</time></trkpt><trkpt lat="42.33087" lon="14.114195"><ele>38.0</ele><time>2026-05-03T12:32:13.687Z</time></trkpt><trkpt lat="42.33094" lon="14.114405"><ele>38.0</ele><time>2026-05-03T12:32:14.686Z</time></trkpt><trkpt lat="42.3310067" lon="14.1146183"><ele>38.0</ele><time>2026-05-03T12:32:15.687Z</time></trkpt><trkpt lat="42.3310767" lon="14.114825"><ele>38.0</ele><time>2026-05-03T12:32:16.687Z</time></trkpt><trkpt lat="42.3311367" lon="14.1150283"><ele>38.0</ele><time>2026-05-03T12:32:17.687Z</time></trkpt><trkpt lat="42.3312" lon="14.11523"><ele>38.0</ele><time>2026-05-03T12:32:18.686Z</time></trkpt><trkpt lat="42.33126" lon="14.115435"><ele>38.0</ele><time>2026-05-03T12:32:19.686Z</time></trkpt><trkpt lat="42.33132" lon="14.115645"><ele>38.0</ele><time>2026-05-03T12:32:20.687Z</time></trkpt><trkpt lat="42.3313817" lon="14.1158517"><ele>38.0</ele><time>2026-05-03T12:32:21.687Z</time></trkpt><trkpt lat="42.3314533" lon="14.11606"><ele>38.0</ele><time>2026-05-03T12:32:22.686Z</time></trkpt><trkpt lat="42.3315283" lon="14.1162733"><ele>38.0</ele><time>2026-05-03T12:32:23.687Z</time></trkpt><trkpt lat="42.3316067" lon="14.1164967"><ele>38.0</ele><time>2026-05-03T12:32:24.686Z</time></trkpt><trkpt lat="42.3316767" lon="14.11672"><ele>38.0</ele><time>2026-05-03T12:32:25.686Z</time></trkpt><trkpt lat="42.331735" lon="14.1169483"><ele>38.0</ele><time>2026-05-03T12:32:26.686Z</time></trkpt><trkpt lat="42.3318033" lon="14.1171867"><ele>38.0</ele><time>2026-05-03T12:32:27.687Z</time></trkpt><trkpt lat="42.33188" lon="14.1174167"><ele>38.666666666666664</ele><time>2026-05-03T12:32:28.687Z</time></trkpt><trkpt lat="42.3319517" lon="14.1176417"><ele>39.333333333333336</ele><time>2026-05-03T12:32:29.686Z</time></trkpt><trkpt lat="42.3320283" lon="14.11787"><ele>40.0</ele><time>2026-05-03T12:32:30.687Z</time></trkpt><trkpt lat="42.3320983" lon="14.118095"><ele>40.0</ele><time>2026-05-03T12:32:31.687Z</time></trkpt><trkpt lat="42.3321717" lon="14.1183233"><ele>40.0</ele><time>2026-05-03T12:32:32.687Z</time></trkpt><trkpt lat="42.33224" lon="14.1185567"><ele>40.0</ele><time>2026-05-03T12:32:33.686Z</time></trkpt><trkpt lat="42.3323083" lon="14.1187917"><ele>39.333333333333336</ele><time>2026-05-03T12:32:34.687Z</time></trkpt><trkpt lat="42.33238" lon="14.1190383"><ele>38.666666666666664</ele><time>2026-05-03T12:32:35.687Z</time></trkpt><trkpt lat="42.332455" lon="14.1192733"><ele>38.0</ele><time>2026-05-03T12:32:36.686Z</time></trkpt><trkpt lat="42.3325233" lon="14.1195017"><ele>37.666666666666664</ele><time>2026-05-03T12:32:37.687Z</time></trkpt><trkpt lat="42.3325933" lon="14.11973"><ele>37.333333333333336</ele><time>2026-05-03T12:32:38.687Z</time></trkpt><trkpt lat="42.33266" lon="14.1199517"><ele>37.0</ele><time>2026-05-03T12:32:39.687Z</time></trkpt><trkpt lat="42.33273" lon="14.1201817"><ele>38.0</ele><time>2026-05-03T12:32:40.686Z</time></trkpt><trkpt lat="42.3328017" lon="14.1204067"><ele>39.0</ele><time>2026-05-03T12:32:41.686Z</time></trkpt><trkpt lat="42.33288" lon="14.1206367"><ele>40.0</ele><time>2026-05-03T12:32:42.686Z</time></trkpt><trkpt lat="42.3329583" lon="14.1208633"><ele>40.0</ele><time>2026-05-03T12:32:43.687Z</time></trkpt><trkpt lat="42.3330317" lon="14.1210917"><ele>40.0</ele><time>2026-05-03T12:32:44.687Z</time></trkpt><trkpt lat="42.3331" lon="14.12133"><ele>40.0</ele><time>2026-05-03T12:32:45.687Z</time></trkpt><trkpt lat="42.3331733" lon="14.1215667"><ele>40.66666666666667</ele><time>2026-05-03T12:32:46.686Z</time></trkpt><trkpt lat="42.33325" lon="14.1218083"><ele>41.333333333333336</ele><time>2026-05-03T12:32:47.686Z</time></trkpt><trkpt lat="42.3333233" lon="14.1220333"><ele>42.0</ele><time>2026-05-03T12:32:48.686Z</time></trkpt><trkpt lat="42.3333883" lon="14.122245"><ele>42.666666666666664</ele><time>2026-05-03T12:32:49.686Z</time></trkpt><trkpt lat="42.33346" lon="14.122455"><ele>43.33333333333333</ele><time>2026-05-03T12:32:50.685Z</time></trkpt><trkpt lat="42.3335267" lon="14.12267"><ele>44.0</ele><time>2026-05-03T12:32:51.685Z</time></trkpt><trkpt lat="42.3335917" lon="14.1228883"><ele>44.0</ele><time>2026-05-03T12:32:52.686Z</time></trkpt><trkpt lat="42.3336617" lon="14.1231"><ele>44.0</ele><time>2026-05-03T12:32:53.686Z</time></trkpt><trkpt lat="42.3337317" lon="14.1233067"><ele>44.0</ele><time>2026-05-03T12:32:54.686Z</time></trkpt><trkpt lat="42.3337967" lon="14.123515"><ele>43.666666666666664</ele><time>2026-05-03T12:32:55.686Z</time></trkpt><trkpt lat="42.3338667" lon="14.123725"><ele>43.333333333333336</ele><time>2026-05-03T12:32:56.685Z</time></trkpt><trkpt lat="42.3339333" lon="14.1239383"><ele>43.0</ele><time>2026-05-03T12:32:57.685Z</time></trkpt><trkpt lat="42.3340017" lon="14.12416"><ele>42.333333333333336</ele><time>2026-05-03T12:32:58.686Z</time></trkpt><trkpt lat="42.3340683" lon="14.1243817"><ele>41.666666666666664</ele><time>2026-05-03T12:32:59.685Z</time></trkpt><trkpt lat="42.3341367" lon="14.1246033"><ele>41.0</ele><time>2026-05-03T12:33:00.685Z</time></trkpt><trkpt lat="42.33421" lon="14.1248233"><ele>41.666666666666664</ele><time>2026-05-03T12:33:01.685Z</time></trkpt><trkpt lat="42.3342767" lon="14.12504"><ele>42.333333333333336</ele><time>2026-05-03T12:33:02.685Z</time></trkpt><trkpt lat="42.33435" lon="14.1252583"><ele>43.0</ele><time>2026-05-03T12:33:03.685Z</time></trkpt><trkpt lat="42.3344217" lon="14.1254817"><ele>43.0</ele><time>2026-05-03T12:33:04.686Z</time></trkpt><trkpt lat="42.3344883" lon="14.1257083"><ele>43.0</ele><time>2026-05-03T12:33:05.685Z</time></trkpt><trkpt lat="42.3345633" lon="14.1259267"><ele>43.0</ele><time>2026-05-03T12:33:06.686Z</time></trkpt><trkpt lat="42.334635" lon="14.12616"><ele>43.66666666666667</ele><time>2026-05-03T12:33:07.686Z</time></trkpt><trkpt lat="42.33471" lon="14.1263883"><ele>44.333333333333336</ele><time>2026-05-03T12:33:08.685Z</time></trkpt><trkpt lat="42.33478" lon="14.1266233"><ele>45.0</ele><time>2026-05-03T12:33:09.685Z</time></trkpt><trkpt lat="42.33485" lon="14.126845"><ele>45.333333333333336</ele><time>2026-05-03T12:33:10.685Z</time></trkpt><trkpt lat="42.3349167" lon="14.1270683"><ele>45.66666666666667</ele><time>2026-05-03T12:33:11.686Z</time></trkpt><trkpt lat="42.33499" lon="14.1273033"><ele>46.0</ele><time>2026-05-03T12:33:12.686Z</time></trkpt><trkpt lat="42.33506" lon="14.12753"><ele>46.66666666666667</ele><time>2026-05-03T12:33:13.686Z</time></trkpt><trkpt lat="42.3351283" lon="14.1277533"><ele>47.333333333333336</ele><time>2026-05-03T12:33:14.686Z</time></trkpt><trkpt lat="42.3351983" lon="14.1279733"><ele>48.0</ele><time>2026-05-03T12:33:15.686Z</time></trkpt><trkpt lat="42.3352633" lon="14.1281833"><ele>48.33333333333333</ele><time>2026-05-03T12:33:16.686Z</time></trkpt><trkpt lat="42.335335" lon="14.1284017"><ele>48.666666666666664</ele><time>2026-05-03T12:33:17.685Z</time></trkpt><trkpt lat="42.3353983" lon="14.1286183"><ele>49.0</ele><time>2026-05-03T12:33:18.685Z</time></trkpt><trkpt lat="42.3354683" lon="14.12884"><ele>49.0</ele><time>2026-05-03T12:33:19.686Z</time></trkpt><trkpt lat="42.3355433" lon="14.1290583"><ele>49.0</ele><time>2026-05-03T12:33:20.686Z</time></trkpt><trkpt lat="42.3356133" lon="14.1292817"><ele>49.0</ele><time>2026-05-03T12:33:21.686Z</time></trkpt><trkpt lat="42.3356833" lon="14.129505"><ele>49.33333333333333</ele><time>2026-05-03T12:33:22.686Z</time></trkpt><trkpt lat="42.3357517" lon="14.1297283"><ele>49.66666666666667</ele><time>2026-05-03T12:33:23.685Z</time></trkpt><trkpt lat="42.3358183" lon="14.12995"><ele>50.0</ele><time>2026-05-03T12:33:24.686Z</time></trkpt><trkpt lat="42.33589" lon="14.1301633"><ele>50.66666666666667</ele><time>2026-05-03T12:33:25.685Z</time></trkpt><trkpt lat="42.335955" lon="14.1303817"><ele>51.33333333333333</ele><time>2026-05-03T12:33:26.685Z</time></trkpt><trkpt lat="42.3360217" lon="14.1306033"><ele>52.0</ele><time>2026-05-03T12:33:27.686Z</time></trkpt><trkpt lat="42.3360917" lon="14.1308167"><ele>52.0</ele><time>2026-05-03T12:33:28.685Z</time></trkpt><trkpt lat="42.3361567" lon="14.13103"><ele>52.0</ele><time>2026-05-03T12:33:29.686Z</time></trkpt><trkpt lat="42.33622" lon="14.1312383"><ele>52.0</ele><time>2026-05-03T12:33:30.686Z</time></trkpt><trkpt lat="42.336285" lon="14.1314467"><ele>52.0</ele><time>2026-05-03T12:33:31.685Z</time></trkpt><trkpt lat="42.33635" lon="14.1316567"><ele>52.0</ele><time>2026-05-03T12:33:32.686Z</time></trkpt><trkpt lat="42.336425" lon="14.1318583"><ele>52.0</ele><time>2026-05-03T12:33:33.685Z</time></trkpt><trkpt lat="42.3365067" lon="14.132045"><ele>52.0</ele><time>2026-05-03T12:33:34.685Z</time></trkpt><trkpt lat="42.3366" lon="14.1322267"><ele>52.0</ele><time>2026-05-03T12:33:35.685Z</time></trkpt><trkpt lat="42.3367133" lon="14.132385"><ele>52.0</ele><time>2026-05-03T12:33:36.685Z</time></trkpt><trkpt lat="42.3368367" lon="14.1325233"><ele>52.5</ele><time>2026-05-03T12:33:37.686Z</time></trkpt><trkpt lat="42.336965" lon="14.1326433"><ele>53.0</ele><time>2026-05-03T12:33:38.686Z</time></trkpt><trkpt lat="42.337085" lon="14.13274"><ele>53.5</ele><time>2026-05-03T12:33:39.686Z</time></trkpt><trkpt lat="42.3372083" lon="14.1328233"><ele>54.0</ele><time>2026-05-03T12:33:40.686Z</time></trkpt><trkpt lat="42.337335" lon="14.1328817"><ele>54.25</ele><time>2026-05-03T12:33:41.685Z</time></trkpt><trkpt lat="42.3374667" lon="14.13294"><ele>54.5</ele><time>2026-05-03T12:33:42.686Z</time></trkpt><trkpt lat="42.3375967" lon="14.1329783"><ele>54.75</ele><time>2026-05-03T12:33:43.686Z</time></trkpt><trkpt lat="42.3377117" lon="14.133025"><ele>55.0</ele><time>2026-05-03T12:33:44.685Z</time></trkpt><trkpt lat="42.33784" lon="14.133055"><ele>55.0</ele><time>2026-05-03T12:33:45.686Z</time></trkpt><trkpt lat="42.3379567" lon="14.13308"><ele>55.0</ele><time>2026-05-03T12:33:46.685Z</time></trkpt><trkpt lat="42.3380667" lon="14.1331083"><ele>55.0</ele><time>2026-05-03T12:33:47.686Z</time></trkpt><trkpt lat="42.3381833" lon="14.133145"><ele>55.0</ele><time>2026-05-03T12:33:48.686Z</time></trkpt><trkpt lat="42.3383067" lon="14.1331883"><ele>55.0</ele><time>2026-05-03T12:33:49.685Z</time></trkpt><trkpt lat="42.338435" lon="14.13323"><ele>55.0</ele><time>2026-05-03T12:33:50.685Z</time></trkpt><trkpt lat="42.3385667" lon="14.13326"><ele>55.0</ele><time>2026-05-03T12:33:51.686Z</time></trkpt><trkpt lat="42.3386983" lon="14.1332983"><ele>55.0</ele><time>2026-05-03T12:33:52.686Z</time></trkpt><trkpt lat="42.338825" lon="14.1333333"><ele>55.25</ele><time>2026-05-03T12:33:53.685Z</time></trkpt><trkpt lat="42.3389517" lon="14.1333733"><ele>55.5</ele><time>2026-05-03T12:33:54.685Z</time></trkpt><trkpt lat="42.3390933" lon="14.133415"><ele>55.75</ele><time>2026-05-03T12:33:55.686Z</time></trkpt><trkpt lat="42.3392583" lon="14.1334517"><ele>56.0</ele><time>2026-05-03T12:33:56.686Z</time></trkpt><trkpt lat="42.3394383" lon="14.1335067"><ele>56.0</ele><time>2026-05-03T12:33:57.685Z</time></trkpt><trkpt lat="42.3396133" lon="14.13356"><ele>56.0</ele><time>2026-05-03T12:33:58.685Z</time></trkpt><trkpt lat="42.3397567" lon="14.13361"><ele>56.0</ele><time>2026-05-03T12:33:59.686Z</time></trkpt><trkpt lat="42.33989" lon="14.1336583"><ele>55.8</ele><time>2026-05-03T12:34:00.685Z</time></trkpt><trkpt lat="42.3400133" lon="14.133695"><ele>55.599999999999994</ele><time>2026-05-03T12:34:01.685Z</time></trkpt><trkpt lat="42.3401367" lon="14.133725"><ele>55.4</ele><time>2026-05-03T12:34:02.685Z</time></trkpt><trkpt lat="42.34024" lon="14.1337667"><ele>55.2</ele><time>2026-05-03T12:34:03.686Z</time></trkpt><trkpt lat="42.3403217" lon="14.1337933"><ele>55.0</ele><time>2026-05-03T12:34:04.685Z</time></trkpt><trkpt lat="42.3403767" lon="14.1338367"><ele>55.0</ele><time>2026-05-03T12:34:05.685Z</time></trkpt><trkpt lat="42.3404833" lon="14.13394"><ele>55.0</ele><time>2026-05-03T12:34:07.686Z</time></trkpt><trkpt lat="42.3405417" lon="14.13398"><ele>55.0</ele><time>2026-05-03T12:34:08.685Z</time></trkpt><trkpt lat="42.34065" lon="14.1339733"><ele>55.0</ele><time>2026-05-03T12:34:10.686Z</time></trkpt><trkpt lat="42.3406967" lon="14.1338217"><ele>55.0</ele><time>2026-05-03T12:34:12.686Z</time></trkpt><trkpt lat="42.3406783" lon="14.1337017"><ele>54.6</ele><time>2026-05-03T12:34:13.686Z</time></trkpt><trkpt lat="42.34066" lon="14.1335833"><ele>54.2</ele><time>2026-05-03T12:34:14.686Z</time></trkpt><trkpt lat="42.340675" lon="14.13347"><ele>53.8</ele><time>2026-05-03T12:34:15.685Z</time></trkpt><trkpt lat="42.3407217" lon="14.1333467"><ele>53.4</ele><time>2026-05-03T12:34:16.685Z</time></trkpt><trkpt lat="42.34078" lon="14.1332083"><ele>53.0</ele><time>2026-05-03T12:34:17.685Z</time></trkpt><trkpt lat="42.340855" lon="14.133065"><ele>52.5</ele><time>2026-05-03T12:34:18.685Z</time></trkpt><trkpt lat="42.34095" lon="14.1329267"><ele>52.0</ele><time>2026-05-03T12:34:19.685Z</time></trkpt><trkpt lat="42.341035" lon="14.1327917"><ele>51.5</ele><time>2026-05-03T12:34:20.685Z</time></trkpt><trkpt lat="42.3411133" lon="14.1326633"><ele>51.0</ele><time>2026-05-03T12:34:21.686Z</time></trkpt><trkpt lat="42.3411917" lon="14.13254"><ele>51.0</ele><time>2026-05-03T12:34:22.686Z</time></trkpt><trkpt lat="42.34128" lon="14.13241"><ele>51.0</ele><time>2026-05-03T12:34:23.686Z</time></trkpt><trkpt lat="42.341365" lon="14.1322633"><ele>51.0</ele><time>2026-05-03T12:34:24.686Z</time></trkpt><trkpt lat="42.3414483" lon="14.13212"><ele>51.0</ele><time>2026-05-03T12:34:25.686Z</time></trkpt><trkpt lat="42.3415117" lon="14.13197"><ele>50.25</ele><time>2026-05-03T12:34:26.686Z</time></trkpt><trkpt lat="42.3415567" lon="14.1318133"><ele>49.5</ele><time>2026-05-03T12:34:27.686Z</time></trkpt><trkpt lat="42.3416083" lon="14.131665"><ele>48.75</ele><time>2026-05-03T12:34:28.685Z</time></trkpt><trkpt lat="42.3416617" lon="14.13153"><ele>48.0</ele><time>2026-05-03T12:34:29.686Z</time></trkpt><trkpt lat="42.341705" lon="14.131415"><ele>47.75</ele><time>2026-05-03T12:34:30.685Z</time></trkpt><trkpt lat="42.3417533" lon="14.1313133"><ele>47.5</ele><time>2026-05-03T12:34:31.685Z</time></trkpt><trkpt lat="42.341795" lon="14.1311917"><ele>47.25</ele><time>2026-05-03T12:34:32.685Z</time></trkpt><trkpt lat="42.34183" lon="14.1310333"><ele>47.0</ele><time>2026-05-03T12:34:33.685Z</time></trkpt><trkpt lat="42.341865" lon="14.1308467"><ele>46.75</ele><time>2026-05-03T12:34:34.686Z</time></trkpt><trkpt lat="42.3419017" lon="14.1306567"><ele>46.5</ele><time>2026-05-03T12:34:35.686Z</time></trkpt><trkpt lat="42.3419367" lon="14.130495"><ele>46.25</ele><time>2026-05-03T12:34:36.685Z</time></trkpt><trkpt lat="42.3419633" lon="14.1303567"><ele>46.0</ele><time>2026-05-03T12:34:37.685Z</time></trkpt><trkpt lat="42.3419967" lon="14.1302233"><ele>46.0</ele><time>2026-05-03T12:34:38.685Z</time></trkpt><trkpt lat="42.3420183" lon="14.1300767"><ele>46.0</ele><time>2026-05-03T12:34:39.685Z</time></trkpt><trkpt lat="42.3420317" lon="14.1299383"><ele>46.0</ele><time>2026-05-03T12:34:40.685Z</time></trkpt><trkpt lat="42.3420383" lon="14.1298283"><ele>46.0</ele><time>2026-05-03T12:34:41.685Z</time></trkpt><trkpt lat="42.3420683" lon="14.1297533"><ele>46.0</ele><time>2026-05-03T12:34:42.685Z</time></trkpt><trkpt lat="42.3421117" lon="14.1296667"><ele>46.0</ele><time>2026-05-03T12:34:43.685Z</time></trkpt><trkpt lat="42.3421517" lon="14.129575"><ele>45.66666666666667</ele><time>2026-05-03T12:34:44.685Z</time></trkpt><trkpt lat="42.3421783" lon="14.1294617"><ele>45.333333333333336</ele><time>2026-05-03T12:34:45.686Z</time></trkpt><trkpt lat="42.3421767" lon="14.1293533"><ele>45.0</ele><time>2026-05-03T12:34:46.686Z</time></trkpt><trkpt lat="42.3421517" lon="14.1292583"><ele>44.666666666666664</ele><time>2026-05-03T12:34:47.686Z</time></trkpt><trkpt lat="42.3420933" lon="14.1291883"><ele>44.33333333333333</ele><time>2026-05-03T12:34:48.685Z</time></trkpt><trkpt lat="42.3420067" lon="14.1291133"><ele>44.0</ele><time>2026-05-03T12:34:49.686Z</time></trkpt><trkpt lat="42.3419333" lon="14.129005"><ele>42.75</ele><time>2026-05-03T12:34:50.685Z</time></trkpt><trkpt lat="42.34187" lon="14.1288617"><ele>41.5</ele><time>2026-05-03T12:34:51.685Z</time></trkpt><trkpt lat="42.34182" lon="14.1286833"><ele>40.25</ele><time>2026-05-03T12:34:52.685Z</time></trkpt><trkpt lat="42.3417783" lon="14.1284783"><ele>39.0</ele><time>2026-05-03T12:34:53.686Z</time></trkpt><trkpt lat="42.3417417" lon="14.1282483"><ele>38.333333333333336</ele><time>2026-05-03T12:34:54.685Z</time></trkpt><trkpt lat="42.341705" lon="14.12801"><ele>37.66666666666667</ele><time>2026-05-03T12:34:55.685Z</time></trkpt><trkpt lat="42.341665" lon="14.127765"><ele>37.0</ele><time>2026-05-03T12:34:56.685Z</time></trkpt><trkpt lat="42.34162" lon="14.12751"><ele>36.333333333333336</ele><time>2026-05-03T12:34:57.685Z</time></trkpt><trkpt lat="42.3415767" lon="14.1272483"><ele>35.666666666666664</ele><time>2026-05-03T12:34:58.685Z</time></trkpt><trkpt lat="42.3415317" lon="14.1269767"><ele>35.0</ele><time>2026-05-03T12:34:59.685Z</time></trkpt><trkpt lat="42.3414817" lon="14.1267133"><ele>35.0</ele><time>2026-05-03T12:35:00.686Z</time></trkpt><trkpt lat="42.341435" lon="14.1264467"><ele>35.0</ele><time>2026-05-03T12:35:01.686Z</time></trkpt><trkpt lat="42.3413917" lon="14.1261833"><ele>35.0</ele><time>2026-05-03T12:35:02.685Z</time></trkpt><trkpt lat="42.341345" lon="14.1259133"><ele>34.666666666666664</ele><time>2026-05-03T12:35:03.686Z</time></trkpt><trkpt lat="42.3413017" lon="14.12565"><ele>34.333333333333336</ele><time>2026-05-03T12:35:04.686Z</time></trkpt><trkpt lat="42.34126" lon="14.12538"><ele>34.0</ele><time>2026-05-03T12:35:05.686Z</time></trkpt><trkpt lat="42.34122" lon="14.125115"><ele>34.333333333333336</ele><time>2026-05-03T12:35:06.685Z</time></trkpt><trkpt lat="42.341175" lon="14.124845"><ele>34.666666666666664</ele><time>2026-05-03T12:35:07.686Z</time></trkpt><trkpt lat="42.3411317" lon="14.12457"><ele>35.0</ele><time>2026-05-03T12:35:08.686Z</time></trkpt><trkpt lat="42.3410833" lon="14.1242983"><ele>35.33333333333333</ele><time>2026-05-03T12:35:09.686Z</time></trkpt><trkpt lat="42.3410367" lon="14.124025"><ele>35.666666666666664</ele><time>2026-05-03T12:35:10.686Z</time></trkpt><trkpt lat="42.34099" lon="14.1237617"><ele>36.0</ele><time>2026-05-03T12:35:11.686Z</time></trkpt><trkpt lat="42.3409433" lon="14.1235133"><ele>36.0</ele><time>2026-05-03T12:35:12.685Z</time></trkpt><trkpt lat="42.3409" lon="14.12327"><ele>36.0</ele><time>2026-05-03T12:35:13.686Z</time></trkpt><trkpt lat="42.340865" lon="14.12303"><ele>36.0</ele><time>2026-05-03T12:35:14.685Z</time></trkpt><trkpt lat="42.3408283" lon="14.1228033"><ele>35.666666666666664</ele><time>2026-05-03T12:35:15.685Z</time></trkpt><trkpt lat="42.3408017" lon="14.1225833"><ele>35.33333333333333</ele><time>2026-05-03T12:35:16.685Z</time></trkpt><trkpt lat="42.3407933" lon="14.1223667"><ele>35.0</ele><time>2026-05-03T12:35:17.685Z</time></trkpt><trkpt lat="42.3407983" lon="14.1221483"><ele>34.8</ele><time>2026-05-03T12:35:18.686Z</time></trkpt><trkpt lat="42.3408217" lon="14.121955"><ele>34.6</ele><time>2026-05-03T12:35:19.686Z</time></trkpt><trkpt lat="42.340855" lon="14.12181"><ele>34.4</ele><time>2026-05-03T12:35:20.686Z</time></trkpt><trkpt lat="42.3409017" lon="14.1216967"><ele>34.2</ele><time>2026-05-03T12:35:21.685Z</time></trkpt><trkpt lat="42.34095" lon="14.1216383"><ele>34.0</ele><time>2026-05-03T12:35:22.685Z</time></trkpt><trkpt lat="42.34101" lon="14.12158"><ele>33.2</ele><time>2026-05-03T12:35:24.685Z</time></trkpt><trkpt lat="42.3411167" lon="14.1214917"><ele>32.4</ele><time>2026-05-03T12:35:26.685Z</time></trkpt><trkpt lat="42.3411633" lon="14.1214067"><ele>31.6</ele><time>2026-05-03T12:35:27.684Z</time></trkpt><trkpt lat="42.3411883" lon="14.1212833"><ele>30.8</ele><time>2026-05-03T12:35:28.684Z</time></trkpt><trkpt lat="42.3412067" lon="14.1211267"><ele>30.0</ele><time>2026-05-03T12:35:29.684Z</time></trkpt><trkpt lat="42.3412383" lon="14.1209683"><ele>30.0</ele><time>2026-05-03T12:35:30.685Z</time></trkpt><trkpt lat="42.3412983" lon="14.1208033"><ele>30.0</ele><time>2026-05-03T12:35:31.684Z</time></trkpt><trkpt lat="42.3413833" lon="14.1206367"><ele>30.0</ele><time>2026-05-03T12:35:32.685Z</time></trkpt><trkpt lat="42.34148" lon="14.12047"><ele>30.0</ele><time>2026-05-03T12:35:33.684Z</time></trkpt><trkpt lat="42.34159" lon="14.1202767"><ele>30.333333333333336</ele><time>2026-05-03T12:35:34.684Z</time></trkpt><trkpt lat="42.341705" lon="14.1200817"><ele>30.666666666666668</ele><time>2026-05-03T12:35:35.685Z</time></trkpt><trkpt lat="42.341825" lon="14.11987"><ele>31.0</ele><time>2026-05-03T12:35:36.685Z</time></trkpt><trkpt lat="42.3419417" lon="14.119665"><ele>31.0</ele><time>2026-05-03T12:35:37.685Z</time></trkpt><trkpt lat="42.3420517" lon="14.11946"><ele>31.0</ele><time>2026-05-03T12:35:38.684Z</time></trkpt><trkpt lat="42.342165" lon="14.1192517"><ele>31.0</ele><time>2026-05-03T12:35:39.684Z</time></trkpt><trkpt lat="42.34227" lon="14.119045"><ele>31.666666666666668</ele><time>2026-05-03T12:35:40.684Z</time></trkpt><trkpt lat="42.3423683" lon="14.1188233"><ele>32.333333333333336</ele><time>2026-05-03T12:35:41.684Z</time></trkpt><trkpt lat="42.3424483" lon="14.1185867"><ele>33.0</ele><time>2026-05-03T12:35:42.685Z</time></trkpt><trkpt lat="42.3425133" lon="14.1183183"><ele>35.0</ele><time>2026-05-03T12:35:43.685Z</time></trkpt><trkpt lat="42.342575" lon="14.1180517"><ele>37.0</ele><time>2026-05-03T12:35:44.685Z</time></trkpt><trkpt lat="42.34263" lon="14.1177967"><ele>39.0</ele><time>2026-05-03T12:35:45.684Z</time></trkpt><trkpt lat="42.3426767" lon="14.1175467"><ele>41.0</ele><time>2026-05-03T12:35:46.685Z</time></trkpt><trkpt lat="42.3427183" lon="14.1173017"><ele>43.0</ele><time>2026-05-03T12:35:47.684Z</time></trkpt><trkpt lat="42.3427617" lon="14.11704"><ele>45.0</ele><time>2026-05-03T12:35:48.685Z</time></trkpt><trkpt lat="42.342815" lon="14.1167933"><ele>45.333333333333336</ele><time>2026-05-03T12:35:49.684Z</time></trkpt><trkpt lat="42.3428583" lon="14.116555"><ele>45.66666666666667</ele><time>2026-05-03T12:35:50.684Z</time></trkpt><trkpt lat="42.3428983" lon="14.1163083"><ele>46.0</ele><time>2026-05-03T12:35:51.684Z</time></trkpt><trkpt lat="42.3429417" lon="14.1160617"><ele>46.0</ele><time>2026-05-03T12:35:52.685Z</time></trkpt><trkpt lat="42.3429833" lon="14.1158133"><ele>46.0</ele><time>2026-05-03T12:35:53.685Z</time></trkpt><trkpt lat="42.3430267" lon="14.1155717"><ele>46.0</ele><time>2026-05-03T12:35:54.685Z</time></trkpt><trkpt lat="42.3430667" lon="14.11534"><ele>46.66666666666667</ele><time>2026-05-03T12:35:55.685Z</time></trkpt><trkpt lat="42.3431033" lon="14.115105"><ele>47.333333333333336</ele><time>2026-05-03T12:35:56.685Z</time></trkpt><trkpt lat="42.34313" lon="14.1148767"><ele>48.0</ele><time>2026-05-03T12:35:57.684Z</time></trkpt><trkpt lat="42.3431567" lon="14.1146617"><ele>48.0</ele><time>2026-05-03T12:35:58.685Z</time></trkpt><trkpt lat="42.3431867" lon="14.11445"><ele>48.0</ele><time>2026-05-03T12:35:59.685Z</time></trkpt><trkpt lat="42.3432083" lon="14.1142517"><ele>48.0</ele><time>2026-05-03T12:36:00.684Z</time></trkpt><trkpt lat="42.3432333" lon="14.1140517"><ele>47.75</ele><time>2026-05-03T12:36:01.685Z</time></trkpt><trkpt lat="42.3432533" lon="14.113865"><ele>47.5</ele><time>2026-05-03T12:36:02.685Z</time></trkpt><trkpt lat="42.3432767" lon="14.1136867"><ele>47.25</ele><time>2026-05-03T12:36:03.684Z</time></trkpt><trkpt lat="42.343295" lon="14.1135"><ele>47.0</ele><time>2026-05-03T12:36:04.684Z</time></trkpt><trkpt lat="42.34332" lon="14.1133317"><ele>47.0</ele><time>2026-05-03T12:36:05.685Z</time></trkpt><trkpt lat="42.34334" lon="14.11319"><ele>47.0</ele><time>2026-05-03T12:36:06.685Z</time></trkpt><trkpt lat="42.3433617" lon="14.1130583"><ele>47.0</ele><time>2026-05-03T12:36:07.685Z</time></trkpt><trkpt lat="42.3433817" lon="14.11293"><ele>47.0</ele><time>2026-05-03T12:36:08.684Z</time></trkpt><trkpt lat="42.3434" lon="14.112795"><ele>47.0</ele><time>2026-05-03T12:36:09.685Z</time></trkpt><trkpt lat="42.3434183" lon="14.112655"><ele>47.0</ele><time>2026-05-03T12:36:10.684Z</time></trkpt><trkpt lat="42.3434317" lon="14.112515"><ele>47.0</ele><time>2026-05-03T12:36:11.685Z</time></trkpt><trkpt lat="42.3434517" lon="14.1123883"><ele>47.0</ele><time>2026-05-03T12:36:12.685Z</time></trkpt><trkpt lat="42.3434683" lon="14.1122633"><ele>47.0</ele><time>2026-05-03T12:36:13.685Z</time></trkpt><trkpt lat="42.3434833" lon="14.1121433"><ele>47.0</ele><time>2026-05-03T12:36:14.684Z</time></trkpt><trkpt lat="42.3434967" lon="14.1120367"><ele>47.0</ele><time>2026-05-03T12:36:15.684Z</time></trkpt><trkpt lat="42.3435067" lon="14.1119333"><ele>47.0</ele><time>2026-05-03T12:36:16.684Z</time></trkpt><trkpt lat="42.34353" lon="14.11176"><ele>47.0</ele><time>2026-05-03T12:36:18.685Z</time></trkpt><trkpt lat="42.3435567" lon="14.11161"><ele>47.0</ele><time>2026-05-03T12:36:20.685Z</time></trkpt><trkpt lat="42.3436133" lon="14.1114883"><ele>47.0</ele><time>2026-05-03T12:36:22.685Z</time></trkpt><trkpt lat="42.34367" lon="14.1114467"><ele>47.2</ele><time>2026-05-03T12:36:23.684Z</time></trkpt><trkpt lat="42.343735" lon="14.1114433"><ele>47.400000000000006</ele><time>2026-05-03T12:36:24.685Z</time></trkpt><trkpt lat="42.3438217" lon="14.1114783"><ele>47.599999999999994</ele><time>2026-05-03T12:36:25.685Z</time></trkpt><trkpt lat="42.343925" lon="14.111545"><ele>47.8</ele><time>2026-05-03T12:36:26.684Z</time></trkpt><trkpt lat="42.3440417" lon="14.11163"><ele>48.0</ele><time>2026-05-03T12:36:27.684Z</time></trkpt><trkpt lat="42.34416" lon="14.1117033"><ele>48.0</ele><time>2026-05-03T12:36:28.685Z</time></trkpt><trkpt lat="42.3442767" lon="14.1117867"><ele>48.0</ele><time>2026-05-03T12:36:29.685Z</time></trkpt><trkpt lat="42.3443933" lon="14.1118733"><ele>48.0</ele><time>2026-05-03T12:36:30.685Z</time></trkpt><trkpt lat="42.3445133" lon="14.1119567"><ele>48.0</ele><time>2026-05-03T12:36:31.685Z</time></trkpt><trkpt lat="42.3446417" lon="14.1120467"><ele>47.0</ele><time>2026-05-03T12:36:32.685Z</time></trkpt><trkpt lat="42.3447783" lon="14.1121367"><ele>46.0</ele><time>2026-05-03T12:36:33.684Z</time></trkpt><trkpt lat="42.34492" lon="14.1122133"><ele>45.0</ele><time>2026-05-03T12:36:34.684Z</time></trkpt><trkpt lat="42.3450533" lon="14.112295"><ele>45.0</ele><time>2026-05-03T12:36:35.684Z</time></trkpt><trkpt lat="42.3452017" lon="14.1123567"><ele>45.0</ele><time>2026-05-03T12:36:36.684Z</time></trkpt><trkpt lat="42.3453517" lon="14.11242"><ele>45.0</ele><time>2026-05-03T12:36:37.685Z</time></trkpt><trkpt lat="42.345505" lon="14.1124733"><ele>45.333333333333336</ele><time>2026-05-03T12:36:38.684Z</time></trkpt><trkpt lat="42.3456717" lon="14.1125217"><ele>45.66666666666667</ele><time>2026-05-03T12:36:39.684Z</time></trkpt><trkpt lat="42.3458433" lon="14.1125667"><ele>46.0</ele><time>2026-05-03T12:36:40.685Z</time></trkpt><trkpt lat="42.3460133" lon="14.112625"><ele>46.0</ele><time>2026-05-03T12:36:41.685Z</time></trkpt><trkpt lat="42.3461867" lon="14.1126867"><ele>46.0</ele><time>2026-05-03T12:36:42.684Z</time></trkpt><trkpt lat="42.3463583" lon="14.1127583"><ele>46.0</ele><time>2026-05-03T12:36:43.684Z</time></trkpt><trkpt lat="42.346535" lon="14.1128417"><ele>45.333333333333336</ele><time>2026-05-03T12:36:44.684Z</time></trkpt><trkpt lat="42.3467167" lon="14.1129333"><ele>44.666666666666664</ele><time>2026-05-03T12:36:45.685Z</time></trkpt><trkpt lat="42.3468967" lon="14.113025"><ele>44.0</ele><time>2026-05-03T12:36:46.684Z</time></trkpt><trkpt lat="42.34708" lon="14.1131117"><ele>44.33333333333333</ele><time>2026-05-03T12:36:47.685Z</time></trkpt><trkpt lat="42.3472617" lon="14.1131967"><ele>44.666666666666664</ele><time>2026-05-03T12:36:48.684Z</time></trkpt><trkpt lat="42.3474283" lon="14.1132833"><ele>45.0</ele><time>2026-05-03T12:36:49.684Z</time></trkpt><trkpt lat="42.34759" lon="14.113365"><ele>45.0</ele><time>2026-05-03T12:36:50.685Z</time></trkpt><trkpt lat="42.3477483" lon="14.1134483"><ele>45.0</ele><time>2026-05-03T12:36:51.684Z</time></trkpt><trkpt lat="42.347895" lon="14.113525"><ele>45.0</ele><time>2026-05-03T12:36:52.685Z</time></trkpt><trkpt lat="42.3480383" lon="14.1135833"><ele>45.0</ele><time>2026-05-03T12:36:53.684Z</time></trkpt><trkpt lat="42.3481783" lon="14.1136283"><ele>45.0</ele><time>2026-05-03T12:36:54.685Z</time></trkpt><trkpt lat="42.34831" lon="14.1136467"><ele>45.0</ele><time>2026-05-03T12:36:55.684Z</time></trkpt><trkpt lat="42.348445" lon="14.1136383"><ele>45.0</ele><time>2026-05-03T12:36:56.685Z</time></trkpt><trkpt lat="42.3485883" lon="14.11357"><ele>45.0</ele><time>2026-05-03T12:36:57.684Z</time></trkpt><trkpt lat="42.3487283" lon="14.113475"><ele>45.0</ele><time>2026-05-03T12:36:58.685Z</time></trkpt><trkpt lat="42.348875" lon="14.11338"><ele>45.0</ele><time>2026-05-03T12:36:59.684Z</time></trkpt><trkpt lat="42.3490267" lon="14.113275"><ele>43.666666666666664</ele><time>2026-05-03T12:37:00.684Z</time></trkpt><trkpt lat="42.34917" lon="14.1131883"><ele>42.33333333333333</ele><time>2026-05-03T12:37:01.685Z</time></trkpt><trkpt lat="42.3493067" lon="14.113095"><ele>41.0</ele><time>2026-05-03T12:37:02.685Z</time></trkpt><trkpt lat="42.3494383" lon="14.1130033"><ele>41.0</ele><time>2026-05-03T12:37:03.684Z</time></trkpt><trkpt lat="42.34956" lon="14.1129167"><ele>41.0</ele><time>2026-05-03T12:37:04.684Z</time></trkpt><trkpt lat="42.349685" lon="14.112835"><ele>41.0</ele><time>2026-05-03T12:37:05.685Z</time></trkpt><trkpt lat="42.349805" lon="14.11275"><ele>41.0</ele><time>2026-05-03T12:37:06.685Z</time></trkpt><trkpt lat="42.3499417" lon="14.11267"><ele>42.0</ele><time>2026-05-03T12:37:07.684Z</time></trkpt><trkpt lat="42.3500917" lon="14.1125867"><ele>43.0</ele><time>2026-05-03T12:37:08.685Z</time></trkpt><trkpt lat="42.3502517" lon="14.1125367"><ele>44.0</ele><time>2026-05-03T12:37:09.684Z</time></trkpt><trkpt lat="42.3504233" lon="14.11251"><ele>44.0</ele><time>2026-05-03T12:37:10.684Z</time></trkpt><trkpt lat="42.3506017" lon="14.1125017"><ele>44.0</ele><time>2026-05-03T12:37:11.684Z</time></trkpt><trkpt lat="42.3507733" lon="14.1125267"><ele>44.0</ele><time>2026-05-03T12:37:12.684Z</time></trkpt><trkpt lat="42.3509467" lon="14.1125633"><ele>44.0</ele><time>2026-05-03T12:37:13.685Z</time></trkpt><trkpt lat="42.3511267" lon="14.1126233"><ele>44.0</ele><time>2026-05-03T12:37:14.685Z</time></trkpt><trkpt lat="42.3513217" lon="14.1126867"><ele>44.0</ele><time>2026-05-03T12:37:15.684Z</time></trkpt><trkpt lat="42.351525" lon="14.11277"><ele>42.666666666666664</ele><time>2026-05-03T12:37:16.684Z</time></trkpt><trkpt lat="42.35173" lon="14.1128483"><ele>41.333333333333336</ele><time>2026-05-03T12:37:17.685Z</time></trkpt><trkpt lat="42.3519367" lon="14.1129433"><ele>40.0</ele><time>2026-05-03T12:37:18.685Z</time></trkpt><trkpt lat="42.3521467" lon="14.1130467"><ele>38.66666666666667</ele><time>2026-05-03T12:37:19.684Z</time></trkpt><trkpt lat="42.35236" lon="14.1131367"><ele>37.333333333333336</ele><time>2026-05-03T12:37:20.685Z</time></trkpt><trkpt lat="42.352575" lon="14.11322"><ele>36.0</ele><time>2026-05-03T12:37:21.684Z</time></trkpt><trkpt lat="42.3527883" lon="14.11331"><ele>36.0</ele><time>2026-05-03T12:37:22.684Z</time></trkpt><trkpt lat="42.353005" lon="14.1133917"><ele>36.0</ele><time>2026-05-03T12:37:23.685Z</time></trkpt><trkpt lat="42.3532317" lon="14.1134683"><ele>35.5</ele><time>2026-05-03T12:37:24.685Z</time></trkpt><trkpt lat="42.3534483" lon="14.11356"><ele>35.0</ele><time>2026-05-03T12:37:25.684Z</time></trkpt><trkpt lat="42.353665" lon="14.1136517"><ele>35.33333333333333</ele><time>2026-05-03T12:37:26.684Z</time></trkpt><trkpt lat="42.353875" lon="14.1137333"><ele>35.666666666666664</ele><time>2026-05-03T12:37:27.684Z</time></trkpt><trkpt lat="42.35409" lon="14.113815"><ele>36.0</ele><time>2026-05-03T12:37:28.685Z</time></trkpt><trkpt lat="42.3543" lon="14.1138983"><ele>36.0</ele><time>2026-05-03T12:37:29.685Z</time></trkpt><trkpt lat="42.3545117" lon="14.1139733"><ele>36.0</ele><time>2026-05-03T12:37:30.684Z</time></trkpt><trkpt lat="42.3547183" lon="14.1140583"><ele>36.0</ele><time>2026-05-03T12:37:31.685Z</time></trkpt><trkpt lat="42.354925" lon="14.11414"><ele>36.333333333333336</ele><time>2026-05-03T12:37:32.685Z</time></trkpt><trkpt lat="42.3551267" lon="14.1142267"><ele>36.66666666666667</ele><time>2026-05-03T12:37:33.684Z</time></trkpt><trkpt lat="42.3553233" lon="14.1143017"><ele>37.0</ele><time>2026-05-03T12:37:34.685Z</time></trkpt><trkpt lat="42.35552" lon="14.1143833"><ele>40.333333333333336</ele><time>2026-05-03T12:37:35.685Z</time></trkpt><trkpt lat="42.355725" lon="14.1144683"><ele>43.666666666666664</ele><time>2026-05-03T12:37:36.685Z</time></trkpt><trkpt lat="42.3559317" lon="14.114555"><ele>47.0</ele><time>2026-05-03T12:37:37.685Z</time></trkpt><trkpt lat="42.3561333" lon="14.114645"><ele>47.0</ele><time>2026-05-03T12:37:38.685Z</time></trkpt><trkpt lat="42.35634" lon="14.1147283"><ele>47.0</ele><time>2026-05-03T12:37:39.684Z</time></trkpt><trkpt lat="42.356545" lon="14.1148067"><ele>47.0</ele><time>2026-05-03T12:37:40.684Z</time></trkpt><trkpt lat="42.3567433" lon="14.114885"><ele>45.0</ele><time>2026-05-03T12:37:41.684Z</time></trkpt><trkpt lat="42.3569383" lon="14.1149633"><ele>43.0</ele><time>2026-05-03T12:37:42.685Z</time></trkpt><trkpt lat="42.3571317" lon="14.11504"><ele>41.0</ele><time>2026-05-03T12:37:43.685Z</time></trkpt><trkpt lat="42.3573217" lon="14.11512"><ele>41.0</ele><time>2026-05-03T12:37:44.684Z</time></trkpt><trkpt lat="42.357515" lon="14.11519"><ele>41.0</ele><time>2026-05-03T12:37:45.685Z</time></trkpt><trkpt lat="42.35771" lon="14.11527"><ele>41.0</ele><time>2026-05-03T12:37:46.684Z</time></trkpt><trkpt lat="42.3579033" lon="14.1153483"><ele>41.0</ele><time>2026-05-03T12:37:47.685Z</time></trkpt><trkpt lat="42.358105" lon="14.1154267"><ele>41.0</ele><time>2026-05-03T12:37:48.685Z</time></trkpt><trkpt lat="42.3583067" lon="14.1155117"><ele>41.0</ele><time>2026-05-03T12:37:49.684Z</time></trkpt><trkpt lat="42.358505" lon="14.1155967"><ele>41.0</ele><time>2026-05-03T12:37:50.684Z</time></trkpt><trkpt lat="42.35871" lon="14.1156867"><ele>41.0</ele><time>2026-05-03T12:37:51.685Z</time></trkpt><trkpt lat="42.3589167" lon="14.115775"><ele>41.0</ele><time>2026-05-03T12:37:52.684Z</time></trkpt><trkpt lat="42.3591233" lon="14.1158567"><ele>39.666666666666664</ele><time>2026-05-03T12:37:53.685Z</time></trkpt><trkpt lat="42.35933" lon="14.1159417"><ele>38.333333333333336</ele><time>2026-05-03T12:37:54.684Z</time></trkpt><trkpt lat="42.3595417" lon="14.1160267"><ele>37.0</ele><time>2026-05-03T12:37:55.685Z</time></trkpt><trkpt lat="42.35975" lon="14.1161117"><ele>37.0</ele><time>2026-05-03T12:37:56.685Z</time></trkpt><trkpt lat="42.3599567" lon="14.1162033"><ele>37.0</ele><time>2026-05-03T12:37:57.684Z</time></trkpt><trkpt lat="42.36016" lon="14.1162933"><ele>37.0</ele><time>2026-05-03T12:37:58.685Z</time></trkpt><trkpt lat="42.3603633" lon="14.1163833"><ele>38.66666666666667</ele><time>2026-05-03T12:37:59.685Z</time></trkpt><trkpt lat="42.3605683" lon="14.11647"><ele>40.333333333333336</ele><time>2026-05-03T12:38:00.684Z</time></trkpt><trkpt lat="42.360765" lon="14.1165567"><ele>42.0</ele><time>2026-05-03T12:38:01.684Z</time></trkpt><trkpt lat="42.3609583" lon="14.1166433"><ele>40.0</ele><time>2026-05-03T12:38:02.684Z</time></trkpt><trkpt lat="42.3611467" lon="14.116735"><ele>38.0</ele><time>2026-05-03T12:38:03.685Z</time></trkpt><trkpt lat="42.3613317" lon="14.1168183"><ele>36.0</ele><time>2026-05-03T12:38:04.684Z</time></trkpt><trkpt lat="42.3615217" lon="14.1169017"><ele>36.0</ele><time>2026-05-03T12:38:05.685Z</time></trkpt><trkpt lat="42.3617033" lon="14.1169917"><ele>36.0</ele><time>2026-05-03T12:38:06.685Z</time></trkpt><trkpt lat="42.3618883" lon="14.11708"><ele>36.0</ele><time>2026-05-03T12:38:07.685Z</time></trkpt><trkpt lat="42.3620817" lon="14.117165"><ele>39.0</ele><time>2026-05-03T12:38:08.685Z</time></trkpt><trkpt lat="42.3622717" lon="14.117255"><ele>42.0</ele><time>2026-05-03T12:38:09.684Z</time></trkpt><trkpt lat="42.36246" lon="14.1173317"><ele>45.0</ele><time>2026-05-03T12:38:10.684Z</time></trkpt><trkpt lat="42.3626583" lon="14.117395"><ele>40.333333333333336</ele><time>2026-05-03T12:38:11.683Z</time></trkpt><trkpt lat="42.36285" lon="14.1174317"><ele>35.66666666666667</ele><time>2026-05-03T12:38:12.683Z</time></trkpt><trkpt lat="42.363045" lon="14.1174583"><ele>31.0</ele><time>2026-05-03T12:38:13.683Z</time></trkpt><trkpt lat="42.36324" lon="14.11747"><ele>31.0</ele><time>2026-05-03T12:38:14.683Z</time></trkpt><trkpt lat="42.3634317" lon="14.1174667"><ele>31.0</ele><time>2026-05-03T12:38:15.683Z</time></trkpt><trkpt lat="42.363615" lon="14.1174617"><ele>31.0</ele><time>2026-05-03T12:38:16.683Z</time></trkpt><trkpt lat="42.3637983" lon="14.117455"><ele>31.666666666666668</ele><time>2026-05-03T12:38:17.683Z</time></trkpt><trkpt lat="42.3639733" lon="14.11746"><ele>32.333333333333336</ele><time>2026-05-03T12:38:18.683Z</time></trkpt><trkpt lat="42.3641533" lon="14.1174817"><ele>33.0</ele><time>2026-05-03T12:38:19.684Z</time></trkpt><trkpt lat="42.36434" lon="14.1175383"><ele>33.0</ele><time>2026-05-03T12:38:20.683Z</time></trkpt><trkpt lat="42.3645267" lon="14.1176267"><ele>33.0</ele><time>2026-05-03T12:38:21.683Z</time></trkpt><trkpt lat="42.3647117" lon="14.1177367"><ele>33.0</ele><time>2026-05-03T12:38:22.684Z</time></trkpt><trkpt lat="42.3649" lon="14.1178617"><ele>32.666666666666664</ele><time>2026-05-03T12:38:23.684Z</time></trkpt><trkpt lat="42.3650883" lon="14.1179933"><ele>32.33333333333333</ele><time>2026-05-03T12:38:24.683Z</time></trkpt><trkpt lat="42.3652833" lon="14.118125"><ele>32.0</ele><time>2026-05-03T12:38:25.684Z</time></trkpt><trkpt lat="42.36547" lon="14.1182533"><ele>30.666666666666664</ele><time>2026-05-03T12:38:26.683Z</time></trkpt><trkpt lat="42.3656583" lon="14.11838"><ele>29.333333333333336</ele><time>2026-05-03T12:38:27.684Z</time></trkpt><trkpt lat="42.365845" lon="14.1185"><ele>28.0</ele><time>2026-05-03T12:38:28.684Z</time></trkpt><trkpt lat="42.3660317" lon="14.1186233"><ele>28.0</ele><time>2026-05-03T12:38:29.683Z</time></trkpt><trkpt lat="42.3662183" lon="14.11876"><ele>28.0</ele><time>2026-05-03T12:38:30.684Z</time></trkpt><trkpt lat="42.3664033" lon="14.11889"><ele>28.0</ele><time>2026-05-03T12:38:31.683Z</time></trkpt><trkpt lat="42.3665917" lon="14.1190233"><ele>27.666666666666668</ele><time>2026-05-03T12:38:32.684Z</time></trkpt><trkpt lat="42.36678" lon="14.1191467"><ele>27.333333333333336</ele><time>2026-05-03T12:38:33.684Z</time></trkpt><trkpt lat="42.3669683" lon="14.119285"><ele>27.0</ele><time>2026-05-03T12:38:34.683Z</time></trkpt><trkpt lat="42.3671483" lon="14.1194217"><ele>27.333333333333336</ele><time>2026-05-03T12:38:35.683Z</time></trkpt><trkpt lat="42.367335" lon="14.11955"><ele>27.666666666666668</ele><time>2026-05-03T12:38:36.683Z</time></trkpt><trkpt lat="42.36752" lon="14.1196717"><ele>28.0</ele><time>2026-05-03T12:38:37.683Z</time></trkpt><trkpt lat="42.3677" lon="14.1197917"><ele>28.0</ele><time>2026-05-03T12:38:38.683Z</time></trkpt><trkpt lat="42.3678683" lon="14.1199117"><ele>28.0</ele><time>2026-05-03T12:38:39.683Z</time></trkpt><trkpt lat="42.3680367" lon="14.1200233"><ele>28.0</ele><time>2026-05-03T12:38:40.683Z</time></trkpt><trkpt lat="42.36821" lon="14.12012"><ele>28.333333333333336</ele><time>2026-05-03T12:38:41.683Z</time></trkpt><trkpt lat="42.3683867" lon="14.1201917"><ele>28.666666666666664</ele><time>2026-05-03T12:38:42.683Z</time></trkpt><trkpt lat="42.3685733" lon="14.120255"><ele>29.0</ele><time>2026-05-03T12:38:43.683Z</time></trkpt><trkpt lat="42.36877" lon="14.1202967"><ele>31.666666666666664</ele><time>2026-05-03T12:38:44.683Z</time></trkpt><trkpt lat="42.3689717" lon="14.1203267"><ele>34.333333333333336</ele><time>2026-05-03T12:38:45.684Z</time></trkpt><trkpt lat="42.3691733" lon="14.12036"><ele>37.0</ele><time>2026-05-03T12:38:46.684Z</time></trkpt><trkpt lat="42.3693817" lon="14.12039"><ele>37.0</ele><time>2026-05-03T12:38:47.683Z</time></trkpt><trkpt lat="42.3695867" lon="14.120415"><ele>37.0</ele><time>2026-05-03T12:38:48.683Z</time></trkpt><trkpt lat="42.3697933" lon="14.1204367"><ele>37.0</ele><time>2026-05-03T12:38:49.683Z</time></trkpt><trkpt lat="42.3700017" lon="14.1204583"><ele>37.0</ele><time>2026-05-03T12:38:50.683Z</time></trkpt><trkpt lat="42.3702083" lon="14.12048"><ele>37.0</ele><time>2026-05-03T12:38:51.684Z</time></trkpt><trkpt lat="42.3704117" lon="14.1205033"><ele>37.0</ele><time>2026-05-03T12:38:52.683Z</time></trkpt><trkpt lat="42.3706167" lon="14.120545"><ele>37.333333333333336</ele><time>2026-05-03T12:38:53.683Z</time></trkpt><trkpt lat="42.37082" lon="14.120595"><ele>37.666666666666664</ele><time>2026-05-03T12:38:54.684Z</time></trkpt><trkpt lat="42.37103" lon="14.1206617"><ele>38.0</ele><time>2026-05-03T12:38:55.684Z</time></trkpt><trkpt lat="42.3712317" lon="14.12074"><ele>36.33333333333333</ele><time>2026-05-03T12:38:56.683Z</time></trkpt><trkpt lat="42.37143" lon="14.1208233"><ele>34.666666666666664</ele><time>2026-05-03T12:38:57.683Z</time></trkpt><trkpt lat="42.37162" lon="14.1209067"><ele>33.0</ele><time>2026-05-03T12:38:58.683Z</time></trkpt><trkpt lat="42.3718067" lon="14.1209983"><ele>33.0</ele><time>2026-05-03T12:38:59.684Z</time></trkpt><trkpt lat="42.3719833" lon="14.1210933"><ele>33.0</ele><time>2026-05-03T12:39:00.684Z</time></trkpt><trkpt lat="42.3721567" lon="14.1211983"><ele>33.0</ele><time>2026-05-03T12:39:01.684Z</time></trkpt><trkpt lat="42.3723283" lon="14.1213183"><ele>33.333333333333336</ele><time>2026-05-03T12:39:02.684Z</time></trkpt><trkpt lat="42.3724983" lon="14.1214483"><ele>33.66666666666667</ele><time>2026-05-03T12:39:03.684Z</time></trkpt><trkpt lat="42.37267" lon="14.121585"><ele>34.0</ele><time>2026-05-03T12:39:04.683Z</time></trkpt><trkpt lat="42.37283" lon="14.1217167"><ele>34.0</ele><time>2026-05-03T12:39:05.684Z</time></trkpt><trkpt lat="42.3729883" lon="14.12184"><ele>34.0</ele><time>2026-05-03T12:39:06.683Z</time></trkpt><trkpt lat="42.3731417" lon="14.1219533"><ele>34.0</ele><time>2026-05-03T12:39:07.684Z</time></trkpt><trkpt lat="42.37328" lon="14.1220667"><ele>34.75</ele><time>2026-05-03T12:39:08.683Z</time></trkpt><trkpt lat="42.37341" lon="14.122175"><ele>35.5</ele><time>2026-05-03T12:39:09.683Z</time></trkpt><trkpt lat="42.3735367" lon="14.122275"><ele>36.25</ele><time>2026-05-03T12:39:10.684Z</time></trkpt><trkpt lat="42.373655" lon="14.1223633"><ele>37.0</ele><time>2026-05-03T12:39:11.684Z</time></trkpt><trkpt lat="42.3737583" lon="14.122445"><ele>37.0</ele><time>2026-05-03T12:39:12.684Z</time></trkpt><trkpt lat="42.3738467" lon="14.1225133"><ele>37.0</ele><time>2026-05-03T12:39:13.684Z</time></trkpt><trkpt lat="42.3739167" lon="14.12256"><ele>37.0</ele><time>2026-05-03T12:39:14.684Z</time></trkpt><trkpt lat="42.37399" lon="14.1226067"><ele>37.0</ele><time>2026-05-03T12:39:16.683Z</time></trkpt><trkpt lat="42.3740933" lon="14.12268"><ele>37.0</ele><time>2026-05-03T12:39:32.683Z</time></trkpt><trkpt lat="42.37418" lon="14.1227433"><ele>38.333333333333336</ele><time>2026-05-03T12:39:33.683Z</time></trkpt><trkpt lat="42.374295" lon="14.12283"><ele>39.666666666666664</ele><time>2026-05-03T12:39:34.684Z</time></trkpt><trkpt lat="42.3744283" lon="14.122945"><ele>41.0</ele><time>2026-05-03T12:39:35.683Z</time></trkpt><trkpt lat="42.374565" lon="14.1230683"><ele>40.33333333333333</ele><time>2026-05-03T12:39:36.684Z</time></trkpt><trkpt lat="42.3747167" lon="14.1232033"><ele>39.666666666666664</ele><time>2026-05-03T12:39:37.684Z</time></trkpt><trkpt lat="42.3748667" lon="14.1233333"><ele>39.0</ele><time>2026-05-03T12:39:38.683Z</time></trkpt><trkpt lat="42.3750183" lon="14.1234433"><ele>39.0</ele><time>2026-05-03T12:39:39.684Z</time></trkpt><trkpt lat="42.37517" lon="14.12356"><ele>39.0</ele><time>2026-05-03T12:39:40.683Z</time></trkpt><trkpt lat="42.3753167" lon="14.12367"><ele>39.0</ele><time>2026-05-03T12:39:41.684Z</time></trkpt><trkpt lat="42.3754467" lon="14.123775"><ele>40.0</ele><time>2026-05-03T12:39:42.684Z</time></trkpt><trkpt lat="42.3755683" lon="14.1238583"><ele>41.0</ele><time>2026-05-03T12:39:43.683Z</time></trkpt><trkpt lat="42.3756867" lon="14.1239317"><ele>42.0</ele><time>2026-05-03T12:39:44.683Z</time></trkpt><trkpt lat="42.3758" lon="14.1239833"><ele>43.0</ele><time>2026-05-03T12:39:45.683Z</time></trkpt><trkpt lat="42.3759133" lon="14.1240183"><ele>43.0</ele><time>2026-05-03T12:39:46.683Z</time></trkpt><trkpt lat="42.376025" lon="14.1240383"><ele>43.0</ele><time>2026-05-03T12:39:47.684Z</time></trkpt><trkpt lat="42.3761183" lon="14.1240583"><ele>43.0</ele><time>2026-05-03T12:39:48.683Z</time></trkpt><trkpt lat="42.3762" lon="14.12409"><ele>43.0</ele><time>2026-05-03T12:39:49.683Z</time></trkpt><trkpt lat="42.3762667" lon="14.12415"><ele>43.0</ele><time>2026-05-03T12:39:50.684Z</time></trkpt><trkpt lat="42.3763183" lon="14.1242233"><ele>43.0</ele><time>2026-05-03T12:39:51.684Z</time></trkpt><trkpt lat="42.376355" lon="14.1243083"><ele>42.0</ele><time>2026-05-03T12:39:52.683Z</time></trkpt><trkpt lat="42.3763983" lon="14.1244"><ele>41.0</ele><time>2026-05-03T12:39:53.683Z</time></trkpt><trkpt lat="42.3764483" lon="14.12448"><ele>40.0</ele><time>2026-05-03T12:39:54.684Z</time></trkpt><trkpt lat="42.3765717" lon="14.1245067"><ele>39.0</ele><time>2026-05-03T12:39:56.684Z</time></trkpt><trkpt lat="42.3766283" lon="14.1244433"><ele>38.0</ele><time>2026-05-03T12:39:57.683Z</time></trkpt><trkpt lat="42.3766783" lon="14.1243383"><ele>37.0</ele><time>2026-05-03T12:39:58.684Z</time></trkpt><trkpt lat="42.3767433" lon="14.124205"><ele>37.0</ele><time>2026-05-03T12:39:59.684Z</time></trkpt><trkpt lat="42.376825" lon="14.124075"><ele>37.0</ele><time>2026-05-03T12:40:00.684Z</time></trkpt><trkpt lat="42.3769083" lon="14.1239567"><ele>37.0</ele><time>2026-05-03T12:40:01.684Z</time></trkpt><trkpt lat="42.3769917" lon="14.123825"><ele>37.0</ele><time>2026-05-03T12:40:02.684Z</time></trkpt><trkpt lat="42.3770667" lon="14.1236867"><ele>38.75</ele><time>2026-05-03T12:40:03.684Z</time></trkpt><trkpt lat="42.3771433" lon="14.1235533"><ele>40.5</ele><time>2026-05-03T12:40:04.684Z</time></trkpt><trkpt lat="42.377235" lon="14.1234633"><ele>42.25</ele><time>2026-05-03T12:40:05.684Z</time></trkpt><trkpt lat="42.377345" lon="14.1234083"><ele>44.0</ele><time>2026-05-03T12:40:06.684Z</time></trkpt><trkpt lat="42.3774733" lon="14.1233883"><ele>44.666666666666664</ele><time>2026-05-03T12:40:07.684Z</time></trkpt><trkpt lat="42.3776267" lon="14.1234"><ele>45.333333333333336</ele><time>2026-05-03T12:40:08.684Z</time></trkpt><trkpt lat="42.3777967" lon="14.12344"><ele>46.0</ele><time>2026-05-03T12:40:09.684Z</time></trkpt><trkpt lat="42.3779617" lon="14.1234733"><ele>49.0</ele><time>2026-05-03T12:40:10.683Z</time></trkpt><trkpt lat="42.3781433" lon="14.1235"><ele>52.0</ele><time>2026-05-03T12:40:11.683Z</time></trkpt><trkpt lat="42.3783417" lon="14.1235217"><ele>55.0</ele><time>2026-05-03T12:40:12.683Z</time></trkpt><trkpt lat="42.3785533" lon="14.1235517"><ele>55.0</ele><time>2026-05-03T12:40:13.683Z</time></trkpt><trkpt lat="42.378765" lon="14.1235867"><ele>55.0</ele><time>2026-05-03T12:40:14.684Z</time></trkpt><trkpt lat="42.378955" lon="14.1236283"><ele>55.0</ele><time>2026-05-03T12:40:15.684Z</time></trkpt><trkpt lat="42.3791217" lon="14.1236617"><ele>56.0</ele><time>2026-05-03T12:40:16.683Z</time></trkpt><trkpt lat="42.379265" lon="14.123705"><ele>57.0</ele><time>2026-05-03T12:40:17.684Z</time></trkpt><trkpt lat="42.3793817" lon="14.1237617"><ele>58.0</ele><time>2026-05-03T12:40:18.684Z</time></trkpt><trkpt lat="42.3794733" lon="14.1238283"><ele>59.0</ele><time>2026-05-03T12:40:19.684Z</time></trkpt><trkpt lat="42.37955" lon="14.1239033"><ele>59.00000000000001</ele><time>2026-05-03T12:40:20.683Z</time></trkpt><trkpt lat="42.3796117" lon="14.12398"><ele>59.0</ele><time>2026-05-03T12:40:21.684Z</time></trkpt><trkpt lat="42.379665" lon="14.12403"><ele>59.0</ele><time>2026-05-03T12:40:22.684Z</time></trkpt><trkpt lat="42.37978" lon="14.124005"><ele>59.0</ele><time>2026-05-03T12:40:24.684Z</time></trkpt><trkpt lat="42.3798333" lon="14.1239433"><ele>59.00000000000001</ele><time>2026-05-03T12:40:25.683Z</time></trkpt><trkpt lat="42.3798917" lon="14.1238883"><ele>59.0</ele><time>2026-05-03T12:40:26.684Z</time></trkpt><trkpt lat="42.3799567" lon="14.1238633"><ele>59.57142857142857</ele><time>2026-05-03T12:40:27.684Z</time></trkpt><trkpt lat="42.3800317" lon="14.1238617"><ele>60.142857142857146</ele><time>2026-05-03T12:40:28.684Z</time></trkpt><trkpt lat="42.3801067" lon="14.1238733"><ele>60.714285714285715</ele><time>2026-05-03T12:40:29.684Z</time></trkpt><trkpt lat="42.38017" lon="14.1238917"><ele>61.285714285714285</ele><time>2026-05-03T12:40:30.684Z</time></trkpt><trkpt lat="42.3802483" lon="14.1239267"><ele>61.85714285714286</ele><time>2026-05-03T12:40:32.684Z</time></trkpt><trkpt lat="42.3803117" lon="14.1239633"><ele>62.42857142857143</ele><time>2026-05-03T12:40:34.684Z</time></trkpt><trkpt lat="42.3803867" lon="14.1240033"><ele>63.0</ele><time>2026-05-03T12:40:36.684Z</time></trkpt><trkpt lat="42.38033" lon="14.12391"><ele>63.0</ele><time>2026-05-03T12:40:42.683Z</time></trkpt><trkpt lat="42.3802383" lon="14.1238883"><ele>63.0</ele><time>2026-05-03T12:40:43.684Z</time></trkpt><trkpt lat="42.3801317" lon="14.1238533"><ele>63.0</ele><time>2026-05-03T12:40:44.683Z</time></trkpt><trkpt lat="42.3800167" lon="14.1238217"><ele>63.0</ele><time>2026-05-03T12:40:45.683Z</time></trkpt><trkpt lat="42.37991" lon="14.1238"><ele>63.0</ele><time>2026-05-03T12:40:46.683Z</time></trkpt><trkpt lat="42.3798083" lon="14.123785"><ele>63.0</ele><time>2026-05-03T12:40:47.684Z</time></trkpt><trkpt lat="42.3797233" lon="14.12377"><ele>63.0</ele><time>2026-05-03T12:40:48.684Z</time></trkpt><trkpt lat="42.37965" lon="14.1237733"><ele>63.0</ele><time>2026-05-03T12:40:49.683Z</time></trkpt><trkpt lat="42.379565" lon="14.1238617"><ele>63.0</ele><time>2026-05-03T12:40:51.683Z</time></trkpt><trkpt lat="42.379615" lon="14.1240283"><ele>63.0</ele><time>2026-05-03T12:40:53.682Z</time></trkpt><trkpt lat="42.3796917" lon="14.1241133"><ele>60.25</ele><time>2026-05-03T12:40:54.682Z</time></trkpt><trkpt lat="42.379795" lon="14.124205"><ele>57.5</ele><time>2026-05-03T12:40:55.683Z</time></trkpt><trkpt lat="42.3799217" lon="14.1242967"><ele>54.75</ele><time>2026-05-03T12:40:56.683Z</time></trkpt><trkpt lat="42.3800667" lon="14.124415"><ele>52.0</ele><time>2026-05-03T12:40:57.682Z</time></trkpt><trkpt lat="42.3802267" lon="14.1245383"><ele>52.0</ele><time>2026-05-03T12:40:58.683Z</time></trkpt><trkpt lat="42.3803883" lon="14.1246633"><ele>52.0</ele><time>2026-05-03T12:40:59.683Z</time></trkpt><trkpt lat="42.3805583" lon="14.124795"><ele>52.0</ele><time>2026-05-03T12:41:00.683Z</time></trkpt><trkpt lat="42.3807333" lon="14.1249233"><ele>50.666666666666664</ele><time>2026-05-03T12:41:01.683Z</time></trkpt><trkpt lat="42.3809167" lon="14.12505"><ele>49.33333333333333</ele><time>2026-05-03T12:41:02.683Z</time></trkpt><trkpt lat="42.3811117" lon="14.1251833"><ele>48.0</ele><time>2026-05-03T12:41:03.683Z</time></trkpt><trkpt lat="42.3813117" lon="14.12532"><ele>46.0</ele><time>2026-05-03T12:41:04.682Z</time></trkpt><trkpt lat="42.3816883" lon="14.1256017"><ele>44.0</ele><time>2026-05-03T12:41:06.682Z</time></trkpt><trkpt lat="42.38186" lon="14.1257483"><ele>44.0</ele><time>2026-05-03T12:41:07.683Z</time></trkpt><trkpt lat="42.382025" lon="14.12589"><ele>44.0</ele><time>2026-05-03T12:41:08.683Z</time></trkpt><trkpt lat="42.3821867" lon="14.126035"><ele>44.0</ele><time>2026-05-03T12:41:09.683Z</time></trkpt><trkpt lat="42.3823467" lon="14.1261667"><ele>47.0</ele><time>2026-05-03T12:41:10.682Z</time></trkpt><trkpt lat="42.3825017" lon="14.1262733"><ele>50.0</ele><time>2026-05-03T12:41:11.682Z</time></trkpt><trkpt lat="42.3826517" lon="14.1263467"><ele>53.0</ele><time>2026-05-03T12:41:12.683Z</time></trkpt><trkpt lat="42.382795" lon="14.1263833"><ele>53.0</ele><time>2026-05-03T12:41:13.682Z</time></trkpt><trkpt lat="42.38294" lon="14.1263983"><ele>53.0</ele><time>2026-05-03T12:41:14.682Z</time></trkpt><trkpt lat="42.3830667" lon="14.1264"><ele>53.0</ele><time>2026-05-03T12:41:15.682Z</time></trkpt><trkpt lat="42.38318" lon="14.126405"><ele>53.0</ele><time>2026-05-03T12:41:16.683Z</time></trkpt><trkpt lat="42.383285" lon="14.126415"><ele>53.0</ele><time>2026-05-03T12:41:17.682Z</time></trkpt><trkpt lat="42.383395" lon="14.1264333"><ele>53.0</ele><time>2026-05-03T12:41:18.683Z</time></trkpt><trkpt lat="42.38352" lon="14.12649"><ele>53.0</ele><time>2026-05-03T12:41:19.682Z</time></trkpt><trkpt lat="42.3836517" lon="14.1265833"><ele>53.0</ele><time>2026-05-03T12:41:20.683Z</time></trkpt><trkpt lat="42.3837917" lon="14.12667"><ele>49.333333333333336</ele><time>2026-05-03T12:41:21.683Z</time></trkpt><trkpt lat="42.38394" lon="14.1267533"><ele>45.66666666666667</ele><time>2026-05-03T12:41:22.683Z</time></trkpt><trkpt lat="42.3840883" lon="14.126835"><ele>42.0</ele><time>2026-05-03T12:41:23.682Z</time></trkpt><trkpt lat="42.3842317" lon="14.1268883"><ele>42.0</ele><time>2026-05-03T12:41:24.683Z</time></trkpt><trkpt lat="42.38437" lon="14.1269517"><ele>42.0</ele><time>2026-05-03T12:41:25.683Z</time></trkpt><trkpt lat="42.3845067" lon="14.1270067"><ele>42.0</ele><time>2026-05-03T12:41:26.682Z</time></trkpt><trkpt lat="42.3846433" lon="14.127045"><ele>42.0</ele><time>2026-05-03T12:41:27.682Z</time></trkpt><trkpt lat="42.384775" lon="14.1270833"><ele>43.0</ele><time>2026-05-03T12:41:28.683Z</time></trkpt><trkpt lat="42.3849167" lon="14.1271617"><ele>44.0</ele><time>2026-05-03T12:41:29.682Z</time></trkpt><trkpt lat="42.3850583" lon="14.1272617"><ele>45.0</ele><time>2026-05-03T12:41:30.682Z</time></trkpt><trkpt lat="42.385195" lon="14.12739"><ele>42.0</ele><time>2026-05-03T12:41:31.682Z</time></trkpt><trkpt lat="42.385335" lon="14.127535"><ele>39.0</ele><time>2026-05-03T12:41:32.683Z</time></trkpt><trkpt lat="42.385495" lon="14.127695"><ele>36.0</ele><time>2026-05-03T12:41:33.683Z</time></trkpt><trkpt lat="42.3856617" lon="14.1278667"><ele>36.0</ele><time>2026-05-03T12:41:34.683Z</time></trkpt><trkpt lat="42.3858383" lon="14.1280367"><ele>36.0</ele><time>2026-05-03T12:41:35.682Z</time></trkpt><trkpt lat="42.385995" lon="14.12819"><ele>36.0</ele><time>2026-05-03T12:41:36.682Z</time></trkpt><trkpt lat="42.3861433" lon="14.1283517"><ele>35.666666666666664</ele><time>2026-05-03T12:41:37.683Z</time></trkpt><trkpt lat="42.38627" lon="14.1285183"><ele>35.33333333333333</ele><time>2026-05-03T12:41:38.683Z</time></trkpt><trkpt lat="42.3863833" lon="14.1286867"><ele>35.0</ele><time>2026-05-03T12:41:39.683Z</time></trkpt><trkpt lat="42.38648" lon="14.1288533"><ele>35.5</ele><time>2026-05-03T12:41:40.682Z</time></trkpt><trkpt lat="42.38658" lon="14.12901"><ele>36.0</ele><time>2026-05-03T12:41:41.683Z</time></trkpt><trkpt lat="42.386675" lon="14.12916"><ele>36.5</ele><time>2026-05-03T12:41:42.682Z</time></trkpt><trkpt lat="42.38677" lon="14.129305"><ele>37.0</ele><time>2026-05-03T12:41:43.682Z</time></trkpt><trkpt lat="42.3868633" lon="14.1294267"><ele>36.75</ele><time>2026-05-03T12:41:44.683Z</time></trkpt><trkpt lat="42.3869567" lon="14.1295417"><ele>36.5</ele><time>2026-05-03T12:41:45.683Z</time></trkpt><trkpt lat="42.3870517" lon="14.1296433"><ele>36.25</ele><time>2026-05-03T12:41:46.682Z</time></trkpt><trkpt lat="42.387165" lon="14.1297483"><ele>36.0</ele><time>2026-05-03T12:41:47.683Z</time></trkpt><trkpt lat="42.3872783" lon="14.12986"><ele>35.0</ele><time>2026-05-03T12:41:48.682Z</time></trkpt><trkpt lat="42.387395" lon="14.1299583"><ele>34.0</ele><time>2026-05-03T12:41:49.683Z</time></trkpt><trkpt lat="42.3875067" lon="14.1300733"><ele>33.0</ele><time>2026-05-03T12:41:50.683Z</time></trkpt><trkpt lat="42.38761" lon="14.1301667"><ele>32.0</ele><time>2026-05-03T12:41:51.683Z</time></trkpt><trkpt lat="42.3877017" lon="14.1302683"><ele>32.0</ele><time>2026-05-03T12:41:52.682Z</time></trkpt><trkpt lat="42.387795" lon="14.13035"><ele>32.0</ele><time>2026-05-03T12:41:53.682Z</time></trkpt><trkpt lat="42.38788" lon="14.1304217"><ele>32.0</ele><time>2026-05-03T12:41:54.682Z</time></trkpt><trkpt lat="42.3879733" lon="14.1304783"><ele>32.0</ele><time>2026-05-03T12:41:55.682Z</time></trkpt><trkpt lat="42.38808" lon="14.130525"><ele>32.0</ele><time>2026-05-03T12:41:56.682Z</time></trkpt><trkpt lat="42.3882067" lon="14.13059"><ele>32.0</ele><time>2026-05-03T12:41:57.683Z</time></trkpt><trkpt lat="42.3883383" lon="14.1306583"><ele>32.0</ele><time>2026-05-03T12:41:58.682Z</time></trkpt><trkpt lat="42.3884833" lon="14.13074"><ele>32.0</ele><time>2026-05-03T12:41:59.682Z</time></trkpt><trkpt lat="42.3886317" lon="14.1308283"><ele>32.0</ele><time>2026-05-03T12:42:00.682Z</time></trkpt><trkpt lat="42.3887767" lon="14.1309183"><ele>32.0</ele><time>2026-05-03T12:42:01.682Z</time></trkpt><trkpt lat="42.388925" lon="14.1310167"><ele>32.0</ele><time>2026-05-03T12:42:02.682Z</time></trkpt><trkpt lat="42.38908" lon="14.13112"><ele>32.33333333333333</ele><time>2026-05-03T12:42:03.682Z</time></trkpt><trkpt lat="42.389235" lon="14.1312283"><ele>32.666666666666664</ele><time>2026-05-03T12:42:04.682Z</time></trkpt><trkpt lat="42.389385" lon="14.1313467"><ele>33.0</ele><time>2026-05-03T12:42:05.682Z</time></trkpt><trkpt lat="42.3895317" lon="14.1314717"><ele>32.333333333333336</ele><time>2026-05-03T12:42:06.682Z</time></trkpt><trkpt lat="42.3896783" lon="14.1316017"><ele>31.666666666666668</ele><time>2026-05-03T12:42:07.682Z</time></trkpt><trkpt lat="42.3898233" lon="14.1317333"><ele>31.0</ele><time>2026-05-03T12:42:08.683Z</time></trkpt><trkpt lat="42.3899683" lon="14.131855"><ele>31.0</ele><time>2026-05-03T12:42:09.683Z</time></trkpt><trkpt lat="42.3901133" lon="14.13199"><ele>31.0</ele><time>2026-05-03T12:42:10.682Z</time></trkpt><trkpt lat="42.3902583" lon="14.13213"><ele>31.0</ele><time>2026-05-03T12:42:11.683Z</time></trkpt><trkpt lat="42.3904117" lon="14.13227"><ele>30.666666666666668</ele><time>2026-05-03T12:42:12.682Z</time></trkpt><trkpt lat="42.3905683" lon="14.13241"><ele>30.333333333333336</ele><time>2026-05-03T12:42:13.682Z</time></trkpt><trkpt lat="42.3907217" lon="14.1325483"><ele>30.0</ele><time>2026-05-03T12:42:14.682Z</time></trkpt><trkpt lat="42.390875" lon="14.1326933"><ele>30.0</ele><time>2026-05-03T12:42:15.682Z</time></trkpt><trkpt lat="42.3910417" lon="14.1328317"><ele>30.0</ele><time>2026-05-03T12:42:16.683Z</time></trkpt><trkpt lat="42.3912117" lon="14.132975"><ele>30.0</ele><time>2026-05-03T12:42:17.683Z</time></trkpt><trkpt lat="42.391375" lon="14.1331133"><ele>30.0</ele><time>2026-05-03T12:42:18.683Z</time></trkpt><trkpt lat="42.3915433" lon="14.13326"><ele>30.0</ele><time>2026-05-03T12:42:19.682Z</time></trkpt><trkpt lat="42.3917083" lon="14.133415"><ele>30.0</ele><time>2026-05-03T12:42:20.682Z</time></trkpt><trkpt lat="42.391875" lon="14.1335667"><ele>30.0</ele><time>2026-05-03T12:42:21.682Z</time></trkpt><trkpt lat="42.3920483" lon="14.13371"><ele>30.0</ele><time>2026-05-03T12:42:22.683Z</time></trkpt><trkpt lat="42.39221" lon="14.1338717"><ele>30.0</ele><time>2026-05-03T12:42:23.683Z</time></trkpt><trkpt lat="42.3923633" lon="14.13404"><ele>29.666666666666664</ele><time>2026-05-03T12:42:24.683Z</time></trkpt><trkpt lat="42.392525" lon="14.1342167"><ele>29.333333333333332</ele><time>2026-05-03T12:42:25.682Z</time></trkpt><trkpt lat="42.39269" lon="14.13439"><ele>29.0</ele><time>2026-05-03T12:42:26.683Z</time></trkpt><trkpt lat="42.3929183" lon="14.1345383"><ele>29.333333333333332</ele><time>2026-05-03T12:42:27.683Z</time></trkpt><trkpt lat="42.393085" lon="14.1346983"><ele>29.666666666666664</ele><time>2026-05-03T12:42:28.683Z</time></trkpt><trkpt lat="42.3932617" lon="14.1348383"><ele>30.0</ele><time>2026-05-03T12:42:29.683Z</time></trkpt><trkpt lat="42.3934283" lon="14.1349667"><ele>30.0</ele><time>2026-05-03T12:42:30.683Z</time></trkpt><trkpt lat="42.3935883" lon="14.1351083"><ele>30.0</ele><time>2026-05-03T12:42:31.683Z</time></trkpt><trkpt lat="42.3937483" lon="14.1352433"><ele>30.0</ele><time>2026-05-03T12:42:32.683Z</time></trkpt><trkpt lat="42.393895" lon="14.1353733"><ele>30.0</ele><time>2026-05-03T12:42:33.682Z</time></trkpt><trkpt lat="42.39403" lon="14.1354917"><ele>30.0</ele><time>2026-05-03T12:42:34.683Z</time></trkpt><trkpt lat="42.3941567" lon="14.135605"><ele>30.0</ele><time>2026-05-03T12:42:35.682Z</time></trkpt><trkpt lat="42.3942767" lon="14.135705"><ele>29.75</ele><time>2026-05-03T12:42:36.683Z</time></trkpt><trkpt lat="42.3943883" lon="14.135805"><ele>29.5</ele><time>2026-05-03T12:42:37.683Z</time></trkpt><trkpt lat="42.3945017" lon="14.1359"><ele>29.25</ele><time>2026-05-03T12:42:38.682Z</time></trkpt><trkpt lat="42.3946067" lon="14.135995"><ele>29.0</ele><time>2026-05-03T12:42:39.683Z</time></trkpt><trkpt lat="42.394705" lon="14.1360867"><ele>29.0</ele><time>2026-05-03T12:42:40.683Z</time></trkpt><trkpt lat="42.3948167" lon="14.1361817"><ele>29.0</ele><time>2026-05-03T12:42:41.683Z</time></trkpt><trkpt lat="42.3949317" lon="14.1362833"><ele>29.0</ele><time>2026-05-03T12:42:42.683Z</time></trkpt><trkpt lat="42.3950417" lon="14.1363883"><ele>29.0</ele><time>2026-05-03T12:42:43.682Z</time></trkpt><trkpt lat="42.3951633" lon="14.1365"><ele>28.25</ele><time>2026-05-03T12:42:44.683Z</time></trkpt><trkpt lat="42.3952833" lon="14.1366133"><ele>27.5</ele><time>2026-05-03T12:42:45.683Z</time></trkpt><trkpt lat="42.395405" lon="14.1367183"><ele>26.75</ele><time>2026-05-03T12:42:46.682Z</time></trkpt><trkpt lat="42.3955283" lon="14.1368133"><ele>26.0</ele><time>2026-05-03T12:42:47.682Z</time></trkpt><trkpt lat="42.3956433" lon="14.136905"><ele>26.0</ele><time>2026-05-03T12:42:48.682Z</time></trkpt><trkpt lat="42.39575" lon="14.1369967"><ele>26.0</ele><time>2026-05-03T12:42:49.682Z</time></trkpt><trkpt lat="42.3958483" lon="14.1370867"><ele>26.0</ele><time>2026-05-03T12:42:50.682Z</time></trkpt><trkpt lat="42.395945" lon="14.13717"><ele>26.0</ele><time>2026-05-03T12:42:51.682Z</time></trkpt><trkpt lat="42.3960317" lon="14.1372533"><ele>26.0</ele><time>2026-05-03T12:42:52.683Z</time></trkpt><trkpt lat="42.3961217" lon="14.137335"><ele>26.0</ele><time>2026-05-03T12:42:53.683Z</time></trkpt><trkpt lat="42.3962117" lon="14.13742"><ele>26.0</ele><time>2026-05-03T12:42:54.683Z</time></trkpt><trkpt lat="42.3963033" lon="14.13751"><ele>26.0</ele><time>2026-05-03T12:42:55.683Z</time></trkpt><trkpt lat="42.3964083" lon="14.1376"><ele>26.333333333333332</ele><time>2026-05-03T12:42:56.683Z</time></trkpt><trkpt lat="42.3965233" lon="14.1376967"><ele>26.666666666666664</ele><time>2026-05-03T12:42:57.683Z</time></trkpt><trkpt lat="42.3966533" lon="14.1378133"><ele>27.0</ele><time>2026-05-03T12:42:58.683Z</time></trkpt><trkpt lat="42.3968017" lon="14.137935"><ele>27.0</ele><time>2026-05-03T12:42:59.683Z</time></trkpt><trkpt lat="42.39695" lon="14.1380617"><ele>27.0</ele><time>2026-05-03T12:43:00.682Z</time></trkpt><trkpt lat="42.397095" lon="14.1381933"><ele>27.0</ele><time>2026-05-03T12:43:01.682Z</time></trkpt><trkpt lat="42.3972383" lon="14.1383183"><ele>26.666666666666664</ele><time>2026-05-03T12:43:02.683Z</time></trkpt><trkpt lat="42.3973717" lon="14.138445"><ele>26.333333333333332</ele><time>2026-05-03T12:43:03.682Z</time></trkpt><trkpt lat="42.3975067" lon="14.1385683"><ele>26.0</ele><time>2026-05-03T12:43:04.683Z</time></trkpt><trkpt lat="42.3976517" lon="14.1386933"><ele>26.0</ele><time>2026-05-03T12:43:05.683Z</time></trkpt><trkpt lat="42.3977983" lon="14.1388333"><ele>26.0</ele><time>2026-05-03T12:43:06.682Z</time></trkpt><trkpt lat="42.3979583" lon="14.138965"><ele>26.0</ele><time>2026-05-03T12:43:07.682Z</time></trkpt><trkpt lat="42.3981083" lon="14.1391083"><ele>26.0</ele><time>2026-05-03T12:43:08.683Z</time></trkpt><trkpt lat="42.398255" lon="14.139255"><ele>26.0</ele><time>2026-05-03T12:43:09.682Z</time></trkpt><trkpt lat="42.398395" lon="14.1393867"><ele>26.0</ele><time>2026-05-03T12:43:10.682Z</time></trkpt><trkpt lat="42.39854" lon="14.1395167"><ele>26.0</ele><time>2026-05-03T12:43:11.683Z</time></trkpt><trkpt lat="42.3986783" lon="14.139645"><ele>26.0</ele><time>2026-05-03T12:43:12.683Z</time></trkpt><trkpt lat="42.39882" lon="14.1397667"><ele>26.0</ele><time>2026-05-03T12:43:13.682Z</time></trkpt><trkpt lat="42.3989667" lon="14.1398917"><ele>25.666666666666664</ele><time>2026-05-03T12:43:14.683Z</time></trkpt><trkpt lat="42.3991217" lon="14.14002"><ele>25.333333333333336</ele><time>2026-05-03T12:43:15.683Z</time></trkpt><trkpt lat="42.3992883" lon="14.1401583"><ele>25.0</ele><time>2026-05-03T12:43:16.682Z</time></trkpt><trkpt lat="42.3994417" lon="14.1403067"><ele>25.0</ele><time>2026-05-03T12:43:17.683Z</time></trkpt><trkpt lat="42.3996017" lon="14.1404667"><ele>25.0</ele><time>2026-05-03T12:43:18.683Z</time></trkpt><trkpt lat="42.39976" lon="14.1406233"><ele>25.0</ele><time>2026-05-03T12:43:19.683Z</time></trkpt><trkpt lat="42.3999217" lon="14.1407733"><ele>25.333333333333336</ele><time>2026-05-03T12:43:20.682Z</time></trkpt><trkpt lat="42.4000833" lon="14.1409133"><ele>25.666666666666664</ele><time>2026-05-03T12:43:21.683Z</time></trkpt><trkpt lat="42.4002467" lon="14.1410567"><ele>26.0</ele><time>2026-05-03T12:43:22.683Z</time></trkpt><trkpt lat="42.400415" lon="14.1412033"><ele>25.666666666666664</ele><time>2026-05-03T12:43:23.683Z</time></trkpt><trkpt lat="42.4005783" lon="14.1413517"><ele>25.333333333333336</ele><time>2026-05-03T12:43:24.683Z</time></trkpt><trkpt lat="42.4007367" lon="14.1414867"><ele>25.0</ele><time>2026-05-03T12:43:25.683Z</time></trkpt><trkpt lat="42.4008933" lon="14.1416217"><ele>25.0</ele><time>2026-05-03T12:43:26.682Z</time></trkpt><trkpt lat="42.401055" lon="14.1417683"><ele>25.0</ele><time>2026-05-03T12:43:27.682Z</time></trkpt><trkpt lat="42.4012133" lon="14.1419083"><ele>25.0</ele><time>2026-05-03T12:43:28.683Z</time></trkpt><trkpt lat="42.4013733" lon="14.1420567"><ele>25.0</ele><time>2026-05-03T12:43:29.681Z</time></trkpt><trkpt lat="42.4015383" lon="14.142205"><ele>25.0</ele><time>2026-05-03T12:43:30.682Z</time></trkpt><trkpt lat="42.4017083" lon="14.1423533"><ele>25.0</ele><time>2026-05-03T12:43:31.681Z</time></trkpt><trkpt lat="42.4018783" lon="14.1425083"><ele>24.666666666666668</ele><time>2026-05-03T12:43:32.682Z</time></trkpt><trkpt lat="42.40205" lon="14.1426533"><ele>24.333333333333336</ele><time>2026-05-03T12:43:33.681Z</time></trkpt><trkpt lat="42.4022167" lon="14.1428117"><ele>24.0</ele><time>2026-05-03T12:43:34.681Z</time></trkpt><trkpt lat="42.4023833" lon="14.142965"><ele>24.0</ele><time>2026-05-03T12:43:35.682Z</time></trkpt><trkpt lat="42.4025583" lon="14.143115"><ele>24.0</ele><time>2026-05-03T12:43:36.681Z</time></trkpt><trkpt lat="42.4027317" lon="14.143265"><ele>24.0</ele><time>2026-05-03T12:43:37.682Z</time></trkpt><trkpt lat="42.4029033" lon="14.14341"><ele>24.0</ele><time>2026-05-03T12:43:38.682Z</time></trkpt><trkpt lat="42.4030717" lon="14.1435617"><ele>24.0</ele><time>2026-05-03T12:43:39.681Z</time></trkpt><trkpt lat="42.40324" lon="14.1437067"><ele>24.0</ele><time>2026-05-03T12:43:40.682Z</time></trkpt><trkpt lat="42.4034067" lon="14.1438567"><ele>24.0</ele><time>2026-05-03T12:43:41.681Z</time></trkpt><trkpt lat="42.4035667" lon="14.1440033"><ele>24.0</ele><time>2026-05-03T12:43:42.682Z</time></trkpt><trkpt lat="42.40373" lon="14.1441417"><ele>24.0</ele><time>2026-05-03T12:43:43.682Z</time></trkpt><trkpt lat="42.4038783" lon="14.1442833"><ele>24.333333333333336</ele><time>2026-05-03T12:43:44.681Z</time></trkpt><trkpt lat="42.404015" lon="14.1444183"><ele>24.666666666666668</ele><time>2026-05-03T12:43:45.681Z</time></trkpt><trkpt lat="42.4041517" lon="14.1445433"><ele>25.0</ele><time>2026-05-03T12:43:46.681Z</time></trkpt><trkpt lat="42.4042867" lon="14.14467"><ele>25.0</ele><time>2026-05-03T12:43:47.682Z</time></trkpt><trkpt lat="42.4044283" lon="14.144795"><ele>25.0</ele><time>2026-05-03T12:43:48.682Z</time></trkpt><trkpt lat="42.404575" lon="14.14492"><ele>25.0</ele><time>2026-05-03T12:43:49.682Z</time></trkpt><trkpt lat="42.4047117" lon="14.145045"><ele>24.333333333333336</ele><time>2026-05-03T12:43:50.682Z</time></trkpt><trkpt lat="42.4048467" lon="14.14517"><ele>23.666666666666668</ele><time>2026-05-03T12:43:51.681Z</time></trkpt><trkpt lat="42.4049733" lon="14.1452833"><ele>23.0</ele><time>2026-05-03T12:43:52.682Z</time></trkpt><trkpt lat="42.4051" lon="14.1453883"><ele>23.0</ele><time>2026-05-03T12:43:53.682Z</time></trkpt><trkpt lat="42.4052083" lon="14.1454883"><ele>23.0</ele><time>2026-05-03T12:43:54.681Z</time></trkpt><trkpt lat="42.405305" lon="14.1455733"><ele>23.0</ele><time>2026-05-03T12:43:55.681Z</time></trkpt><trkpt lat="42.405385" lon="14.1456567"><ele>23.0</ele><time>2026-05-03T12:43:56.682Z</time></trkpt><trkpt lat="42.4054367" lon="14.1457417"><ele>23.0</ele><time>2026-05-03T12:43:57.681Z</time></trkpt><trkpt lat="42.4054467" lon="14.14584"><ele>22.799999999999997</ele><time>2026-05-03T12:43:58.682Z</time></trkpt><trkpt lat="42.4054483" lon="14.1459383"><ele>22.6</ele><time>2026-05-03T12:43:59.682Z</time></trkpt><trkpt lat="42.405495" lon="14.1460667"><ele>22.4</ele><time>2026-05-03T12:44:01.682Z</time></trkpt><trkpt lat="42.4056183" lon="14.1460633"><ele>22.200000000000003</ele><time>2026-05-03T12:44:03.682Z</time></trkpt><trkpt lat="42.4057067" lon="14.1460317"><ele>22.0</ele><time>2026-05-03T12:44:04.682Z</time></trkpt><trkpt lat="42.4057983" lon="14.1460367"><ele>22.0</ele><time>2026-05-03T12:44:05.682Z</time></trkpt><trkpt lat="42.4058867" lon="14.14609"><ele>22.0</ele><time>2026-05-03T12:44:06.681Z</time></trkpt><trkpt lat="42.405995" lon="14.1461817"><ele>22.0</ele><time>2026-05-03T12:44:07.682Z</time></trkpt><trkpt lat="42.4061083" lon="14.146305"><ele>22.0</ele><time>2026-05-03T12:44:08.682Z</time></trkpt><trkpt lat="42.4062433" lon="14.1464333"><ele>22.0</ele><time>2026-05-03T12:44:09.682Z</time></trkpt><trkpt lat="42.40638" lon="14.1465533"><ele>22.0</ele><time>2026-05-03T12:44:10.681Z</time></trkpt><trkpt lat="42.4065233" lon="14.14667"><ele>22.0</ele><time>2026-05-03T12:44:11.681Z</time></trkpt><trkpt lat="42.4066817" lon="14.1467767"><ele>22.0</ele><time>2026-05-03T12:44:12.681Z</time></trkpt><trkpt lat="42.4068517" lon="14.1468683"><ele>22.0</ele><time>2026-05-03T12:44:13.682Z</time></trkpt><trkpt lat="42.40702" lon="14.1469433"><ele>22.0</ele><time>2026-05-03T12:44:14.681Z</time></trkpt><trkpt lat="42.4072" lon="14.147005"><ele>20.666666666666664</ele><time>2026-05-03T12:44:15.682Z</time></trkpt><trkpt lat="42.4073783" lon="14.1470467"><ele>19.333333333333332</ele><time>2026-05-03T12:44:16.682Z</time></trkpt><trkpt lat="42.4075533" lon="14.1470867"><ele>18.0</ele><time>2026-05-03T12:44:17.682Z</time></trkpt><trkpt lat="42.4077283" lon="14.1471233"><ele>18.0</ele><time>2026-05-03T12:44:18.681Z</time></trkpt><trkpt lat="42.407905" lon="14.1471617"><ele>18.0</ele><time>2026-05-03T12:44:19.682Z</time></trkpt><trkpt lat="42.40808" lon="14.1472"><ele>18.0</ele><time>2026-05-03T12:44:20.681Z</time></trkpt><trkpt lat="42.4082483" lon="14.1472583"><ele>17.666666666666668</ele><time>2026-05-03T12:44:21.682Z</time></trkpt><trkpt lat="42.4084183" lon="14.1473317"><ele>17.333333333333336</ele><time>2026-05-03T12:44:22.682Z</time></trkpt><trkpt lat="42.4085933" lon="14.1474217"><ele>17.0</ele><time>2026-05-03T12:44:23.681Z</time></trkpt><trkpt lat="42.40876" lon="14.1475267"><ele>17.0</ele><time>2026-05-03T12:44:24.681Z</time></trkpt><trkpt lat="42.4089283" lon="14.147645"><ele>17.0</ele><time>2026-05-03T12:44:25.681Z</time></trkpt><trkpt lat="42.4091017" lon="14.1477733"><ele>17.0</ele><time>2026-05-03T12:44:26.681Z</time></trkpt><trkpt lat="42.409275" lon="14.1479083"><ele>17.0</ele><time>2026-05-03T12:44:27.682Z</time></trkpt><trkpt lat="42.4094433" lon="14.1480483"><ele>17.0</ele><time>2026-05-03T12:44:28.682Z</time></trkpt><trkpt lat="42.40962" lon="14.148185"><ele>17.0</ele><time>2026-05-03T12:44:29.681Z</time></trkpt><trkpt lat="42.4097967" lon="14.1483317"><ele>17.666666666666668</ele><time>2026-05-03T12:44:30.682Z</time></trkpt><trkpt lat="42.4099733" lon="14.1484717"><ele>18.333333333333332</ele><time>2026-05-03T12:44:31.682Z</time></trkpt><trkpt lat="42.4101567" lon="14.1486183"><ele>19.0</ele><time>2026-05-03T12:44:32.682Z</time></trkpt><trkpt lat="42.4103433" lon="14.1487667"><ele>19.0</ele><time>2026-05-03T12:44:33.682Z</time></trkpt><trkpt lat="42.4105383" lon="14.1489183"><ele>19.0</ele><time>2026-05-03T12:44:34.681Z</time></trkpt><trkpt lat="42.410735" lon="14.1490717"><ele>20.0</ele><time>2026-05-03T12:44:35.682Z</time></trkpt><trkpt lat="42.4109333" lon="14.14922"><ele>21.0</ele><time>2026-05-03T12:44:36.681Z</time></trkpt><trkpt lat="42.41113" lon="14.149375"><ele>21.0</ele><time>2026-05-03T12:44:37.682Z</time></trkpt><trkpt lat="42.4113367" lon="14.1495317"><ele>21.0</ele><time>2026-05-03T12:44:38.682Z</time></trkpt><trkpt lat="42.4115433" lon="14.14969"><ele>21.0</ele><time>2026-05-03T12:44:39.681Z</time></trkpt><trkpt lat="42.4117483" lon="14.1498467"><ele>21.0</ele><time>2026-05-03T12:44:40.681Z</time></trkpt><trkpt lat="42.4119533" lon="14.1500067"><ele>20.0</ele><time>2026-05-03T12:44:41.681Z</time></trkpt><trkpt lat="42.4121433" lon="14.150155"><ele>19.0</ele><time>2026-05-03T12:44:42.682Z</time></trkpt><trkpt lat="42.4123283" lon="14.1503"><ele>18.0</ele><time>2026-05-03T12:44:43.681Z</time></trkpt><trkpt lat="42.4125083" lon="14.150445"><ele>17.0</ele><time>2026-05-03T12:44:44.682Z</time></trkpt><trkpt lat="42.412685" lon="14.1505917"><ele>16.0</ele><time>2026-05-03T12:44:45.681Z</time></trkpt><trkpt lat="42.4128567" lon="14.1507467"><ele>15.0</ele><time>2026-05-03T12:44:46.681Z</time></trkpt><trkpt lat="42.4130267" lon="14.1509167"><ele>15.0</ele><time>2026-05-03T12:44:47.681Z</time></trkpt><trkpt lat="42.4131917" lon="14.15109"><ele>15.0</ele><time>2026-05-03T12:44:48.681Z</time></trkpt><trkpt lat="42.41336" lon="14.15126"><ele>15.0</ele><time>2026-05-03T12:44:49.681Z</time></trkpt><trkpt lat="42.41352" lon="14.15143"><ele>15.333333333333332</ele><time>2026-05-03T12:44:50.682Z</time></trkpt><trkpt lat="42.4136933" lon="14.1515833"><ele>15.666666666666666</ele><time>2026-05-03T12:44:51.681Z</time></trkpt><trkpt lat="42.41388" lon="14.1517083"><ele>16.0</ele><time>2026-05-03T12:44:52.682Z</time></trkpt><trkpt lat="42.4140767" lon="14.1518167"><ele>16.0</ele><time>2026-05-03T12:44:53.681Z</time></trkpt><trkpt lat="42.414275" lon="14.151905"><ele>16.0</ele><time>2026-05-03T12:44:54.681Z</time></trkpt><trkpt lat="42.4144683" lon="14.1519633"><ele>16.0</ele><time>2026-05-03T12:44:55.682Z</time></trkpt><trkpt lat="42.414675" lon="14.1520033"><ele>15.666666666666666</ele><time>2026-05-03T12:44:56.681Z</time></trkpt><trkpt lat="42.4148717" lon="14.1520283"><ele>15.333333333333332</ele><time>2026-05-03T12:44:57.682Z</time></trkpt><trkpt lat="42.41507" lon="14.15205"><ele>15.0</ele><time>2026-05-03T12:44:58.681Z</time></trkpt><trkpt lat="42.415265" lon="14.15206"><ele>15.0</ele><time>2026-05-03T12:44:59.681Z</time></trkpt><trkpt lat="42.4154533" lon="14.1520683"><ele>15.0</ele><time>2026-05-03T12:45:00.682Z</time></trkpt><trkpt lat="42.415635" lon="14.152085"><ele>15.0</ele><time>2026-05-03T12:45:01.681Z</time></trkpt><trkpt lat="42.4158217" lon="14.1521217"><ele>15.333333333333332</ele><time>2026-05-03T12:45:02.681Z</time></trkpt><trkpt lat="42.4160033" lon="14.1521933"><ele>15.666666666666666</ele><time>2026-05-03T12:45:03.681Z</time></trkpt><trkpt lat="42.416165" lon="14.152285"><ele>16.0</ele><time>2026-05-03T12:45:04.682Z</time></trkpt><trkpt lat="42.41631" lon="14.152415"><ele>17.333333333333332</ele><time>2026-05-03T12:45:05.682Z</time></trkpt><trkpt lat="42.4164583" lon="14.1525717"><ele>18.666666666666668</ele><time>2026-05-03T12:45:06.681Z</time></trkpt><trkpt lat="42.4165983" lon="14.152755"><ele>20.0</ele><time>2026-05-03T12:45:07.681Z</time></trkpt><trkpt lat="42.41673" lon="14.1529467"><ele>20.0</ele><time>2026-05-03T12:45:08.681Z</time></trkpt><trkpt lat="42.4168717" lon="14.153135"><ele>20.0</ele><time>2026-05-03T12:45:09.681Z</time></trkpt><trkpt lat="42.417005" lon="14.1533233"><ele>20.0</ele><time>2026-05-03T12:45:10.681Z</time></trkpt><trkpt lat="42.4171383" lon="14.1535117"><ele>20.333333333333336</ele><time>2026-05-03T12:45:11.682Z</time></trkpt><trkpt lat="42.4172783" lon="14.1536983"><ele>20.666666666666668</ele><time>2026-05-03T12:45:12.681Z</time></trkpt><trkpt lat="42.4174167" lon="14.1538867"><ele>21.0</ele><time>2026-05-03T12:45:13.681Z</time></trkpt><trkpt lat="42.417555" lon="14.154075"><ele>20.333333333333332</ele><time>2026-05-03T12:45:14.682Z</time></trkpt><trkpt lat="42.4177" lon="14.1542683"><ele>19.666666666666664</ele><time>2026-05-03T12:45:15.681Z</time></trkpt><trkpt lat="42.417835" lon="14.154465"><ele>19.0</ele><time>2026-05-03T12:45:16.682Z</time></trkpt><trkpt lat="42.4179717" lon="14.1546567"><ele>19.0</ele><time>2026-05-03T12:45:17.682Z</time></trkpt><trkpt lat="42.4181117" lon="14.1548483"><ele>19.0</ele><time>2026-05-03T12:45:18.682Z</time></trkpt><trkpt lat="42.4182467" lon="14.15504"><ele>19.0</ele><time>2026-05-03T12:45:19.682Z</time></trkpt><trkpt lat="42.4183933" lon="14.1552333"><ele>18.666666666666664</ele><time>2026-05-03T12:45:20.682Z</time></trkpt><trkpt lat="42.4185367" lon="14.1554183"><ele>18.333333333333332</ele><time>2026-05-03T12:45:21.682Z</time></trkpt><trkpt lat="42.41868" lon="14.15562"><ele>18.0</ele><time>2026-05-03T12:45:22.682Z</time></trkpt><trkpt lat="42.418815" lon="14.1558167"><ele>19.666666666666668</ele><time>2026-05-03T12:45:23.682Z</time></trkpt><trkpt lat="42.41895" lon="14.156015"><ele>21.333333333333336</ele><time>2026-05-03T12:45:24.682Z</time></trkpt><trkpt lat="42.419095" lon="14.1561783"><ele>23.0</ele><time>2026-05-03T12:45:25.682Z</time></trkpt><trkpt lat="42.419245" lon="14.156315"><ele>23.0</ele><time>2026-05-03T12:45:26.681Z</time></trkpt><trkpt lat="42.41941" lon="14.156425"><ele>23.0</ele><time>2026-05-03T12:45:27.682Z</time></trkpt><trkpt lat="42.4195933" lon="14.1565133"><ele>23.0</ele><time>2026-05-03T12:45:28.681Z</time></trkpt><trkpt lat="42.419785" lon="14.1565933"><ele>22.0</ele><time>2026-05-03T12:45:29.681Z</time></trkpt><trkpt lat="42.419975" lon="14.1566683"><ele>21.0</ele><time>2026-05-03T12:45:30.681Z</time></trkpt><trkpt lat="42.4201667" lon="14.1567533"><ele>20.0</ele><time>2026-05-03T12:45:31.682Z</time></trkpt><trkpt lat="42.4203617" lon="14.156825"><ele>20.333333333333336</ele><time>2026-05-03T12:45:32.681Z</time></trkpt><trkpt lat="42.4205433" lon="14.156905"><ele>20.666666666666668</ele><time>2026-05-03T12:45:33.682Z</time></trkpt><trkpt lat="42.4207317" lon="14.1569867"><ele>21.0</ele><time>2026-05-03T12:45:34.681Z</time></trkpt><trkpt lat="42.4209067" lon="14.157065"><ele>21.0</ele><time>2026-05-03T12:45:35.682Z</time></trkpt><trkpt lat="42.4210733" lon="14.157135"><ele>21.0</ele><time>2026-05-03T12:45:36.681Z</time></trkpt><trkpt lat="42.4212383" lon="14.1571983"><ele>21.0</ele><time>2026-05-03T12:45:37.681Z</time></trkpt><trkpt lat="42.4214" lon="14.1572633"><ele>21.5</ele><time>2026-05-03T12:45:38.682Z</time></trkpt><trkpt lat="42.4215383" lon="14.15733"><ele>22.0</ele><time>2026-05-03T12:45:39.681Z</time></trkpt><trkpt lat="42.4216717" lon="14.1573783"><ele>22.5</ele><time>2026-05-03T12:45:40.681Z</time></trkpt><trkpt lat="42.421805" lon="14.1574117"><ele>23.0</ele><time>2026-05-03T12:45:41.681Z</time></trkpt><trkpt lat="42.4219367" lon="14.1574283"><ele>22.25</ele><time>2026-05-03T12:45:42.682Z</time></trkpt><trkpt lat="42.4220533" lon="14.1574217"><ele>21.5</ele><time>2026-05-03T12:45:43.681Z</time></trkpt><trkpt lat="42.4221583" lon="14.1574217"><ele>20.75</ele><time>2026-05-03T12:45:44.682Z</time></trkpt><trkpt lat="42.4222733" lon="14.157455"><ele>20.0</ele><time>2026-05-03T12:45:45.682Z</time></trkpt><trkpt lat="42.4223967" lon="14.157515"><ele>20.0</ele><time>2026-05-03T12:45:46.682Z</time></trkpt><trkpt lat="42.4225233" lon="14.1576"><ele>20.0</ele><time>2026-05-03T12:45:47.682Z</time></trkpt><trkpt lat="42.4226383" lon="14.1576867"><ele>20.0</ele><time>2026-05-03T12:45:48.682Z</time></trkpt><trkpt lat="42.4227483" lon="14.1577717"><ele>20.0</ele><time>2026-05-03T12:45:49.682Z</time></trkpt><trkpt lat="42.4228717" lon="14.1578417"><ele>19.5</ele><time>2026-05-03T12:45:50.681Z</time></trkpt><trkpt lat="42.42299" lon="14.1579033"><ele>19.0</ele><time>2026-05-03T12:45:51.681Z</time></trkpt><trkpt lat="42.42311" lon="14.15795"><ele>18.5</ele><time>2026-05-03T12:45:52.682Z</time></trkpt><trkpt lat="42.4232183" lon="14.157995"><ele>18.0</ele><time>2026-05-03T12:45:53.681Z</time></trkpt><trkpt lat="42.42332" lon="14.1580433"><ele>18.0</ele><time>2026-05-03T12:45:54.681Z</time></trkpt><trkpt lat="42.4234267" lon="14.1580783"><ele>18.0</ele><time>2026-05-03T12:45:55.682Z</time></trkpt><trkpt lat="42.4235317" lon="14.15812"><ele>18.0</ele><time>2026-05-03T12:45:56.681Z</time></trkpt><trkpt lat="42.4236483" lon="14.1581633"><ele>18.0</ele><time>2026-05-03T12:45:57.681Z</time></trkpt><trkpt lat="42.4237617" lon="14.1582083"><ele>17.8</ele><time>2026-05-03T12:45:58.682Z</time></trkpt><trkpt lat="42.4238717" lon="14.158245"><ele>17.6</ele><time>2026-05-03T12:45:59.681Z</time></trkpt><trkpt lat="42.4239767" lon="14.1582833"><ele>17.4</ele><time>2026-05-03T12:46:00.681Z</time></trkpt><trkpt lat="42.4240767" lon="14.1583317"><ele>17.2</ele><time>2026-05-03T12:46:01.682Z</time></trkpt><trkpt lat="42.42417" lon="14.1583733"><ele>17.0</ele><time>2026-05-03T12:46:02.682Z</time></trkpt><trkpt lat="42.4242633" lon="14.1584167"><ele>17.0</ele><time>2026-05-03T12:46:03.681Z</time></trkpt><trkpt lat="42.424365" lon="14.1584583"><ele>17.0</ele><time>2026-05-03T12:46:04.682Z</time></trkpt><trkpt lat="42.424465" lon="14.1585083"><ele>17.0</ele><time>2026-05-03T12:46:05.681Z</time></trkpt><trkpt lat="42.4245733" lon="14.1585583"><ele>17.0</ele><time>2026-05-03T12:46:06.682Z</time></trkpt><trkpt lat="42.42469" lon="14.1586067"><ele>17.0</ele><time>2026-05-03T12:46:07.682Z</time></trkpt><trkpt lat="42.4248167" lon="14.1586483"><ele>17.25</ele><time>2026-05-03T12:46:08.681Z</time></trkpt><trkpt lat="42.42493" lon="14.1586967"><ele>17.5</ele><time>2026-05-03T12:46:09.681Z</time></trkpt><trkpt lat="42.4250483" lon="14.1587517"><ele>17.75</ele><time>2026-05-03T12:46:10.68Z</time></trkpt><trkpt lat="42.4251583" lon="14.1588"><ele>18.0</ele><time>2026-05-03T12:46:11.68Z</time></trkpt><trkpt lat="42.425255" lon="14.15885"><ele>18.0</ele><time>2026-05-03T12:46:12.68Z</time></trkpt><trkpt lat="42.4253567" lon="14.1589033"><ele>18.0</ele><time>2026-05-03T12:46:13.681Z</time></trkpt><trkpt lat="42.42546" lon="14.1589533"><ele>18.0</ele><time>2026-05-03T12:46:14.681Z</time></trkpt><trkpt lat="42.4255667" lon="14.1590033"><ele>18.0</ele><time>2026-05-03T12:46:15.68Z</time></trkpt><trkpt lat="42.42568" lon="14.15906"><ele>18.25</ele><time>2026-05-03T12:46:16.68Z</time></trkpt><trkpt lat="42.4257917" lon="14.1591183"><ele>18.5</ele><time>2026-05-03T12:46:17.681Z</time></trkpt><trkpt lat="42.4259" lon="14.1591817"><ele>18.75</ele><time>2026-05-03T12:46:18.681Z</time></trkpt><trkpt lat="42.4260083" lon="14.1592383"><ele>19.0</ele><time>2026-05-03T12:46:19.681Z</time></trkpt><trkpt lat="42.426125" lon="14.1592983"><ele>19.0</ele><time>2026-05-03T12:46:20.68Z</time></trkpt><trkpt lat="42.4262367" lon="14.15937"><ele>19.0</ele><time>2026-05-03T12:46:21.68Z</time></trkpt><trkpt lat="42.426345" lon="14.159445"><ele>19.0</ele><time>2026-05-03T12:46:22.681Z</time></trkpt><trkpt lat="42.4264483" lon="14.15952"><ele>19.0</ele><time>2026-05-03T12:46:23.681Z</time></trkpt><trkpt lat="42.42655" lon="14.1595983"><ele>19.0</ele><time>2026-05-03T12:46:24.681Z</time></trkpt><trkpt lat="42.4266533" lon="14.159675"><ele>19.0</ele><time>2026-05-03T12:46:25.681Z</time></trkpt><trkpt lat="42.4267517" lon="14.1597517"><ele>19.0</ele><time>2026-05-03T12:46:26.68Z</time></trkpt><trkpt lat="42.4268383" lon="14.1598267"><ele>19.0</ele><time>2026-05-03T12:46:27.68Z</time></trkpt><trkpt lat="42.4269217" lon="14.1598983"><ele>19.0</ele><time>2026-05-03T12:46:28.681Z</time></trkpt><trkpt lat="42.4270033" lon="14.1599633"><ele>19.0</ele><time>2026-05-03T12:46:29.681Z</time></trkpt><trkpt lat="42.4270933" lon="14.1600433"><ele>19.0</ele><time>2026-05-03T12:46:30.68Z</time></trkpt><trkpt lat="42.4272083" lon="14.16013"><ele>19.0</ele><time>2026-05-03T12:46:31.681Z</time></trkpt><trkpt lat="42.4273283" lon="14.1602383"><ele>19.0</ele><time>2026-05-03T12:46:32.681Z</time></trkpt><trkpt lat="42.4274567" lon="14.16036"><ele>18.666666666666664</ele><time>2026-05-03T12:46:33.681Z</time></trkpt><trkpt lat="42.42759" lon="14.16047"><ele>18.333333333333332</ele><time>2026-05-03T12:46:34.68Z</time></trkpt><trkpt lat="42.4277167" lon="14.1605967"><ele>18.0</ele><time>2026-05-03T12:46:35.681Z</time></trkpt><trkpt lat="42.427845" lon="14.16072"><ele>18.0</ele><time>2026-05-03T12:46:36.681Z</time></trkpt><trkpt lat="42.427965" lon="14.1608367"><ele>18.0</ele><time>2026-05-03T12:46:37.681Z</time></trkpt><trkpt lat="42.4280867" lon="14.160955"><ele>18.0</ele><time>2026-05-03T12:46:38.681Z</time></trkpt><trkpt lat="42.4282067" lon="14.1610767"><ele>18.0</ele><time>2026-05-03T12:46:39.681Z</time></trkpt><trkpt lat="42.4283283" lon="14.1611983"><ele>17.666666666666668</ele><time>2026-05-03T12:46:40.68Z</time></trkpt><trkpt lat="42.4284567" lon="14.16132"><ele>17.333333333333336</ele><time>2026-05-03T12:46:41.681Z</time></trkpt><trkpt lat="42.4285867" lon="14.1614467"><ele>17.0</ele><time>2026-05-03T12:46:42.681Z</time></trkpt><trkpt lat="42.4287117" lon="14.1615733"><ele>19.5</ele><time>2026-05-03T12:46:43.68Z</time></trkpt><trkpt lat="42.428845" lon="14.1616867"><ele>22.0</ele><time>2026-05-03T12:46:44.68Z</time></trkpt><trkpt lat="42.4289617" lon="14.1617967"><ele>24.5</ele><time>2026-05-03T12:46:45.681Z</time></trkpt><trkpt lat="42.4290583" lon="14.1619083"><ele>27.0</ele><time>2026-05-03T12:46:46.681Z</time></trkpt><trkpt lat="42.4291583" lon="14.1620083"><ele>27.0</ele><time>2026-05-03T12:46:47.68Z</time></trkpt><trkpt lat="42.4292567" lon="14.1621033"><ele>27.0</ele><time>2026-05-03T12:46:48.68Z</time></trkpt><trkpt lat="42.4293583" lon="14.1621917"><ele>27.0</ele><time>2026-05-03T12:46:49.681Z</time></trkpt><trkpt lat="42.4294583" lon="14.1622883"><ele>27.0</ele><time>2026-05-03T12:46:50.68Z</time></trkpt><trkpt lat="42.4295583" lon="14.1623817"><ele>25.5</ele><time>2026-05-03T12:46:51.68Z</time></trkpt><trkpt lat="42.4296567" lon="14.162475"><ele>24.0</ele><time>2026-05-03T12:46:52.681Z</time></trkpt><trkpt lat="42.42976" lon="14.16256"><ele>22.5</ele><time>2026-05-03T12:46:53.68Z</time></trkpt><trkpt lat="42.42987" lon="14.1626333"><ele>21.0</ele><time>2026-05-03T12:46:54.681Z</time></trkpt><trkpt lat="42.4299817" lon="14.1626883"><ele>21.0</ele><time>2026-05-03T12:46:55.681Z</time></trkpt><trkpt lat="42.430085" lon="14.1627317"><ele>21.0</ele><time>2026-05-03T12:46:56.681Z</time></trkpt><trkpt lat="42.43018" lon="14.162755"><ele>21.0</ele><time>2026-05-03T12:46:57.681Z</time></trkpt><trkpt lat="42.4302633" lon="14.1627783"><ele>21.0</ele><time>2026-05-03T12:46:58.681Z</time></trkpt><trkpt lat="42.4303317" lon="14.1627933"><ele>21.0</ele><time>2026-05-03T12:46:59.681Z</time></trkpt><trkpt lat="42.4304183" lon="14.1628"><ele>21.0</ele><time>2026-05-03T12:47:01.681Z</time></trkpt><trkpt lat="42.4304833" lon="14.16278"><ele>21.0</ele><time>2026-05-03T12:47:04.681Z</time></trkpt><trkpt lat="42.4304917" lon="14.1626633"><ele>21.0</ele><time>2026-05-03T12:47:07.68Z</time></trkpt><trkpt lat="42.4304017" lon="14.16255"><ele>21.0</ele><time>2026-05-03T12:47:09.68Z</time></trkpt><trkpt lat="42.430335" lon="14.1624233"><ele>21.0</ele><time>2026-05-03T12:47:11.68Z</time></trkpt><trkpt lat="42.4303767" lon="14.1622417"><ele>21.5</ele><time>2026-05-03T12:47:13.681Z</time></trkpt><trkpt lat="42.4304233" lon="14.1621333"><ele>22.0</ele><time>2026-05-03T12:47:14.68Z</time></trkpt><trkpt lat="42.4304783" lon="14.162005"><ele>22.5</ele><time>2026-05-03T12:47:15.68Z</time></trkpt><trkpt lat="42.4305383" lon="14.1618633"><ele>23.0</ele><time>2026-05-03T12:47:16.681Z</time></trkpt><trkpt lat="42.4305933" lon="14.1617017"><ele>23.0</ele><time>2026-05-03T12:47:17.68Z</time></trkpt><trkpt lat="42.4306533" lon="14.16155"><ele>23.0</ele><time>2026-05-03T12:47:18.68Z</time></trkpt><trkpt lat="42.430705" lon="14.1614133"><ele>23.0</ele><time>2026-05-03T12:47:19.681Z</time></trkpt><trkpt lat="42.4307467" lon="14.1613"><ele>23.0</ele><time>2026-05-03T12:47:20.681Z</time></trkpt><trkpt lat="42.430795" lon="14.1612067"><ele>23.0</ele><time>2026-05-03T12:47:21.681Z</time></trkpt><trkpt lat="42.430835" lon="14.1611067"><ele>24.0</ele><time>2026-05-03T12:47:22.68Z</time></trkpt><trkpt lat="42.4308783" lon="14.1609967"><ele>25.0</ele><time>2026-05-03T12:47:23.68Z</time></trkpt><trkpt lat="42.4309417" lon="14.1608733"><ele>26.0</ele><time>2026-05-03T12:47:24.68Z</time></trkpt><trkpt lat="42.4310117" lon="14.160725"><ele>27.0</ele><time>2026-05-03T12:47:25.68Z</time></trkpt><trkpt lat="42.43108" lon="14.1605667"><ele>27.0</ele><time>2026-05-03T12:47:26.681Z</time></trkpt><trkpt lat="42.431145" lon="14.16039"><ele>27.0</ele><time>2026-05-03T12:47:27.681Z</time></trkpt><trkpt lat="42.4312117" lon="14.1602233"><ele>27.0</ele><time>2026-05-03T12:47:28.68Z</time></trkpt><trkpt lat="42.4312783" lon="14.1600633"><ele>27.0</ele><time>2026-05-03T12:47:29.68Z</time></trkpt><trkpt lat="42.431345" lon="14.15991"><ele>28.25</ele><time>2026-05-03T12:47:30.681Z</time></trkpt><trkpt lat="42.431415" lon="14.1597583"><ele>29.5</ele><time>2026-05-03T12:47:31.681Z</time></trkpt><trkpt lat="42.4314833" lon="14.1595933"><ele>30.75</ele><time>2026-05-03T12:47:32.681Z</time></trkpt><trkpt lat="42.4315517" lon="14.1594217"><ele>32.0</ele><time>2026-05-03T12:47:33.68Z</time></trkpt><trkpt lat="42.4316233" lon="14.159265"><ele>32.0</ele><time>2026-05-03T12:47:34.68Z</time></trkpt><trkpt lat="42.431685" lon="14.1591117"><ele>32.0</ele><time>2026-05-03T12:47:35.681Z</time></trkpt><trkpt lat="42.4317533" lon="14.158965"><ele>32.0</ele><time>2026-05-03T12:47:36.681Z</time></trkpt><trkpt lat="42.4318183" lon="14.1588083"><ele>32.0</ele><time>2026-05-03T12:47:37.68Z</time></trkpt><trkpt lat="42.4318833" lon="14.1586517"><ele>32.25</ele><time>2026-05-03T12:47:38.68Z</time></trkpt><trkpt lat="42.43195" lon="14.1584867"><ele>32.5</ele><time>2026-05-03T12:47:39.68Z</time></trkpt><trkpt lat="42.4320067" lon="14.1583167"><ele>32.75</ele><time>2026-05-03T12:47:40.681Z</time></trkpt><trkpt lat="42.4320767" lon="14.15815"><ele>33.0</ele><time>2026-05-03T12:47:41.681Z</time></trkpt><trkpt lat="42.4321417" lon="14.1579817"><ele>35.0</ele><time>2026-05-03T12:47:42.681Z</time></trkpt><trkpt lat="42.4322133" lon="14.15782"><ele>37.0</ele><time>2026-05-03T12:47:43.681Z</time></trkpt><trkpt lat="42.4322883" lon="14.1576533"><ele>39.0</ele><time>2026-05-03T12:47:44.681Z</time></trkpt><trkpt lat="42.4323767" lon="14.1574817"><ele>41.0</ele><time>2026-05-03T12:47:45.681Z</time></trkpt><trkpt lat="42.43248" lon="14.157325"><ele>42.33333333333333</ele><time>2026-05-03T12:47:46.68Z</time></trkpt><trkpt lat="42.4325967" lon="14.1571917"><ele>43.666666666666664</ele><time>2026-05-03T12:47:47.68Z</time></trkpt><trkpt lat="42.4327117" lon="14.1570567"><ele>45.0</ele><time>2026-05-03T12:47:48.68Z</time></trkpt><trkpt lat="42.4328467" lon="14.1569367"><ele>46.66666666666667</ele><time>2026-05-03T12:47:49.68Z</time></trkpt><trkpt lat="42.4329833" lon="14.1568233"><ele>48.333333333333336</ele><time>2026-05-03T12:47:50.68Z</time></trkpt><trkpt lat="42.43312" lon="14.1567133"><ele>50.0</ele><time>2026-05-03T12:47:51.68Z</time></trkpt><trkpt lat="42.4332633" lon="14.1566083"><ele>50.66666666666667</ele><time>2026-05-03T12:47:52.68Z</time></trkpt><trkpt lat="42.4334017" lon="14.1564967"><ele>51.33333333333333</ele><time>2026-05-03T12:47:53.681Z</time></trkpt><trkpt lat="42.433545" lon="14.1563883"><ele>52.0</ele><time>2026-05-03T12:47:54.681Z</time></trkpt><trkpt lat="42.4336883" lon="14.15627"><ele>52.666666666666664</ele><time>2026-05-03T12:47:55.681Z</time></trkpt><trkpt lat="42.43383" lon="14.1561583"><ele>53.33333333333333</ele><time>2026-05-03T12:47:56.681Z</time></trkpt><trkpt lat="42.433985" lon="14.15605"><ele>54.0</ele><time>2026-05-03T12:47:57.681Z</time></trkpt><trkpt lat="42.434135" lon="14.1559417"><ele>54.0</ele><time>2026-05-03T12:47:58.681Z</time></trkpt><trkpt lat="42.4342983" lon="14.1558283"><ele>54.0</ele><time>2026-05-03T12:47:59.681Z</time></trkpt><trkpt lat="42.43446" lon="14.1557217"><ele>54.0</ele><time>2026-05-03T12:48:00.68Z</time></trkpt><trkpt lat="42.434625" lon="14.1556"><ele>55.66666666666667</ele><time>2026-05-03T12:48:01.68Z</time></trkpt><trkpt lat="42.434785" lon="14.1554783"><ele>57.333333333333336</ele><time>2026-05-03T12:48:02.68Z</time></trkpt><trkpt lat="42.4349467" lon="14.155355"><ele>59.0</ele><time>2026-05-03T12:48:03.681Z</time></trkpt><trkpt lat="42.4351083" lon="14.1552233"><ele>59.0</ele><time>2026-05-03T12:48:04.68Z</time></trkpt><trkpt lat="42.435265" lon="14.1550983"><ele>59.0</ele><time>2026-05-03T12:48:05.68Z</time></trkpt><trkpt lat="42.435425" lon="14.1549733"><ele>59.0</ele><time>2026-05-03T12:48:06.68Z</time></trkpt><trkpt lat="42.4355883" lon="14.1548517"><ele>60.333333333333336</ele><time>2026-05-03T12:48:07.681Z</time></trkpt><trkpt lat="42.435755" lon="14.154725"><ele>61.66666666666667</ele><time>2026-05-03T12:48:08.681Z</time></trkpt><trkpt lat="42.4359267" lon="14.1546033"><ele>63.0</ele><time>2026-05-03T12:48:09.68Z</time></trkpt><trkpt lat="42.4360917" lon="14.1544783"><ele>63.0</ele><time>2026-05-03T12:48:10.68Z</time></trkpt><trkpt lat="42.4362533" lon="14.1543467"><ele>63.0</ele><time>2026-05-03T12:48:11.681Z</time></trkpt><trkpt lat="42.4364133" lon="14.1542083"><ele>63.0</ele><time>2026-05-03T12:48:12.681Z</time></trkpt><trkpt lat="42.43658" lon="14.1540617"><ele>65.33333333333333</ele><time>2026-05-03T12:48:13.68Z</time></trkpt><trkpt lat="42.436745" lon="14.153925"><ele>67.66666666666666</ele><time>2026-05-03T12:48:14.681Z</time></trkpt><trkpt lat="42.4369083" lon="14.1537833"><ele>70.0</ele><time>2026-05-03T12:48:15.68Z</time></trkpt><trkpt lat="42.4370617" lon="14.15365"><ele>69.66666666666666</ele><time>2026-05-03T12:48:16.681Z</time></trkpt><trkpt lat="42.4372033" lon="14.1535233"><ele>69.33333333333333</ele><time>2026-05-03T12:48:17.681Z</time></trkpt><trkpt lat="42.437345" lon="14.1534017"><ele>69.0</ele><time>2026-05-03T12:48:18.68Z</time></trkpt><trkpt lat="42.437495" lon="14.1533083"><ele>69.0</ele><time>2026-05-03T12:48:19.68Z</time></trkpt><trkpt lat="42.4376633" lon="14.1532433"><ele>69.0</ele><time>2026-05-03T12:48:20.68Z</time></trkpt><trkpt lat="42.43784" lon="14.1532"><ele>69.0</ele><time>2026-05-03T12:48:21.681Z</time></trkpt><trkpt lat="42.4380117" lon="14.153165"><ele>67.0</ele><time>2026-05-03T12:48:22.68Z</time></trkpt><trkpt lat="42.4381733" lon="14.1531067"><ele>65.0</ele><time>2026-05-03T12:48:23.681Z</time></trkpt><trkpt lat="42.4383333" lon="14.1530233"><ele>63.0</ele><time>2026-05-03T12:48:24.68Z</time></trkpt><trkpt lat="42.4384833" lon="14.1529167"><ele>63.0</ele><time>2026-05-03T12:48:25.681Z</time></trkpt><trkpt lat="42.4386267" lon="14.1527783"><ele>63.0</ele><time>2026-05-03T12:48:26.68Z</time></trkpt><trkpt lat="42.4387683" lon="14.1526183"><ele>63.0</ele><time>2026-05-03T12:48:27.681Z</time></trkpt><trkpt lat="42.4389033" lon="14.152445"><ele>66.33333333333333</ele><time>2026-05-03T12:48:28.68Z</time></trkpt><trkpt lat="42.4390283" lon="14.15225"><ele>69.66666666666666</ele><time>2026-05-03T12:48:29.68Z</time></trkpt><trkpt lat="42.4391433" lon="14.15207"><ele>73.0</ele><time>2026-05-03T12:48:30.68Z</time></trkpt><trkpt lat="42.4392583" lon="14.1518933"><ele>73.0</ele><time>2026-05-03T12:48:31.68Z</time></trkpt><trkpt lat="42.4393883" lon="14.1517367"><ele>73.0</ele><time>2026-05-03T12:48:32.681Z</time></trkpt><trkpt lat="42.43954" lon="14.1516083"><ele>73.0</ele><time>2026-05-03T12:48:33.68Z</time></trkpt><trkpt lat="42.439705" lon="14.1514983"><ele>74.0</ele><time>2026-05-03T12:48:34.681Z</time></trkpt><trkpt lat="42.4398867" lon="14.1514233"><ele>75.0</ele><time>2026-05-03T12:48:35.68Z</time></trkpt><trkpt lat="42.4400683" lon="14.151345"><ele>76.0</ele><time>2026-05-03T12:48:36.68Z</time></trkpt><trkpt lat="42.4402367" lon="14.151245"><ele>76.0</ele><time>2026-05-03T12:48:37.68Z</time></trkpt><trkpt lat="42.4403933" lon="14.1511317"><ele>76.0</ele><time>2026-05-03T12:48:38.68Z</time></trkpt><trkpt lat="42.4405533" lon="14.1510117"><ele>76.0</ele><time>2026-05-03T12:48:39.68Z</time></trkpt><trkpt lat="42.440705" lon="14.1509017"><ele>80.0</ele><time>2026-05-03T12:48:40.681Z</time></trkpt><trkpt lat="42.4408633" lon="14.150835"><ele>84.0</ele><time>2026-05-03T12:48:41.681Z</time></trkpt><trkpt lat="42.4410067" lon="14.1507917"><ele>88.0</ele><time>2026-05-03T12:48:42.681Z</time></trkpt><trkpt lat="42.4411483" lon="14.150785"><ele>88.0</ele><time>2026-05-03T12:48:43.68Z</time></trkpt><trkpt lat="42.44129" lon="14.1508217"><ele>88.0</ele><time>2026-05-03T12:48:44.681Z</time></trkpt><trkpt lat="42.4414283" lon="14.1508867"><ele>88.0</ele><time>2026-05-03T12:48:45.68Z</time></trkpt><trkpt lat="42.4415667" lon="14.1509333"><ele>88.0</ele><time>2026-05-03T12:48:46.681Z</time></trkpt><trkpt lat="42.441705" lon="14.1509667"><ele>88.75</ele><time>2026-05-03T12:48:47.68Z</time></trkpt><trkpt lat="42.4418317" lon="14.150965"><ele>89.5</ele><time>2026-05-03T12:48:48.68Z</time></trkpt><trkpt lat="42.4419517" lon="14.1509367"><ele>90.25</ele><time>2026-05-03T12:48:49.679Z</time></trkpt><trkpt lat="42.44206" lon="14.1508967"><ele>91.0</ele><time>2026-05-03T12:48:50.68Z</time></trkpt><trkpt lat="42.442155" lon="14.15085"><ele>91.5</ele><time>2026-05-03T12:48:51.679Z</time></trkpt><trkpt lat="42.4422317" lon="14.1508067"><ele>92.0</ele><time>2026-05-03T12:48:52.679Z</time></trkpt><trkpt lat="42.4422967" lon="14.1507317"><ele>92.5</ele><time>2026-05-03T12:48:53.68Z</time></trkpt><trkpt lat="42.4423433" lon="14.1506533"><ele>93.0</ele><time>2026-05-03T12:48:54.68Z</time></trkpt><trkpt lat="42.4423833" lon="14.1505817"><ele>93.5</ele><time>2026-05-03T12:48:55.679Z</time></trkpt><trkpt lat="42.4424367" lon="14.1504767"><ele>94.0</ele><time>2026-05-03T12:48:57.68Z</time></trkpt><trkpt lat="42.4424417" lon="14.1503383"><ele>94.0</ele><time>2026-05-03T12:49:11.68Z</time></trkpt><trkpt lat="42.44245" lon="14.1502517"><ele>94.0</ele><time>2026-05-03T12:49:13.68Z</time></trkpt><trkpt lat="42.442465" lon="14.1501433"><ele>94.0</ele><time>2026-05-03T12:49:15.68Z</time></trkpt><trkpt lat="42.44249" lon="14.1500233"><ele>94.0</ele><time>2026-05-03T12:49:17.68Z</time></trkpt><trkpt lat="42.4425183" lon="14.1499183"><ele>94.0</ele><time>2026-05-03T12:49:19.679Z</time></trkpt><trkpt lat="42.442535" lon="14.1498017"><ele>94.0</ele><time>2026-05-03T12:49:21.68Z</time></trkpt><trkpt lat="42.442555" lon="14.14966"><ele>94.80000000000001</ele><time>2026-05-03T12:49:23.68Z</time></trkpt><trkpt lat="42.44258" lon="14.1495767"><ele>95.60000000000001</ele><time>2026-05-03T12:49:24.679Z</time></trkpt><trkpt lat="42.442615" lon="14.1494667"><ele>96.4</ele><time>2026-05-03T12:49:25.68Z</time></trkpt><trkpt lat="42.4426517" lon="14.1493433"><ele>97.2</ele><time>2026-05-03T12:49:26.679Z</time></trkpt><trkpt lat="42.4427033" lon="14.149205"><ele>98.0</ele><time>2026-05-03T12:49:27.679Z</time></trkpt><trkpt lat="42.4427567" lon="14.14905"><ele>99.5</ele><time>2026-05-03T12:49:28.679Z</time></trkpt><trkpt lat="42.44282" lon="14.1488917"><ele>101.0</ele><time>2026-05-03T12:49:29.68Z</time></trkpt><trkpt lat="42.44289" lon="14.1487267"><ele>102.5</ele><time>2026-05-03T12:49:30.68Z</time></trkpt><trkpt lat="42.44298" lon="14.1485767"><ele>104.0</ele><time>2026-05-03T12:49:31.68Z</time></trkpt><trkpt lat="42.4430817" lon="14.1484333"><ele>104.0</ele><time>2026-05-03T12:49:32.68Z</time></trkpt><trkpt lat="42.44319" lon="14.1482933"><ele>104.0</ele><time>2026-05-03T12:49:33.679Z</time></trkpt><trkpt lat="42.4433033" lon="14.1481433"><ele>104.0</ele><time>2026-05-03T12:49:34.679Z</time></trkpt><trkpt lat="42.4434117" lon="14.1479867"><ele>109.0</ele><time>2026-05-03T12:49:35.679Z</time></trkpt><trkpt lat="42.443515" lon="14.1478217"><ele>114.0</ele><time>2026-05-03T12:49:36.68Z</time></trkpt><trkpt lat="42.443615" lon="14.1476767"><ele>119.0</ele><time>2026-05-03T12:49:37.68Z</time></trkpt><trkpt lat="42.443735" lon="14.1475633"><ele>117.75</ele><time>2026-05-03T12:49:38.679Z</time></trkpt><trkpt lat="42.4438667" lon="14.1475"><ele>116.5</ele><time>2026-05-03T12:49:39.679Z</time></trkpt><trkpt lat="42.444015" lon="14.1474567"><ele>115.25</ele><time>2026-05-03T12:49:40.679Z</time></trkpt><trkpt lat="42.4441633" lon="14.147415"><ele>114.0</ele><time>2026-05-03T12:49:41.68Z</time></trkpt><trkpt lat="42.4442933" lon="14.14737"><ele>116.0</ele><time>2026-05-03T12:49:42.679Z</time></trkpt><trkpt lat="42.4443983" lon="14.1473117"><ele>118.0</ele><time>2026-05-03T12:49:43.68Z</time></trkpt><trkpt lat="42.4444717" lon="14.14722"><ele>120.0</ele><time>2026-05-03T12:49:44.68Z</time></trkpt><trkpt lat="42.4445233" lon="14.147105"><ele>122.0</ele><time>2026-05-03T12:49:45.679Z</time></trkpt><trkpt lat="42.4445567" lon="14.147005"><ele>124.0</ele><time>2026-05-03T12:49:46.68Z</time></trkpt><trkpt lat="42.4446033" lon="14.1469217"><ele>124.5</ele><time>2026-05-03T12:49:47.68Z</time></trkpt><trkpt lat="42.44466" lon="14.1468217"><ele>125.0</ele><time>2026-05-03T12:49:48.679Z</time></trkpt><trkpt lat="42.4447317" lon="14.1467083"><ele>125.5</ele><time>2026-05-03T12:49:49.68Z</time></trkpt><trkpt lat="42.4448217" lon="14.146575"><ele>126.0</ele><time>2026-05-03T12:49:50.68Z</time></trkpt><trkpt lat="42.4449133" lon="14.146415"><ele>126.0</ele><time>2026-05-03T12:49:51.679Z</time></trkpt><trkpt lat="42.44501" lon="14.1462333"><ele>126.0</ele><time>2026-05-03T12:49:52.679Z</time></trkpt><trkpt lat="42.4451067" lon="14.1460567"><ele>126.0</ele><time>2026-05-03T12:49:53.679Z</time></trkpt><trkpt lat="42.4452033" lon="14.1458867"><ele>126.0</ele><time>2026-05-03T12:49:54.679Z</time></trkpt><trkpt lat="42.4453" lon="14.145725"><ele>126.0</ele><time>2026-05-03T12:49:55.679Z</time></trkpt><trkpt lat="42.4453983" lon="14.14556"><ele>126.0</ele><time>2026-05-03T12:49:56.679Z</time></trkpt><trkpt lat="42.4455117" lon="14.1453933"><ele>124.0</ele><time>2026-05-03T12:49:57.679Z</time></trkpt><trkpt lat="42.4456333" lon="14.14524"><ele>122.0</ele><time>2026-05-03T12:49:58.679Z</time></trkpt><trkpt lat="42.4457683" lon="14.1451017"><ele>120.0</ele><time>2026-05-03T12:49:59.679Z</time></trkpt><trkpt lat="42.4459267" lon="14.14497"><ele>120.33333333333334</ele><time>2026-05-03T12:50:00.679Z</time></trkpt><trkpt lat="42.4460983" lon="14.1448683"><ele>120.66666666666667</ele><time>2026-05-03T12:50:01.679Z</time></trkpt><trkpt lat="42.4462567" lon="14.1447767"><ele>121.0</ele><time>2026-05-03T12:50:02.68Z</time></trkpt><trkpt lat="42.44641" lon="14.14471"><ele>121.0</ele><time>2026-05-03T12:50:03.679Z</time></trkpt><trkpt lat="42.4465767" lon="14.144665"><ele>121.0</ele><time>2026-05-03T12:50:04.679Z</time></trkpt><trkpt lat="42.44675" lon="14.1446217"><ele>121.0</ele><time>2026-05-03T12:50:05.68Z</time></trkpt><trkpt lat="42.446915" lon="14.1445783"><ele>121.0</ele><time>2026-05-03T12:50:06.68Z</time></trkpt><trkpt lat="42.447065" lon="14.14453"><ele>121.0</ele><time>2026-05-03T12:50:07.68Z</time></trkpt><trkpt lat="42.4471883" lon="14.1444967"><ele>121.0</ele><time>2026-05-03T12:50:08.68Z</time></trkpt><trkpt lat="42.4472967" lon="14.144495"><ele>121.0</ele><time>2026-05-03T12:50:09.68Z</time></trkpt><trkpt lat="42.4474017" lon="14.14454"><ele>122.0</ele><time>2026-05-03T12:50:10.68Z</time></trkpt><trkpt lat="42.4474783" lon="14.1446033"><ele>123.0</ele><time>2026-05-03T12:50:11.68Z</time></trkpt><trkpt lat="42.4475317" lon="14.1447183"><ele>124.0</ele><time>2026-05-03T12:50:12.68Z</time></trkpt><trkpt lat="42.4475683" lon="14.1448667"><ele>125.0</ele><time>2026-05-03T12:50:13.679Z</time></trkpt><trkpt lat="42.4475817" lon="14.1450467"><ele>126.0</ele><time>2026-05-03T12:50:14.679Z</time></trkpt><trkpt lat="42.4475817" lon="14.1452483"><ele>126.25</ele><time>2026-05-03T12:50:15.679Z</time></trkpt><trkpt lat="42.4475833" lon="14.1454533"><ele>126.5</ele><time>2026-05-03T12:50:16.679Z</time></trkpt><trkpt lat="42.4476033" lon="14.1456267"><ele>126.75</ele><time>2026-05-03T12:50:17.68Z</time></trkpt><trkpt lat="42.447655" lon="14.1457867"><ele>127.0</ele><time>2026-05-03T12:50:18.679Z</time></trkpt><trkpt lat="42.4477317" lon="14.1459333"><ele>127.5</ele><time>2026-05-03T12:50:19.68Z</time></trkpt><trkpt lat="42.44783" lon="14.1460667"><ele>128.0</ele><time>2026-05-03T12:50:20.679Z</time></trkpt><trkpt lat="42.4479467" lon="14.1461817"><ele>128.5</ele><time>2026-05-03T12:50:21.68Z</time></trkpt><trkpt lat="42.4480833" lon="14.1462783"><ele>129.0</ele><time>2026-05-03T12:50:22.68Z</time></trkpt><trkpt lat="42.448235" lon="14.1463567"><ele>133.33333333333334</ele><time>2026-05-03T12:50:23.679Z</time></trkpt><trkpt lat="42.448385" lon="14.1464083"><ele>137.66666666666669</ele><time>2026-05-03T12:50:24.68Z</time></trkpt><trkpt lat="42.4485417" lon="14.1464333"><ele>142.0</ele><time>2026-05-03T12:50:25.679Z</time></trkpt><trkpt lat="42.4486933" lon="14.1464383"><ele>142.5</ele><time>2026-05-03T12:50:26.679Z</time></trkpt><trkpt lat="42.4488317" lon="14.1464067"><ele>143.0</ele><time>2026-05-03T12:50:27.68Z</time></trkpt><trkpt lat="42.4489583" lon="14.146335"><ele>143.5</ele><time>2026-05-03T12:50:28.679Z</time></trkpt><trkpt lat="42.4490733" lon="14.146225"><ele>144.0</ele><time>2026-05-03T12:50:29.68Z</time></trkpt><trkpt lat="42.449175" lon="14.1460967"><ele>144.0</ele><time>2026-05-03T12:50:30.68Z</time></trkpt><trkpt lat="42.4492733" lon="14.1459483"><ele>144.0</ele><time>2026-05-03T12:50:31.68Z</time></trkpt><trkpt lat="42.4493683" lon="14.1457783"><ele>144.0</ele><time>2026-05-03T12:50:32.679Z</time></trkpt><trkpt lat="42.44947" lon="14.1455983"><ele>141.33333333333334</ele><time>2026-05-03T12:50:33.679Z</time></trkpt><trkpt lat="42.4495783" lon="14.1454183"><ele>138.66666666666669</ele><time>2026-05-03T12:50:34.679Z</time></trkpt><trkpt lat="42.4496683" lon="14.14522"><ele>136.0</ele><time>2026-05-03T12:50:35.679Z</time></trkpt><trkpt lat="42.4497483" lon="14.1450117"><ele>138.0</ele><time>2026-05-03T12:50:36.68Z</time></trkpt><trkpt lat="42.4498167" lon="14.1448083"><ele>140.0</ele><time>2026-05-03T12:50:37.679Z</time></trkpt><trkpt lat="42.4498767" lon="14.144605"><ele>142.0</ele><time>2026-05-03T12:50:38.68Z</time></trkpt><trkpt lat="42.4499183" lon="14.1443933"><ele>142.0</ele><time>2026-05-03T12:50:39.679Z</time></trkpt><trkpt lat="42.4499483" lon="14.14417"><ele>142.0</ele><time>2026-05-03T12:50:40.68Z</time></trkpt><trkpt lat="42.4499467" lon="14.14393"><ele>142.0</ele><time>2026-05-03T12:50:41.68Z</time></trkpt><trkpt lat="42.4499367" lon="14.1436867"><ele>140.66666666666669</ele><time>2026-05-03T12:50:42.68Z</time></trkpt><trkpt lat="42.4499217" lon="14.1434383"><ele>139.33333333333334</ele><time>2026-05-03T12:50:43.68Z</time></trkpt><trkpt lat="42.4498917" lon="14.1432"><ele>138.0</ele><time>2026-05-03T12:50:44.679Z</time></trkpt><trkpt lat="42.449855" lon="14.142965"><ele>137.66666666666666</ele><time>2026-05-03T12:50:45.679Z</time></trkpt><trkpt lat="42.4497917" lon="14.1427567"><ele>137.33333333333331</ele><time>2026-05-03T12:50:46.679Z</time></trkpt><trkpt lat="42.4497233" lon="14.1425583"><ele>137.0</ele><time>2026-05-03T12:50:47.68Z</time></trkpt><trkpt lat="42.449655" lon="14.1423733"><ele>137.6</ele><time>2026-05-03T12:50:48.68Z</time></trkpt><trkpt lat="42.4496" lon="14.1422183"><ele>138.2</ele><time>2026-05-03T12:50:49.68Z</time></trkpt><trkpt lat="42.4495567" lon="14.14208"><ele>138.8</ele><time>2026-05-03T12:50:50.679Z</time></trkpt><trkpt lat="42.4495433" lon="14.141955"><ele>139.4</ele><time>2026-05-03T12:50:51.679Z</time></trkpt><trkpt lat="42.4495717" lon="14.1418433"><ele>140.0</ele><time>2026-05-03T12:50:52.68Z</time></trkpt><trkpt lat="42.4496333" lon="14.141735"><ele>140.0</ele><time>2026-05-03T12:50:53.68Z</time></trkpt><trkpt lat="42.4497267" lon="14.1416367"><ele>140.0</ele><time>2026-05-03T12:50:54.679Z</time></trkpt><trkpt lat="42.449845" lon="14.1415383"><ele>140.0</ele><time>2026-05-03T12:50:55.679Z</time></trkpt><trkpt lat="42.4499767" lon="14.14146"><ele>140.0</ele><time>2026-05-03T12:50:56.679Z</time></trkpt><trkpt lat="42.45011" lon="14.1413917"><ele>141.25</ele><time>2026-05-03T12:50:57.68Z</time></trkpt><trkpt lat="42.4502467" lon="14.1413267"><ele>142.5</ele><time>2026-05-03T12:50:58.679Z</time></trkpt><trkpt lat="42.4503833" lon="14.1412617"><ele>143.75</ele><time>2026-05-03T12:50:59.679Z</time></trkpt><trkpt lat="42.4505367" lon="14.1412033"><ele>145.0</ele><time>2026-05-03T12:51:00.679Z</time></trkpt><trkpt lat="42.4507033" lon="14.1411433"><ele>146.66666666666669</ele><time>2026-05-03T12:51:01.68Z</time></trkpt><trkpt lat="42.4508867" lon="14.1410867"><ele>148.33333333333334</ele><time>2026-05-03T12:51:02.68Z</time></trkpt><trkpt lat="42.451065" lon="14.141035"><ele>150.0</ele><time>2026-05-03T12:51:03.679Z</time></trkpt><trkpt lat="42.45123" lon="14.1409733"><ele>150.5</ele><time>2026-05-03T12:51:04.679Z</time></trkpt><trkpt lat="42.4513717" lon="14.1409267"><ele>151.0</ele><time>2026-05-03T12:51:05.68Z</time></trkpt><trkpt lat="42.4515217" lon="14.1408983"><ele>151.5</ele><time>2026-05-03T12:51:06.68Z</time></trkpt><trkpt lat="42.45167" lon="14.140875"><ele>152.0</ele><time>2026-05-03T12:51:07.68Z</time></trkpt><trkpt lat="42.451815" lon="14.1408383"><ele>152.0</ele><time>2026-05-03T12:51:08.679Z</time></trkpt><trkpt lat="42.4519517" lon="14.1408167"><ele>152.0</ele><time>2026-05-03T12:51:09.679Z</time></trkpt><trkpt lat="42.45209" lon="14.1407967"><ele>152.0</ele><time>2026-05-03T12:51:10.679Z</time></trkpt><trkpt lat="42.4522167" lon="14.1407767"><ele>152.0</ele><time>2026-05-03T12:51:11.68Z</time></trkpt><trkpt lat="42.45233" lon="14.14075"><ele>152.0</ele><time>2026-05-03T12:51:12.68Z</time></trkpt><trkpt lat="42.4524433" lon="14.14072"><ele>152.0</ele><time>2026-05-03T12:51:13.68Z</time></trkpt><trkpt lat="42.4525567" lon="14.1406917"><ele>152.0</ele><time>2026-05-03T12:51:14.68Z</time></trkpt><trkpt lat="42.4526633" lon="14.140665"><ele>152.0</ele><time>2026-05-03T12:51:15.68Z</time></trkpt><trkpt lat="42.452765" lon="14.140635"><ele>152.0</ele><time>2026-05-03T12:51:16.679Z</time></trkpt><trkpt lat="42.4528583" lon="14.1406083"><ele>152.0</ele><time>2026-05-03T12:51:17.68Z</time></trkpt><trkpt lat="42.452945" lon="14.1405833"><ele>152.0</ele><time>2026-05-03T12:51:18.679Z</time></trkpt><trkpt lat="42.45303" lon="14.1405583"><ele>152.0</ele><time>2026-05-03T12:51:19.68Z</time></trkpt><trkpt lat="42.4531217" lon="14.1405167"><ele>152.0</ele><time>2026-05-03T12:51:20.679Z</time></trkpt><trkpt lat="42.45323" lon="14.1404617"><ele>152.0</ele><time>2026-05-03T12:51:21.68Z</time></trkpt><trkpt lat="42.4533467" lon="14.1403933"><ele>156.25</ele><time>2026-05-03T12:51:22.679Z</time></trkpt><trkpt lat="42.4534583" lon="14.1403267"><ele>160.5</ele><time>2026-05-03T12:51:23.68Z</time></trkpt><trkpt lat="42.4535633" lon="14.14026"><ele>164.75</ele><time>2026-05-03T12:51:24.679Z</time></trkpt><trkpt lat="42.45368" lon="14.1401967"><ele>169.0</ele><time>2026-05-03T12:51:25.679Z</time></trkpt><trkpt lat="42.4537883" lon="14.1401167"><ele>169.75</ele><time>2026-05-03T12:51:26.68Z</time></trkpt><trkpt lat="42.4538817" lon="14.1400233"><ele>170.5</ele><time>2026-05-03T12:51:27.679Z</time></trkpt><trkpt lat="42.45396" lon="14.1399"><ele>171.25</ele><time>2026-05-03T12:51:28.679Z</time></trkpt><trkpt lat="42.4540383" lon="14.1397417"><ele>172.0</ele><time>2026-05-03T12:51:29.68Z</time></trkpt><trkpt lat="42.45412" lon="14.1395733"><ele>172.66666666666669</ele><time>2026-05-03T12:51:30.679Z</time></trkpt><trkpt lat="42.454205" lon="14.1393967"><ele>173.33333333333334</ele><time>2026-05-03T12:51:31.679Z</time></trkpt><trkpt lat="42.45429" lon="14.1392267"><ele>174.0</ele><time>2026-05-03T12:51:32.68Z</time></trkpt><trkpt lat="42.4543767" lon="14.1390683"><ele>173.75</ele><time>2026-05-03T12:51:33.679Z</time></trkpt><trkpt lat="42.454465" lon="14.13891"><ele>173.5</ele><time>2026-05-03T12:51:34.678Z</time></trkpt><trkpt lat="42.4545583" lon="14.138765"><ele>173.25</ele><time>2026-05-03T12:51:35.679Z</time></trkpt><trkpt lat="42.4546433" lon="14.1386167"><ele>173.0</ele><time>2026-05-03T12:51:36.679Z</time></trkpt><trkpt lat="42.454725" lon="14.138485"><ele>173.0</ele><time>2026-05-03T12:51:37.678Z</time></trkpt><trkpt lat="42.454805" lon="14.138345"><ele>173.0</ele><time>2026-05-03T12:51:38.678Z</time></trkpt><trkpt lat="42.4548867" lon="14.1382033"><ele>173.0</ele><time>2026-05-03T12:51:39.678Z</time></trkpt><trkpt lat="42.4549733" lon="14.138065"><ele>173.0</ele><time>2026-05-03T12:51:40.679Z</time></trkpt><trkpt lat="42.455035" lon="14.137905"><ele>173.0</ele><time>2026-05-03T12:51:41.679Z</time></trkpt><trkpt lat="42.4550633" lon="14.1377367"><ele>173.0</ele><time>2026-05-03T12:51:42.678Z</time></trkpt><trkpt lat="42.455065" lon="14.1375583"><ele>173.0</ele><time>2026-05-03T12:51:43.679Z</time></trkpt><trkpt lat="42.4550483" lon="14.1373767"><ele>173.0</ele><time>2026-05-03T12:51:44.678Z</time></trkpt><trkpt lat="42.4550467" lon="14.137205"><ele>173.0</ele><time>2026-05-03T12:51:45.678Z</time></trkpt><trkpt lat="42.4550467" lon="14.1370533"><ele>173.0</ele><time>2026-05-03T12:51:46.678Z</time></trkpt><trkpt lat="42.45504" lon="14.1369083"><ele>173.0</ele><time>2026-05-03T12:51:47.679Z</time></trkpt><trkpt lat="42.4550317" lon="14.1367583"><ele>173.0</ele><time>2026-05-03T12:51:48.679Z</time></trkpt><trkpt lat="42.4550267" lon="14.13662"><ele>173.0</ele><time>2026-05-03T12:51:49.678Z</time></trkpt><trkpt lat="42.455045" lon="14.1365167"><ele>175.0</ele><time>2026-05-03T12:51:50.679Z</time></trkpt><trkpt lat="42.4550783" lon="14.1364283"><ele>177.0</ele><time>2026-05-03T12:51:51.678Z</time></trkpt><trkpt lat="42.4551317" lon="14.13635"><ele>179.0</ele><time>2026-05-03T12:51:52.678Z</time></trkpt><trkpt lat="42.45522" lon="14.1363033"><ele>181.0</ele><time>2026-05-03T12:51:53.678Z</time></trkpt><trkpt lat="42.4553333" lon="14.1362617"><ele>183.0</ele><time>2026-05-03T12:51:54.678Z</time></trkpt><trkpt lat="42.4554533" lon="14.1362017"><ele>182.25</ele><time>2026-05-03T12:51:55.679Z</time></trkpt><trkpt lat="42.4555783" lon="14.1361467"><ele>181.5</ele><time>2026-05-03T12:51:56.678Z</time></trkpt><trkpt lat="42.4556833" lon="14.1360833"><ele>180.75</ele><time>2026-05-03T12:51:57.679Z</time></trkpt><trkpt lat="42.4557883" lon="14.13602"><ele>180.0</ele><time>2026-05-03T12:51:58.679Z</time></trkpt><trkpt lat="42.4558833" lon="14.1359433"><ele>180.0</ele><time>2026-05-03T12:51:59.679Z</time></trkpt><trkpt lat="42.455975" lon="14.1358467"><ele>180.0</ele><time>2026-05-03T12:52:00.679Z</time></trkpt><trkpt lat="42.4560633" lon="14.1357183"><ele>180.0</ele><time>2026-05-03T12:52:01.679Z</time></trkpt><trkpt lat="42.45614" lon="14.1355567"><ele>180.0</ele><time>2026-05-03T12:52:02.679Z</time></trkpt><trkpt lat="42.4562067" lon="14.1353783"><ele>176.0</ele><time>2026-05-03T12:52:03.678Z</time></trkpt><trkpt lat="42.4562717" lon="14.13519"><ele>172.0</ele><time>2026-05-03T12:52:04.678Z</time></trkpt><trkpt lat="42.4563283" lon="14.1349933"><ele>168.0</ele><time>2026-05-03T12:52:05.679Z</time></trkpt><trkpt lat="42.4563917" lon="14.1347983"><ele>168.0</ele><time>2026-05-03T12:52:06.679Z</time></trkpt><trkpt lat="42.4564533" lon="14.134595"><ele>168.0</ele><time>2026-05-03T12:52:07.679Z</time></trkpt><trkpt lat="42.456525" lon="14.1343917"><ele>168.0</ele><time>2026-05-03T12:52:08.679Z</time></trkpt><trkpt lat="42.4565967" lon="14.13418"><ele>168.0</ele><time>2026-05-03T12:52:09.678Z</time></trkpt><trkpt lat="42.4566583" lon="14.1339583"><ele>168.0</ele><time>2026-05-03T12:52:10.678Z</time></trkpt><trkpt lat="42.45671" lon="14.1337317"><ele>168.0</ele><time>2026-05-03T12:52:11.679Z</time></trkpt><trkpt lat="42.4567533" lon="14.1335083"><ele>168.0</ele><time>2026-05-03T12:52:12.679Z</time></trkpt><trkpt lat="42.4567833" lon="14.1332733"><ele>168.0</ele><time>2026-05-03T12:52:13.679Z</time></trkpt><trkpt lat="42.45681" lon="14.1330383"><ele>168.0</ele><time>2026-05-03T12:52:14.678Z</time></trkpt><trkpt lat="42.4568417" lon="14.132805"><ele>167.33333333333334</ele><time>2026-05-03T12:52:15.679Z</time></trkpt><trkpt lat="42.4568917" lon="14.1325717"><ele>166.66666666666669</ele><time>2026-05-03T12:52:16.678Z</time></trkpt><trkpt lat="42.4569617" lon="14.13234"><ele>166.0</ele><time>2026-05-03T12:52:17.678Z</time></trkpt><trkpt lat="42.45705" lon="14.1321"><ele>164.0</ele><time>2026-05-03T12:52:18.679Z</time></trkpt><trkpt lat="42.4571517" lon="14.1318683"><ele>162.0</ele><time>2026-05-03T12:52:19.678Z</time></trkpt><trkpt lat="42.4572483" lon="14.1316517"><ele>160.0</ele><time>2026-05-03T12:52:20.679Z</time></trkpt><trkpt lat="42.4573483" lon="14.13143"><ele>160.0</ele><time>2026-05-03T12:52:21.678Z</time></trkpt><trkpt lat="42.4574433" lon="14.1312067"><ele>160.0</ele><time>2026-05-03T12:52:22.679Z</time></trkpt><trkpt lat="42.4575317" lon="14.1309917"><ele>160.0</ele><time>2026-05-03T12:52:23.679Z</time></trkpt><trkpt lat="42.4576317" lon="14.1307967"><ele>160.33333333333334</ele><time>2026-05-03T12:52:24.679Z</time></trkpt><trkpt lat="42.4577467" lon="14.1306183"><ele>160.66666666666666</ele><time>2026-05-03T12:52:25.679Z</time></trkpt><trkpt lat="42.457875" lon="14.13045"><ele>161.0</ele><time>2026-05-03T12:52:26.678Z</time></trkpt><trkpt lat="42.458025" lon="14.1303083"><ele>160.66666666666666</ele><time>2026-05-03T12:52:27.678Z</time></trkpt><trkpt lat="42.4581767" lon="14.1301717"><ele>160.33333333333334</ele><time>2026-05-03T12:52:28.679Z</time></trkpt><trkpt lat="42.45831" lon="14.1300183"><ele>160.0</ele><time>2026-05-03T12:52:29.678Z</time></trkpt><trkpt lat="42.4584233" lon="14.1298433"><ele>160.0</ele><time>2026-05-03T12:52:30.678Z</time></trkpt><trkpt lat="42.45852" lon="14.129665"><ele>160.0</ele><time>2026-05-03T12:52:31.678Z</time></trkpt><trkpt lat="42.4586" lon="14.1294583"><ele>160.0</ele><time>2026-05-03T12:52:32.678Z</time></trkpt><trkpt lat="42.4586683" lon="14.1292483"><ele>158.33333333333334</ele><time>2026-05-03T12:52:33.678Z</time></trkpt><trkpt lat="42.458705" lon="14.1290317"><ele>156.66666666666666</ele><time>2026-05-03T12:52:34.679Z</time></trkpt><trkpt lat="42.4587183" lon="14.1288133"><ele>155.0</ele><time>2026-05-03T12:52:35.679Z</time></trkpt><trkpt lat="42.4587083" lon="14.1285983"><ele>155.0</ele><time>2026-05-03T12:52:36.679Z</time></trkpt><trkpt lat="42.4586767" lon="14.12838"><ele>155.0</ele><time>2026-05-03T12:52:37.679Z</time></trkpt><trkpt lat="42.4586133" lon="14.1281667"><ele>155.0</ele><time>2026-05-03T12:52:38.678Z</time></trkpt><trkpt lat="42.4585383" lon="14.12795"><ele>157.66666666666666</ele><time>2026-05-03T12:52:39.679Z</time></trkpt><trkpt lat="42.4584667" lon="14.127745"><ele>160.33333333333334</ele><time>2026-05-03T12:52:40.679Z</time></trkpt><trkpt lat="42.4583883" lon="14.127555"><ele>163.0</ele><time>2026-05-03T12:52:41.679Z</time></trkpt><trkpt lat="42.4583017" lon="14.1273833"><ele>165.66666666666669</ele><time>2026-05-03T12:52:42.679Z</time></trkpt><trkpt lat="42.4581967" lon="14.127235"><ele>168.33333333333334</ele><time>2026-05-03T12:52:43.679Z</time></trkpt><trkpt lat="42.4580783" lon="14.1271017"><ele>171.0</ele><time>2026-05-03T12:52:44.679Z</time></trkpt><trkpt lat="42.4579567" lon="14.126955"><ele>169.66666666666666</ele><time>2026-05-03T12:52:45.679Z</time></trkpt><trkpt lat="42.457835" lon="14.1267667"><ele>168.33333333333331</ele><time>2026-05-03T12:52:46.679Z</time></trkpt><trkpt lat="42.4577333" lon="14.1265667"><ele>167.0</ele><time>2026-05-03T12:52:47.679Z</time></trkpt><trkpt lat="42.4576267" lon="14.1263733"><ele>167.0</ele><time>2026-05-03T12:52:48.679Z</time></trkpt><trkpt lat="42.45753" lon="14.1261783"><ele>167.0</ele><time>2026-05-03T12:52:49.679Z</time></trkpt><trkpt lat="42.4574383" lon="14.1259683"><ele>167.0</ele><time>2026-05-03T12:52:50.679Z</time></trkpt><trkpt lat="42.4573633" lon="14.1257733"><ele>168.75</ele><time>2026-05-03T12:52:51.678Z</time></trkpt><trkpt lat="42.457305" lon="14.12559"><ele>170.5</ele><time>2026-05-03T12:52:52.678Z</time></trkpt><trkpt lat="42.4572717" lon="14.1254133"><ele>172.25</ele><time>2026-05-03T12:52:53.679Z</time></trkpt><trkpt lat="42.45725" lon="14.12523"><ele>174.0</ele><time>2026-05-03T12:52:54.678Z</time></trkpt><trkpt lat="42.4572367" lon="14.1250383"><ele>173.0</ele><time>2026-05-03T12:52:55.679Z</time></trkpt><trkpt lat="42.4572367" lon="14.1248367"><ele>172.0</ele><time>2026-05-03T12:52:56.679Z</time></trkpt><trkpt lat="42.4572567" lon="14.1246267"><ele>171.0</ele><time>2026-05-03T12:52:57.678Z</time></trkpt><trkpt lat="42.4572883" lon="14.12441"><ele>171.0</ele><time>2026-05-03T12:52:58.678Z</time></trkpt><trkpt lat="42.4573317" lon="14.124185"><ele>171.0</ele><time>2026-05-03T12:52:59.678Z</time></trkpt><trkpt lat="42.457385" lon="14.1239583"><ele>171.0</ele><time>2026-05-03T12:53:00.679Z</time></trkpt><trkpt lat="42.45745" lon="14.1237317"><ele>168.66666666666666</ele><time>2026-05-03T12:53:01.678Z</time></trkpt><trkpt lat="42.457515" lon="14.1235"><ele>166.33333333333331</ele><time>2026-05-03T12:53:02.678Z</time></trkpt><trkpt lat="42.4575833" lon="14.1232733"><ele>164.0</ele><time>2026-05-03T12:53:03.679Z</time></trkpt><trkpt lat="42.4576417" lon="14.12306"><ele>163.33333333333331</ele><time>2026-05-03T12:53:04.679Z</time></trkpt><trkpt lat="42.457705" lon="14.12285"><ele>162.66666666666666</ele><time>2026-05-03T12:53:05.678Z</time></trkpt><trkpt lat="42.4577667" lon="14.1226567"><ele>162.0</ele><time>2026-05-03T12:53:06.678Z</time></trkpt><trkpt lat="42.457825" lon="14.12247"><ele>161.33333333333334</ele><time>2026-05-03T12:53:07.679Z</time></trkpt><trkpt lat="42.45789" lon="14.1222883"><ele>160.66666666666669</ele><time>2026-05-03T12:53:08.679Z</time></trkpt><trkpt lat="42.4579733" lon="14.122115"><ele>160.0</ele><time>2026-05-03T12:53:09.678Z</time></trkpt><trkpt lat="42.4580717" lon="14.121945"><ele>160.0</ele><time>2026-05-03T12:53:10.679Z</time></trkpt><trkpt lat="42.4581867" lon="14.1217717"><ele>160.0</ele><time>2026-05-03T12:53:11.678Z</time></trkpt><trkpt lat="42.45833" lon="14.12162"><ele>160.0</ele><time>2026-05-03T12:53:12.679Z</time></trkpt><trkpt lat="42.4584833" lon="14.1214767"><ele>160.0</ele><time>2026-05-03T12:53:13.678Z</time></trkpt><trkpt lat="42.4586333" lon="14.121325"><ele>160.0</ele><time>2026-05-03T12:53:14.678Z</time></trkpt><trkpt lat="42.4587817" lon="14.1211667"><ele>160.0</ele><time>2026-05-03T12:53:15.679Z</time></trkpt><trkpt lat="42.4589267" lon="14.1210183"><ele>160.0</ele><time>2026-05-03T12:53:16.679Z</time></trkpt><trkpt lat="42.45906" lon="14.1208783"><ele>160.0</ele><time>2026-05-03T12:53:17.678Z</time></trkpt><trkpt lat="42.4591883" lon="14.12074"><ele>160.0</ele><time>2026-05-03T12:53:18.679Z</time></trkpt><trkpt lat="42.4593117" lon="14.1206183"><ele>160.0</ele><time>2026-05-03T12:53:19.679Z</time></trkpt><trkpt lat="42.4594317" lon="14.1204967"><ele>160.0</ele><time>2026-05-03T12:53:20.678Z</time></trkpt><trkpt lat="42.4595467" lon="14.120375"><ele>160.0</ele><time>2026-05-03T12:53:21.679Z</time></trkpt><trkpt lat="42.4596533" lon="14.1202733"><ele>160.0</ele><time>2026-05-03T12:53:22.678Z</time></trkpt><trkpt lat="42.45975" lon="14.1201917"><ele>160.0</ele><time>2026-05-03T12:53:23.679Z</time></trkpt><trkpt lat="42.4598233" lon="14.12013"><ele>160.0</ele><time>2026-05-03T12:53:24.678Z</time></trkpt><trkpt lat="42.4598883" lon="14.1200867"><ele>160.0</ele><time>2026-05-03T12:53:25.678Z</time></trkpt><trkpt lat="42.45995" lon="14.1200667"><ele>160.0</ele><time>2026-05-03T12:53:26.678Z</time></trkpt><trkpt lat="42.460025" lon="14.12005"><ele>160.0</ele><time>2026-05-03T12:53:27.679Z</time></trkpt><trkpt lat="42.4601117" lon="14.120015"><ele>160.0</ele><time>2026-05-03T12:53:28.679Z</time></trkpt><trkpt lat="42.460215" lon="14.1199917"><ele>160.0</ele><time>2026-05-03T12:53:29.678Z</time></trkpt><trkpt lat="42.4603217" lon="14.120005"><ele>160.0</ele><time>2026-05-03T12:53:30.678Z</time></trkpt><trkpt lat="42.4604467" lon="14.1200567"><ele>160.0</ele><time>2026-05-03T12:53:31.679Z</time></trkpt><trkpt lat="42.460575" lon="14.1201217"><ele>160.0</ele><time>2026-05-03T12:53:32.679Z</time></trkpt><trkpt lat="42.4607117" lon="14.1201867"><ele>160.66666666666669</ele><time>2026-05-03T12:53:33.678Z</time></trkpt><trkpt lat="42.4608633" lon="14.1202333"><ele>161.33333333333334</ele><time>2026-05-03T12:53:34.678Z</time></trkpt><trkpt lat="42.4610183" lon="14.1202767"><ele>162.0</ele><time>2026-05-03T12:53:35.679Z</time></trkpt><trkpt lat="42.4611783" lon="14.1203117"><ele>164.33333333333334</ele><time>2026-05-03T12:53:36.679Z</time></trkpt><trkpt lat="42.4613283" lon="14.1203683"><ele>166.66666666666669</ele><time>2026-05-03T12:53:37.679Z</time></trkpt><trkpt lat="42.4614683" lon="14.1204617"><ele>169.0</ele><time>2026-05-03T12:53:38.679Z</time></trkpt><trkpt lat="42.461615" lon="14.12058"><ele>169.0</ele><time>2026-05-03T12:53:39.679Z</time></trkpt><trkpt lat="42.4617667" lon="14.1207033"><ele>169.0</ele><time>2026-05-03T12:53:40.679Z</time></trkpt><trkpt lat="42.46192" lon="14.1208283"><ele>169.0</ele><time>2026-05-03T12:53:41.678Z</time></trkpt><trkpt lat="42.462075" lon="14.12095"><ele>168.0</ele><time>2026-05-03T12:53:42.679Z</time></trkpt><trkpt lat="42.4622333" lon="14.121065"><ele>167.0</ele><time>2026-05-03T12:53:43.679Z</time></trkpt><trkpt lat="42.4624" lon="14.121185"><ele>166.0</ele><time>2026-05-03T12:53:44.679Z</time></trkpt><trkpt lat="42.4625667" lon="14.1213"><ele>166.0</ele><time>2026-05-03T12:53:45.678Z</time></trkpt><trkpt lat="42.46273" lon="14.1214067"><ele>166.0</ele><time>2026-05-03T12:53:46.679Z</time></trkpt><trkpt lat="42.462885" lon="14.12153"><ele>166.0</ele><time>2026-05-03T12:53:47.679Z</time></trkpt><trkpt lat="42.46304" lon="14.1216433"><ele>162.33333333333334</ele><time>2026-05-03T12:53:48.678Z</time></trkpt><trkpt lat="42.46319" lon="14.1217617"><ele>158.66666666666666</ele><time>2026-05-03T12:53:49.678Z</time></trkpt><trkpt lat="42.4633417" lon="14.1218683"><ele>155.0</ele><time>2026-05-03T12:53:50.679Z</time></trkpt><trkpt lat="42.46349" lon="14.1219683"><ele>155.0</ele><time>2026-05-03T12:53:51.678Z</time></trkpt><trkpt lat="42.46363" lon="14.1220733"><ele>155.0</ele><time>2026-05-03T12:53:52.679Z</time></trkpt><trkpt lat="42.463755" lon="14.1221883"><ele>155.0</ele><time>2026-05-03T12:53:53.678Z</time></trkpt><trkpt lat="42.463865" lon="14.12232"><ele>153.0</ele><time>2026-05-03T12:53:54.679Z</time></trkpt><trkpt lat="42.46397" lon="14.1224783"><ele>151.0</ele><time>2026-05-03T12:53:55.679Z</time></trkpt><trkpt lat="42.4640617" lon="14.1226667"><ele>149.0</ele><time>2026-05-03T12:53:56.678Z</time></trkpt><trkpt lat="42.464155" lon="14.122865"><ele>149.0</ele><time>2026-05-03T12:53:57.679Z</time></trkpt><trkpt lat="42.4642267" lon="14.1230617"><ele>149.0</ele><time>2026-05-03T12:53:58.678Z</time></trkpt><trkpt lat="42.4642917" lon="14.1232667"><ele>149.0</ele><time>2026-05-03T12:53:59.678Z</time></trkpt><trkpt lat="42.464345" lon="14.1234733"><ele>149.0</ele><time>2026-05-03T12:54:00.678Z</time></trkpt><trkpt lat="42.4643933" lon="14.1236683"><ele>149.0</ele><time>2026-05-03T12:54:01.678Z</time></trkpt><trkpt lat="42.46445" lon="14.123865"><ele>149.0</ele><time>2026-05-03T12:54:02.678Z</time></trkpt><trkpt lat="42.46453" lon="14.12405"><ele>146.33333333333331</ele><time>2026-05-03T12:54:03.679Z</time></trkpt><trkpt lat="42.4646283" lon="14.1242283"><ele>143.66666666666666</ele><time>2026-05-03T12:54:04.679Z</time></trkpt><trkpt lat="42.4647533" lon="14.1243917"><ele>141.0</ele><time>2026-05-03T12:54:05.679Z</time></trkpt><trkpt lat="42.4648767" lon="14.124545"><ele>141.0</ele><time>2026-05-03T12:54:06.678Z</time></trkpt><trkpt lat="42.4649917" lon="14.1247033"><ele>141.0</ele><time>2026-05-03T12:54:07.679Z</time></trkpt><trkpt lat="42.4650983" lon="14.1248817"><ele>141.0</ele><time>2026-05-03T12:54:08.678Z</time></trkpt><trkpt lat="42.4651967" lon="14.1250683"><ele>139.33333333333334</ele><time>2026-05-03T12:54:09.678Z</time></trkpt><trkpt lat="42.4652967" lon="14.12525"><ele>137.66666666666669</ele><time>2026-05-03T12:54:10.678Z</time></trkpt><trkpt lat="42.4654017" lon="14.1254233"><ele>136.0</ele><time>2026-05-03T12:54:11.678Z</time></trkpt><trkpt lat="42.4655133" lon="14.1255883"><ele>138.33333333333334</ele><time>2026-05-03T12:54:12.678Z</time></trkpt><trkpt lat="42.46563" lon="14.1257367"><ele>140.66666666666666</ele><time>2026-05-03T12:54:13.679Z</time></trkpt><trkpt lat="42.4657533" lon="14.1258733"><ele>143.0</ele><time>2026-05-03T12:54:14.678Z</time></trkpt><trkpt lat="42.465885" lon="14.12598"><ele>143.0</ele><time>2026-05-03T12:54:15.678Z</time></trkpt><trkpt lat="42.46602" lon="14.1260483"><ele>143.0</ele><time>2026-05-03T12:54:16.679Z</time></trkpt><trkpt lat="42.4661683" lon="14.1260917"><ele>143.0</ele><time>2026-05-03T12:54:17.678Z</time></trkpt><trkpt lat="42.466335" lon="14.1261133"><ele>140.75</ele><time>2026-05-03T12:54:18.679Z</time></trkpt><trkpt lat="42.4664883" lon="14.1261317"><ele>138.5</ele><time>2026-05-03T12:54:19.679Z</time></trkpt><trkpt lat="42.4666133" lon="14.1261883"><ele>136.25</ele><time>2026-05-03T12:54:20.679Z</time></trkpt><trkpt lat="42.4667217" lon="14.1262683"><ele>134.0</ele><time>2026-05-03T12:54:21.678Z</time></trkpt><trkpt lat="42.4668183" lon="14.126395"><ele>134.0</ele><time>2026-05-03T12:54:22.678Z</time></trkpt><trkpt lat="42.4669017" lon="14.126555"><ele>134.0</ele><time>2026-05-03T12:54:23.678Z</time></trkpt><trkpt lat="42.466995" lon="14.1267533"><ele>134.0</ele><time>2026-05-03T12:54:24.678Z</time></trkpt><trkpt lat="42.4670967" lon="14.1269667"><ele>134.33333333333331</ele><time>2026-05-03T12:54:25.679Z</time></trkpt><trkpt lat="42.4671967" lon="14.1271883"><ele>134.66666666666666</ele><time>2026-05-03T12:54:26.677Z</time></trkpt><trkpt lat="42.4672933" lon="14.1274133"><ele>135.0</ele><time>2026-05-03T12:54:27.677Z</time></trkpt><trkpt lat="42.467385" lon="14.1276267"><ele>138.33333333333334</ele><time>2026-05-03T12:54:28.678Z</time></trkpt><trkpt lat="42.467465" lon="14.1278383"><ele>141.66666666666669</ele><time>2026-05-03T12:54:29.677Z</time></trkpt><trkpt lat="42.4675333" lon="14.1280383"><ele>145.0</ele><time>2026-05-03T12:54:30.678Z</time></trkpt><trkpt lat="42.4676" lon="14.1282383"><ele>145.5</ele><time>2026-05-03T12:54:31.677Z</time></trkpt><trkpt lat="42.4676733" lon="14.1284233"><ele>146.0</ele><time>2026-05-03T12:54:32.678Z</time></trkpt><trkpt lat="42.4677517" lon="14.1285783"><ele>146.5</ele><time>2026-05-03T12:54:33.678Z</time></trkpt><trkpt lat="42.4678483" lon="14.1286933"><ele>147.0</ele><time>2026-05-03T12:54:34.677Z</time></trkpt><trkpt lat="42.4679733" lon="14.12878"><ele>150.33333333333334</ele><time>2026-05-03T12:54:35.677Z</time></trkpt><trkpt lat="42.4681267" lon="14.1288283"><ele>153.66666666666669</ele><time>2026-05-03T12:54:36.677Z</time></trkpt><trkpt lat="42.4683033" lon="14.1288817"><ele>157.0</ele><time>2026-05-03T12:54:37.677Z</time></trkpt><trkpt lat="42.4684867" lon="14.1289433"><ele>157.0</ele><time>2026-05-03T12:54:38.678Z</time></trkpt><trkpt lat="42.4686733" lon="14.129005"><ele>157.0</ele><time>2026-05-03T12:54:39.678Z</time></trkpt><trkpt lat="42.4688517" lon="14.1290717"><ele>157.0</ele><time>2026-05-03T12:54:40.677Z</time></trkpt><trkpt lat="42.4690217" lon="14.12914"><ele>154.66666666666669</ele><time>2026-05-03T12:54:41.678Z</time></trkpt><trkpt lat="42.4691833" lon="14.1292083"><ele>152.33333333333334</ele><time>2026-05-03T12:54:42.677Z</time></trkpt><trkpt lat="42.4693283" lon="14.1293117"><ele>150.0</ele><time>2026-05-03T12:54:43.677Z</time></trkpt><trkpt lat="42.4694717" lon="14.1294517"><ele>150.0</ele><time>2026-05-03T12:54:44.677Z</time></trkpt><trkpt lat="42.46962" lon="14.12961"><ele>150.0</ele><time>2026-05-03T12:54:45.677Z</time></trkpt><trkpt lat="42.4697717" lon="14.1297733"><ele>150.0</ele><time>2026-05-03T12:54:46.678Z</time></trkpt><trkpt lat="42.4699267" lon="14.1299517"><ele>150.0</ele><time>2026-05-03T12:54:47.677Z</time></trkpt><trkpt lat="42.4700817" lon="14.1301433"><ele>150.0</ele><time>2026-05-03T12:54:48.677Z</time></trkpt><trkpt lat="42.4702317" lon="14.1303383"><ele>150.0</ele><time>2026-05-03T12:54:49.677Z</time></trkpt><trkpt lat="42.47039" lon="14.13053"><ele>148.0</ele><time>2026-05-03T12:54:50.678Z</time></trkpt><trkpt lat="42.4705433" lon="14.1307267"><ele>146.0</ele><time>2026-05-03T12:54:51.678Z</time></trkpt><trkpt lat="42.4707017" lon="14.130915"><ele>144.0</ele><time>2026-05-03T12:54:52.678Z</time></trkpt><trkpt lat="42.47085" lon="14.13111"><ele>144.0</ele><time>2026-05-03T12:54:53.678Z</time></trkpt><trkpt lat="42.4709967" lon="14.1312867"><ele>144.0</ele><time>2026-05-03T12:54:54.678Z</time></trkpt><trkpt lat="42.4711317" lon="14.1314517"><ele>144.0</ele><time>2026-05-03T12:54:55.678Z</time></trkpt><trkpt lat="42.4712667" lon="14.1316033"><ele>143.5</ele><time>2026-05-03T12:54:56.677Z</time></trkpt><trkpt lat="42.47137" lon="14.1317517"><ele>143.0</ele><time>2026-05-03T12:54:57.678Z</time></trkpt><trkpt lat="42.4714517" lon="14.1318983"><ele>142.5</ele><time>2026-05-03T12:54:58.677Z</time></trkpt><trkpt lat="42.471505" lon="14.1320667"><ele>142.0</ele><time>2026-05-03T12:54:59.677Z</time></trkpt><trkpt lat="42.4715283" lon="14.1322617"><ele>144.0</ele><time>2026-05-03T12:55:00.678Z</time></trkpt><trkpt lat="42.4715367" lon="14.1324717"><ele>146.0</ele><time>2026-05-03T12:55:01.678Z</time></trkpt><trkpt lat="42.47155" lon="14.1326817"><ele>148.0</ele><time>2026-05-03T12:55:02.677Z</time></trkpt><trkpt lat="42.4715883" lon="14.1328783"><ele>148.0</ele><time>2026-05-03T12:55:03.677Z</time></trkpt><trkpt lat="42.4716533" lon="14.13306"><ele>148.0</ele><time>2026-05-03T12:55:04.678Z</time></trkpt><trkpt lat="42.471735" lon="14.1331983"><ele>148.0</ele><time>2026-05-03T12:55:05.678Z</time></trkpt><trkpt lat="42.471835" lon="14.133295"><ele>148.0</ele><time>2026-05-03T12:55:06.678Z</time></trkpt><trkpt lat="42.471955" lon="14.13336"><ele>148.0</ele><time>2026-05-03T12:55:07.677Z</time></trkpt><trkpt lat="42.4720917" lon="14.1333817"><ele>148.0</ele><time>2026-05-03T12:55:08.678Z</time></trkpt><trkpt lat="42.4722283" lon="14.1333683"><ele>148.0</ele><time>2026-05-03T12:55:09.677Z</time></trkpt><trkpt lat="42.4723583" lon="14.13337"><ele>148.0</ele><time>2026-05-03T12:55:10.677Z</time></trkpt><trkpt lat="42.4724783" lon="14.13342"><ele>150.5</ele><time>2026-05-03T12:55:11.678Z</time></trkpt><trkpt lat="42.472595" lon="14.1335117"><ele>153.0</ele><time>2026-05-03T12:55:12.678Z</time></trkpt><trkpt lat="42.4727133" lon="14.1336483"><ele>155.5</ele><time>2026-05-03T12:55:13.677Z</time></trkpt><trkpt lat="42.47283" lon="14.133795"><ele>158.0</ele><time>2026-05-03T12:55:14.678Z</time></trkpt><trkpt lat="42.47296" lon="14.1339183"><ele>160.66666666666666</ele><time>2026-05-03T12:55:15.678Z</time></trkpt><trkpt lat="42.4731" lon="14.1340083"><ele>163.33333333333334</ele><time>2026-05-03T12:55:16.677Z</time></trkpt><trkpt lat="42.4732333" lon="14.13411"><ele>166.0</ele><time>2026-05-03T12:55:17.678Z</time></trkpt><trkpt lat="42.4733617" lon="14.134235"><ele>166.0</ele><time>2026-05-03T12:55:18.677Z</time></trkpt><trkpt lat="42.4734633" lon="14.1343733"><ele>166.0</ele><time>2026-05-03T12:55:19.677Z</time></trkpt><trkpt lat="42.4735333" lon="14.134525"><ele>166.0</ele><time>2026-05-03T12:55:20.678Z</time></trkpt><trkpt lat="42.4735817" lon="14.1346883"><ele>166.0</ele><time>2026-05-03T12:55:21.678Z</time></trkpt><trkpt lat="42.4736067" lon="14.1348717"><ele>164.0</ele><time>2026-05-03T12:55:22.678Z</time></trkpt><trkpt lat="42.4736367" lon="14.1350583"><ele>162.0</ele><time>2026-05-03T12:55:23.677Z</time></trkpt><trkpt lat="42.4736783" lon="14.1352333"><ele>160.0</ele><time>2026-05-03T12:55:24.678Z</time></trkpt><trkpt lat="42.4737367" lon="14.1353683"><ele>158.0</ele><time>2026-05-03T12:55:25.677Z</time></trkpt><trkpt lat="42.4738333" lon="14.13547"><ele>160.0</ele><time>2026-05-03T12:55:26.677Z</time></trkpt><trkpt lat="42.4739467" lon="14.13555"><ele>162.0</ele><time>2026-05-03T12:55:27.678Z</time></trkpt><trkpt lat="42.4740867" lon="14.135605"><ele>164.0</ele><time>2026-05-03T12:55:28.678Z</time></trkpt><trkpt lat="42.4742317" lon="14.1356767"><ele>166.0</ele><time>2026-05-03T12:55:29.678Z</time></trkpt><trkpt lat="42.4743583" lon="14.1357633"><ele>166.0</ele><time>2026-05-03T12:55:30.678Z</time></trkpt><trkpt lat="42.47448" lon="14.1358833"><ele>166.0</ele><time>2026-05-03T12:55:31.678Z</time></trkpt><trkpt lat="42.4745967" lon="14.136"><ele>166.0</ele><time>2026-05-03T12:55:32.677Z</time></trkpt><trkpt lat="42.4747233" lon="14.1360883"><ele>166.0</ele><time>2026-05-03T12:55:33.677Z</time></trkpt><trkpt lat="42.474855" lon="14.1361467"><ele>170.25</ele><time>2026-05-03T12:55:34.677Z</time></trkpt><trkpt lat="42.4749833" lon="14.1361867"><ele>174.5</ele><time>2026-05-03T12:55:35.678Z</time></trkpt><trkpt lat="42.4751" lon="14.1362417"><ele>178.75</ele><time>2026-05-03T12:55:36.678Z</time></trkpt><trkpt lat="42.4752" lon="14.1363283"><ele>183.0</ele><time>2026-05-03T12:55:37.678Z</time></trkpt><trkpt lat="42.4752883" lon="14.1364667"><ele>183.0</ele><time>2026-05-03T12:55:38.677Z</time></trkpt><trkpt lat="42.4753867" lon="14.1366183"><ele>183.0</ele><time>2026-05-03T12:55:39.677Z</time></trkpt><trkpt lat="42.4755267" lon="14.1367583"><ele>183.0</ele><time>2026-05-03T12:55:40.678Z</time></trkpt><trkpt lat="42.475685" lon="14.1368817"><ele>183.0</ele><time>2026-05-03T12:55:41.677Z</time></trkpt><trkpt lat="42.4758583" lon="14.137"><ele>183.0</ele><time>2026-05-03T12:55:42.677Z</time></trkpt><trkpt lat="42.476025" lon="14.1371117"><ele>183.0</ele><time>2026-05-03T12:55:43.677Z</time></trkpt><trkpt lat="42.47619" lon="14.1372017"><ele>181.66666666666666</ele><time>2026-05-03T12:55:44.677Z</time></trkpt><trkpt lat="42.4763367" lon="14.1372983"><ele>180.33333333333331</ele><time>2026-05-03T12:55:45.678Z</time></trkpt><trkpt lat="42.47649" lon="14.1373633"><ele>179.0</ele><time>2026-05-03T12:55:46.678Z</time></trkpt><trkpt lat="42.4766483" lon="14.137415"><ele>179.0</ele><time>2026-05-03T12:55:47.677Z</time></trkpt><trkpt lat="42.4768083" lon="14.1374467"><ele>179.0</ele><time>2026-05-03T12:55:48.677Z</time></trkpt><trkpt lat="42.4769717" lon="14.137445"><ele>179.0</ele><time>2026-05-03T12:55:49.678Z</time></trkpt><trkpt lat="42.4771333" lon="14.1374533"><ele>180.0</ele><time>2026-05-03T12:55:50.677Z</time></trkpt><trkpt lat="42.4772983" lon="14.1374483"><ele>181.0</ele><time>2026-05-03T12:55:51.677Z</time></trkpt><trkpt lat="42.4774583" lon="14.13742"><ele>182.0</ele><time>2026-05-03T12:55:52.678Z</time></trkpt><trkpt lat="42.4776233" lon="14.1373617"><ele>180.0</ele><time>2026-05-03T12:55:53.678Z</time></trkpt><trkpt lat="42.477775" lon="14.13729"><ele>178.0</ele><time>2026-05-03T12:55:54.678Z</time></trkpt><trkpt lat="42.4779167" lon="14.1372283"><ele>176.0</ele><time>2026-05-03T12:55:55.677Z</time></trkpt><trkpt lat="42.4780517" lon="14.1371867"><ele>174.0</ele><time>2026-05-03T12:55:56.677Z</time></trkpt><trkpt lat="42.4781817" lon="14.1371667"><ele>172.5</ele><time>2026-05-03T12:55:57.677Z</time></trkpt><trkpt lat="42.4783067" lon="14.1371967"><ele>171.0</ele><time>2026-05-03T12:55:58.678Z</time></trkpt><trkpt lat="42.47844" lon="14.1372467"><ele>169.5</ele><time>2026-05-03T12:55:59.678Z</time></trkpt><trkpt lat="42.47857" lon="14.1372867"><ele>168.0</ele><time>2026-05-03T12:56:00.678Z</time></trkpt><trkpt lat="42.4787083" lon="14.137305"><ele>167.75</ele><time>2026-05-03T12:56:01.677Z</time></trkpt><trkpt lat="42.4788467" lon="14.137255"><ele>167.5</ele><time>2026-05-03T12:56:02.678Z</time></trkpt><trkpt lat="42.4789933" lon="14.137175"><ele>167.25</ele><time>2026-05-03T12:56:03.677Z</time></trkpt><trkpt lat="42.47912" lon="14.1370783"><ele>167.0</ele><time>2026-05-03T12:56:04.677Z</time></trkpt><trkpt lat="42.479235" lon="14.1369617"><ele>167.0</ele><time>2026-05-03T12:56:05.678Z</time></trkpt><trkpt lat="42.479335" lon="14.13682"><ele>167.0</ele><time>2026-05-03T12:56:06.678Z</time></trkpt><trkpt lat="42.4794267" lon="14.136655"><ele>167.0</ele><time>2026-05-03T12:56:07.678Z</time></trkpt><trkpt lat="42.4795067" lon="14.1364933"><ele>167.0</ele><time>2026-05-03T12:56:08.677Z</time></trkpt><trkpt lat="42.4796033" lon="14.1363417"><ele>166.5</ele><time>2026-05-03T12:56:09.678Z</time></trkpt><trkpt lat="42.4797133" lon="14.1361983"><ele>166.0</ele><time>2026-05-03T12:56:10.677Z</time></trkpt><trkpt lat="42.479815" lon="14.1360617"><ele>165.5</ele><time>2026-05-03T12:56:11.678Z</time></trkpt><trkpt lat="42.4798917" lon="14.13591"><ele>165.0</ele><time>2026-05-03T12:56:12.677Z</time></trkpt><trkpt lat="42.4799433" lon="14.1357283"><ele>163.0</ele><time>2026-05-03T12:56:13.678Z</time></trkpt><trkpt lat="42.4799833" lon="14.135545"><ele>161.0</ele><time>2026-05-03T12:56:14.677Z</time></trkpt><trkpt lat="42.4800333" lon="14.135375"><ele>159.0</ele><time>2026-05-03T12:56:15.677Z</time></trkpt><trkpt lat="42.4801067" lon="14.135215"><ele>157.0</ele><time>2026-05-03T12:56:16.677Z</time></trkpt><trkpt lat="42.4801917" lon="14.13508"><ele>157.0</ele><time>2026-05-03T12:56:17.678Z</time></trkpt><trkpt lat="42.4802967" lon="14.1349617"><ele>157.0</ele><time>2026-05-03T12:56:18.677Z</time></trkpt><trkpt lat="42.4804217" lon="14.134865"><ele>157.0</ele><time>2026-05-03T12:56:19.677Z</time></trkpt><trkpt lat="42.4805317" lon="14.1347733"><ele>157.0</ele><time>2026-05-03T12:56:20.678Z</time></trkpt><trkpt lat="42.480635" lon="14.1347417"><ele>157.25</ele><time>2026-05-03T12:56:21.677Z</time></trkpt><trkpt lat="42.4807417" lon="14.134755"><ele>157.5</ele><time>2026-05-03T12:56:22.678Z</time></trkpt><trkpt lat="42.4808433" lon="14.1348133"><ele>157.75</ele><time>2026-05-03T12:56:23.678Z</time></trkpt><trkpt lat="42.480945" lon="14.1349333"><ele>158.0</ele><time>2026-05-03T12:56:24.677Z</time></trkpt><trkpt lat="42.4810383" lon="14.135075"><ele>158.0</ele><time>2026-05-03T12:56:25.677Z</time></trkpt><trkpt lat="42.4811133" lon="14.1352467"><ele>158.0</ele><time>2026-05-03T12:56:26.677Z</time></trkpt><trkpt lat="42.4811817" lon="14.1354433"><ele>158.0</ele><time>2026-05-03T12:56:27.678Z</time></trkpt><trkpt lat="42.4812467" lon="14.1356517"><ele>154.33333333333331</ele><time>2026-05-03T12:56:28.677Z</time></trkpt><trkpt lat="42.4813117" lon="14.13586"><ele>150.66666666666666</ele><time>2026-05-03T12:56:29.678Z</time></trkpt><trkpt lat="42.4813783" lon="14.1360567"><ele>147.0</ele><time>2026-05-03T12:56:30.677Z</time></trkpt><trkpt lat="42.4814417" lon="14.13623"><ele>147.0</ele><time>2026-05-03T12:56:31.677Z</time></trkpt><trkpt lat="42.481505" lon="14.1363767"><ele>147.0</ele><time>2026-05-03T12:56:32.678Z</time></trkpt><trkpt lat="42.48158" lon="14.1364867"><ele>147.0</ele><time>2026-05-03T12:56:33.677Z</time></trkpt><trkpt lat="42.4816783" lon="14.1365517"><ele>147.0</ele><time>2026-05-03T12:56:34.677Z</time></trkpt><trkpt lat="42.4817933" lon="14.1365733"><ele>147.0</ele><time>2026-05-03T12:56:35.677Z</time></trkpt><trkpt lat="42.481895" lon="14.136545"><ele>147.0</ele><time>2026-05-03T12:56:36.677Z</time></trkpt><trkpt lat="42.4819883" lon="14.1364533"><ele>147.0</ele><time>2026-05-03T12:56:37.677Z</time></trkpt><trkpt lat="42.4820717" lon="14.1363183"><ele>147.0</ele><time>2026-05-03T12:56:38.678Z</time></trkpt><trkpt lat="42.4821333" lon="14.1361333"><ele>145.33333333333334</ele><time>2026-05-03T12:56:39.678Z</time></trkpt><trkpt lat="42.48218" lon="14.1359217"><ele>143.66666666666669</ele><time>2026-05-03T12:56:40.677Z</time></trkpt><trkpt lat="42.4822267" lon="14.1356917"><ele>142.0</ele><time>2026-05-03T12:56:41.678Z</time></trkpt><trkpt lat="42.4822767" lon="14.1354517"><ele>141.0</ele><time>2026-05-03T12:56:42.678Z</time></trkpt><trkpt lat="42.4823267" lon="14.1352167"><ele>140.0</ele><time>2026-05-03T12:56:43.677Z</time></trkpt><trkpt lat="42.4823767" lon="14.134985"><ele>139.0</ele><time>2026-05-03T12:56:44.678Z</time></trkpt><trkpt lat="42.4824283" lon="14.13475"><ele>138.33333333333334</ele><time>2026-05-03T12:56:45.678Z</time></trkpt><trkpt lat="42.4824717" lon="14.13452"><ele>137.66666666666666</ele><time>2026-05-03T12:56:46.678Z</time></trkpt><trkpt lat="42.4825233" lon="14.134295"><ele>137.0</ele><time>2026-05-03T12:56:47.677Z</time></trkpt><trkpt lat="42.4825717" lon="14.1340767"><ele>135.66666666666666</ele><time>2026-05-03T12:56:48.678Z</time></trkpt><trkpt lat="42.4826167" lon="14.1338683"><ele>134.33333333333334</ele><time>2026-05-03T12:56:49.678Z</time></trkpt><trkpt lat="42.48266" lon="14.13367"><ele>133.0</ele><time>2026-05-03T12:56:50.677Z</time></trkpt><trkpt lat="42.4827167" lon="14.1334983"><ele>133.0</ele><time>2026-05-03T12:56:51.677Z</time></trkpt><trkpt lat="42.48279" lon="14.1333467"><ele>133.0</ele><time>2026-05-03T12:56:52.677Z</time></trkpt><trkpt lat="42.482885" lon="14.1332367"><ele>133.0</ele><time>2026-05-03T12:56:53.678Z</time></trkpt><trkpt lat="42.483005" lon="14.1331567"><ele>133.0</ele><time>2026-05-03T12:56:54.678Z</time></trkpt><trkpt lat="42.4831567" lon="14.1330933"><ele>131.66666666666669</ele><time>2026-05-03T12:56:55.677Z</time></trkpt><trkpt lat="42.48332" lon="14.1330217"><ele>130.33333333333334</ele><time>2026-05-03T12:56:56.677Z</time></trkpt><trkpt lat="42.4834983" lon="14.1329383"><ele>129.0</ele><time>2026-05-03T12:56:57.678Z</time></trkpt><trkpt lat="42.48367" lon="14.13286"><ele>127.66666666666666</ele><time>2026-05-03T12:56:58.678Z</time></trkpt><trkpt lat="42.4838467" lon="14.132775"><ele>126.33333333333333</ele><time>2026-05-03T12:56:59.678Z</time></trkpt><trkpt lat="42.48402" lon="14.13269"><ele>125.0</ele><time>2026-05-03T12:57:00.677Z</time></trkpt><trkpt lat="42.4841917" lon="14.132605"><ele>125.0</ele><time>2026-05-03T12:57:01.678Z</time></trkpt><trkpt lat="42.4843567" lon="14.13253"><ele>125.0</ele><time>2026-05-03T12:57:02.678Z</time></trkpt><trkpt lat="42.484515" lon="14.132455"><ele>125.0</ele><time>2026-05-03T12:57:03.678Z</time></trkpt><trkpt lat="42.4846633" lon="14.1323783"><ele>123.5</ele><time>2026-05-03T12:57:04.678Z</time></trkpt><trkpt lat="42.4847983" lon="14.13232"><ele>122.0</ele><time>2026-05-03T12:57:05.678Z</time></trkpt><trkpt lat="42.48493" lon="14.132295"><ele>120.5</ele><time>2026-05-03T12:57:06.677Z</time></trkpt><trkpt lat="42.4850567" lon="14.13229"><ele>119.0</ele><time>2026-05-03T12:57:07.677Z</time></trkpt><trkpt lat="42.4851917" lon="14.13233"><ele>119.33333333333333</ele><time>2026-05-03T12:57:08.677Z</time></trkpt><trkpt lat="42.485325" lon="14.13241"><ele>119.66666666666666</ele><time>2026-05-03T12:57:09.678Z</time></trkpt><trkpt lat="42.485445" lon="14.1325317"><ele>120.0</ele><time>2026-05-03T12:57:10.678Z</time></trkpt><trkpt lat="42.485565" lon="14.132685"><ele>119.33333333333334</ele><time>2026-05-03T12:57:11.678Z</time></trkpt><trkpt lat="42.4856983" lon="14.132845"><ele>118.66666666666667</ele><time>2026-05-03T12:57:12.678Z</time></trkpt><trkpt lat="42.485835" lon="14.1330083"><ele>118.0</ele><time>2026-05-03T12:57:13.677Z</time></trkpt><trkpt lat="42.4859633" lon="14.1331633"><ele>117.66666666666667</ele><time>2026-05-03T12:57:14.677Z</time></trkpt><trkpt lat="42.48608" lon="14.1333117"><ele>117.33333333333334</ele><time>2026-05-03T12:57:15.676Z</time></trkpt><trkpt lat="42.4861967" lon="14.1334467"><ele>117.0</ele><time>2026-05-03T12:57:16.676Z</time></trkpt><trkpt lat="42.48631" lon="14.133575"><ele>117.0</ele><time>2026-05-03T12:57:17.676Z</time></trkpt><trkpt lat="42.4864117" lon="14.1336983"><ele>117.0</ele><time>2026-05-03T12:57:18.676Z</time></trkpt><trkpt lat="42.4865067" lon="14.1338233"><ele>117.0</ele><time>2026-05-03T12:57:19.677Z</time></trkpt><trkpt lat="42.4865917" lon="14.1339517"><ele>117.0</ele><time>2026-05-03T12:57:20.677Z</time></trkpt><trkpt lat="42.4866483" lon="14.13409"><ele>117.0</ele><time>2026-05-03T12:57:21.677Z</time></trkpt><trkpt lat="42.4866867" lon="14.134265"><ele>117.0</ele><time>2026-05-03T12:57:22.676Z</time></trkpt><trkpt lat="42.486715" lon="14.1344667"><ele>117.0</ele><time>2026-05-03T12:57:23.676Z</time></trkpt><trkpt lat="42.4867567" lon="14.1346883"><ele>117.0</ele><time>2026-05-03T12:57:24.676Z</time></trkpt><trkpt lat="42.4868" lon="14.1349283"><ele>117.0</ele><time>2026-05-03T12:57:25.677Z</time></trkpt><trkpt lat="42.4868367" lon="14.135175"><ele>117.0</ele><time>2026-05-03T12:57:26.676Z</time></trkpt><trkpt lat="42.4868867" lon="14.1354267"><ele>117.0</ele><time>2026-05-03T12:57:27.677Z</time></trkpt><trkpt lat="42.48694" lon="14.1356717"><ele>117.0</ele><time>2026-05-03T12:57:28.676Z</time></trkpt><trkpt lat="42.487005" lon="14.1359167"><ele>117.0</ele><time>2026-05-03T12:57:29.677Z</time></trkpt><trkpt lat="42.4870917" lon="14.13616"><ele>117.66666666666666</ele><time>2026-05-03T12:57:30.676Z</time></trkpt><trkpt lat="42.487185" lon="14.136395"><ele>118.33333333333333</ele><time>2026-05-03T12:57:31.677Z</time></trkpt><trkpt lat="42.4872767" lon="14.13662"><ele>119.0</ele><time>2026-05-03T12:57:32.677Z</time></trkpt><trkpt lat="42.4873683" lon="14.1368483"><ele>120.66666666666666</ele><time>2026-05-03T12:57:33.676Z</time></trkpt><trkpt lat="42.4874417" lon="14.13707"><ele>122.33333333333334</ele><time>2026-05-03T12:57:34.676Z</time></trkpt><trkpt lat="42.4875017" lon="14.1372717"><ele>124.0</ele><time>2026-05-03T12:57:35.676Z</time></trkpt><trkpt lat="42.4875567" lon="14.1374583"><ele>124.0</ele><time>2026-05-03T12:57:36.676Z</time></trkpt><trkpt lat="42.4876033" lon="14.1376517"><ele>124.0</ele><time>2026-05-03T12:57:37.676Z</time></trkpt><trkpt lat="42.4876333" lon="14.13786"><ele>124.0</ele><time>2026-05-03T12:57:38.676Z</time></trkpt><trkpt lat="42.4876383" lon="14.1380667"><ele>124.25</ele><time>2026-05-03T12:57:39.677Z</time></trkpt><trkpt lat="42.4876183" lon="14.1382683"><ele>124.5</ele><time>2026-05-03T12:57:40.676Z</time></trkpt><trkpt lat="42.4876133" lon="14.138455"><ele>124.75</ele><time>2026-05-03T12:57:41.677Z</time></trkpt><trkpt lat="42.487645" lon="14.13864"><ele>125.0</ele><time>2026-05-03T12:57:42.676Z</time></trkpt><trkpt lat="42.4877017" lon="14.1388267"><ele>125.0</ele><time>2026-05-03T12:57:43.676Z</time></trkpt><trkpt lat="42.4877917" lon="14.1390117"><ele>125.0</ele><time>2026-05-03T12:57:44.677Z</time></trkpt><trkpt lat="42.4878967" lon="14.13915"><ele>125.0</ele><time>2026-05-03T12:57:45.677Z</time></trkpt><trkpt lat="42.4880217" lon="14.1392533"><ele>128.0</ele><time>2026-05-03T12:57:46.676Z</time></trkpt><trkpt lat="42.4881683" lon="14.1393233"><ele>131.0</ele><time>2026-05-03T12:57:47.676Z</time></trkpt><trkpt lat="42.4883217" lon="14.13936"><ele>134.0</ele><time>2026-05-03T12:57:48.677Z</time></trkpt><trkpt lat="42.48847" lon="14.13937"><ele>134.0</ele><time>2026-05-03T12:57:49.676Z</time></trkpt><trkpt lat="42.488605" lon="14.1393667"><ele>134.0</ele><time>2026-05-03T12:57:50.676Z</time></trkpt><trkpt lat="42.488725" lon="14.1393683"><ele>134.0</ele><time>2026-05-03T12:57:51.676Z</time></trkpt><trkpt lat="42.4888317" lon="14.139385"><ele>134.0</ele><time>2026-05-03T12:57:52.677Z</time></trkpt><trkpt lat="42.4889367" lon="14.1394067"><ele>134.5</ele><time>2026-05-03T12:57:53.677Z</time></trkpt><trkpt lat="42.4890217" lon="14.1394583"><ele>135.0</ele><time>2026-05-03T12:57:54.676Z</time></trkpt><trkpt lat="42.4891067" lon="14.1395233"><ele>135.5</ele><time>2026-05-03T12:57:55.676Z</time></trkpt><trkpt lat="42.4891867" lon="14.1395883"><ele>136.0</ele><time>2026-05-03T12:57:56.676Z</time></trkpt><trkpt lat="42.489265" lon="14.1396167"><ele>136.5</ele><time>2026-05-03T12:57:57.677Z</time></trkpt><trkpt lat="42.48934" lon="14.1396133"><ele>137.0</ele><time>2026-05-03T12:57:58.677Z</time></trkpt><trkpt lat="42.48941" lon="14.139555"><ele>137.0</ele><time>2026-05-03T12:57:59.677Z</time></trkpt><trkpt lat="42.4895" lon="14.139485"><ele>137.0</ele><time>2026-05-03T12:58:00.677Z</time></trkpt><trkpt lat="42.4896267" lon="14.1394483"><ele>137.0</ele><time>2026-05-03T12:58:01.676Z</time></trkpt><trkpt lat="42.4897733" lon="14.13945"><ele>137.0</ele><time>2026-05-03T12:58:02.677Z</time></trkpt><trkpt lat="42.489935" lon="14.139455"><ele>138.0</ele><time>2026-05-03T12:58:03.677Z</time></trkpt><trkpt lat="42.4900917" lon="14.1394617"><ele>139.0</ele><time>2026-05-03T12:58:04.676Z</time></trkpt><trkpt lat="42.4902283" lon="14.13947"><ele>140.0</ele><time>2026-05-03T12:58:05.677Z</time></trkpt><trkpt lat="42.4903683" lon="14.13948"><ele>141.0</ele><time>2026-05-03T12:58:06.676Z</time></trkpt><trkpt lat="42.4905" lon="14.1394867"><ele>143.0</ele><time>2026-05-03T12:58:07.677Z</time></trkpt><trkpt lat="42.4906183" lon="14.1395017"><ele>145.0</ele><time>2026-05-03T12:58:08.676Z</time></trkpt><trkpt lat="42.490725" lon="14.1395283"><ele>147.0</ele><time>2026-05-03T12:58:09.677Z</time></trkpt><trkpt lat="42.4907983" lon="14.1395783"><ele>149.0</ele><time>2026-05-03T12:58:10.677Z</time></trkpt><trkpt lat="42.4908517" lon="14.139645"><ele>151.0</ele><time>2026-05-03T12:58:11.677Z</time></trkpt><trkpt lat="42.4908767" lon="14.139755"><ele>152.0</ele><time>2026-05-03T12:58:12.677Z</time></trkpt><trkpt lat="42.49089" lon="14.1398917"><ele>153.0</ele><time>2026-05-03T12:58:13.677Z</time></trkpt><trkpt lat="42.4908883" lon="14.14005"><ele>154.0</ele><time>2026-05-03T12:58:14.676Z</time></trkpt><trkpt lat="42.4908817" lon="14.1402233"><ele>155.0</ele><time>2026-05-03T12:58:15.676Z</time></trkpt><trkpt lat="42.4908783" lon="14.140385"><ele>155.0</ele><time>2026-05-03T12:58:16.677Z</time></trkpt><trkpt lat="42.4908817" lon="14.1405333"><ele>155.0</ele><time>2026-05-03T12:58:17.676Z</time></trkpt><trkpt lat="42.49088" lon="14.1406683"><ele>155.0</ele><time>2026-05-03T12:58:18.676Z</time></trkpt><trkpt lat="42.4909" lon="14.1407817"><ele>155.0</ele><time>2026-05-03T12:58:19.676Z</time></trkpt><trkpt lat="42.4909467" lon="14.1408617"><ele>155.0</ele><time>2026-05-03T12:58:20.677Z</time></trkpt><trkpt lat="42.49106" lon="14.1408733"><ele>155.0</ele><time>2026-05-03T12:58:22.676Z</time></trkpt><trkpt lat="42.4911217" lon="14.140805"><ele>155.0</ele><time>2026-05-03T12:58:23.676Z</time></trkpt><trkpt lat="42.4911833" lon="14.140715"><ele>155.0</ele><time>2026-05-03T12:58:24.676Z</time></trkpt><trkpt lat="42.4912383" lon="14.1406233"><ele>155.0</ele><time>2026-05-03T12:58:25.676Z</time></trkpt><trkpt lat="42.491285" lon="14.14053"><ele>155.0</ele><time>2026-05-03T12:58:26.677Z</time></trkpt><trkpt lat="42.49133" lon="14.1404467"><ele>155.0</ele><time>2026-05-03T12:58:27.677Z</time></trkpt><trkpt lat="42.49137" lon="14.1403767"><ele>156.2</ele><time>2026-05-03T12:58:28.677Z</time></trkpt><trkpt lat="42.491445" lon="14.1403133"><ele>157.4</ele><time>2026-05-03T12:58:30.676Z</time></trkpt><trkpt lat="42.49151" lon="14.14035"><ele>158.60000000000002</ele><time>2026-05-03T12:58:31.676Z</time></trkpt><trkpt lat="42.4915767" lon="14.140445"><ele>159.8</ele><time>2026-05-03T12:58:32.677Z</time></trkpt><trkpt lat="42.491625" lon="14.1405883"><ele>161.0</ele><time>2026-05-03T12:58:33.677Z</time></trkpt><trkpt lat="42.4916683" lon="14.1407517"><ele>161.0</ele><time>2026-05-03T12:58:34.676Z</time></trkpt><trkpt lat="42.4917083" lon="14.14093"><ele>161.0</ele><time>2026-05-03T12:58:35.677Z</time></trkpt><trkpt lat="42.4917433" lon="14.14109"><ele>161.0</ele><time>2026-05-03T12:58:36.676Z</time></trkpt><trkpt lat="42.4917767" lon="14.14125"><ele>161.0</ele><time>2026-05-03T12:58:37.677Z</time></trkpt><trkpt lat="42.4917867" lon="14.1414183"><ele>161.0</ele><time>2026-05-03T12:58:38.677Z</time></trkpt><trkpt lat="42.4917817" lon="14.14158"><ele>161.0</ele><time>2026-05-03T12:58:39.677Z</time></trkpt><trkpt lat="42.4917483" lon="14.1417317"><ele>161.0</ele><time>2026-05-03T12:58:40.677Z</time></trkpt><trkpt lat="42.4917033" lon="14.141865"><ele>161.0</ele><time>2026-05-03T12:58:41.676Z</time></trkpt><trkpt lat="42.4916583" lon="14.142"><ele>161.0</ele><time>2026-05-03T12:58:42.677Z</time></trkpt><trkpt lat="42.4916267" lon="14.1421367"><ele>161.0</ele><time>2026-05-03T12:58:43.677Z</time></trkpt><trkpt lat="42.491625" lon="14.14226"><ele>161.0</ele><time>2026-05-03T12:58:44.676Z</time></trkpt><trkpt lat="42.4916483" lon="14.1423867"><ele>161.0</ele><time>2026-05-03T12:58:45.677Z</time></trkpt><trkpt lat="42.4916983" lon="14.1424967"><ele>161.0</ele><time>2026-05-03T12:58:46.677Z</time></trkpt><trkpt lat="42.4917483" lon="14.1426133"><ele>160.20000000000002</ele><time>2026-05-03T12:58:47.676Z</time></trkpt><trkpt lat="42.4917783" lon="14.1427383"><ele>159.4</ele><time>2026-05-03T12:58:48.677Z</time></trkpt><trkpt lat="42.4917883" lon="14.14287"><ele>158.6</ele><time>2026-05-03T12:58:49.676Z</time></trkpt><trkpt lat="42.4917817" lon="14.1429683"><ele>157.8</ele><time>2026-05-03T12:58:50.677Z</time></trkpt><trkpt lat="42.4917233" lon="14.1430633"><ele>157.0</ele><time>2026-05-03T12:58:51.677Z</time></trkpt><trkpt lat="42.491655" lon="14.143155"><ele>156.2</ele><time>2026-05-03T12:58:52.676Z</time></trkpt><trkpt lat="42.4915817" lon="14.1432633"><ele>155.39999999999998</ele><time>2026-05-03T12:58:53.677Z</time></trkpt><trkpt lat="42.491535" lon="14.1433983"><ele>154.60000000000002</ele><time>2026-05-03T12:58:54.677Z</time></trkpt><trkpt lat="42.49153" lon="14.14353"><ele>153.8</ele><time>2026-05-03T12:58:55.676Z</time></trkpt><trkpt lat="42.4915533" lon="14.1436567"><ele>153.0</ele><time>2026-05-03T12:58:56.676Z</time></trkpt><trkpt lat="42.4916067" lon="14.1437817"><ele>153.0</ele><time>2026-05-03T12:58:57.676Z</time></trkpt><trkpt lat="42.4916717" lon="14.14392"><ele>153.0</ele><time>2026-05-03T12:58:58.677Z</time></trkpt><trkpt lat="42.4917433" lon="14.1440483"><ele>153.0</ele><time>2026-05-03T12:58:59.677Z</time></trkpt><trkpt lat="42.4918483" lon="14.14414"><ele>153.0</ele><time>2026-05-03T12:59:00.676Z</time></trkpt><trkpt lat="42.4919667" lon="14.1442067"><ele>147.75</ele><time>2026-05-03T12:59:01.677Z</time></trkpt><trkpt lat="42.492095" lon="14.144255"><ele>142.5</ele><time>2026-05-03T12:59:02.677Z</time></trkpt><trkpt lat="42.4922183" lon="14.1442983"><ele>137.25</ele><time>2026-05-03T12:59:03.677Z</time></trkpt><trkpt lat="42.492335" lon="14.144355"><ele>132.0</ele><time>2026-05-03T12:59:04.676Z</time></trkpt><trkpt lat="42.4924533" lon="14.1444217"><ele>132.0</ele><time>2026-05-03T12:59:05.676Z</time></trkpt><trkpt lat="42.4925817" lon="14.1444917"><ele>132.0</ele><time>2026-05-03T12:59:06.676Z</time></trkpt><trkpt lat="42.4927" lon="14.1445667"><ele>132.0</ele><time>2026-05-03T12:59:07.676Z</time></trkpt><trkpt lat="42.492815" lon="14.1446283"><ele>132.0</ele><time>2026-05-03T12:59:08.677Z</time></trkpt><trkpt lat="42.4929167" lon="14.1447117"><ele>133.25</ele><time>2026-05-03T12:59:09.677Z</time></trkpt><trkpt lat="42.4929983" lon="14.1448217"><ele>134.5</ele><time>2026-05-03T12:59:10.676Z</time></trkpt><trkpt lat="42.49307" lon="14.1449417"><ele>135.75</ele><time>2026-05-03T12:59:11.676Z</time></trkpt><trkpt lat="42.493165" lon="14.1450717"><ele>137.0</ele><time>2026-05-03T12:59:12.676Z</time></trkpt><trkpt lat="42.493255" lon="14.1451733"><ele>137.0</ele><time>2026-05-03T12:59:13.676Z</time></trkpt><trkpt lat="42.4933583" lon="14.1452567"><ele>137.0</ele><time>2026-05-03T12:59:14.677Z</time></trkpt><trkpt lat="42.493455" lon="14.1453117"><ele>137.0</ele><time>2026-05-03T12:59:15.677Z</time></trkpt><trkpt lat="42.4935567" lon="14.1453217"><ele>137.0</ele><time>2026-05-03T12:59:16.677Z</time></trkpt><trkpt lat="42.4936533" lon="14.145295"><ele>137.0</ele><time>2026-05-03T12:59:17.676Z</time></trkpt><trkpt lat="42.4937433" lon="14.1452283"><ele>135.5</ele><time>2026-05-03T12:59:18.677Z</time></trkpt><trkpt lat="42.493825" lon="14.145125"><ele>134.0</ele><time>2026-05-03T12:59:19.677Z</time></trkpt><trkpt lat="42.4938767" lon="14.1449917"><ele>132.5</ele><time>2026-05-03T12:59:20.676Z</time></trkpt><trkpt lat="42.493925" lon="14.1448483"><ele>131.0</ele><time>2026-05-03T12:59:21.677Z</time></trkpt><trkpt lat="42.4939533" lon="14.14468"><ele>126.66666666666666</ele><time>2026-05-03T12:59:22.676Z</time></trkpt><trkpt lat="42.4939933" lon="14.1445167"><ele>122.33333333333334</ele><time>2026-05-03T12:59:23.677Z</time></trkpt><trkpt lat="42.494025" lon="14.144365"><ele>118.0</ele><time>2026-05-03T12:59:24.677Z</time></trkpt><trkpt lat="42.494145" lon="14.1440933"><ele>112.75</ele><time>2026-05-03T12:59:26.677Z</time></trkpt><trkpt lat="42.4942267" lon="14.1439983"><ele>107.5</ele><time>2026-05-03T12:59:27.676Z</time></trkpt><trkpt lat="42.494325" lon="14.1439233"><ele>102.25</ele><time>2026-05-03T12:59:28.677Z</time></trkpt><trkpt lat="42.4944367" lon="14.1438533"><ele>97.0</ele><time>2026-05-03T12:59:29.676Z</time></trkpt><trkpt lat="42.49455" lon="14.1438083"><ele>98.75</ele><time>2026-05-03T12:59:30.677Z</time></trkpt><trkpt lat="42.4946583" lon="14.14381"><ele>100.5</ele><time>2026-05-03T12:59:31.677Z</time></trkpt><trkpt lat="42.4947767" lon="14.14383"><ele>102.25</ele><time>2026-05-03T12:59:32.676Z</time></trkpt><trkpt lat="42.494905" lon="14.14384"><ele>104.0</ele><time>2026-05-03T12:59:33.676Z</time></trkpt><trkpt lat="42.495035" lon="14.1438367"><ele>104.0</ele><time>2026-05-03T12:59:34.677Z</time></trkpt><trkpt lat="42.4951683" lon="14.143805"><ele>104.0</ele><time>2026-05-03T12:59:35.677Z</time></trkpt><trkpt lat="42.4953017" lon="14.1437683"><ele>104.0</ele><time>2026-05-03T12:59:36.677Z</time></trkpt><trkpt lat="42.4954317" lon="14.1437133"><ele>104.0</ele><time>2026-05-03T12:59:37.677Z</time></trkpt><trkpt lat="42.495555" lon="14.143655"><ele>105.75</ele><time>2026-05-03T12:59:38.676Z</time></trkpt><trkpt lat="42.4956733" lon="14.143575"><ele>107.5</ele><time>2026-05-03T12:59:39.676Z</time></trkpt><trkpt lat="42.4957983" lon="14.14348"><ele>109.25</ele><time>2026-05-03T12:59:40.676Z</time></trkpt><trkpt lat="42.49591" lon="14.1433767"><ele>111.0</ele><time>2026-05-03T12:59:41.677Z</time></trkpt><trkpt lat="42.49602" lon="14.1432733"><ele>108.75</ele><time>2026-05-03T12:59:42.676Z</time></trkpt><trkpt lat="42.49613" lon="14.14317"><ele>106.5</ele><time>2026-05-03T12:59:43.677Z</time></trkpt><trkpt lat="42.4962467" lon="14.1430683"><ele>104.25</ele><time>2026-05-03T12:59:44.677Z</time></trkpt><trkpt lat="42.4963617" lon="14.142965"><ele>102.0</ele><time>2026-05-03T12:59:45.677Z</time></trkpt><trkpt lat="42.49648" lon="14.1428617"><ele>101.5</ele><time>2026-05-03T12:59:46.677Z</time></trkpt><trkpt lat="42.49661" lon="14.1427533"><ele>101.0</ele><time>2026-05-03T12:59:47.676Z</time></trkpt><trkpt lat="42.49673" lon="14.1426467"><ele>100.5</ele><time>2026-05-03T12:59:48.677Z</time></trkpt><trkpt lat="42.4968467" lon="14.1425433"><ele>100.0</ele><time>2026-05-03T12:59:49.676Z</time></trkpt><trkpt lat="42.49695" lon="14.142435"><ele>97.0</ele><time>2026-05-03T12:59:50.677Z</time></trkpt><trkpt lat="42.49705" lon="14.1423333"><ele>94.0</ele><time>2026-05-03T12:59:51.677Z</time></trkpt><trkpt lat="42.4971317" lon="14.1422417"><ele>91.0</ele><time>2026-05-03T12:59:52.677Z</time></trkpt><trkpt lat="42.4971967" lon="14.14216"><ele>88.0</ele><time>2026-05-03T12:59:53.676Z</time></trkpt><trkpt lat="42.4972583" lon="14.14209"><ele>85.0</ele><time>2026-05-03T12:59:54.676Z</time></trkpt><trkpt lat="42.4973183" lon="14.1420167"><ele>85.0</ele><time>2026-05-03T12:59:55.676Z</time></trkpt><trkpt lat="42.497385" lon="14.1419667"><ele>85.0</ele><time>2026-05-03T12:59:56.677Z</time></trkpt><trkpt lat="42.4974533" lon="14.1419517"><ele>85.0</ele><time>2026-05-03T12:59:57.677Z</time></trkpt><trkpt lat="42.49752" lon="14.14197"><ele>85.0</ele><time>2026-05-03T12:59:58.676Z</time></trkpt><trkpt lat="42.497565" lon="14.1420417"><ele>85.0</ele><time>2026-05-03T12:59:59.677Z</time></trkpt><trkpt lat="42.4975867" lon="14.1421517"><ele>85.0</ele><time>2026-05-03T13:00:00.677Z</time></trkpt><trkpt lat="42.4975667" lon="14.1422633"><ele>85.25</ele><time>2026-05-03T13:00:01.677Z</time></trkpt><trkpt lat="42.497515" lon="14.14239"><ele>85.5</ele><time>2026-05-03T13:00:02.677Z</time></trkpt><trkpt lat="42.49744" lon="14.142535"><ele>85.75</ele><time>2026-05-03T13:00:03.677Z</time></trkpt><trkpt lat="42.4973417" lon="14.1427083"><ele>86.0</ele><time>2026-05-03T13:00:04.676Z</time></trkpt><trkpt lat="42.4972283" lon="14.142895"><ele>86.0</ele><time>2026-05-03T13:00:05.675Z</time></trkpt><trkpt lat="42.4971083" lon="14.1430867"><ele>86.0</ele><time>2026-05-03T13:00:06.675Z</time></trkpt><trkpt lat="42.4970033" lon="14.1432617"><ele>86.0</ele><time>2026-05-03T13:00:07.675Z</time></trkpt><trkpt lat="42.4969167" lon="14.14343"><ele>88.5</ele><time>2026-05-03T13:00:08.675Z</time></trkpt><trkpt lat="42.49683" lon="14.1435717"><ele>91.0</ele><time>2026-05-03T13:00:09.676Z</time></trkpt><trkpt lat="42.4967367" lon="14.1437033"><ele>93.5</ele><time>2026-05-03T13:00:10.676Z</time></trkpt><trkpt lat="42.4966433" lon="14.14382"><ele>96.0</ele><time>2026-05-03T13:00:11.676Z</time></trkpt><trkpt lat="42.4965583" lon="14.1439467"><ele>92.5</ele><time>2026-05-03T13:00:12.675Z</time></trkpt><trkpt lat="42.496485" lon="14.1440583"><ele>89.0</ele><time>2026-05-03T13:00:13.675Z</time></trkpt><trkpt lat="42.4964317" lon="14.144195"><ele>85.5</ele><time>2026-05-03T13:00:14.675Z</time></trkpt><trkpt lat="42.4964033" lon="14.1443683"><ele>82.0</ele><time>2026-05-03T13:00:15.675Z</time></trkpt><trkpt lat="42.49638" lon="14.1445367"><ele>82.0</ele><time>2026-05-03T13:00:16.676Z</time></trkpt><trkpt lat="42.4963867" lon="14.1447017"><ele>82.0</ele><time>2026-05-03T13:00:17.675Z</time></trkpt><trkpt lat="42.4963883" lon="14.1448817"><ele>82.0</ele><time>2026-05-03T13:00:18.676Z</time></trkpt><trkpt lat="42.496375" lon="14.14501"><ele>82.0</ele><time>2026-05-03T13:00:19.676Z</time></trkpt><trkpt lat="42.49634" lon="14.1451317"><ele>82.0</ele><time>2026-05-03T13:00:20.676Z</time></trkpt><trkpt lat="42.49628" lon="14.1452367"><ele>82.0</ele><time>2026-05-03T13:00:21.675Z</time></trkpt><trkpt lat="42.4962167" lon="14.1453567"><ele>82.0</ele><time>2026-05-03T13:00:22.675Z</time></trkpt><trkpt lat="42.4961783" lon="14.1454717"><ele>82.0</ele><time>2026-05-03T13:00:23.675Z</time></trkpt><trkpt lat="42.496155" lon="14.1455883"><ele>82.0</ele><time>2026-05-03T13:00:24.675Z</time></trkpt><trkpt lat="42.4961567" lon="14.145725"><ele>82.0</ele><time>2026-05-03T13:00:25.676Z</time></trkpt><trkpt lat="42.496185" lon="14.1458433"><ele>82.0</ele><time>2026-05-03T13:00:26.675Z</time></trkpt><trkpt lat="42.49624" lon="14.145935"><ele>82.0</ele><time>2026-05-03T13:00:27.676Z</time></trkpt><trkpt lat="42.4964033" lon="14.1460233"><ele>82.0</ele><time>2026-05-03T13:00:29.676Z</time></trkpt><trkpt lat="42.4964933" lon="14.146015"><ele>82.0</ele><time>2026-05-03T13:00:30.675Z</time></trkpt><trkpt lat="42.4965717" lon="14.1459683"><ele>82.0</ele><time>2026-05-03T13:00:31.675Z</time></trkpt><trkpt lat="42.4966367" lon="14.1458817"><ele>79.5</ele><time>2026-05-03T13:00:32.675Z</time></trkpt><trkpt lat="42.4966733" lon="14.1457267"><ele>77.0</ele><time>2026-05-03T13:00:33.675Z</time></trkpt><trkpt lat="42.496705" lon="14.1455583"><ele>74.5</ele><time>2026-05-03T13:00:34.675Z</time></trkpt><trkpt lat="42.4967183" lon="14.1453933"><ele>72.0</ele><time>2026-05-03T13:00:35.676Z</time></trkpt><trkpt lat="42.4967433" lon="14.1452383"><ele>71.5</ele><time>2026-05-03T13:00:36.676Z</time></trkpt><trkpt lat="42.496785" lon="14.1450917"><ele>71.0</ele><time>2026-05-03T13:00:37.675Z</time></trkpt><trkpt lat="42.496835" lon="14.144955"><ele>70.5</ele><time>2026-05-03T13:00:38.675Z</time></trkpt><trkpt lat="42.496905" lon="14.1448317"><ele>70.0</ele><time>2026-05-03T13:00:39.676Z</time></trkpt><trkpt lat="42.4969833" lon="14.1447283"><ele>67.5</ele><time>2026-05-03T13:00:40.676Z</time></trkpt><trkpt lat="42.4970733" lon="14.14464"><ele>65.0</ele><time>2026-05-03T13:00:41.676Z</time></trkpt><trkpt lat="42.4971733" lon="14.144555"><ele>62.5</ele><time>2026-05-03T13:00:42.676Z</time></trkpt><trkpt lat="42.497295" lon="14.1444767"><ele>60.0</ele><time>2026-05-03T13:00:43.676Z</time></trkpt><trkpt lat="42.49741" lon="14.1443867"><ele>60.0</ele><time>2026-05-03T13:00:44.676Z</time></trkpt><trkpt lat="42.4975217" lon="14.1442983"><ele>60.0</ele><time>2026-05-03T13:00:45.676Z</time></trkpt><trkpt lat="42.497625" lon="14.144195"><ele>60.0</ele><time>2026-05-03T13:00:46.676Z</time></trkpt><trkpt lat="42.49772" lon="14.1440767"><ele>60.0</ele><time>2026-05-03T13:00:47.676Z</time></trkpt><trkpt lat="42.4978217" lon="14.1439167"><ele>57.0</ele><time>2026-05-03T13:00:48.675Z</time></trkpt><trkpt lat="42.4979383" lon="14.143735"><ele>54.0</ele><time>2026-05-03T13:00:49.675Z</time></trkpt><trkpt lat="42.4980683" lon="14.14354"><ele>51.0</ele><time>2026-05-03T13:00:50.676Z</time></trkpt><trkpt lat="42.4981917" lon="14.14335"><ele>54.25</ele><time>2026-05-03T13:00:51.676Z</time></trkpt><trkpt lat="42.4982917" lon="14.14319"><ele>57.5</ele><time>2026-05-03T13:00:52.676Z</time></trkpt><trkpt lat="42.4983733" lon="14.143055"><ele>60.75</ele><time>2026-05-03T13:00:53.676Z</time></trkpt><trkpt lat="42.498445" lon="14.1429433"><ele>64.0</ele><time>2026-05-03T13:00:54.676Z</time></trkpt><trkpt lat="42.4984983" lon="14.14286"><ele>64.0</ele><time>2026-05-03T13:00:55.675Z</time></trkpt><trkpt lat="42.4985667" lon="14.142755"><ele>64.0</ele><time>2026-05-03T13:00:57.676Z</time></trkpt><trkpt lat="42.4986583" lon="14.142655"><ele>64.0</ele><time>2026-05-03T13:01:09.676Z</time></trkpt><trkpt lat="42.4986983" lon="14.1425483"><ele>64.0</ele><time>2026-05-03T13:01:10.676Z</time></trkpt><trkpt lat="42.49874" lon="14.1424183"><ele>64.0</ele><time>2026-05-03T13:01:11.676Z</time></trkpt><trkpt lat="42.4987833" lon="14.1422733"><ele>58.75</ele><time>2026-05-03T13:01:12.676Z</time></trkpt><trkpt lat="42.4988383" lon="14.14212"><ele>53.5</ele><time>2026-05-03T13:01:13.676Z</time></trkpt><trkpt lat="42.4988967" lon="14.141975"><ele>48.25</ele><time>2026-05-03T13:01:14.676Z</time></trkpt><trkpt lat="42.498965" lon="14.141835"><ele>43.0</ele><time>2026-05-03T13:01:15.676Z</time></trkpt><trkpt lat="42.499045" lon="14.14169"><ele>45.25</ele><time>2026-05-03T13:01:16.676Z</time></trkpt><trkpt lat="42.4991333" lon="14.1415433"><ele>47.5</ele><time>2026-05-03T13:01:17.676Z</time></trkpt><trkpt lat="42.49923" lon="14.1413983"><ele>49.75</ele><time>2026-05-03T13:01:18.675Z</time></trkpt><trkpt lat="42.4993367" lon="14.14126"><ele>52.0</ele><time>2026-05-03T13:01:19.676Z</time></trkpt><trkpt lat="42.4994433" lon="14.1411317"><ele>52.0</ele><time>2026-05-03T13:01:20.676Z</time></trkpt><trkpt lat="42.4995517" lon="14.1410117"><ele>52.0</ele><time>2026-05-03T13:01:21.676Z</time></trkpt><trkpt lat="42.4996767" lon="14.140885"><ele>52.0</ele><time>2026-05-03T13:01:22.675Z</time></trkpt><trkpt lat="42.4998083" lon="14.140745"><ele>47.666666666666664</ele><time>2026-05-03T13:01:23.675Z</time></trkpt><trkpt lat="42.499945" lon="14.1405683"><ele>43.33333333333333</ele><time>2026-05-03T13:01:24.675Z</time></trkpt><trkpt lat="42.5001" lon="14.1403817"><ele>39.0</ele><time>2026-05-03T13:01:25.675Z</time></trkpt><trkpt lat="42.50023" lon="14.1401967"><ele>39.0</ele><time>2026-05-03T13:01:26.676Z</time></trkpt><trkpt lat="42.5003417" lon="14.140025"><ele>39.0</ele><time>2026-05-03T13:01:27.675Z</time></trkpt><trkpt lat="42.5004467" lon="14.139855"><ele>39.0</ele><time>2026-05-03T13:01:28.676Z</time></trkpt><trkpt lat="42.50055" lon="14.13969"><ele>35.75</ele><time>2026-05-03T13:01:29.676Z</time></trkpt><trkpt lat="42.5006333" lon="14.1395417"><ele>32.5</ele><time>2026-05-03T13:01:30.675Z</time></trkpt><trkpt lat="42.500715" lon="14.1393983"><ele>29.25</ele><time>2026-05-03T13:01:31.675Z</time></trkpt><trkpt lat="42.5007933" lon="14.1392533"><ele>26.0</ele><time>2026-05-03T13:01:32.676Z</time></trkpt><trkpt lat="42.500855" lon="14.1391183"><ele>25.0</ele><time>2026-05-03T13:01:33.675Z</time></trkpt><trkpt lat="42.5009167" lon="14.1389933"><ele>24.0</ele><time>2026-05-03T13:01:34.676Z</time></trkpt><trkpt lat="42.50097" lon="14.13887"><ele>23.0</ele><time>2026-05-03T13:01:35.675Z</time></trkpt><trkpt lat="42.5010183" lon="14.1387583"><ele>22.0</ele><time>2026-05-03T13:01:36.676Z</time></trkpt><trkpt lat="42.5010583" lon="14.1386617"><ele>21.0</ele><time>2026-05-03T13:01:37.675Z</time></trkpt><trkpt lat="42.5011067" lon="14.1385617"><ele>21.0</ele><time>2026-05-03T13:01:38.675Z</time></trkpt><trkpt lat="42.501155" lon="14.1384383"><ele>21.0</ele><time>2026-05-03T13:01:39.675Z</time></trkpt><trkpt lat="42.5011967" lon="14.138295"><ele>21.0</ele><time>2026-05-03T13:01:40.675Z</time></trkpt><trkpt lat="42.5012417" lon="14.1381217"><ele>21.0</ele><time>2026-05-03T13:01:41.675Z</time></trkpt><trkpt lat="42.5012883" lon="14.137935"><ele>19.333333333333332</ele><time>2026-05-03T13:01:42.675Z</time></trkpt><trkpt lat="42.501335" lon="14.1377433"><ele>17.666666666666664</ele><time>2026-05-03T13:01:43.675Z</time></trkpt><trkpt lat="42.501385" lon="14.13755"><ele>16.0</ele><time>2026-05-03T13:01:44.675Z</time></trkpt><trkpt lat="42.5014333" lon="14.1373517"><ele>15.5</ele><time>2026-05-03T13:01:45.675Z</time></trkpt><trkpt lat="42.5014817" lon="14.1371567"><ele>15.0</ele><time>2026-05-03T13:01:46.676Z</time></trkpt><trkpt lat="42.5015317" lon="14.1369633"><ele>14.5</ele><time>2026-05-03T13:01:47.675Z</time></trkpt><trkpt lat="42.50158" lon="14.136785"><ele>14.0</ele><time>2026-05-03T13:01:48.675Z</time></trkpt><trkpt lat="42.5016283" lon="14.13661"><ele>14.0</ele><time>2026-05-03T13:01:49.676Z</time></trkpt><trkpt lat="42.5016733" lon="14.136445"><ele>14.0</ele><time>2026-05-03T13:01:50.675Z</time></trkpt><trkpt lat="42.5017167" lon="14.1362817"><ele>14.0</ele><time>2026-05-03T13:01:51.675Z</time></trkpt><trkpt lat="42.50176" lon="14.1361217"><ele>14.0</ele><time>2026-05-03T13:01:52.676Z</time></trkpt><trkpt lat="42.5018067" lon="14.13596"><ele>14.0</ele><time>2026-05-03T13:01:53.676Z</time></trkpt><trkpt lat="42.5018467" lon="14.1358"><ele>13.999999999999998</ele><time>2026-05-03T13:01:54.675Z</time></trkpt><trkpt lat="42.5018883" lon="14.1356483"><ele>13.999999999999998</ele><time>2026-05-03T13:01:55.676Z</time></trkpt><trkpt lat="42.5019183" lon="14.135515"><ele>14.0</ele><time>2026-05-03T13:01:56.675Z</time></trkpt><trkpt lat="42.5019517" lon="14.1353883"><ele>14.0</ele><time>2026-05-03T13:01:57.676Z</time></trkpt><trkpt lat="42.5019817" lon="14.135275"><ele>14.000000000000002</ele><time>2026-05-03T13:01:58.675Z</time></trkpt><trkpt lat="42.502015" lon="14.135175"><ele>14.0</ele><time>2026-05-03T13:01:59.675Z</time></trkpt><trkpt lat="42.5020383" lon="14.13508"><ele>14.0</ele><time>2026-05-03T13:02:00.676Z</time></trkpt><trkpt lat="42.50207" lon="14.13499"><ele>14.0</ele><time>2026-05-03T13:02:01.675Z</time></trkpt><trkpt lat="42.5021033" lon="14.1349"><ele>14.000000000000002</ele><time>2026-05-03T13:02:02.675Z</time></trkpt><trkpt lat="42.50214" lon="14.134825"><ele>14.0</ele><time>2026-05-03T13:02:03.676Z</time></trkpt><trkpt lat="42.5022567" lon="14.1347367"><ele>14.000000000000002</ele><time>2026-05-03T13:02:05.676Z</time></trkpt><trkpt lat="42.5023367" lon="14.1347317"><ele>14.0</ele><time>2026-05-03T13:02:06.676Z</time></trkpt><trkpt lat="42.5024117" lon="14.1347383"><ele>14.0</ele><time>2026-05-03T13:02:07.675Z</time></trkpt><trkpt lat="42.5024867" lon="14.1347717"><ele>14.0</ele><time>2026-05-03T13:02:08.676Z</time></trkpt><trkpt lat="42.5025517" lon="14.1348333"><ele>14.000000000000002</ele><time>2026-05-03T13:02:09.675Z</time></trkpt><trkpt lat="42.5026183" lon="14.134905"><ele>14.0</ele><time>2026-05-03T13:02:10.675Z</time></trkpt><trkpt lat="42.502685" lon="14.13498"><ele>14.000000000000002</ele><time>2026-05-03T13:02:11.676Z</time></trkpt><trkpt lat="42.5027533" lon="14.1350533"><ele>14.0</ele><time>2026-05-03T13:02:12.676Z</time></trkpt><trkpt lat="42.5028167" lon="14.13513"><ele>14.0</ele><time>2026-05-03T13:02:13.675Z</time></trkpt><trkpt lat="42.5028767" lon="14.1351933"><ele>14.0</ele><time>2026-05-03T13:02:14.675Z</time></trkpt><trkpt lat="42.5029633" lon="14.1352767"><ele>14.000000000000002</ele><time>2026-05-03T13:02:16.676Z</time></trkpt><trkpt lat="42.50303" lon="14.135325"><ele>14.0</ele><time>2026-05-03T13:02:18.676Z</time></trkpt><trkpt lat="42.5031017" lon="14.1352833"><ele>13.75</ele><time>2026-05-03T13:02:20.675Z</time></trkpt><trkpt lat="42.5031517" lon="14.1351"><ele>13.5</ele><time>2026-05-03T13:02:22.676Z</time></trkpt><trkpt lat="42.503185" lon="14.1349533"><ele>13.25</ele><time>2026-05-03T13:02:23.676Z</time></trkpt><trkpt lat="42.5032333" lon="14.13479"><ele>13.0</ele><time>2026-05-03T13:02:24.675Z</time></trkpt><trkpt lat="42.5032783" lon="14.1346217"><ele>13.0</ele><time>2026-05-03T13:02:25.675Z</time></trkpt><trkpt lat="42.5033333" lon="14.1344417"><ele>13.0</ele><time>2026-05-03T13:02:26.675Z</time></trkpt><trkpt lat="42.50338" lon="14.134255"><ele>13.0</ele><time>2026-05-03T13:02:27.675Z</time></trkpt><trkpt lat="42.5034233" lon="14.13406"><ele>13.0</ele><time>2026-05-03T13:02:28.676Z</time></trkpt><trkpt lat="42.50347" lon="14.1338817"><ele>13.0</ele><time>2026-05-03T13:02:29.676Z</time></trkpt><trkpt lat="42.5035217" lon="14.1337483"><ele>13.0</ele><time>2026-05-03T13:02:30.675Z</time></trkpt><trkpt lat="42.5035867" lon="14.133645"><ele>13.0</ele><time>2026-05-03T13:02:31.676Z</time></trkpt><trkpt lat="42.5036783" lon="14.1335483"><ele>13.0</ele><time>2026-05-03T13:02:32.675Z</time></trkpt><trkpt lat="42.5038033" lon="14.1334367"><ele>13.0</ele><time>2026-05-03T13:02:33.675Z</time></trkpt><trkpt lat="42.5039433" lon="14.1333017"><ele>13.0</ele><time>2026-05-03T13:02:34.676Z</time></trkpt><trkpt lat="42.504095" lon="14.133165"><ele>13.0</ele><time>2026-05-03T13:02:35.676Z</time></trkpt><trkpt lat="42.5042583" lon="14.1330117"><ele>13.0</ele><time>2026-05-03T13:02:36.675Z</time></trkpt><trkpt lat="42.50442" lon="14.1328667"><ele>13.0</ele><time>2026-05-03T13:02:37.676Z</time></trkpt><trkpt lat="42.50458" lon="14.1327233"><ele>13.0</ele><time>2026-05-03T13:02:38.675Z</time></trkpt><trkpt lat="42.5047333" lon="14.1325783"><ele>11.666666666666666</ele><time>2026-05-03T13:02:39.675Z</time></trkpt><trkpt lat="42.5048933" lon="14.1324383"><ele>10.333333333333332</ele><time>2026-05-03T13:02:40.675Z</time></trkpt><trkpt lat="42.5050467" lon="14.132295"><ele>9.0</ele><time>2026-05-03T13:02:41.676Z</time></trkpt><trkpt lat="42.5051983" lon="14.1321567"><ele>9.0</ele><time>2026-05-03T13:02:42.676Z</time></trkpt><trkpt lat="42.5053367" lon="14.13201"><ele>9.0</ele><time>2026-05-03T13:02:43.676Z</time></trkpt><trkpt lat="42.5054783" lon="14.1318767"><ele>9.0</ele><time>2026-05-03T13:02:44.675Z</time></trkpt><trkpt lat="42.5056383" lon="14.1317417"><ele>9.0</ele><time>2026-05-03T13:02:45.675Z</time></trkpt><trkpt lat="42.50579" lon="14.1316"><ele>9.0</ele><time>2026-05-03T13:02:46.675Z</time></trkpt><trkpt lat="42.5059383" lon="14.131465"><ele>9.0</ele><time>2026-05-03T13:02:47.676Z</time></trkpt><trkpt lat="42.5060733" lon="14.131335"><ele>9.0</ele><time>2026-05-03T13:02:48.676Z</time></trkpt><trkpt lat="42.50621" lon="14.1312217"><ele>9.0</ele><time>2026-05-03T13:02:49.676Z</time></trkpt><trkpt lat="42.50634" lon="14.1311233"><ele>9.0</ele><time>2026-05-03T13:02:50.676Z</time></trkpt><trkpt lat="42.5064767" lon="14.1310367"><ele>9.0</ele><time>2026-05-03T13:02:51.674Z</time></trkpt><trkpt lat="42.506615" lon="14.1309567"><ele>9.0</ele><time>2026-05-03T13:02:52.674Z</time></trkpt><trkpt lat="42.5067533" lon="14.1308833"><ele>9.0</ele><time>2026-05-03T13:02:53.675Z</time></trkpt><trkpt lat="42.5068983" lon="14.1308183"><ele>9.0</ele><time>2026-05-03T13:02:54.674Z</time></trkpt><trkpt lat="42.5070383" lon="14.1307617"><ele>9.0</ele><time>2026-05-03T13:02:55.674Z</time></trkpt><trkpt lat="42.50718" lon="14.13071"><ele>9.0</ele><time>2026-05-03T13:02:56.674Z</time></trkpt><trkpt lat="42.5073217" lon="14.13067"><ele>9.0</ele><time>2026-05-03T13:02:57.675Z</time></trkpt><trkpt lat="42.507455" lon="14.130625"><ele>9.75</ele><time>2026-05-03T13:02:58.674Z</time></trkpt><trkpt lat="42.5075933" lon="14.1305783"><ele>10.5</ele><time>2026-05-03T13:02:59.674Z</time></trkpt><trkpt lat="42.50773" lon="14.1305217"><ele>11.25</ele><time>2026-05-03T13:03:00.674Z</time></trkpt><trkpt lat="42.5078517" lon="14.1304367"><ele>12.0</ele><time>2026-05-03T13:03:01.674Z</time></trkpt><trkpt lat="42.5079667" lon="14.130335"><ele>12.0</ele><time>2026-05-03T13:03:02.675Z</time></trkpt><trkpt lat="42.5080867" lon="14.13023"><ele>12.0</ele><time>2026-05-03T13:03:03.675Z</time></trkpt><trkpt lat="42.5082033" lon="14.1301317"><ele>12.0</ele><time>2026-05-03T13:03:04.674Z</time></trkpt><trkpt lat="42.5083133" lon="14.1300417"><ele>12.0</ele><time>2026-05-03T13:03:05.675Z</time></trkpt><trkpt lat="42.508415" lon="14.1299533"><ele>10.799999999999999</ele><time>2026-05-03T13:03:06.675Z</time></trkpt><trkpt lat="42.50851" lon="14.1298767"><ele>9.6</ele><time>2026-05-03T13:03:07.675Z</time></trkpt><trkpt lat="42.508595" lon="14.1298083"><ele>8.399999999999999</ele><time>2026-05-03T13:03:08.675Z</time></trkpt><trkpt lat="42.5086733" lon="14.12976"><ele>7.199999999999999</ele><time>2026-05-03T13:03:09.675Z</time></trkpt><trkpt lat="42.50876" lon="14.1297317"><ele>6.0</ele><time>2026-05-03T13:03:10.674Z</time></trkpt><trkpt lat="42.5088533" lon="14.1297417"><ele>5.75</ele><time>2026-05-03T13:03:11.675Z</time></trkpt><trkpt lat="42.5089617" lon="14.12978"><ele>5.5</ele><time>2026-05-03T13:03:12.675Z</time></trkpt><trkpt lat="42.5090683" lon="14.129855"><ele>5.25</ele><time>2026-05-03T13:03:13.675Z</time></trkpt><trkpt lat="42.5091733" lon="14.1299783"><ele>5.0</ele><time>2026-05-03T13:03:14.675Z</time></trkpt><trkpt lat="42.509285" lon="14.1301417"><ele>5.0</ele><time>2026-05-03T13:03:15.675Z</time></trkpt><trkpt lat="42.5094183" lon="14.1303333"><ele>5.0</ele><time>2026-05-03T13:03:16.674Z</time></trkpt><trkpt lat="42.5095483" lon="14.1305283"><ele>5.0</ele><time>2026-05-03T13:03:17.675Z</time></trkpt><trkpt lat="42.5096883" lon="14.1307283"><ele>5.0</ele><time>2026-05-03T13:03:18.675Z</time></trkpt><trkpt lat="42.5098267" lon="14.1309367"><ele>5.0</ele><time>2026-05-03T13:03:19.675Z</time></trkpt><trkpt lat="42.5099667" lon="14.1311467"><ele>5.0</ele><time>2026-05-03T13:03:20.675Z</time></trkpt><trkpt lat="42.5101017" lon="14.1313583"><ele>5.333333333333334</ele><time>2026-05-03T13:03:21.675Z</time></trkpt><trkpt lat="42.5102267" lon="14.131565"><ele>5.666666666666667</ele><time>2026-05-03T13:03:22.675Z</time></trkpt><trkpt lat="42.510345" lon="14.1317883"><ele>6.0</ele><time>2026-05-03T13:03:23.675Z</time></trkpt><trkpt lat="42.5104633" lon="14.13201"><ele>6.0</ele><time>2026-05-03T13:03:24.674Z</time></trkpt><trkpt lat="42.5105833" lon="14.132235"><ele>6.0</ele><time>2026-05-03T13:03:25.674Z</time></trkpt><trkpt lat="42.5107017" lon="14.1324533"><ele>6.0</ele><time>2026-05-03T13:03:26.674Z</time></trkpt><trkpt lat="42.5108217" lon="14.132675"><ele>6.0</ele><time>2026-05-03T13:03:27.675Z</time></trkpt><trkpt lat="42.5109417" lon="14.132895"><ele>6.0</ele><time>2026-05-03T13:03:28.674Z</time></trkpt><trkpt lat="42.5110617" lon="14.1331083"><ele>6.0</ele><time>2026-05-03T13:03:29.674Z</time></trkpt><trkpt lat="42.5111933" lon="14.1333117"><ele>5.666666666666667</ele><time>2026-05-03T13:03:30.675Z</time></trkpt><trkpt lat="42.5113117" lon="14.13351"><ele>5.333333333333334</ele><time>2026-05-03T13:03:31.675Z</time></trkpt><trkpt lat="42.5114217" lon="14.133725"><ele>5.0</ele><time>2026-05-03T13:03:32.675Z</time></trkpt><trkpt lat="42.5115317" lon="14.1339383"><ele>5.0</ele><time>2026-05-03T13:03:33.675Z</time></trkpt><trkpt lat="42.5116267" lon="14.1341433"><ele>5.0</ele><time>2026-05-03T13:03:34.674Z</time></trkpt><trkpt lat="42.511735" lon="14.1343117"><ele>5.0</ele><time>2026-05-03T13:03:35.674Z</time></trkpt><trkpt lat="42.5118767" lon="14.1344617"><ele>5.0</ele><time>2026-05-03T13:03:36.675Z</time></trkpt><trkpt lat="42.5120417" lon="14.134595"><ele>5.0</ele><time>2026-05-03T13:03:37.674Z</time></trkpt><trkpt lat="42.5122233" lon="14.1347183"><ele>5.0</ele><time>2026-05-03T13:03:38.674Z</time></trkpt><trkpt lat="42.5123967" lon="14.1348317"><ele>4.333333333333334</ele><time>2026-05-03T13:03:39.675Z</time></trkpt><trkpt lat="42.5125683" lon="14.134945"><ele>3.666666666666667</ele><time>2026-05-03T13:03:40.674Z</time></trkpt><trkpt lat="42.512725" lon="14.13507"><ele>3.0</ele><time>2026-05-03T13:03:41.675Z</time></trkpt><trkpt lat="42.5128667" lon="14.1352017"><ele>2.6666666666666665</ele><time>2026-05-03T13:03:42.675Z</time></trkpt><trkpt lat="42.512985" lon="14.1353433"><ele>2.333333333333333</ele><time>2026-05-03T13:03:43.675Z</time></trkpt><trkpt lat="42.5130817" lon="14.1355067"><ele>2.0</ele><time>2026-05-03T13:03:44.674Z</time></trkpt><trkpt lat="42.5131683" lon="14.13569"><ele>2.333333333333333</ele><time>2026-05-03T13:03:45.674Z</time></trkpt><trkpt lat="42.51324" lon="14.1358867"><ele>2.6666666666666665</ele><time>2026-05-03T13:03:46.675Z</time></trkpt><trkpt lat="42.5133017" lon="14.136085"><ele>3.0</ele><time>2026-05-03T13:03:47.675Z</time></trkpt><trkpt lat="42.5133533" lon="14.13628"><ele>3.0</ele><time>2026-05-03T13:03:48.674Z</time></trkpt><trkpt lat="42.5134" lon="14.1364633"><ele>3.0</ele><time>2026-05-03T13:03:49.675Z</time></trkpt><trkpt lat="42.5134383" lon="14.13663"><ele>3.0</ele><time>2026-05-03T13:03:50.674Z</time></trkpt><trkpt lat="42.5134833" lon="14.1367767"><ele>3.0</ele><time>2026-05-03T13:03:51.675Z</time></trkpt><trkpt lat="42.5135167" lon="14.136905"><ele>3.2</ele><time>2026-05-03T13:03:52.675Z</time></trkpt><trkpt lat="42.51355" lon="14.137015"><ele>3.4</ele><time>2026-05-03T13:03:53.674Z</time></trkpt><trkpt lat="42.5135917" lon="14.13711"><ele>3.6000000000000005</ele><time>2026-05-03T13:03:54.675Z</time></trkpt><trkpt lat="42.5136233" lon="14.137185"><ele>3.8000000000000003</ele><time>2026-05-03T13:03:55.674Z</time></trkpt><trkpt lat="42.5136817" lon="14.1373233"><ele>4.0</ele><time>2026-05-03T13:03:57.675Z</time></trkpt><trkpt lat="42.5137267" lon="14.1374867"><ele>4.4</ele><time>2026-05-03T13:03:59.674Z</time></trkpt><trkpt lat="42.5137417" lon="14.137585"><ele>4.800000000000001</ele><time>2026-05-03T13:04:00.674Z</time></trkpt><trkpt lat="42.5137467" lon="14.137705"><ele>5.199999999999999</ele><time>2026-05-03T13:04:01.674Z</time></trkpt><trkpt lat="42.5137317" lon="14.1378367"><ele>5.6</ele><time>2026-05-03T13:04:02.674Z</time></trkpt><trkpt lat="42.5136833" lon="14.1379817"><ele>6.0</ele><time>2026-05-03T13:04:03.675Z</time></trkpt><trkpt lat="42.5136217" lon="14.1381317"><ele>5.75</ele><time>2026-05-03T13:04:04.675Z</time></trkpt><trkpt lat="42.513555" lon="14.13829"><ele>5.5</ele><time>2026-05-03T13:04:05.674Z</time></trkpt><trkpt lat="42.5134833" lon="14.1384533"><ele>5.25</ele><time>2026-05-03T13:04:06.675Z</time></trkpt><trkpt lat="42.5134133" lon="14.1386333"><ele>5.0</ele><time>2026-05-03T13:04:07.675Z</time></trkpt><trkpt lat="42.5133467" lon="14.138805"><ele>5.0</ele><time>2026-05-03T13:04:08.675Z</time></trkpt><trkpt lat="42.513285" lon="14.1389583"><ele>5.0</ele><time>2026-05-03T13:04:09.674Z</time></trkpt><trkpt lat="42.5132267" lon="14.1391067"><ele>5.0</ele><time>2026-05-03T13:04:10.675Z</time></trkpt><trkpt lat="42.5131733" lon="14.1392467"><ele>5.0</ele><time>2026-05-03T13:04:11.675Z</time></trkpt><trkpt lat="42.51312" lon="14.1393817"><ele>5.2</ele><time>2026-05-03T13:04:12.674Z</time></trkpt><trkpt lat="42.5130683" lon="14.1395267"><ele>5.4</ele><time>2026-05-03T13:04:13.675Z</time></trkpt><trkpt lat="42.513015" lon="14.1396533"><ele>5.6</ele><time>2026-05-03T13:04:14.675Z</time></trkpt><trkpt lat="42.5129617" lon="14.13978"><ele>5.8</ele><time>2026-05-03T13:04:15.675Z</time></trkpt><trkpt lat="42.5129167" lon="14.1399033"><ele>6.0</ele><time>2026-05-03T13:04:16.675Z</time></trkpt><trkpt lat="42.5128733" lon="14.140015"><ele>6.0</ele><time>2026-05-03T13:04:17.675Z</time></trkpt><trkpt lat="42.5128417" lon="14.1401217"><ele>6.0</ele><time>2026-05-03T13:04:18.674Z</time></trkpt><trkpt lat="42.5128083" lon="14.1402267"><ele>6.0</ele><time>2026-05-03T13:04:19.674Z</time></trkpt><trkpt lat="42.5127617" lon="14.1403333"><ele>6.0</ele><time>2026-05-03T13:04:20.675Z</time></trkpt><trkpt lat="42.512715" lon="14.1404567"><ele>6.0</ele><time>2026-05-03T13:04:21.675Z</time></trkpt><trkpt lat="42.5126717" lon="14.14058"><ele>6.0</ele><time>2026-05-03T13:04:22.675Z</time></trkpt><trkpt lat="42.51262" lon="14.1406967"><ele>6.0</ele><time>2026-05-03T13:04:23.675Z</time></trkpt><trkpt lat="42.5125783" lon="14.1408167"><ele>6.0</ele><time>2026-05-03T13:04:24.675Z</time></trkpt><trkpt lat="42.51253" lon="14.1409283"><ele>6.0</ele><time>2026-05-03T13:04:25.674Z</time></trkpt><trkpt lat="42.51249" lon="14.1410417"><ele>6.0</ele><time>2026-05-03T13:04:26.675Z</time></trkpt><trkpt lat="42.5124517" lon="14.1411517"><ele>6.333333333333333</ele><time>2026-05-03T13:04:27.675Z</time></trkpt><trkpt lat="42.51242" lon="14.14125"><ele>6.666666666666666</ele><time>2026-05-03T13:04:28.674Z</time></trkpt><trkpt lat="42.51241" lon="14.141335"><ele>7.0</ele><time>2026-05-03T13:04:29.675Z</time></trkpt><trkpt lat="42.512435" lon="14.1414167"><ele>7.333333333333333</ele><time>2026-05-03T13:04:30.675Z</time></trkpt><trkpt lat="42.5124867" lon="14.1414767"><ele>7.666666666666666</ele><time>2026-05-03T13:04:31.674Z</time></trkpt><trkpt lat="42.51262" lon="14.1415067"><ele>8.0</ele><time>2026-05-03T13:04:33.674Z</time></trkpt><trkpt lat="42.5127083" lon="14.14148"><ele>8.0</ele><time>2026-05-03T13:04:34.675Z</time></trkpt><trkpt lat="42.51281" lon="14.1414617"><ele>8.0</ele><time>2026-05-03T13:04:35.675Z</time></trkpt><trkpt lat="42.512915" lon="14.1414467"><ele>8.0</ele><time>2026-05-03T13:04:36.674Z</time></trkpt><trkpt lat="42.51302" lon="14.1414417"><ele>8.0</ele><time>2026-05-03T13:04:37.675Z</time></trkpt><trkpt lat="42.5131467" lon="14.1414533"><ele>8.0</ele><time>2026-05-03T13:04:38.674Z</time></trkpt><trkpt lat="42.5132833" lon="14.141475"><ele>7.5</ele><time>2026-05-03T13:04:39.675Z</time></trkpt><trkpt lat="42.5134283" lon="14.1415183"><ele>7.0</ele><time>2026-05-03T13:04:40.674Z</time></trkpt><trkpt lat="42.51355" lon="14.1415867"><ele>6.5</ele><time>2026-05-03T13:04:41.674Z</time></trkpt><trkpt lat="42.5136633" lon="14.1416617"><ele>6.0</ele><time>2026-05-03T13:04:42.674Z</time></trkpt><trkpt lat="42.5137667" lon="14.1417383"><ele>5.5</ele><time>2026-05-03T13:04:43.675Z</time></trkpt><trkpt lat="42.5138633" lon="14.14182"><ele>5.0</ele><time>2026-05-03T13:04:44.675Z</time></trkpt><trkpt lat="42.5139467" lon="14.1418767"><ele>4.5</ele><time>2026-05-03T13:04:45.674Z</time></trkpt><trkpt lat="42.5140167" lon="14.1419183"><ele>4.0</ele><time>2026-05-03T13:04:46.675Z</time></trkpt><trkpt lat="42.5140817" lon="14.1419633"><ele>3.5</ele><time>2026-05-03T13:04:47.675Z</time></trkpt><trkpt lat="42.5141417" lon="14.142015"><ele>3.0</ele><time>2026-05-03T13:04:48.674Z</time></trkpt><trkpt lat="42.51419" lon="14.142075"><ele>3.0</ele><time>2026-05-03T13:04:49.674Z</time></trkpt><trkpt lat="42.51423" lon="14.1421517"><ele>3.0</ele><time>2026-05-03T13:04:50.674Z</time></trkpt><trkpt lat="42.5142583" lon="14.1422467"><ele>3.0</ele><time>2026-05-03T13:04:51.674Z</time></trkpt><trkpt lat="42.5142917" lon="14.142345"><ele>3.0</ele><time>2026-05-03T13:04:52.674Z</time></trkpt><trkpt lat="42.514335" lon="14.1424267"><ele>3.0</ele><time>2026-05-03T13:04:53.675Z</time></trkpt><trkpt lat="42.5143883" lon="14.14248"><ele>3.0</ele><time>2026-05-03T13:04:54.675Z</time></trkpt><trkpt lat="42.5145117" lon="14.14247"><ele>2.8</ele><time>2026-05-03T13:04:56.674Z</time></trkpt><trkpt lat="42.5145917" lon="14.1424417"><ele>2.5999999999999996</ele><time>2026-05-03T13:04:57.675Z</time></trkpt><trkpt lat="42.5146717" lon="14.1424283"><ele>2.4000000000000004</ele><time>2026-05-03T13:04:58.674Z</time></trkpt><trkpt lat="42.5147633" lon="14.1424483"><ele>2.2</ele><time>2026-05-03T13:04:59.675Z</time></trkpt><trkpt lat="42.51486" lon="14.14251"><ele>2.0</ele><time>2026-05-03T13:05:00.675Z</time></trkpt><trkpt lat="42.51496" lon="14.1425833"><ele>2.0</ele><time>2026-05-03T13:05:01.675Z</time></trkpt><trkpt lat="42.51505" lon="14.1426533"><ele>2.0</ele><time>2026-05-03T13:05:02.675Z</time></trkpt><trkpt lat="42.515135" lon="14.1427167"><ele>2.0</ele><time>2026-05-03T13:05:03.675Z</time></trkpt><trkpt lat="42.5152183" lon="14.1427783"><ele>2.0</ele><time>2026-05-03T13:05:04.675Z</time></trkpt><trkpt lat="42.51531" lon="14.14285"><ele>2.0</ele><time>2026-05-03T13:05:05.674Z</time></trkpt><trkpt lat="42.515415" lon="14.14293"><ele>2.25</ele><time>2026-05-03T13:05:06.674Z</time></trkpt><trkpt lat="42.5155217" lon="14.1430267"><ele>2.5</ele><time>2026-05-03T13:05:07.675Z</time></trkpt><trkpt lat="42.5156317" lon="14.1430983"><ele>2.75</ele><time>2026-05-03T13:05:08.674Z</time></trkpt><trkpt lat="42.51573" lon="14.1431633"><ele>3.0</ele><time>2026-05-03T13:05:09.674Z</time></trkpt><trkpt lat="42.5158317" lon="14.1432283"><ele>3.25</ele><time>2026-05-03T13:05:10.675Z</time></trkpt><trkpt lat="42.51594" lon="14.1433017"><ele>3.5</ele><time>2026-05-03T13:05:11.675Z</time></trkpt><trkpt lat="42.5160733" lon="14.14338"><ele>3.75</ele><time>2026-05-03T13:05:12.675Z</time></trkpt><trkpt lat="42.5162283" lon="14.1434867"><ele>4.0</ele><time>2026-05-03T13:05:13.675Z</time></trkpt><trkpt lat="42.5163967" lon="14.143605"><ele>4.0</ele><time>2026-05-03T13:05:14.674Z</time></trkpt><trkpt lat="42.5165767" lon="14.1437533"><ele>4.0</ele><time>2026-05-03T13:05:15.674Z</time></trkpt><trkpt lat="42.5167717" lon="14.14391"><ele>4.0</ele><time>2026-05-03T13:05:16.674Z</time></trkpt><trkpt lat="42.5169633" lon="14.1440533"><ele>3.6666666666666665</ele><time>2026-05-03T13:05:17.675Z</time></trkpt><trkpt lat="42.517135" lon="14.144185"><ele>3.333333333333333</ele><time>2026-05-03T13:05:18.675Z</time></trkpt><trkpt lat="42.5173" lon="14.1443"><ele>3.0</ele><time>2026-05-03T13:05:19.674Z</time></trkpt><trkpt lat="42.517445" lon="14.1444067"><ele>3.0</ele><time>2026-05-03T13:05:20.674Z</time></trkpt><trkpt lat="42.5175817" lon="14.1445083"><ele>3.0</ele><time>2026-05-03T13:05:21.675Z</time></trkpt><trkpt lat="42.51771" lon="14.1446067"><ele>3.0</ele><time>2026-05-03T13:05:22.675Z</time></trkpt><trkpt lat="42.51784" lon="14.1446983"><ele>3.0</ele><time>2026-05-03T13:05:23.675Z</time></trkpt><trkpt lat="42.51798" lon="14.14479"><ele>3.0</ele><time>2026-05-03T13:05:24.675Z</time></trkpt><trkpt lat="42.5181233" lon="14.1448867"><ele>3.0</ele><time>2026-05-03T13:05:25.675Z</time></trkpt><trkpt lat="42.5182667" lon="14.1449883"><ele>3.0</ele><time>2026-05-03T13:05:26.675Z</time></trkpt><trkpt lat="42.5184183" lon="14.14509"><ele>3.0</ele><time>2026-05-03T13:05:27.675Z</time></trkpt><trkpt lat="42.5185583" lon="14.145195"><ele>3.0</ele><time>2026-05-03T13:05:28.674Z</time></trkpt><trkpt lat="42.5186867" lon="14.1452933"><ele>3.0</ele><time>2026-05-03T13:05:29.675Z</time></trkpt><trkpt lat="42.51881" lon="14.1453867"><ele>3.0</ele><time>2026-05-03T13:05:30.675Z</time></trkpt><trkpt lat="42.518945" lon="14.1454733"><ele>3.0</ele><time>2026-05-03T13:05:31.675Z</time></trkpt><trkpt lat="42.519065" lon="14.145565"><ele>3.0</ele><time>2026-05-03T13:05:32.674Z</time></trkpt><trkpt lat="42.5191783" lon="14.14564"><ele>3.0</ele><time>2026-05-03T13:05:33.674Z</time></trkpt><trkpt lat="42.5192817" lon="14.145705"><ele>3.0</ele><time>2026-05-03T13:05:34.675Z</time></trkpt><trkpt lat="42.5193667" lon="14.1457667"><ele>3.0</ele><time>2026-05-03T13:05:35.674Z</time></trkpt><trkpt lat="42.5194367" lon="14.145835"><ele>3.0</ele><time>2026-05-03T13:05:36.675Z</time></trkpt><trkpt lat="42.5194933" lon="14.1459033"><ele>3.0</ele><time>2026-05-03T13:05:37.674Z</time></trkpt><trkpt lat="42.5195517" lon="14.1460217"><ele>3.5</ele><time>2026-05-03T13:05:39.673Z</time></trkpt><trkpt lat="42.51953" lon="14.1461833"><ele>4.0</ele><time>2026-05-03T13:05:41.674Z</time></trkpt><trkpt lat="42.5194617" lon="14.146285"><ele>4.5</ele><time>2026-05-03T13:05:42.673Z</time></trkpt><trkpt lat="42.5193717" lon="14.1464033"><ele>5.0</ele><time>2026-05-03T13:05:43.673Z</time></trkpt><trkpt lat="42.5192867" lon="14.1465067"><ele>4.666666666666667</ele><time>2026-05-03T13:05:44.674Z</time></trkpt><trkpt lat="42.5192183" lon="14.1466033"><ele>4.333333333333334</ele><time>2026-05-03T13:05:45.673Z</time></trkpt><trkpt lat="42.519155" lon="14.1466967"><ele>4.0</ele><time>2026-05-03T13:05:46.674Z</time></trkpt><trkpt lat="42.5191" lon="14.146775"><ele>3.666666666666667</ele><time>2026-05-03T13:05:47.673Z</time></trkpt><trkpt lat="42.5190683" lon="14.146865"><ele>3.3333333333333335</ele><time>2026-05-03T13:05:48.673Z</time></trkpt><trkpt lat="42.51906" lon="14.1469767"><ele>3.0</ele><time>2026-05-03T13:05:49.673Z</time></trkpt><trkpt lat="42.5190767" lon="14.1470817"><ele>3.0</ele><time>2026-05-03T13:05:50.673Z</time></trkpt><trkpt lat="42.51912" lon="14.147165"><ele>3.0</ele><time>2026-05-03T13:05:51.673Z</time></trkpt><trkpt lat="42.5191733" lon="14.147245"><ele>3.0</ele><time>2026-05-03T13:05:52.674Z</time></trkpt><trkpt lat="42.5192383" lon="14.1473233"><ele>3.0</ele><time>2026-05-03T13:05:53.674Z</time></trkpt><trkpt lat="42.5193367" lon="14.147395"><ele>3.0</ele><time>2026-05-03T13:05:54.674Z</time></trkpt><trkpt lat="42.5194467" lon="14.14748"><ele>3.0</ele><time>2026-05-03T13:05:55.674Z</time></trkpt><trkpt lat="42.5195667" lon="14.1475783"><ele>3.0</ele><time>2026-05-03T13:05:56.673Z</time></trkpt><trkpt lat="42.519685" lon="14.14773"><ele>3.0</ele><time>2026-05-03T13:05:57.674Z</time></trkpt><trkpt lat="42.5198017" lon="14.14788"><ele>2.6666666666666665</ele><time>2026-05-03T13:05:58.673Z</time></trkpt><trkpt lat="42.5198983" lon="14.148055"><ele>2.333333333333333</ele><time>2026-05-03T13:05:59.673Z</time></trkpt><trkpt lat="42.519985" lon="14.1482433"><ele>2.0</ele><time>2026-05-03T13:06:00.674Z</time></trkpt><trkpt lat="42.52007" lon="14.148445"><ele>2.0</ele><time>2026-05-03T13:06:01.674Z</time></trkpt><trkpt lat="42.5201667" lon="14.1486767"><ele>2.0</ele><time>2026-05-03T13:06:02.673Z</time></trkpt><trkpt lat="42.52025" lon="14.1489267"><ele>2.0</ele><time>2026-05-03T13:06:03.673Z</time></trkpt><trkpt lat="42.5203283" lon="14.149185"><ele>2.0</ele><time>2026-05-03T13:06:04.674Z</time></trkpt><trkpt lat="42.5204083" lon="14.1494217"><ele>2.0</ele><time>2026-05-03T13:06:05.673Z</time></trkpt><trkpt lat="42.5204767" lon="14.149645"><ele>2.0</ele><time>2026-05-03T13:06:06.674Z</time></trkpt><trkpt lat="42.52054" lon="14.1498567"><ele>2.333333333333333</ele><time>2026-05-03T13:06:07.674Z</time></trkpt><trkpt lat="42.520605" lon="14.1500617"><ele>2.6666666666666665</ele><time>2026-05-03T13:06:08.674Z</time></trkpt><trkpt lat="42.520675" lon="14.1502483"><ele>3.0</ele><time>2026-05-03T13:06:09.673Z</time></trkpt><trkpt lat="42.52074" lon="14.150435"><ele>3.0</ele><time>2026-05-03T13:06:10.674Z</time></trkpt><trkpt lat="42.5208083" lon="14.1506167"><ele>3.0</ele><time>2026-05-03T13:06:11.674Z</time></trkpt><trkpt lat="42.520865" lon="14.15077"><ele>3.0</ele><time>2026-05-03T13:06:12.674Z</time></trkpt><trkpt lat="42.5209167" lon="14.1509083"><ele>3.0</ele><time>2026-05-03T13:06:13.673Z</time></trkpt><trkpt lat="42.520955" lon="14.1510283"><ele>2.8333333333333335</ele><time>2026-05-03T13:06:14.673Z</time></trkpt><trkpt lat="42.520985" lon="14.151145"><ele>2.6666666666666665</ele><time>2026-05-03T13:06:15.673Z</time></trkpt><trkpt lat="42.5210183" lon="14.1512517"><ele>2.5</ele><time>2026-05-03T13:06:16.674Z</time></trkpt><trkpt lat="42.521055" lon="14.1513533"><ele>2.333333333333333</ele><time>2026-05-03T13:06:17.673Z</time></trkpt><trkpt lat="42.5210917" lon="14.151455"><ele>2.1666666666666665</ele><time>2026-05-03T13:06:18.674Z</time></trkpt><trkpt lat="42.5211233" lon="14.1515533"><ele>2.0</ele><time>2026-05-03T13:06:19.674Z</time></trkpt><trkpt lat="42.52116" lon="14.1516683"><ele>2.0</ele><time>2026-05-03T13:06:20.673Z</time></trkpt><trkpt lat="42.521195" lon="14.1517883"><ele>2.0</ele><time>2026-05-03T13:06:21.674Z</time></trkpt><trkpt lat="42.5212383" lon="14.1519083"><ele>2.0</ele><time>2026-05-03T13:06:22.673Z</time></trkpt><trkpt lat="42.5212883" lon="14.152055"><ele>2.0</ele><time>2026-05-03T13:06:23.673Z</time></trkpt><trkpt lat="42.52135" lon="14.152225"><ele>1.0</ele><time>2026-05-03T13:06:24.673Z</time></trkpt><trkpt lat="42.5214217" lon="14.1524217"><ele>0.0</ele><time>2026-05-03T13:06:25.673Z</time></trkpt><trkpt lat="42.521495" lon="14.1526283"><ele>-1.0</ele><time>2026-05-03T13:06:26.674Z</time></trkpt><trkpt lat="42.521565" lon="14.1528333"><ele>-1.0</ele><time>2026-05-03T13:06:27.674Z</time></trkpt><trkpt lat="42.5216283" lon="14.1530333"><ele>-1.0</ele><time>2026-05-03T13:06:28.673Z</time></trkpt><trkpt lat="42.5216817" lon="14.1532067"><ele>-1.0</ele><time>2026-05-03T13:06:29.674Z</time></trkpt><trkpt lat="42.52173" lon="14.153355"><ele>-1.0</ele><time>2026-05-03T13:06:30.674Z</time></trkpt><trkpt lat="42.5217717" lon="14.1534817"><ele>-0.8</ele><time>2026-05-03T13:06:31.673Z</time></trkpt><trkpt lat="42.5218117" lon="14.1535783"><ele>-0.6000000000000001</ele><time>2026-05-03T13:06:32.674Z</time></trkpt><trkpt lat="42.5218633" lon="14.15364"><ele>-0.4</ele><time>2026-05-03T13:06:33.673Z</time></trkpt><trkpt lat="42.521995" lon="14.1536133"><ele>-0.2</ele><time>2026-05-03T13:06:35.673Z</time></trkpt><trkpt lat="42.5220683" lon="14.1535383"><ele>0.0</ele><time>2026-05-03T13:06:36.674Z</time></trkpt><trkpt lat="42.522135" lon="14.1534733"><ele>0.3333333333333333</ele><time>2026-05-03T13:06:37.673Z</time></trkpt><trkpt lat="42.522195" lon="14.1534233"><ele>0.6666666666666666</ele><time>2026-05-03T13:06:38.673Z</time></trkpt><trkpt lat="42.5222883" lon="14.153345"><ele>1.0</ele><time>2026-05-03T13:06:40.674Z</time></trkpt><trkpt lat="42.52231" lon="14.15326"><ele>1.3333333333333333</ele><time>2026-05-03T13:06:42.674Z</time></trkpt><trkpt lat="42.522265" lon="14.1531733"><ele>1.6666666666666665</ele><time>2026-05-03T13:06:44.674Z</time></trkpt><trkpt lat="42.5221983" lon="14.15305"><ele>2.0</ele><time>2026-05-03T13:06:46.674Z</time></trkpt><trkpt lat="42.5221283" lon="14.152915"><ele>1.9999999999999998</ele><time>2026-05-03T13:06:48.674Z</time></trkpt><trkpt lat="42.522085" lon="14.1528133"><ele>2.0</ele><time>2026-05-03T13:06:50.673Z</time></trkpt><trkpt lat="42.5220483" lon="14.152715"><ele>2.0</ele><time>2026-05-03T13:06:53.673Z</time></trkpt><trkpt lat="42.52201" lon="14.1526417"><ele>2.0</ele><time>2026-05-03T13:06:55.673Z</time></trkpt><trkpt lat="42.521955" lon="14.152525"><ele>1.9999999999999998</ele><time>2026-05-03T13:06:58.673Z</time></trkpt><trkpt lat="42.5218983" lon="14.1524067"><ele>2.0</ele><time>2026-05-03T13:07:00.673Z</time></trkpt><trkpt lat="42.5218317" lon="14.1522667"><ele>1.6666666666666665</ele><time>2026-05-03T13:07:02.674Z</time></trkpt><trkpt lat="42.5217883" lon="14.1521183"><ele>1.3333333333333333</ele><time>2026-05-03T13:07:04.674Z</time></trkpt><trkpt lat="42.5218183" lon="14.152015"><ele>1.0</ele><time>2026-05-03T13:07:06.674Z</time></trkpt><trkpt lat="42.5218883" lon="14.1519833"><ele>0.6666666666666666</ele><time>2026-05-03T13:07:08.673Z</time></trkpt><trkpt lat="42.5219467" lon="14.1520517"><ele>0.3333333333333333</ele><time>2026-05-03T13:07:10.673Z</time></trkpt><trkpt lat="42.5219983" lon="14.152165"><ele>0.0</ele><time>2026-05-03T13:07:12.674Z</time></trkpt><trkpt lat="42.5220533" lon="14.1522767"><ele>0.3333333333333333</ele><time>2026-05-03T13:07:14.673Z</time></trkpt><trkpt lat="42.5220983" lon="14.1523717"><ele>0.6666666666666666</ele><time>2026-05-03T13:07:16.674Z</time></trkpt><trkpt lat="42.5221483" lon="14.1524783"><ele>1.0</ele><time>2026-05-03T13:07:19.674Z</time></trkpt><trkpt lat="42.52218" lon="14.152575"><ele>1.3333333333333333</ele><time>2026-05-03T13:07:22.673Z</time></trkpt><trkpt lat="42.5222033" lon="14.15267"><ele>1.6666666666666665</ele><time>2026-05-03T13:07:25.674Z</time></trkpt><trkpt lat="42.52225" lon="14.1526083"><ele>2.0</ele><time>2026-05-03T13:07:38.673Z</time></trkpt><trkpt lat="42.5223267" lon="14.152535"><ele>2.0</ele><time>2026-05-03T13:07:41.673Z</time></trkpt><trkpt lat="42.5223867" lon="14.1524933"><ele>1.9999999999999998</ele><time>2026-05-03T13:07:43.673Z</time></trkpt><trkpt lat="42.5224467" lon="14.1524433"><ele>2.0</ele><time>2026-05-03T13:07:45.673Z</time></trkpt><trkpt lat="42.5225033" lon="14.1523867"><ele>2.0</ele><time>2026-05-03T13:07:47.673Z</time></trkpt><trkpt lat="42.52255" lon="14.1523283"><ele>1.9999999999999998</ele><time>2026-05-03T13:07:50.674Z</time></trkpt><trkpt lat="42.522475" lon="14.15238"><ele>2.0</ele><time>2026-05-03T13:08:01.674Z</time></trkpt><trkpt lat="42.5224017" lon="14.1524517"><ele>2.0</ele><time>2026-05-03T13:08:18.673Z</time></trkpt><trkpt lat="42.5223733" lon="14.15253"><ele>2.0</ele><time>2026-05-03T13:08:23.672Z</time></trkpt><trkpt lat="42.52231" lon="14.152605"><ele>2.0</ele><time>2026-05-03T13:08:34.672Z</time></trkpt></trkseg></trk></gpx>